# Wetter Temperatur Luftdruck Luftfeuchtigkeit Sichtweite Windgeschwindigkeit Windrichtung Zeit
1 Rain 31 1013 59 16093 4.1 270 20:20 17.10.2019
2 -273 0 0 0 0 0 20:19 17.10.2019
3 Rain 31 1013 59 16093 4.1 270 20:19 17.10.2019
4 Rain 31 1013 59 16093 4.1 270 20:19 17.10.2019
5 Clouds 31 1013 59 16093 4.1 270 19:59 17.10.2019
6 Clouds 31 1013 55 16093 2.1 270 19:40 17.10.2019
7 Clouds 32 1013 55 16093 2.1 270 19:20 17.10.2019
8 Clouds 31 1013 55 16093 2.1 270 18:58 17.10.2019
9 Clouds 32 1014 62 16093 3.1 240 18:38 17.10.2019
10 Clouds 31 1014 62 16093 3.1 240 18:20 17.10.2019
11 Clouds 31 1014 66 16093 3.6 260 17:42 17.10.2019
12 Clouds 30 1014 62 16093 2.6 300 17:23 17.10.2019
13 Clouds 30 1015 62 16093 3.6 270 16:57 17.10.2019
14 Clouds 29 1015 79 16093 3.1 270 16:39 17.10.2019
15 Clouds 29 1015 74 16093 4.1 260 16:18 17.10.2019
16 Clouds 28 1015 74 16093 4.1 260 15:56 17.10.2019
17 Clear 28 1014 88 16093 2.1 230 15:38 17.10.2019
18 Clear 27 1014 88 16093 2.1 230 15:20 17.10.2019
19 Rain 27 1014 78 16093 3.1 230 14:55 17.10.2019
20 Rain 26 1014 83 16093 2.1 220 14:37 17.10.2019
21 Rain 26 1014 83 16093 1.5 200 14:18 17.10.2019
22 Clouds 25 1013 83 16093 4.171 273 13:39 17.10.2019
23 Clouds 25 1013 83 16093 4.171 273 13:20 17.10.2019
24 Clouds 25 1013 83 16093 4.171 273 12:55 17.10.2019
25 Clear 25 1013 83 16093 1.5 240 12:37 17.10.2019
26 Clear 25 1013 83 16093 1.5 240 12:18 17.10.2019
27 Clear 25 1013 83 16093 1.5 240 12:18 17.10.2019
28 Clear 25 1013 83 16093 2.1 240 11:41 17.10.2019
29 Clear 25 1013 83 16093 2.1 240 11:41 17.10.2019
30 Clear 25 1013 83 16093 2.1 240 11:22 17.10.2019
31 Clear 25 1013 83 16093 2.1 240 10:59 17.10.2019
32 Clear 25 1013 83 16093 1.5 280 10:41 17.10.2019
33 Clear 25 1013 83 16093 1.5 280 10:19 17.10.2019
34 Clear 25 1013 83 16093 1.5 280 09:56 17.10.2019
35 Clear 25 1013 83 16093 2.1 270 09:37 17.10.2019
36 Clear 25 1013 83 16093 2.1 270 09:19 17.10.2019
37 Clear 25 1013 88 16093 1.5 290 08:48 17.10.2019
38 Clear 25 1013 88 16093 1.5 290 08:27 17.10.2019
39 Clear 26 1013 88 16093 2.6 270 07:59 17.10.2019
40 Clear 26 1013 78 16093 2.6 270 07:41 17.10.2019
41 Clear 26 1013 78 16093 2.6 270 07:20 17.10.2019
42 Clear 26 1014 78 16093 3.1 270 06:43 17.10.2019
43 Clear 26 1014 78 16093 3.1 270 06:24 17.10.2019
44 Clear 27 1014 78 16093 3.1 270 05:59 17.10.2019
45 Clear 27 1014 74 16093 3.1 260 05:35 17.10.2019
46 Clear 27 1014 74 16093 3.1 260 04:58 17.10.2019
47 Clouds 27 1014 74 16093 3.6 250 04:31 17.10.2019
48 Clear 28 1013 70 16093 3.6 260 03:45 17.10.2019
49 Clouds 29 1013 66 16093 5.1 260 01:56 17.10.2019
50 Clouds 29 1013 66 16093 5.1 260 01:56 17.10.2019
51 Clouds 31 1012 52 16093 6.7 240 00:42 17.10.2019
52 Clouds 31 1012 52 16093 6.7 240 00:20 17.10.2019
53 Clouds 32 1012 52 16093 6.7 240 23:58 16.10.2019
54 Clouds 32 1012 52 16093 6.2 240 23:39 16.10.2019
55 Clouds 32 1012 52 16093 6.2 240 23:18 16.10.2019
56 Clouds 32 1012 52 16093 6.2 240 22:54 16.10.2019
57 Clouds 32 1012 49 16093 5.7 240 22:36 16.10.2019
58 Clouds 32 1012 49 16093 5.7 240 22:18 16.10.2019
59 Clouds 32 1012 49 16093 5.7 240 21:54 16.10.2019
60 Clouds 32 1013 49 16093 4.1 250 21:36 16.10.2019
61 Clouds 32 1013 49 16093 4.1 250 21:18 16.10.2019
62 Clouds 32 1013 49 16093 4.1 250 20:54 16.10.2019
63 Clouds 32 1013 62 16093 3.1 160 20:36 16.10.2019
64 Clouds 32 1013 62 16093 3.1 160 20:18 16.10.2019
65 Clouds 31 1014 66 16093 4.6 160 19:40 16.10.2019
66 Clouds 32 1014 66 16093 5.7 150 19:21 16.10.2019
67 Clouds 32 1014 66 16093 5.7 150 18:57 16.10.2019
68 Clouds 31 1015 62 16093 2.6 170 18:37 16.10.2019
69 Clouds 31 1015 62 16093 2.6 170 18:18 16.10.2019
70 Clouds 31 1015 62 16093 2.6 170 17:55 16.10.2019
71 Clouds 30 1015 70 16093 3.6 180 17:36 16.10.2019
72 Clouds 30 1015 70 16093 3.6 180 17:18 16.10.2019
73 Clouds 30 1015 70 16093 3.6 180 16:55 16.10.2019
74 Clouds 29 1016 70 16093 2.1 0 16:37 16.10.2019
75 Clouds 29 1016 70 16093 2.1 0 16:18 16.10.2019
76 Clouds 28 1015 74 16093 2.6 160 15:40 16.10.2019
77 Clouds 28 1015 74 16093 2.6 160 15:40 16.10.2019
78 Clouds 27 1015 78 16093 3.6 180 15:19 16.10.2019
79 Clear 27 1016 74 16093 5.004 180 15:19 16.10.2019
80 Clouds 26 1015 83 16093 2.1 170 14:58 16.10.2019
81 Clouds 26 1015 83 16093 2.1 170 14:58 16.10.2019
82 Clouds 26 1015 83 16093 2.1 170 14:40 16.10.2019
83 Clouds 25 1015 83 16093 2.1 170 14:21 16.10.2019
84 Clouds 24 1015 83 16093 2.1 170 13:57 16.10.2019
85 Clouds 24 1015 78 16093 4.331 190 13:39 16.10.2019
86 Clouds 24 1015 78 16093 4.331 190 13:21 16.10.2019
87 Clouds 24 1014 78 16093 4.331 190 12:42 16.10.2019
88 -273 0 0 0 0 0 12:20 16.10.2019
89 -273 0 0 0 0 0 11:55 16.10.2019
90 Clouds 24 1014 78 16093 4.129 173 11:37 16.10.2019
91 Clouds 24 1014 78 16093 4.129 173 11:18 16.10.2019
92 Clouds 24 1014 83 16093 1.5 130 10:36 16.10.2019
93 Clouds 24 1014 83 16093 1.5 130 10:18 16.10.2019
94 Clouds 24 1015 78 16093 4.507 159 09:40 16.10.2019
95 Clouds 25 1015 78 16093 4.451 134 09:22 16.10.2019
96 Clouds 25 1015 78 16093 4.451 134 08:57 16.10.2019
97 Clouds 25 1015 74 16093 4.451 134 08:39 16.10.2019
98 -273 0 0 0 0 0 08:39 16.10.2019
99 Clouds 25 1015 78 16093 1.5 120 08:20 16.10.2019
100 Clouds 25 1015 78 16093 2.1 120 07:43 16.10.2019
101 Clouds 25 1015 78 16093 2.1 120 07:24 16.10.2019
102 Clouds 26 1015 78 16093 2.1 120 06:55 16.10.2019
103 Clouds 26 1016 74 16093 3.1 130 06:31 16.10.2019
104 Clouds 26 1016 69 16093 3.1 110 05:22 16.10.2019
105 Clouds 27 1016 69 16093 3.1 110 02:53 16.10.2019
106 Clouds 27 1015 65 16093 5.1 110 01:38 16.10.2019
107 Clouds 27 1015 65 16093 5.1 110 01:18 16.10.2019
108 Clouds 28 1015 69 16093 5.1 140 00:42 16.10.2019
109 Clouds 28 1015 62 16093 4.6 110 23:59 15.10.2019
110 Clouds 29 1015 66 16093 6.2 80 23:39 15.10.2019
111 Clouds 29 1015 62 16093 4.1 140 23:21 15.10.2019
112 Clouds 29 1015 62 16093 4.1 140 23:21 15.10.2019
113 Clouds 29 1015 62 16093 4.1 140 22:55 15.10.2019
114 Clouds 29 1015 62 16093 4.1 140 22:55 15.10.2019
115 Clouds 30 1015 66 16093 3.6 100 22:37 15.10.2019
116 Clouds 30 1015 58 16093 4.1 150 22:19 15.10.2019
117 Clouds 30 1015 58 16093 4.1 150 21:55 15.10.2019
118 Clouds 30 1015 52 16093 5.1 130 21:37 15.10.2019
119 Clouds 30 1015 52 16093 5.1 130 21:19 15.10.2019
120 Clouds 30 1015 52 16093 5.1 130 20:56 15.10.2019
121 Clouds 30 1016 55 16093 5.1 120 20:38 15.10.2019
122 Clouds 30 1016 55 16093 5.1 120 20:19 15.10.2019
123 Clouds 30 1016 55 16093 5.1 120 19:56 15.10.2019
124 Clouds 30 1016 55 16093 5.1 120 19:56 15.10.2019
125 Clouds 30 1017 66 16093 5.7 60 19:37 15.10.2019
126 Clouds 30 1017 66 16093 4.6 80 19:19 15.10.2019
127 Clouds 30 1017 70 16093 3.1 90 18:44 15.10.2019
128 Clouds 29 1018 66 16093 5.7 90 18:26 15.10.2019
129 Clouds 29 1018 55 16093 3.6 120 17:57 15.10.2019
130 Clouds 29 1018 65 16093 5.7 90 17:38 15.10.2019
131 Clouds 29 1018 62 16093 2.6 130 17:19 15.10.2019
132 Clouds 28 1019 62 16093 4.1 90 16:46 15.10.2019
133 Clouds 28 1018 65 16093 3.1 80 16:23 15.10.2019
134 Clouds 27 1018 61 16093 3.1 80 15:59 15.10.2019
135 Clouds 27 1017 65 16093 1.5 60 15:41 15.10.2019
136 Clouds 27 1017 65 16093 1.5 60 15:41 15.10.2019
137 Clouds 27 1017 65 16093 1.5 60 15:20 15.10.2019
138 Clouds 26 1017 65 16093 1.5 60 14:57 15.10.2019
139 Clouds 25 1018 78 16093 4.019 75 14:38 15.10.2019
140 Clouds 24 1018 78 16093 4.019 75 14:19 15.10.2019
141 Clouds 23 1017 78 16093 4.019 75 13:44 15.10.2019
142 Clouds 23 1017 78 16093 4.019 75 13:21 15.10.2019
143 Clouds 23 1017 78 16093 4.019 75 12:59 15.10.2019
144 Clouds 23 1017 74 16093 1.5 360 12:41 15.10.2019
145 Clear 23 1017 88 16093 4.396 67 12:21 15.10.2019
146 Clouds 24 1017 74 16093 1.5 360 11:56 15.10.2019
147 Clouds 24 1017 78 16093 4.396 67 11:37 15.10.2019
148 Clouds 24 1017 78 16093 4.396 67 11:18 15.10.2019
149 Clouds 24 1017 73 16093 4.396 67 10:43 15.10.2019
150 Clouds 24 1017 73 16093 2.38 68.848 10:19 15.10.2019
151 Clouds 24 1017 73 16093 2.38 68.848 09:57 15.10.2019
152 Clouds 24 1017 69 16093 2.38 68.848 09:37 15.10.2019
153 Clouds 24 1017 69 16093 2.38 68.848 09:37 15.10.2019
154 Clouds 25 1017 69 16093 3.05 91.918 09:19 15.10.2019
155 Clouds 25 1018 74 16093 3.17 92.494 08:43 15.10.2019
156 Clouds 25 1018 74 16093 3.17 92.494 08:22 15.10.2019
157 Clouds 25 1018 74 16093 3.17 92.494 07:58 15.10.2019
158 Clouds 25 1018 69 16093 2.6 80 07:39 15.10.2019
159 Clouds 25 1018 69 16093 2.6 80 07:19 15.10.2019
160 Clouds 26 1018 69 16093 4.1 90 06:44 15.10.2019
161 Clouds 26 1018 69 16093 4.1 90 06:26 15.10.2019
162 Clouds 26 1019 65 16093 4.6 80 05:41 15.10.2019
163 Clouds 26 1019 65 16093 4.6 80 05:23 15.10.2019
164 Clouds 26 1018 65 16093 5.7 80 04:32 15.10.2019
165 Clouds 26 1017 65 16093 4.6 70 03:37 15.10.2019
166 Clouds 27 1017 61 16093 5.1 90 02:29 15.10.2019
167 Clouds 27 1017 61 16093 5.1 100 01:48 15.10.2019
168 Clouds 27 1017 61 16093 5.1 100 01:19 15.10.2019
169 Clouds 28 1016 69 16093 6.7 110 00:49 15.10.2019
170 Clouds 28 1016 62 16093 6.2 110 00:21 15.10.2019
171 Clouds 29 1016 62 16093 6.2 100 23:44 14.10.2019
172 Clouds 29 1016 62 16093 6.2 100 23:20 14.10.2019
173 Clouds 29 1016 62 16093 6.2 100 22:57 14.10.2019
174 Clouds 29 1016 70 16093 4.6 90 22:38 14.10.2019
175 Clouds 29 1016 70 16093 4.6 70 22:18 14.10.2019
176 Clouds 29 1016 70 16093 4.6 70 22:18 14.10.2019
177 Clouds 30 1016 58 16093 6.2 110 21:55 14.10.2019
178 Clouds 30 1016 58 16093 5.1 110 21:36 14.10.2019
179 Clouds 30 1016 58 16093 5.1 110 21:18 14.10.2019
180 -273 0 0 0 0 0 20:54 14.10.2019
181 Rain 30 1017 62 16093 5.1 120 20:36 14.10.2019
182 Rain 30 1017 62 16093 5.1 120 20:18 14.10.2019
183 Clouds 30 1017 70 16093 4.6 90 19:41 14.10.2019
184 Clouds 30 1017 70 16093 5.1 80 19:23 14.10.2019
185 Clouds 30 1017 58 16093 3.6 80 18:58 14.10.2019
186 Clouds 30 1018 55 16093 4.1 90 18:39 14.10.2019
187 Clouds 30 1018 55 16093 4.1 90 18:19 14.10.2019
188 Clouds 30 1018 55 16093 4.1 90 17:57 14.10.2019
189 Clouds 30 1018 58 16093 4.6 90 17:38 14.10.2019
190 Clouds 30 1018 58 16093 4.6 90 17:38 14.10.2019
191 Clouds 30 1018 58 16093 4.6 90 17:19 14.10.2019
192 Clouds 29 1018 62 16093 5.1 90 16:43 14.10.2019
193 Clouds 29 1018 62 16093 5.1 90 16:21 14.10.2019
194 Clouds 28 1018 78 16093 2.6 80 15:43 14.10.2019
195 Clouds 28 1017 69 16093 2.1 0 15:24 14.10.2019
196 Haze 27 1017 69 16093 2.1 0 14:57 14.10.2019
197 Clouds 26 1017 78 16093 1.5 30 14:39 14.10.2019
198 Clouds 25 1017 78 16093 1.5 30 14:20 14.10.2019
199 Clouds 24 1017 78 16093 2.1 360 13:44 14.10.2019
200 Clouds 24 1017 78 16093 2.1 360 13:21 14.10.2019
201 Clouds 24 1017 78 16093 2.1 360 12:55 14.10.2019
202 Clouds 24 1016 74 16093 2.06 84.337 12:37 14.10.2019
203 Clouds 24 1016 74 16093 2.04 103.245 12:18 14.10.2019
204 Clouds 25 1016 78 16093 2.1 80 11:44 14.10.2019
205 Clouds 25 1016 78 16093 2.1 80 11:26 14.10.2019
206 Clouds 25 1016 78 16093 2.1 80 10:57 14.10.2019
207 Clouds 25 1016 78 16093 2.6 90 10:38 14.10.2019
208 Clouds 25 1016 78 16093 2.6 90 10:19 14.10.2019
209 Clouds 25 1016 69 16093 3.6 110 09:42 14.10.2019
210 Clouds 25 1016 69 16093 3.6 110 09:21 14.10.2019
211 Rain 25 1017 69 16093 2.6 90 08:51 14.10.2019
212 Rain 25 1017 69 16093 2.6 90 08:23 14.10.2019
213 Clouds 26 1017 69 16093 2.6 90 07:59 14.10.2019
214 Clouds 26 1017 74 16093 2.1 100 07:39 14.10.2019
215 Clouds 26 1017 74 16093 2.1 100 07:18 14.10.2019
216 Clouds 26 1017 69 16093 3.6 110 06:36 14.10.2019
217 Clouds 26 1017 69 16093 3.6 110 06:18 14.10.2019
218 Clouds 26 1017 74 16093 4.1 90 05:42 14.10.2019
219 Clouds 27 1017 69 16093 5.1 90 04:42 14.10.2019
220 Clouds 27 1016 78 16093 4.1 80 03:27 14.10.2019
221 Rain 27 1016 69 16093 6.2 90 02:36 14.10.2019
222 Rain 27 1015 88 16093 4.79 97.31 01:22 14.10.2019
223 Rain 27 1015 78 16093 6.2 100 00:45 14.10.2019
224 Rain 27 1016 66 16093 5.7 100 00:19 14.10.2019
225 Rain 28 1015 58 16093 5.1 90 23:44 13.10.2019
226 Clouds 29 1015 58 16093 5.1 90 23:20 13.10.2019
227 Clouds 29 1015 58 16093 5.1 90 22:58 13.10.2019
228 Clouds 29 1015 58 16093 5.1 100 22:40 13.10.2019
229 Clouds 29 1015 58 16093 5.1 100 22:21 13.10.2019
230 Clouds 30 1015 58 16093 5.1 100 21:58 13.10.2019
231 Clouds 30 1015 55 16093 5.1 120 21:37 13.10.2019
232 Clouds 30 1015 55 16093 5.1 120 21:37 13.10.2019
233 Clouds 30 1015 55 16093 5.1 120 21:18 13.10.2019
234 Clouds 30 1015 55 16093 5.1 120 21:18 13.10.2019
235 Clouds 30 1015 55 16093 5.1 120 20:57 13.10.2019
236 -273 0 0 0 0 0 20:57 13.10.2019
237 Clouds 30 1015 55 16093 5.1 120 20:57 13.10.2019
238 Clouds 30 1016 55 16093 6.2 110 20:38 13.10.2019
239 Clouds 30 1016 55 16093 6.2 110 20:19 13.10.2019
240 Clouds 30 1016 55 16093 6.2 110 19:57 13.10.2019
241 Clouds 30 1017 58 16093 5.7 100 19:39 13.10.2019
242 Clouds 30 1017 58 16093 6.7 90 19:21 13.10.2019
243 Rain 29 1017 58 16093 6.7 90 18:56 13.10.2019
244 Rain 29 1017 62 16093 4.1 100 18:36 13.10.2019
245 Rain 29 1017 62 16093 4.1 100 18:18 13.10.2019
246 Clouds 29 1017 62 16093 4.1 100 17:57 13.10.2019
247 Clouds 29 1017 62 16093 5.7 120 17:38 13.10.2019
248 Clouds 29 1017 62 16093 5.7 120 17:20 13.10.2019
249 Clouds 29 1016 65 16093 6.2 120 16:41 13.10.2019
250 Clouds 28 1016 65 16093 6.2 120 16:18 13.10.2019
251 Clouds 28 1016 65 16093 6.2 120 15:57 13.10.2019
252 Clouds 28 1016 65 16093 5.1 100 15:38 13.10.2019
253 Clouds 28 1016 65 16093 5.1 100 15:18 13.10.2019
254 Clouds 27 1016 65 16093 5.1 100 14:57 13.10.2019
255 Clouds 27 1016 69 16093 4.6 110 14:38 13.10.2019
256 Clouds 27 1016 74 16093 3.6 100 14:19 13.10.2019
257 Clouds 26 1015 78 16093 3.1 80 13:41 13.10.2019
258 Clouds 26 1015 78 16093 3.1 80 13:23 13.10.2019
259 Rain 26 1015 78 16093 3.1 80 12:59 13.10.2019
260 Rain 26 1015 88 16093 2.1 70 12:39 13.10.2019
261 Rain 26 1015 78 16093 3.1 70 12:20 13.10.2019
262 Rain 26 1015 78 16093 3.1 70 11:58 13.10.2019
263 Rain 26 1015 88 16093 3.6 50 11:39 13.10.2019
264 Rain 26 1015 78 11265 3.6 70 11:20 13.10.2019
265 Rain 26 1015 78 11265 3.6 70 10:56 13.10.2019
266 Clouds 26 1015 74 16093 5.1 90 10:38 13.10.2019
267 Clouds 26 1015 74 16093 5.1 90 10:20 13.10.2019
268 Clouds 26 1015 69 16093 4.1 80 09:39 13.10.2019
269 Clouds 26 1015 69 16093 4.1 80 09:21 13.10.2019
270 Drizzle 26 1015 83 16093 4.1 60 08:44 13.10.2019
271 Rain 26 1015 94 16093 4.1 70 08:25 13.10.2019
272 Rain 26 1016 83 16093 5.7 90 07:52 13.10.2019
273 Rain 26 1016 83 14484 8.2 90 07:33 13.10.2019
274 Rain 26 1015 74 16093 6.7 70 06:53 13.10.2019
275 Rain 26 1017 69 16093 6.7 70 06:24 13.10.2019
276 Rain 26 1017 69 16093 6.7 70 06:24 13.10.2019
277 Rain 26 1016 78 16093 3.6 60 05:21 13.10.2019
278 Clouds 26 1016 74 16093 5.7 50 04:34 13.10.2019
279 Thunderstorm 27 1016 69 16093 6.7 50 03:24 13.10.2019
280 Clouds 27 1015 69 16093 4.6 50 02:31 13.10.2019
281 Clouds 27 1015 69 16093 4.6 50 02:31 13.10.2019
282 Clouds 27 1015 69 16093 6.2 70 01:37 13.10.2019
283 Clouds 27 1015 65 16093 5.7 60 00:56 13.10.2019
284 Clouds 27 1015 65 16093 5.7 60 00:56 13.10.2019
285 Clouds 27 1015 65 16093 4.1 60 00:38 13.10.2019
286 Clouds 28 1015 65 16093 4.1 60 00:19 13.10.2019
287 Clouds 28 1014 58 16093 6.7 70 23:42 12.10.2019
288 Clouds 28 1014 58 16093 6.7 70 23:42 12.10.2019
289 Clouds 28 1014 58 16093 6.7 70 23:23 12.10.2019
290 Clouds 28 1014 58 16093 6.7 70 22:59 12.10.2019
291 Clouds 28 1014 74 16093 6.7 60 22:40 12.10.2019
292 Clouds 28 1014 74 16093 6.7 60 22:22 12.10.2019
293 Rain 28 1014 65 16093 5.1 50 21:58 12.10.2019
294 Rain 28 1014 65 16093 5.1 50 21:58 12.10.2019
295 Thunderstorm 28 1014 69 16093 3.6 40 21:39 12.10.2019
296 Thunderstorm 28 1014 69 16093 3.6 40 21:21 12.10.2019
297 Clouds 29 1014 69 16093 3.6 40 20:54 12.10.2019
298 Clouds 29 1014 69 16093 3.6 40 20:54 12.10.2019
299 Clouds 29 1014 74 16093 7.7 50 20:36 12.10.2019
300 Clouds 29 1014 74 16093 7.7 50 20:18 12.10.2019
301 Clouds 29 1015 66 16093 5.1 40 19:36 12.10.2019
302 Rain 28 1014 83 14484 6.7 50 19:18 12.10.2019
303 Clouds 29 1016 62 16093 6.7 60 18:43 12.10.2019
304 Clouds 29 1016 62 16093 6.7 60 18:24 12.10.2019
305 Rain 28 1016 69 16093 5.7 70 17:46 12.10.2019
306 Rain 28 1015 74 12874 5.1 60 17:22 12.10.2019
307 Rain 28 1015 74 12874 5.1 60 16:59 12.10.2019
308 Clouds 28 1015 69 16093 4.6 60 16:40 12.10.2019
309 Clouds 28 1015 78 16093 5.7 70 16:21 12.10.2019
310 Clouds 27 1015 65 16093 6.7 60 15:56 12.10.2019
311 Clouds 27 1014 83 16093 2.6 60 15:37 12.10.2019
312 Clouds 27 1014 83 16093 2.6 60 15:18 12.10.2019
313 Clouds 26 1014 69 16093 3.1 50 14:40 12.10.2019
314 Clouds 26 1014 69 16093 3.1 50 14:20 12.10.2019
315 Rain 26 1014 88 16093 6.2 50 13:51 12.10.2019
316 Rain 25 1014 69 16093 4.1 60 13:32 12.10.2019
317 Clouds 25 1014 69 16093 4.1 60 12:56 12.10.2019
318 Clouds 25 1014 74 16093 2.6 30 12:38 12.10.2019
319 Clouds 25 1014 74 16093 2.6 30 12:38 12.10.2019
320 Clouds 25 1014 74 16093 2.6 30 12:20 12.10.2019
321 Rain 25 1013 78 16093 5.1 50 11:45 12.10.2019
322 -273 0 0 0 0 0 11:24 12.10.2019
323 Rain 25 1014 78 16093 3.6 20 10:58 12.10.2019
324 Rain 25 1014 78 16093 2.6 70 10:39 12.10.2019
325 Rain 25 1014 78 16093 2.6 70 10:20 12.10.2019
326 Rain 25 1014 78 16093 2.6 70 10:20 12.10.2019
327 Rain 25 1014 78 16093 2.6 70 09:57 12.10.2019
328 Rain 25 1014 78 16093 2.6 70 09:57 12.10.2019
329 Rain 25 1014 78 16093 7.7 110 09:37 12.10.2019
330 Rain 25 1014 78 16093 7.7 110 09:19 12.10.2019
331 Rain 25 1014 78 16093 7.7 110 09:19 12.10.2019
332 Rain 26 1014 74 16093 5.7 60 08:44 12.10.2019
333 Rain 26 1015 69 16093 5.1 60 08:24 12.10.2019
334 Rain 26 1014 83 16093 4.6 70 07:50 12.10.2019
335 Rain 26 1015 69 16093 4.1 60 07:30 12.10.2019
336 Rain 26 1015 74 16093 4.1 60 06:27 12.10.2019
337 Rain 26 1016 78 16093 4.1 60 05:42 12.10.2019
338 Clouds 25 1015 88 16093 3.6 50 04:34 12.10.2019
339 Rain 25 1015 78 16093 4.1 50 03:53 12.10.2019
340 Rain 25 1015 78 16093 5.1 50 02:45 12.10.2019
341 Rain 25 1014 94 8047 1.5 350 01:32 12.10.2019
342 Rain 25 1014 88 2012 2.6 60 00:55 12.10.2019
343 Rain 25 1014 88 2012 2.6 60 00:55 12.10.2019
344 Rain 25 1014 94 4023 3.1 10 00:37 12.10.2019
345 Rain 25 1014 88 4828 2.1 350 23:55 11.10.2019
346 Rain 25 1014 100 4828 2.6 0 23:36 11.10.2019
347 Rain 25 1014 88 16093 5.7 330 23:18 11.10.2019
348 Rain 25 1014 94 16093 4.6 350 22:37 11.10.2019
349 Rain 26 1014 94 2414 5.1 10 22:19 11.10.2019
350 Rain 27 1014 94 1609 4.1 350 21:42 11.10.2019
351 Rain 29 1014 83 16093 6.7 350 21:21 11.10.2019
352 Rain 29 1014 83 16093 6.7 350 21:21 11.10.2019
353 Rain 30 1013 55 16093 5.7 110 20:57 11.10.2019
354 Rain 30 1014 83 14484 4.1 360 20:38 11.10.2019
355 Rain 30 1014 62 16093 4.6 110 20:20 11.10.2019
356 Rain 30 1014 62 16093 4.6 110 20:20 11.10.2019
357 Rain 30 1014 62 16093 4.6 110 19:55 11.10.2019
358 Rain 30 1014 62 16093 4.6 40 19:37 11.10.2019
359 Clouds 30 1014 62 16093 4.6 40 19:18 11.10.2019
360 Clouds 30 1014 62 16093 4.6 40 19:18 11.10.2019
361 Clouds 30 1014 62 16093 4.6 40 19:18 11.10.2019
362 Clouds 30 1014 62 16093 4.6 40 19:18 11.10.2019
363 Clouds 30 1014 62 16093 4.6 40 19:18 11.10.2019
364 Clouds 30 1015 55 16093 5.1 80 18:56 11.10.2019
365 Clouds 30 1015 55 16093 5.1 80 18:37 11.10.2019
366 Clouds 30 1015 55 16093 5.1 80 18:18 11.10.2019
367 Clouds 30 1015 55 16093 5.1 80 17:55 11.10.2019
368 Clouds 29 1015 58 16093 5.1 80 17:36 11.10.2019
369 Clouds 29 1015 58 16093 5.1 80 17:18 11.10.2019
370 Clouds 29 1015 69 16093 6.2 70 16:40 11.10.2019
371 Clouds 29 1015 66 16093 5.7 70 16:20 11.10.2019
372 Rain 28 1015 62 16093 5.7 80 15:58 11.10.2019
373 Rain 28 1014 69 16093 4.6 70 15:38 11.10.2019
374 Rain 28 1014 69 16093 4.6 70 15:18 11.10.2019
375 Rain 27 1014 83 16093 2.6 350 14:46 11.10.2019
376 Rain 26 1014 74 16093 2.1 20 14:28 11.10.2019
377 Rain 26 1014 83 14484 3.1 40 13:56 11.10.2019
378 Rain 25 1014 83 14484 3.1 40 13:37 11.10.2019
379 Clouds 25 1013 74 16093 2.6 40 13:18 11.10.2019
380 Clouds 25 1013 78 16093 2.1 30 12:42 11.10.2019
381 Rain 25 1013 78 16093 2.1 30 12:22 11.10.2019
382 Rain 25 1013 78 16093 2.1 30 12:00 11.10.2019
383 Rain 26 1012 83 16093 2.1 20 11:40 11.10.2019
384 Rain 26 1012 83 16093 2.1 20 11:21 11.10.2019
385 Rain 26 1012 83 16093 2.1 20 10:56 11.10.2019
386 Clouds 26 1012 78 16093 2.1 20 10:38 11.10.2019
387 Clouds 26 1012 78 16093 2.1 20 10:20 11.10.2019
388 Clouds 26 1012 78 16093 2.1 20 10:20 11.10.2019
389 Rain 26 1012 78 16093 2.1 20 09:55 11.10.2019
390 Clouds 26 1013 83 16093 2.1 10 09:37 11.10.2019
391 Clouds 25 1013 83 16093 2.1 10 09:18 11.10.2019
392 Clouds 26 1013 83 16093 2.6 360 08:40 11.10.2019
393 Clouds 26 1013 83 16093 2.6 360 08:21 11.10.2019
394 Clouds 26 1013 83 16093 2.6 360 07:59 11.10.2019
395 Clouds 26 1014 83 16093 4.29 49.664 07:40 11.10.2019
396 Clouds 26 1014 83 16093 4.29 49.664 07:20 11.10.2019
397 Clouds 26 1014 83 16093 4.29 49.664 06:44 11.10.2019
398 Clouds 26 1014 83 16093 3.96 40.291 06:21 11.10.2019
399 Rain 26 1014 83 16093 1.5 350 05:37 11.10.2019
400 Rain 26 1014 83 16093 1.5 350 04:59 11.10.2019
401 Rain 26 1014 94 16093 2.1 360 04:24 11.10.2019
402 Rain 26 1013 74 16093 2.6 20 02:18 11.10.2019
403 Rain 27 1012 78 16093 4.74 57.694 00:42 11.10.2019
404 Rain 28 1012 78 16093 4.22 52.595 00:23 11.10.2019
405 Rain 28 1013 74 12874 1.5 0 23:42 10.10.2019
406 Rain 28 1013 74 16093 2.6 50 23:21 10.10.2019
407 Rain 28 1013 74 16093 2.6 50 22:57 10.10.2019
408 Rain 28 1012 78 16093 4.1 40 22:38 10.10.2019
409 Rain 29 1012 78 16093 4.1 40 22:20 10.10.2019
410 Rain 29 1012 78 16093 4.1 40 21:56 10.10.2019
411 Rain 29 1012 78 16093 4.1 40 21:56 10.10.2019
412 Rain 29 1012 78 16093 4.1 40 21:56 10.10.2019
413 Rain 29 1012 70 16093 2.6 60 21:38 10.10.2019
414 Rain 30 1012 70 16093 2.6 60 21:20 10.10.2019
415 Rain 31 1013 66 16093 5.1 50 20:42 10.10.2019
416 Clouds 31 1013 52 16093 3.1 340 20:21 10.10.2019
417 Clouds 31 1013 52 16093 3.1 340 19:58 10.10.2019
418 Clouds 31 1014 66 16093 3.6 10 19:40 10.10.2019
419 Clouds 31 1014 66 16093 3.6 10 19:20 10.10.2019
420 Clouds 31 1014 58 16093 3.1 330 18:57 10.10.2019
421 Clouds 30 1015 70 16093 3.1 330 18:38 10.10.2019
422 Clouds 30 1015 70 16093 3.1 330 18:19 10.10.2019
423 Clouds 29 1015 74 16093 3.1 350 17:41 10.10.2019
424 Clouds 28 1015 74 16093 3.1 350 17:20 10.10.2019
425 Clouds 28 1015 74 16093 3.1 350 16:59 10.10.2019
426 Clouds 27 1015 83 16093 4.1 360 16:41 10.10.2019
427 Clouds 26 1015 88 16093 4.1 330 16:22 10.10.2019
428 Clouds 26 1015 78 16093 3.6 330 15:44 10.10.2019
429 Clouds 25 1015 83 16093 3.1 340 15:25 10.10.2019
430 Clouds 25 1015 83 16093 3.6 340 14:59 10.10.2019
431 Clouds 25 1015 83 16093 3.6 340 14:59 10.10.2019
432 Clouds 25 1014 88 16093 2.1 340 14:38 10.10.2019
433 Clouds 25 1014 88 16093 2.1 340 14:38 10.10.2019
434 Clouds 24 1014 88 16093 2.1 340 14:19 10.10.2019
435 Clouds 24 1014 100 16093 2.1 320 13:59 10.10.2019
436 Clouds 24 1014 94 16093 2.6 340 13:41 10.10.2019
437 Clouds 24 1014 94 16093 2.6 340 13:19 10.10.2019
438 Clouds 24 1014 94 16093 1.5 310 12:56 10.10.2019
439 Rain 24 1014 94 16093 3.1 310 12:38 10.10.2019
440 Rain 24 1014 88 9656 1.5 290 12:19 10.10.2019
441 Mist 24 1014 88 9656 1.5 290 11:55 10.10.2019
442 Clouds 24 1014 94 16093 3.6 310 11:36 10.10.2019
443 Clouds 24 1014 100 16093 3.6 330 11:18 10.10.2019
444 Clouds 24 1013 88 16093 3.6 320 10:44 10.10.2019
445 Clouds 24 1013 88 16093 2.19 350.757 10:25 10.10.2019
446 Clouds 24 1013 88 16093 2.19 350.757 09:55 10.10.2019
447 Clouds 24 1013 88 16093 2.19 350.757 09:37 10.10.2019
448 Clouds 24 1013 88 16093 2.75 34.539 09:19 10.10.2019
449 Clouds 24 1014 94 16093 2.1 280 08:41 10.10.2019
450 Clouds 24 1014 88 16093 2.75 34.539 08:23 10.10.2019
451 Rain 24 1014 88 16093 2.75 34.539 07:58 10.10.2019
452 Rain 24 1014 83 16093 2.1 330 07:40 10.10.2019
453 Rain 25 1014 83 16093 2.1 330 07:20 10.10.2019
454 Rain 25 1015 94 16093 2.75 34.539 06:45 10.10.2019
455 Rain 25 1016 78 16093 2.1 300 06:22 10.10.2019
456 Rain 25 1015 83 16093 2.05 19.009 05:23 10.10.2019
457 Rain 25 1015 78 16093 2.1 0 04:37 10.10.2019
458 Rain 25 1014 78 16093 2.1 0 02:54 10.10.2019
459 Rain 26 1013 83 16093 2.6 50 01:42 10.10.2019
460 Rain 26 1013 83 16093 2.6 50 01:42 10.10.2019
461 Rain 26 1014 94 2816 2.6 310 01:23 10.10.2019
462 Rain 27 1013 94 16093 1.5 180 00:45 10.10.2019
463 Rain 27 1013 78 16093 1.5 110 00:20 10.10.2019
464 Rain 27 1013 83 16093 3.6 250 23:39 09.10.2019
465 Rain 27 1013 69 16093 6.2 300 23:20 09.10.2019
466 Rain 29 1012 66 16093 2.6 250 22:43 09.10.2019
467 Thunderstorm 29 1013 74 16093 3.1 150 22:24 09.10.2019
468 Rain 30 1013 78 16093 3.1 140 21:59 09.10.2019
469 Rain 31 1012 70 16093 4.6 180 21:39 09.10.2019
470 Rain 31 1013 66 16093 3.1 140 21:20 09.10.2019
471 Clouds 31 1013 66 16093 3.1 140 20:56 09.10.2019
472 Clouds 31 1013 66 16093 3.1 140 20:56 09.10.2019
473 Rain 31 1013 55 16093 4.6 270 20:37 09.10.2019
474 Rain 30 1013 55 16093 4.6 270 20:18 09.10.2019
475 Rain 30 1013 55 16093 4.6 270 20:18 09.10.2019
476 Clouds 31 1014 59 16093 3.6 220 19:45 09.10.2019
477 Clouds 32 1014 59 16093 3.6 220 19:24 09.10.2019
478 Clouds 31 1014 59 16093 3.6 220 18:58 09.10.2019
479 Clouds 31 1014 74 16093 3.1 170 18:38 09.10.2019
480 Clouds 30 1015 62 16093 2.6 190 18:18 09.10.2019
481 Clouds 30 1015 62 16093 2.6 190 17:55 09.10.2019
482 Clouds 30 1015 70 16093 1.5 0 17:37 09.10.2019
483 Clouds 29 1015 70 16093 1.5 0 17:18 09.10.2019
484 Mist 28 1015 83 16093 1.5 220 16:41 09.10.2019
485 Mist 28 1015 74 16093 1.5 240 16:23 09.10.2019
486 Mist 27 1015 74 16093 1.5 240 15:58 09.10.2019
487 Mist 27 1015 74 16093 1.5 240 15:58 09.10.2019
488 Mist 27 1015 94 16093 2.6 250 15:39 09.10.2019
489 Mist 27 1015 94 16093 2.6 250 15:39 09.10.2019
490 Mist 26 1015 78 16093 2.1 200 15:20 09.10.2019
491 Mist 26 1015 78 16093 2.1 200 14:58 09.10.2019
492 Mist 26 1015 78 16093 2.1 200 14:58 09.10.2019
493 Mist 26 1014 83 16093 2.1 210 14:40 09.10.2019
494 Clouds 25 1014 83 16093 2.1 210 14:18 09.10.2019
495 Clouds 25 1014 83 16093 1.5 230 13:40 09.10.2019
496 Clouds 25 1014 83 16093 1.5 230 13:40 09.10.2019
497 Clear 25 1014 94 16093 0.99 170.3 13:22 09.10.2019
498 Clouds 25 1014 83 16093 1.5 230 12:59 09.10.2019
499 Clouds 25 1014 83 16093 2.1 210 12:41 09.10.2019
500 Clouds 25 1014 83 16093 2.1 210 12:21 09.10.2019
501 Clouds 25 1014 83 16093 2.1 210 11:55 09.10.2019
502 Clouds 25 1013 88 16093 0.91 3.333 11:37 09.10.2019
503 Clouds 25 1013 88 16093 0.91 3.333 11:37 09.10.2019
504 Clouds 25 1013 88 16093 0.91 3.333 11:19 09.10.2019
505 Clouds 25 1013 83 16093 0.91 3.333 10:44 09.10.2019
506 Clouds 25 1013 83 16093 0.91 3.333 10:21 09.10.2019
507 Clouds 25 1013 83 16093 0.91 3.333 09:59 09.10.2019
508 Clouds 25 1013 88 16093 2.1 200 09:40 09.10.2019
509 Clouds 25 1013 88 16093 2.1 200 09:19 09.10.2019
510 Rain 25 1013 83 16093 1.5 160 08:41 09.10.2019
511 Rain 25 1013 83 16093 1.5 160 08:23 09.10.2019
512 Clouds 25 1013 83 16093 1.5 160 07:58 09.10.2019
513 Clouds 25 1013 94 16093 1.5 250 07:39 09.10.2019
514 Clouds 25 1013 94 16093 1.5 250 07:20 09.10.2019
515 Clouds 26 1014 88 16093 1.5 260 06:51 09.10.2019
516 Clouds 26 1014 88 16093 1.5 260 06:51 09.10.2019
517 Clouds 26 1014 88 16093 1.5 260 05:56 09.10.2019
518 Clouds 26 1014 88 16093 2.1 240 05:37 09.10.2019
519 Clouds 26 1014 83 16093 2.6 230 04:25 09.10.2019
520 Clouds 26 1013 94 16093 3.22 225.214 02:52 09.10.2019
521 Rain 27 1012 83 16093 1.5 180 01:43 09.10.2019
522 Rain 27 1012 78 16093 2.6 200 01:20 09.10.2019
523 Rain 27 1012 78 16093 2.6 200 00:57 09.10.2019
524 Rain 27 1012 78 16093 3.1 220 00:38 09.10.2019
525 Rain 28 1012 78 16093 3.1 220 00:19 09.10.2019
526 Rain 28 1012 88 9656 3.1 220 23:39 08.10.2019
527 Rain 29 1012 88 9656 3.1 220 23:19 08.10.2019
528 Rain 29 1012 70 16093 4.6 220 22:56 08.10.2019
529 Rain 29 1012 79 16093 4.6 230 22:38 08.10.2019
530 Rain 29 1012 79 16093 4.6 230 22:19 08.10.2019
531 Rain 29 1012 70 16093 6.2 220 21:57 08.10.2019
532 Rain 29 1011 70 16093 7.7 230 21:39 08.10.2019
533 Rain 29 1012 74 16093 4.1 210 21:19 08.10.2019
534 Rain 28 1012 74 16093 4.1 210 20:56 08.10.2019
535 Rain 28 1012 74 16093 6.2 220 20:37 08.10.2019
536 Rain 28 1012 74 16093 6.2 220 20:19 08.10.2019
537 Rain 28 1012 74 16093 6.2 220 19:56 08.10.2019
538 Rain 29 1012 78 16093 4.1 230 19:37 08.10.2019
539 Rain 28 1012 74 16093 7.7 200 19:19 08.10.2019
540 Rain 27 1013 78 16093 7.2 210 18:46 08.10.2019
541 Rain 27 1013 83 16093 5.1 200 18:27 08.10.2019
542 Rain 26 1013 78 16093 4.1 190 17:59 08.10.2019
543 Rain 25 1012 83 16093 4.1 210 17:40 08.10.2019
544 Rain 25 1012 83 16093 4.1 210 17:40 08.10.2019
545 Rain 25 1013 88 16093 4.6 190 17:20 08.10.2019
546 Rain 24 1013 88 16093 4.6 190 16:57 08.10.2019
547 Rain 24 1013 88 4828 6.7 210 16:38 08.10.2019
548 Rain 25 1013 88 9656 5.1 190 16:20 08.10.2019
549 Rain 25 1013 94 12874 1.5 290 15:40 08.10.2019
550 Rain 25 1013 94 4023 5.1 220 15:21 08.10.2019
551 Rain 25 1012 88 11265 3.1 180 14:57 08.10.2019
552 Rain 25 1012 88 16093 2.1 140 14:39 08.10.2019
553 Rain 25 1012 88 16093 2.6 130 14:20 08.10.2019
554 Rain 25 1012 88 16093 2.6 130 13:56 08.10.2019
555 Rain 25 1011 83 16093 2.1 0 13:37 08.10.2019
556 Rain 25 1011 83 16093 2.1 0 13:18 08.10.2019
557 Drizzle 25 1011 94 16093 3.6 150 12:42 08.10.2019
558 Clouds 25 1011 83 16093 3.97 198.718 12:22 08.10.2019
559 Rain 25 1011 94 16093 1.5 220 11:59 08.10.2019
560 Rain 25 1011 94 16093 1.5 220 11:40 08.10.2019
561 Rain 25 1011 94 16093 1.5 220 11:22 08.10.2019
562 Rain 24 1011 94 16093 1.5 160 10:55 08.10.2019
563 Rain 24 1011 88 16093 1.5 200 10:36 08.10.2019
564 Rain 24 1011 88 16093 1.5 200 10:18 08.10.2019
565 Rain 24 1011 88 16093 3.97 198.718 09:41 08.10.2019
566 Rain 24 1011 88 16093 3.97 198.718 09:41 08.10.2019
567 Rain 24 1011 88 16093 3.97 198.718 09:41 08.10.2019
568 Rain 24 1011 88 16093 4.48 218.815 09:23 08.10.2019
569 Rain 24 1011 88 16093 4.48 218.815 08:59 08.10.2019
570 Rain 24 1011 88 16093 2.1 220 08:41 08.10.2019
571 Rain 24 1011 88 16093 2.1 220 08:22 08.10.2019
572 Rain 24 1011 94 16093 2.1 190 07:42 08.10.2019
573 Rain 24 1011 94 16093 2.6 210 07:21 08.10.2019
574 Rain 24 1012 88 16093 3.1 210 06:49 08.10.2019
575 Rain 24 1012 83 16093 3.1 220 06:28 08.10.2019
576 Rain 24 1012 94 16093 3.1 200 05:45 08.10.2019
577 Rain 24 1012 88 16093 4.6 210 05:25 08.10.2019
578 Rain 24 1012 83 16093 3.6 200 03:57 08.10.2019
579 Rain 24 1012 94 16093 4.6 190 03:24 08.10.2019
580 Rain 25 1010 94 14484 4.1 240 02:35 08.10.2019
581 Rain 25 1010 83 11265 1.5 170 01:44 08.10.2019
582 Rain 25 1010 83 11265 1.5 170 01:25 08.10.2019
583 Rain 25 1009 88 1609 3.6 150 00:45 08.10.2019
584 Rain 26 1009 88 16093 3.6 170 00:20 08.10.2019
585 Rain 26 1009 88 16093 2.64 137.611 23:39 07.10.2019
586 Rain 25 1009 88 8047 2.64 137.611 23:20 07.10.2019
587 Rain 26 1009 88 16093 2.64 137.611 22:56 07.10.2019
588 Rain 25 1009 94 4828 2.64 137.611 22:38 07.10.2019
589 Rain 25 1009 94 4828 2.64 137.611 22:20 07.10.2019
590 Rain 26 1009 88 11265 1.5 310 21:56 07.10.2019
591 Rain 26 1010 88 16093 3.6 290 21:37 07.10.2019
592 Rain 26 1009 100 16093 3.1 280 21:37 07.10.2019
593 Rain 26 1010 88 16093 3.6 290 21:19 07.10.2019
594 Rain 26 1010 88 16093 3.6 290 21:19 07.10.2019
595 Rain 26 1010 94 12874 5.2 137.197 20:57 07.10.2019
596 Rain 26 1010 94 12874 5.2 137.197 20:38 07.10.2019
597 Rain 26 1010 94 16093 2.1 320 20:19 07.10.2019
598 Rain 26 1011 83 11265 2.1 0 19:56 07.10.2019
599 Rain 26 1011 94 1207 4.1 110 19:38 07.10.2019
600 Rain 26 1011 94 1207 4.1 110 19:38 07.10.2019
601 Rain 26 1011 94 805 2.6 290 19:18 07.10.2019
602 Rain 27 1011 83 16093 2.6 170 18:55 07.10.2019
603 Rain 28 1011 88 6437 2.1 130 18:37 07.10.2019
604 Rain 29 1012 78 16093 3.1 110 18:18 07.10.2019
605 Rain 29 1012 74 16093 5.1 100 17:41 07.10.2019
606 Rain 28 1011 78 16093 4.7 94.736 17:19 07.10.2019
607 Rain 28 1011 78 16093 4.7 94.736 16:55 07.10.2019
608 Rain 28 1011 78 16093 4.7 94.736 16:55 07.10.2019
609 Rain 28 1011 78 16093 4.1 90 16:37 07.10.2019
610 Rain 28 1011 78 16093 4.1 90 16:18 07.10.2019
611 Rain 28 1011 70 16093 6.2 70 15:41 07.10.2019
612 Rain 28 1011 70 16093 6.2 70 15:41 07.10.2019
613 Rain 28 1011 70 16093 6.2 70 15:41 07.10.2019
614 Rain 28 1011 83 16093 1.5 10 15:22 07.10.2019
615 Rain 26 1011 83 16093 2.6 40 14:42 07.10.2019
616 Rain 26 1011 83 16093 2.6 40 14:42 07.10.2019
617 Rain 26 1011 83 16093 2.6 40 14:23 07.10.2019
618 Rain 26 1011 83 16093 2.6 40 13:59 07.10.2019
619 Rain 26 1011 78 16093 2.6 60 13:40 07.10.2019
620 Rain 25 1012 83 16093 2.1 110 13:18 07.10.2019
621 -273 0 0 0 0 0 12:54 07.10.2019
622 Rain 26 1011 78 16093 1.5 150 12:36 07.10.2019
623 Rain 26 1011 78 16093 1.5 150 12:36 07.10.2019
624 Clouds 26 1010 78 16093 2.6 80 12:18 07.10.2019
625 Clouds 26 1010 78 16093 2.6 80 11:56 07.10.2019
626 Clouds 26 1010 78 16093 3.6 110 11:36 07.10.2019
627 Clouds 26 1010 78 16093 3.6 110 11:18 07.10.2019
628 Clouds 26 1010 78 16093 3.6 100 10:40 07.10.2019
629 Clouds 26 1010 78 16093 3.6 100 10:20 07.10.2019
630 Rain 26 1011 83 16093 2.1 100 09:42 07.10.2019
631 Rain 26 1011 83 16093 2.1 100 09:23 07.10.2019
632 Rain 26 1011 83 16093 1.5 10 08:55 07.10.2019
633 Rain 25 1011 83 16093 1.5 10 08:37 07.10.2019
634 Rain 25 1011 83 16093 1.5 10 08:18 07.10.2019
635 Rain 25 1012 88 16093 2.6 80 07:40 07.10.2019
636 Rain 26 1012 78 14484 4.28 82.474 07:20 07.10.2019
637 Rain 26 1012 88 16093 1.5 40 06:44 07.10.2019
638 Rain 26 1013 83 16093 2.6 20 06:23 07.10.2019
639 Rain 25 1013 88 16093 2.6 30 05:30 07.10.2019
640 Rain 26 1013 83 11265 3.6 40 04:58 07.10.2019
641 Rain 26 1013 74 16093 2.6 360 04:23 07.10.2019
642 Rain 26 1013 88 9656 3.1 30 03:44 07.10.2019
643 Rain 26 1013 88 9656 3.1 30 03:44 07.10.2019
644 Rain 26 1013 74 16093 2.6 40 03:19 07.10.2019
645 Rain 26 1013 74 16093 2.6 40 03:19 07.10.2019
646 Rain 26 1013 83 16093 2.6 40 02:20 07.10.2019
647 Rain 26 1012 69 16093 4.6 40 01:47 07.10.2019
648 Rain 26 1012 69 16093 4.6 40 01:19 07.10.2019
649 Rain 28 1012 58 16093 6.7 50 00:38 07.10.2019
650 Rain 28 1012 58 16093 6.7 50 00:19 07.10.2019
651 Rain 28 1012 66 16093 5.7 60 23:42 06.10.2019
652 Rain 29 1012 66 16093 5.7 60 23:21 06.10.2019
653 Clouds 29 1012 66 16093 5.7 60 22:59 06.10.2019
654 Rain 30 1012 74 12874 3.6 40 22:40 06.10.2019
655 Clouds 30 1013 66 16093 7.7 60 22:21 06.10.2019
656 Clouds 30 1013 62 16093 7.7 80 21:57 06.10.2019
657 Clouds 31 1013 55 16093 6.7 60 21:37 06.10.2019
658 Clouds 31 1013 55 16093 6.7 60 21:19 06.10.2019
659 Clouds 31 1013 55 16093 6.7 60 20:57 06.10.2019
660 Clouds 31 1013 55 16093 6.2 70 20:38 06.10.2019
661 Clouds 31 1013 55 16093 6.2 70 20:20 06.10.2019
662 Clouds 31 1013 55 16093 6.2 70 19:57 06.10.2019
663 Clouds 31 1014 52 16093 6.7 60 19:37 06.10.2019
664 Clouds 31 1014 52 16093 6.7 60 19:37 06.10.2019
665 Clouds 31 1014 52 16093 6.7 60 19:19 06.10.2019
666 Clouds 30 1014 52 16093 6.7 60 18:56 06.10.2019
667 Clouds 30 1015 55 16093 6.2 50 18:38 06.10.2019
668 Clouds 30 1015 55 16093 6.2 50 18:19 06.10.2019
669 Clouds 30 1015 62 16093 6.7 50 17:44 06.10.2019
670 Clouds 30 1015 62 16093 6.7 50 17:21 06.10.2019
671 Clouds 29 1015 62 16093 6.7 50 16:59 06.10.2019
672 Clouds 29 1015 66 16093 6.7 60 16:41 06.10.2019
673 Clouds 29 1015 66 16093 6.7 60 16:23 06.10.2019
674 Clouds 28 1014 66 16093 8.2 70 15:45 06.10.2019
675 Clouds 28 1014 69 16093 5.1 60 15:23 06.10.2019
676 Clouds 28 1014 69 16093 5.1 60 14:59 06.10.2019
677 Rain 27 1014 83 16093 2.6 30 14:41 06.10.2019
678 Rain 27 1014 83 16093 2.6 30 14:23 06.10.2019
679 Rain 26 1014 83 16093 2.6 30 13:55 06.10.2019
680 Rain 26 1014 94 12874 5.1 40 13:37 06.10.2019
681 Rain 26 1014 94 12874 5.1 40 13:19 06.10.2019
682 Rain 26 1014 83 16093 2.6 20 12:55 06.10.2019
683 Rain 26 1014 83 16093 2.1 60 12:37 06.10.2019
684 Rain 26 1014 83 16093 2.1 60 12:19 06.10.2019
685 Rain 26 1013 94 4023 3.6 120 11:43 06.10.2019
686 Rain 26 1013 74 16093 2.6 10 11:25 06.10.2019
687 Rain 26 1013 74 16093 2.6 10 11:25 06.10.2019
688 Rain 26 1013 74 16093 2.6 10 10:58 06.10.2019
689 Rain 26 1012 74 16093 3.1 60 10:39 06.10.2019
690 Rain 26 1012 74 16093 3.1 60 10:21 06.10.2019
691 Rain 26 1013 74 16093 3.6 50 09:42 06.10.2019
692 Rain 26 1013 74 16093 3.6 50 09:42 06.10.2019
693 Clouds 27 1013 74 16093 3.6 50 09:21 06.10.2019
694 Clouds 27 1013 74 16093 3.6 50 09:21 06.10.2019
695 Clouds 27 1013 74 16093 3.6 50 08:59 06.10.2019
696 Clouds 27 1013 69 16093 3.1 0 08:39 06.10.2019
697 Clouds 27 1013 69 16093 3.1 0 08:19 06.10.2019
698 Rain 27 1014 78 16093 5.1 70 07:41 06.10.2019
699 Rain 27 1014 78 16093 5.1 70 07:18 06.10.2019
700 Clouds 27 1014 69 16093 5.1 70 06:18 06.10.2019
701 Clouds 27 1014 69 16093 5.7 70 05:27 06.10.2019
702 Rain 27 1014 69 16093 5.1 60 03:23 06.10.2019
703 Rain 27 1013 74 16093 4.1 50 02:40 06.10.2019
704 Clouds 28 1013 74 16093 4.1 50 01:57 06.10.2019
705 Rain 28 1013 74 16093 4.6 60 01:37 06.10.2019
706 Rain 28 1013 74 16093 4.6 60 01:18 06.10.2019
707 Clouds 28 1013 66 16093 7.2 60 00:45 06.10.2019
708 Clouds 29 1013 66 16093 7.2 60 00:21 06.10.2019
709 Clouds 29 1013 62 16093 6.2 70 23:42 05.10.2019
710 Clouds 30 1013 62 16093 6.2 70 23:21 05.10.2019
711 Rain 30 1013 62 16093 6.2 70 22:57 05.10.2019
712 Rain 30 1013 58 16093 8.7 90 22:38 05.10.2019
713 Rain 30 1013 58 16093 8.7 90 22:38 05.10.2019
714 Rain 30 1013 58 16093 8.7 90 22:38 05.10.2019
715 Rain 30 1013 58 16093 8.7 90 22:19 05.10.2019
716 Rain 30 1013 58 16093 4.6 60 21:42 05.10.2019
717 Rain 30 1013 58 16093 4.6 60 21:42 05.10.2019
718 Rain 30 1013 58 16093 4.6 60 21:24 05.10.2019
719 Rain 31 1013 58 16093 4.6 60 20:59 05.10.2019
720 Rain 31 1013 52 16093 6.7 90 20:40 05.10.2019
721 Clouds 31 1013 52 16093 6.7 90 20:20 05.10.2019
722 Clouds 31 1013 52 16093 6.7 90 19:57 05.10.2019
723 Clouds 31 1014 52 16093 6.2 70 19:37 05.10.2019
724 Clouds 31 1014 52 16093 6.2 70 19:18 05.10.2019
725 Clouds 31 1014 52 16093 6.2 70 18:55 05.10.2019
726 Clouds 31 1015 66 16093 6.7 110 18:36 05.10.2019
727 Clouds 31 1015 58 16093 6.2 80 18:18 05.10.2019
728 Clouds 30 1015 62 16093 5.1 80 17:42 05.10.2019
729 Clouds 30 1015 62 16093 5.1 80 17:22 05.10.2019
730 Rain 30 1015 62 16093 5.1 80 16:56 05.10.2019
731 Rain 29 1015 66 16093 5.1 80 16:37 05.10.2019
732 Clouds 29 1015 66 16093 5.1 80 16:19 05.10.2019
733 Clouds 29 1015 66 16093 5.1 80 15:56 05.10.2019
734 Clouds 29 1015 70 16093 4.6 80 15:37 05.10.2019
735 Clouds 28 1015 70 16093 4.6 80 15:19 05.10.2019
736 Clouds 27 1014 78 16093 2.98 50.303 14:42 05.10.2019
737 Clouds 26 1014 78 16093 2.98 50.303 14:23 05.10.2019
738 Clouds 25 1013 78 16093 2.1 20 13:44 05.10.2019
739 Clouds 25 1013 78 16093 2.1 20 13:26 05.10.2019
740 Clouds 25 1013 78 16093 2.1 20 12:59 05.10.2019
741 Clouds 25 1013 88 16093 2.1 10 12:41 05.10.2019
742 Clouds 25 1013 78 16093 1.5 40 12:19 05.10.2019
743 Clouds 25 1012 78 16093 2.1 20 11:41 05.10.2019
744 Clouds 25 1012 78 16093 2.1 20 11:20 05.10.2019
745 Rain 26 1012 78 16093 2.1 20 10:57 05.10.2019
746 Rain 26 1012 78 16093 2.1 20 10:57 05.10.2019
747 Rain 26 1013 78 16093 2.1 120 10:38 05.10.2019
748 Clouds 26 1013 78 16093 1.5 70 10:20 05.10.2019
749 Clouds 26 1013 78 16093 1.5 40 09:41 05.10.2019
750 Clouds 26 1013 78 16093 1.5 40 09:23 05.10.2019
751 Clouds 26 1014 74 16093 2.6 50 08:43 05.10.2019
752 Clouds 26 1014 74 16093 2.6 50 08:24 05.10.2019
753 Clouds 26 1014 74 16093 2.6 50 07:59 05.10.2019
754 Clouds 27 1014 74 16093 3.6 70 07:40 05.10.2019
755 Clouds 27 1014 74 16093 3.6 70 07:21 05.10.2019
756 Clouds 27 1015 83 16093 3.6 80 06:52 05.10.2019
757 Clouds 27 1015 74 16093 4.1 70 06:21 05.10.2019
758 Clouds 27 1014 78 16093 3.1 60 04:46 05.10.2019
759 Clouds 27 1014 69 16093 4.6 60 03:32 05.10.2019
760 Clouds 27 1014 69 16093 4.6 70 02:26 05.10.2019
761 Clouds 28 1014 69 16093 5.1 80 01:26 05.10.2019
762 Clouds 29 1013 70 16093 5.7 90 00:48 05.10.2019
763 Clouds 29 1013 70 16093 5.7 90 00:48 05.10.2019
764 Clouds 29 1013 62 16093 4.1 60 00:27 05.10.2019
765 Clouds 30 1013 62 16093 4.1 60 23:57 04.10.2019
766 Clouds 30 1013 62 16093 5.1 80 23:39 04.10.2019
767 Clouds 30 1013 62 16093 5.1 80 23:21 04.10.2019
768 Clouds 30 1013 55 16093 4.1 70 22:42 04.10.2019
769 Clouds 31 1013 55 16093 4.1 70 22:24 04.10.2019
770 Clouds 31 1013 55 16093 4.1 70 21:59 04.10.2019
771 Clouds 31 1014 52 16093 4.6 80 21:40 04.10.2019
772 Clouds 31 1014 52 16093 4.6 80 21:22 04.10.2019
773 Clouds 31 1014 52 16093 4.6 80 20:58 04.10.2019
774 Clouds 31 1014 55 16093 4.6 80 20:40 04.10.2019
775 Clouds 31 1014 55 16093 4.6 80 20:21 04.10.2019
776 Clouds 31 1014 55 16093 4.6 80 19:55 04.10.2019
777 Clouds 31 1015 55 16093 3.6 80 19:37 04.10.2019
778 Clouds 31 1015 55 16093 3.6 80 19:19 04.10.2019
779 Clouds 31 1016 70 16093 5.7 80 18:40 04.10.2019
780 Clouds 31 1015 58 16093 5.1 100 18:20 04.10.2019
781 Clouds 30 1015 58 16093 5.1 100 17:59 04.10.2019
782 Rain 30 1016 66 16093 5.7 110 17:39 04.10.2019
783 Rain 30 1015 70 16093 4.6 50 17:21 04.10.2019
784 Clouds 30 1016 55 16093 4.1 90 16:57 04.10.2019
785 Rain 29 1016 88 16093 3.6 30 16:39 04.10.2019
786 Rain 29 1016 70 16093 2.6 30 16:18 04.10.2019
787 Rain 29 1016 70 16093 2.6 30 15:56 04.10.2019
788 Clouds 28 1016 70 16093 2.1 60 15:37 04.10.2019
789 Clouds 28 1015 69 16093 2.53 56.875 15:19 04.10.2019
790 Clouds 27 1015 69 16093 2.53 56.875 14:55 04.10.2019
791 Clouds 27 1015 74 16093 2.53 56.875 14:37 04.10.2019
792 Clouds 26 1015 74 16093 2.53 56.875 14:19 04.10.2019
793 Clouds 25 1014 78 16093 3.6 100 13:44 04.10.2019
794 Clouds 25 1014 78 16093 2.62 61.185 13:21 04.10.2019
795 Clouds 25 1014 94 16093 2.62 61.185 12:47 04.10.2019
796 Clouds 25 1014 78 16093 2.62 61.185 12:29 04.10.2019
797 Clouds 25 1014 78 16093 2.38 74.127 11:59 04.10.2019
798 Clouds 25 1014 78 16093 2.38 74.127 11:59 04.10.2019
799 Clouds 25 1014 83 16093 2.38 74.127 11:41 04.10.2019
800 Clouds 25 1014 83 16093 2.38 74.127 11:20 04.10.2019
801 Clouds 25 1014 83 16093 2.38 74.127 11:20 04.10.2019
802 Clouds 25 1014 83 16093 2.38 74.127 11:20 04.10.2019
803 Clouds 25 1014 74 16093 2.1 40 10:41 04.10.2019
804 Clouds 25 1014 74 16093 2.1 40 10:21 04.10.2019
805 Clouds 25 1015 69 16093 2.6 80 09:50 04.10.2019
806 Clouds 25 1015 69 16093 2.6 80 09:31 04.10.2019
807 Clouds 25 1015 69 16093 2.6 80 08:57 04.10.2019
808 Clouds 25 1015 74 16093 2.6 90 08:38 04.10.2019
809 Clouds 25 1015 74 16093 2.6 90 08:38 04.10.2019
810 Clouds 25 1015 74 16093 2.6 90 08:20 04.10.2019
811 Clouds 26 1015 69 16093 3.1 70 07:46 04.10.2019
812 Clouds 26 1015 69 16093 3.1 70 07:23 04.10.2019
813 Clouds 26 1016 69 16093 3.1 80 06:47 04.10.2019
814 Clouds 26 1016 69 16093 3.1 80 06:47 04.10.2019
815 Clouds 26 1016 69 16093 3.1 80 06:27 04.10.2019
816 Clouds 26 1015 74 16093 3.6 60 05:52 04.10.2019
817 Clouds 26 1015 74 16093 3.6 60 05:19 04.10.2019
818 Clouds 27 1015 69 16093 4.6 80 03:56 04.10.2019
819 Clouds 27 1015 78 16093 4.6 70 02:54 04.10.2019
820 Clear 27 1015 74 16093 5.7 80 02:21 04.10.2019
821 Clouds 27 1014 65 16093 6.2 80 01:43 04.10.2019
822 Clouds 27 1014 65 16093 6.2 80 01:24 04.10.2019
823 Clouds 28 1014 65 16093 6.2 80 00:18 04.10.2019
824 Clouds 29 1014 62 16093 5.7 60 23:37 03.10.2019
825 Clouds 29 1014 62 16093 5.7 60 23:18 03.10.2019
826 Clouds 29 1014 62 16093 5.7 60 22:57 03.10.2019
827 Clouds 29 1014 62 16093 5.7 60 22:57 03.10.2019
828 Rain 30 1014 62 16093 6.2 80 22:39 03.10.2019
829 Rain 30 1014 62 16093 6.2 80 22:21 03.10.2019
830 Rain 30 1014 62 16093 6.2 80 22:21 03.10.2019
831 Rain 30 1014 62 16093 6.2 80 21:56 03.10.2019
832 Rain 30 1014 74 12874 5.1 90 21:37 03.10.2019
833 Rain 30 1014 74 12874 5.1 90 21:37 03.10.2019
834 Clouds 30 1015 66 16093 6.2 90 21:19 03.10.2019
835 Clouds 30 1014 70 16093 5.1 60 20:56 03.10.2019
836 Clouds 30 1014 70 16093 5.1 60 20:56 03.10.2019
837 Clouds 30 1015 58 16093 6.7 90 20:37 03.10.2019
838 Clouds 30 1015 58 16093 6.7 90 20:37 03.10.2019
839 Clouds 30 1015 58 16093 6.7 90 20:19 03.10.2019
840 -273 0 0 0 0 0 19:55 03.10.2019
841 Clouds 30 1015 66 16093 7.7 90 19:36 03.10.2019
842 Clouds 30 1015 66 16093 7.7 90 19:18 03.10.2019
843 Clouds 30 1015 66 16093 7.2 90 18:40 03.10.2019
844 Clouds 30 1015 66 16093 7.2 90 18:19 03.10.2019
845 Rain 30 1015 66 16093 7.2 90 17:59 03.10.2019
846 Rain 29 1016 78 16093 7.2 90 17:41 03.10.2019
847 Rain 29 1016 83 9656 2.1 130 17:20 03.10.2019
848 Rain 29 1015 66 16093 6.7 100 16:54 03.10.2019
849 Rain 28 1015 66 16093 6.2 100 16:36 03.10.2019
850 Rain 28 1015 66 16093 6.2 100 16:18 03.10.2019
851 Rain 28 1015 69 16093 6.2 90 15:41 03.10.2019
852 Rain 28 1015 69 16093 6.2 90 15:23 03.10.2019
853 Rain 27 1015 69 16093 6.2 90 14:54 03.10.2019
854 Clouds 27 1014 78 16093 2.1 40 14:36 03.10.2019
855 Clouds 26 1014 78 16093 2.1 40 14:18 03.10.2019
856 Clouds 26 1013 74 16093 1.5 30 13:41 03.10.2019
857 Clouds 26 1013 74 16093 1.5 30 13:19 03.10.2019
858 Rain 26 1013 74 16093 1.5 30 12:58 03.10.2019
859 Rain 26 1014 83 16093 2.1 50 12:39 03.10.2019
860 Rain 26 1013 78 16093 2.1 20 12:19 03.10.2019
861 Rain 26 1013 78 16093 2.1 20 11:56 03.10.2019
862 Rain 26 1013 78 16093 2.1 20 11:56 03.10.2019
863 Rain 26 1013 78 16093 2.1 20 11:56 03.10.2019
864 Rain 26 1013 83 16093 3.1 20 11:37 03.10.2019
865 Rain 26 1013 83 16093 3.1 20 11:19 03.10.2019
866 Rain 26 1013 83 16093 2.6 20 10:41 03.10.2019
867 Rain 26 1013 83 16093 2.6 20 10:19 03.10.2019
868 Rain 26 1013 83 16093 2.6 20 09:59 03.10.2019
869 Rain 26 1013 83 16093 2.1 40 09:40 03.10.2019
870 Rain 26 1013 83 16093 2.1 40 09:22 03.10.2019
871 Rain 26 1013 83 16093 2.1 40 08:59 03.10.2019
872 Rain 26 1013 83 16093 2.1 40 08:40 03.10.2019
873 Rain 26 1013 83 16093 2.1 40 08:22 03.10.2019
874 Rain 26 1014 78 16093 6.2 70 07:41 03.10.2019
875 Rain 26 1014 88 12874 3.6 50 07:19 03.10.2019
876 Rain 26 1014 83 14484 5.1 140 06:51 03.10.2019
877 Rain 26 1014 74 16093 3.1 80 06:25 03.10.2019
878 Rain 27 1014 78 16093 4.6 80 05:47 03.10.2019
879 Rain 27 1014 78 16093 4.6 80 05:20 03.10.2019
880 Rain 27 1014 78 16093 3.1 60 04:39 03.10.2019
881 Rain 27 1013 78 12874 5.1 80 03:26 03.10.2019
882 Rain 27 1012 74 16093 5.1 60 02:43 03.10.2019
883 Rain 27 1012 74 16093 5.1 60 02:19 03.10.2019
884 Rain 27 1012 74 16093 7.7 80 01:37 03.10.2019
885 Rain 27 1012 94 11265 1.5 50 00:51 03.10.2019
886 Rain 28 1012 70 16093 6.7 90 00:26 03.10.2019
887 Rain 28 1012 78 16093 7.7 60 23:44 02.10.2019
888 Rain 28 1012 78 16093 7.7 60 23:44 02.10.2019
889 Rain 28 1011 78 16093 8.2 80 23:24 02.10.2019
890 Rain 29 1012 74 16093 7.7 70 22:47 02.10.2019
891 Rain 29 1012 70 16093 3.1 60 22:24 02.10.2019
892 Rain 30 1012 70 16093 3.1 60 21:58 02.10.2019
893 Rain 30 1012 62 16093 7.7 60 21:39 02.10.2019
894 Rain 30 1012 62 16093 7.7 60 21:20 02.10.2019
895 Rain 30 1012 62 16093 7.7 60 20:57 02.10.2019
896 Rain 30 1012 62 16093 6.7 70 20:39 02.10.2019
897 Rain 30 1012 62 16093 6.7 70 20:21 02.10.2019
898 Rain 30 1013 79 16093 7.7 60 19:57 02.10.2019
899 Rain 30 1013 79 16093 7.7 60 19:39 02.10.2019
900 Rain 30 1013 62 16093 9.3 80 19:21 02.10.2019
901 Rain 30 1013 62 16093 9.3 80 18:57 02.10.2019
902 Rain 29 1013 66 16093 8.7 70 18:38 02.10.2019
903 Rain 29 1013 88 16093 4.1 70 18:20 02.10.2019
904 Rain 29 1013 70 16093 7.2 70 17:56 02.10.2019
905 Rain 29 1013 78 16093 3.6 50 17:37 02.10.2019
906 Rain 29 1013 78 16093 3.6 50 17:37 02.10.2019
907 Rain 29 1013 83 11265 4.6 50 17:19 02.10.2019
908 Rain 29 1013 83 11265 4.6 50 17:19 02.10.2019
909 Rain 29 1013 66 16093 5.1 70 16:42 02.10.2019
910 Clouds 28 1013 66 16093 5.1 70 16:22 02.10.2019
911 Rain 28 1012 74 16093 5.1 50 15:59 02.10.2019
912 Clouds 28 1012 74 16093 5.1 50 15:38 02.10.2019
913 Rain 28 1013 69 16093 4.6 60 15:20 02.10.2019
914 Rain 27 1012 74 16093 3.1 70 14:57 02.10.2019
915 Rain 27 1012 74 16093 3.1 70 14:39 02.10.2019
916 Rain 27 1012 74 16093 3.1 70 14:20 02.10.2019
917 Rain 26 1012 74 16093 3.1 70 13:45 02.10.2019
918 Rain 26 1011 74 9656 1.5 70 13:25 02.10.2019
919 Rain 26 1011 74 16093 4.6 70 12:58 02.10.2019
920 Rain 26 1011 74 16093 4.6 70 12:37 02.10.2019
921 Rain 26 1011 74 16093 4.6 70 12:19 02.10.2019
922 Rain 26 1011 74 16093 4.6 80 11:44 02.10.2019
923 Rain 26 1011 74 16093 4.6 80 11:23 02.10.2019
924 Rain 26 1011 69 16093 6.2 80 10:42 02.10.2019
925 Rain 26 1011 69 16093 6.2 80 10:20 02.10.2019
926 Rain 26 1011 74 16093 7.2 80 09:59 02.10.2019
927 Rain 26 1012 78 16093 5.1 70 09:37 02.10.2019
928 Rain 26 1012 78 16093 5.1 70 09:18 02.10.2019
929 Rain 26 1012 78 16093 5.1 70 09:18 02.10.2019
930 Clouds 26 1012 74 16093 5.7 80 08:44 02.10.2019
931 Clouds 26 1012 74 16093 5.7 80 08:24 02.10.2019
932 Rain 26 1012 88 16093 3.6 80 07:58 02.10.2019
933 Rain 26 1012 88 16093 3.6 80 07:38 02.10.2019
934 Rain 26 1012 78 14484 5.1 100 07:20 02.10.2019
935 Rain 26 1013 78 16093 6.2 80 06:31 02.10.2019
936 Rain 26 1013 78 16093 7.7 80 05:54 02.10.2019
937 Rain 26 1013 78 16093 7.7 80 05:54 02.10.2019
938 Rain 26 1013 78 16093 5.7 60 05:23 02.10.2019
939 Rain 26 1013 78 16093 7.7 70 04:47 02.10.2019
940 Rain 27 1012 78 11265 6.2 80 03:52 02.10.2019
941 Clouds 27 1011 78 16093 8.7 30 02:41 02.10.2019
942 Clouds 27 1012 65 16093 7.7 50 02:23 02.10.2019
943 Clouds 28 1011 65 16093 7.2 60 01:22 02.10.2019
944 Clouds 28 1011 62 16093 6.2 40 00:49 02.10.2019
945 Clouds 28 1011 62 16093 6.2 40 00:25 02.10.2019
946 Clouds 29 1011 78 16093 8.7 30 23:43 01.10.2019
947 Clouds 29 1011 58 16093 7.2 40 23:24 01.10.2019
948 Rain 29 1011 78 16093 6.7 50 22:58 01.10.2019
949 Rain 29 1011 78 16093 6.7 50 22:39 01.10.2019
950 Clouds 30 1012 58 16093 6.2 40 22:19 01.10.2019
951 Clouds 30 1013 52 16093 8.7 60 21:55 01.10.2019
952 Clouds 30 1013 52 16093 8.7 60 21:37 01.10.2019
953 Clouds 30 1013 52 16093 8.7 60 21:18 01.10.2019
954 Clouds 30 1013 55 16093 6.7 50 20:54 01.10.2019
955 Clouds 30 1013 55 16093 6.7 50 20:36 01.10.2019
956 Clouds 30 1013 55 16093 6.7 50 20:18 01.10.2019
957 Rain 30 1013 78 16093 7.7 40 19:44 01.10.2019
958 Rain 30 1013 58 16093 7.7 70 19:26 01.10.2019
959 Rain 30 1014 58 16093 8.2 50 18:59 01.10.2019
960 Rain 30 1014 58 16093 8.2 50 18:39 01.10.2019
961 Rain 30 1014 58 16093 8.2 50 18:39 01.10.2019
962 Rain 30 1014 58 16093 8.2 50 18:21 01.10.2019
963 Clouds 30 1014 69 16093 10.3 60 17:55 01.10.2019
964 Clouds 30 1014 69 16093 10.3 60 17:37 01.10.2019
965 Clouds 29 1013 58 16093 7.2 60 17:18 01.10.2019
966 Thunderstorm 29 1013 58 16093 7.2 70 16:57 01.10.2019
967 Thunderstorm 29 1013 58 16093 7.2 70 16:39 01.10.2019
968 Thunderstorm 28 1013 58 16093 7.2 70 16:20 01.10.2019
969 Clouds 28 1013 65 16093 7.2 50 15:42 01.10.2019
970 Clouds 28 1013 65 16093 7.2 50 15:21 01.10.2019
971 Rain 27 1012 74 16093 6.2 60 14:41 01.10.2019
972 Rain 27 1012 69 16093 3.6 50 14:20 01.10.2019
973 Rain 27 1012 74 16093 5.1 60 13:57 01.10.2019
974 Rain 26 1012 74 16093 5.1 60 13:39 01.10.2019
975 Rain 26 1012 69 16093 4.1 60 13:20 01.10.2019
976 Rain 26 1012 69 16093 4.1 60 13:20 01.10.2019
977 Rain 26 1012 69 16093 4.1 60 13:20 01.10.2019
978 Rain 26 1011 78 16093 7.2 40 12:57 01.10.2019
979 Rain 26 1011 78 16093 7.2 40 12:57 01.10.2019
980 Rain 26 1011 78 16093 7.2 40 12:39 01.10.2019
981 -273 0 0 0 0 0 12:18 01.10.2019
982 Clouds 26 1012 69 16093 4.6 50 11:57 01.10.2019
983 Rain 26 1012 69 16093 4.6 50 11:37 01.10.2019
984 Rain 26 1012 69 16093 4.6 50 11:18 01.10.2019
985 Rain 26 1012 69 16093 4.1 60 10:48 01.10.2019
986 Rain 26 1012 69 16093 4.1 60 10:29 01.10.2019
987 Clouds 26 1012 65 16093 5.1 50 09:47 01.10.2019
988 Clouds 26 1012 65 16093 5.1 50 09:27 01.10.2019
989 Clouds 26 1012 78 16093 6.7 40 08:57 01.10.2019
990 Clouds 26 1012 78 16093 6.7 40 08:39 01.10.2019
991 Clouds 26 1013 65 16093 4.1 50 08:20 01.10.2019
992 Clouds 26 1013 69 16093 4.6 50 07:42 01.10.2019
993 Clouds 26 1013 69 16093 4.6 50 07:22 01.10.2019
994 Clouds 26 1014 65 16093 4.1 50 06:45 01.10.2019
995 Clouds 26 1014 65 16093 4.1 50 06:18 01.10.2019
996 Clouds 27 1014 65 16093 4.6 60 05:45 01.10.2019
997 Clouds 27 1014 54 16093 7.2 50 04:50 01.10.2019
998 Clouds 27 1014 54 16093 7.2 50 04:26 01.10.2019
999 Rain 27 1013 65 16093 5.1 40 02:26 01.10.2019
1000 Rain 27 1013 69 16093 8.2 60 01:58 01.10.2019
1001 Rain 28 1013 62 16093 7.2 50 00:53 01.10.2019
1002 Rain 28 1013 62 16093 7.2 50 00:27 01.10.2019
1003 Clouds 29 1014 66 16093 9.8 60 23:55 30.09.2019
1004 Clouds 29 1013 58 16093 8.2 50 23:37 30.09.2019
1005 Clouds 30 1013 58 16093 8.2 50 23:19 30.09.2019
1006 Clouds 30 1013 58 16093 6.7 50 22:42 30.09.2019
1007 Clouds 30 1013 58 16093 6.7 50 22:24 30.09.2019
1008 Clouds 31 1014 55 16093 6.7 40 21:57 30.09.2019
1009 Clouds 31 1014 55 16093 6.7 40 21:38 30.09.2019
1010 Clouds 31 1014 55 16093 6.7 40 21:19 30.09.2019
1011 Clouds 31 1015 55 16093 6.7 50 20:56 30.09.2019
1012 Clouds 31 1015 55 16093 6.7 50 20:38 30.09.2019
1013 Clouds 31 1015 55 16093 6.7 50 20:20 30.09.2019
1014 Clouds 31 1015 52 16093 6.7 60 19:56 30.09.2019
1015 Clouds 31 1015 52 16093 6.7 60 19:56 30.09.2019
1016 Clouds 31 1015 52 16093 6.7 60 19:56 30.09.2019
1017 Clouds 31 1015 52 16093 6.7 60 19:38 30.09.2019
1018 Clouds 31 1015 52 16093 6.7 60 19:19 30.09.2019
1019 Clouds 31 1016 58 16093 8.7 70 18:56 30.09.2019
1020 Clouds 31 1016 58 16093 8.7 70 18:56 30.09.2019
1021 Clouds 31 1016 55 16093 7.2 70 18:37 30.09.2019
1022 Clouds 31 1016 55 16093 7.2 70 18:37 30.09.2019
1023 Clouds 30 1016 55 16093 7.2 70 18:19 30.09.2019
1024 Clouds 30 1017 58 16093 8.7 40 17:41 30.09.2019
1025 Clouds 30 1016 58 16093 7.2 70 17:22 30.09.2019
1026 Clouds 30 1016 70 16093 9.8 70 16:56 30.09.2019
1027 Clouds 29 1016 58 16093 5.7 60 16:38 30.09.2019
1028 Clouds 29 1016 58 16093 5.7 60 16:19 30.09.2019
1029 Clouds 29 1016 66 16093 7.7 70 15:56 30.09.2019
1030 Clouds 28 1015 78 16093 8.2 50 15:37 30.09.2019
1031 Clouds 28 1016 69 16093 6.7 60 15:19 30.09.2019
1032 Clouds 28 1015 88 16093 6.2 70 14:57 30.09.2019
1033 Clouds 27 1015 88 16093 6.2 70 14:37 30.09.2019
1034 Clouds 27 1015 74 16093 6.2 60 14:18 30.09.2019
1035 Clouds 27 1015 74 16093 5.1 70 13:55 30.09.2019
1036 Clouds 27 1015 74 16093 5.1 70 13:36 30.09.2019
1037 Clouds 27 1015 74 16093 5.1 70 13:18 30.09.2019
1038 Rain 27 1015 74 16093 4.6 60 12:41 30.09.2019
1039 Rain 27 1015 74 16093 4.6 60 12:21 30.09.2019
1040 Rain 27 1015 69 16093 4.1 50 11:44 30.09.2019
1041 Rain 27 1015 69 16093 4.1 50 11:23 30.09.2019
1042 Rain 27 1015 65 16093 6.2 60 10:59 30.09.2019
1043 Rain 27 1015 65 16093 6.2 60 10:40 30.09.2019
1044 Rain 27 1015 65 16093 6.2 60 10:19 30.09.2019
1045 Rain 27 1015 65 16093 6.2 60 10:19 30.09.2019
1046 Rain 27 1015 65 16093 5.7 50 09:58 30.09.2019
1047 Rain 27 1015 65 16093 5.7 50 09:39 30.09.2019
1048 Rain 27 1015 65 16093 5.7 50 09:20 30.09.2019
1049 Rain 27 1016 65 16093 6.2 60 08:46 30.09.2019
1050 Rain 27 1016 65 16093 6.2 60 08:28 30.09.2019
1051 Rain 27 1017 65 16093 4.6 60 07:45 30.09.2019
1052 Rain 27 1017 65 16093 4.6 60 07:27 30.09.2019
1053 Rain 27 1017 58 16093 5.7 60 06:56 30.09.2019
1054 Rain 27 1017 58 16093 5.7 60 06:33 30.09.2019
1055 Clouds 27 1017 61 16093 5.7 50 05:47 30.09.2019
1056 Clouds 27 1017 61 16093 5.7 50 05:47 30.09.2019
1057 Clouds 27 1017 65 16093 4.6 50 04:32 30.09.2019
1058 Clouds 27 1017 65 16093 4.6 50 04:32 30.09.2019
1059 Clouds 27 1016 58 16093 5.7 50 02:48 30.09.2019
1060 Clouds 27 1016 54 16093 5.1 40 01:37 30.09.2019
1061 Clouds 28 1016 51 16093 6.7 40 00:42 30.09.2019
1062 Clouds 28 1016 51 16093 6.7 40 00:22 30.09.2019
1063 Clouds 29 1016 55 16093 6.7 60 23:48 29.09.2019
1064 Clouds 29 1016 55 16093 6.7 60 23:28 29.09.2019
1065 Clouds 30 1016 45 16093 7.7 50 22:59 29.09.2019
1066 Clouds 30 1016 45 16093 7.7 50 22:41 29.09.2019
1067 Clouds 30 1016 45 16093 7.7 50 22:23 29.09.2019
1068 Clouds 30 1016 55 16093 8.7 50 21:58 29.09.2019
1069 Clouds 31 1016 55 16093 8.7 50 21:37 29.09.2019
1070 Clouds 31 1016 55 16093 8.7 50 21:19 29.09.2019
1071 Clouds 31 1017 48 16093 7.2 40 20:45 29.09.2019
1072 Clouds 31 1017 48 16093 7.2 40 20:20 29.09.2019
1073 Clouds 31 1018 48 16093 5.1 40 19:59 29.09.2019
1074 Clouds 31 1018 48 16093 5.1 40 19:38 29.09.2019
1075 Clouds 31 1018 48 16093 5.1 40 19:19 29.09.2019
1076 Clouds 31 1019 55 16093 6.7 60 18:56 29.09.2019
1077 Clouds 31 1019 55 16093 6.7 60 18:56 29.09.2019
1078 Clouds 31 1019 55 16093 6.7 60 18:38 29.09.2019
1079 Clouds 30 1019 55 16093 6.7 60 18:19 29.09.2019
1080 Clouds 30 1019 66 16093 5.7 60 17:59 29.09.2019
1081 Clouds 30 1018 66 16093 6.7 40 17:41 29.09.2019
1082 Clouds 30 1018 66 16093 6.7 40 17:41 29.09.2019
1083 Clouds 30 1019 55 16093 6.2 60 17:20 29.09.2019
1084 Clouds 30 1019 55 16093 6.2 60 17:20 29.09.2019
1085 Rain 29 1018 70 16093 5.1 50 16:59 29.09.2019
1086 Rain 29 1018 70 16093 5.1 50 16:40 29.09.2019
1087 Rain 29 1018 62 16093 5.1 40 16:19 29.09.2019
1088 Rain 29 1018 62 16093 5.1 40 16:19 29.09.2019
1089 Clouds 29 1018 66 16093 5.1 70 15:57 29.09.2019
1090 Clouds 29 1018 66 16093 5.1 70 15:37 29.09.2019
1091 Clouds 29 1018 66 16093 5.1 70 15:37 29.09.2019
1092 Clouds 28 1018 66 16093 5.1 70 15:18 29.09.2019
1093 Clouds 28 1018 74 16093 2.6 50 14:55 29.09.2019
1094 Clouds 27 1017 69 16093 1.5 20 14:37 29.09.2019
1095 Clouds 27 1017 69 16093 1.5 20 14:18 29.09.2019
1096 Rain 27 1018 78 16093 3.6 360 13:54 29.09.2019
1097 Rain 26 1017 74 16093 2.1 40 13:36 29.09.2019
1098 Rain 26 1017 74 16093 2.1 40 13:18 29.09.2019
1099 -273 0 0 0 0 0 12:55 29.09.2019
1100 Clouds 26 1016 88 16093 1.5 330 12:55 29.09.2019
1101 Clouds 26 1016 74 16093 2.1 40 12:37 29.09.2019
1102 Clouds 26 1016 74 16093 2.1 40 12:18 29.09.2019
1103 Clouds 26 1016 94 16093 1.5 50 11:40 29.09.2019
1104 Drizzle 26 1016 69 16093 3.1 50 11:19 29.09.2019
1105 Clouds 27 1016 83 16093 1.5 50 10:58 29.09.2019
1106 Clouds 26 1016 83 16093 1.5 50 10:38 29.09.2019
1107 Clear 27 1016 78 16093 2.6 70 10:20 29.09.2019
1108 Clouds 27 1016 83 16093 4.6 60 09:56 29.09.2019
1109 Clouds 27 1016 83 16093 4.6 60 09:56 29.09.2019
1110 Clouds 27 1016 83 16093 4.6 60 09:38 29.09.2019
1111 Clouds 27 1017 78 16093 4.1 80 09:18 29.09.2019
1112 Clouds 27 1016 83 16093 5.7 60 08:42 29.09.2019
1113 Clouds 27 1017 74 16093 3.1 70 08:21 29.09.2019
1114 Rain 27 1018 74 16093 4.6 70 07:43 29.09.2019
1115 Clouds 27 1017 74 16093 4.6 60 07:25 29.09.2019
1116 Clouds 27 1018 69 16093 3.6 50 06:49 29.09.2019
1117 Clouds 27 1017 83 16093 3.1 70 05:55 29.09.2019
1118 Clouds 28 1018 69 16093 3.6 50 04:45 29.09.2019
1119 Clouds 28 1018 69 16093 3.6 50 04:23 29.09.2019
1120 Clouds 28 1017 69 16093 4.6 50 02:58 29.09.2019
1121 Clouds 28 1017 69 16093 4.6 50 02:19 29.09.2019
1122 Clouds 28 1016 78 16093 5.1 50 01:40 29.09.2019
1123 Clouds 29 1017 62 16093 6.7 70 00:55 29.09.2019
1124 Clouds 29 1017 62 16093 6.7 70 00:36 29.09.2019
1125 Clouds 29 1017 62 16093 6.7 70 00:18 29.09.2019
1126 Clouds 30 1016 58 16093 3.6 60 23:37 28.09.2019
1127 Clouds 30 1016 58 16093 3.6 60 23:19 28.09.2019
1128 Clouds 31 1017 62 16093 6.7 60 22:40 28.09.2019
1129 Clouds 31 1016 55 16093 5.7 70 22:21 28.09.2019
1130 Clouds 32 1017 62 16093 6.2 60 21:58 28.09.2019
1131 Clouds 31 1017 62 16093 6.2 60 21:40 28.09.2019
1132 Clouds 32 1017 55 16093 5.7 90 21:21 28.09.2019
1133 Clouds 32 1017 49 16093 5.7 100 20:57 28.09.2019
1134 Clouds 32 1017 49 16093 5.7 100 20:39 28.09.2019
1135 Clouds 32 1017 49 16093 5.7 100 20:19 28.09.2019
1136 Clouds 32 1017 49 16093 5.7 100 20:19 28.09.2019
1137 Clouds 32 1018 52 16093 5.1 80 19:56 28.09.2019
1138 Clouds 32 1018 52 16093 5.1 80 19:38 28.09.2019
1139 Clouds 32 1018 52 16093 5.1 80 19:20 28.09.2019
1140 Clouds 32 1018 52 16093 4.1 90 18:57 28.09.2019
1141 Clouds 32 1018 52 16093 4.1 90 18:38 28.09.2019
1142 Clouds 32 1018 52 16093 4.1 90 18:20 28.09.2019
1143 Clouds 31 1018 74 16093 6.2 50 17:55 28.09.2019
1144 Clouds 31 1018 55 16093 5.1 80 17:37 28.09.2019
1145 Clouds 31 1018 55 16093 5.1 80 17:19 28.09.2019
1146 Clouds 30 1019 58 16093 4.6 110 16:41 28.09.2019
1147 Clouds 30 1018 58 16093 5.7 90 16:23 28.09.2019
1148 Clouds 29 1017 66 16093 4.6 90 15:42 28.09.2019
1149 Clouds 29 1017 66 16093 4.6 90 15:23 28.09.2019
1150 Clouds 28 1017 69 16093 3.6 80 14:57 28.09.2019
1151 Clouds 28 1017 69 16093 3.6 80 14:39 28.09.2019
1152 Clouds 27 1017 69 16093 3.6 80 14:21 28.09.2019
1153 Clouds 27 1017 74 16093 2.1 90 13:57 28.09.2019
1154 Clouds 26 1017 74 16093 2.1 90 13:38 28.09.2019
1155 Clouds 26 1016 74 16093 2.6 80 13:19 28.09.2019
1156 Clouds 26 1015 74 16093 3.6 100 12:44 28.09.2019
1157 Clouds 27 1015 74 16093 3.6 100 12:20 28.09.2019
1158 Clouds 27 1015 74 16093 3.6 100 11:55 28.09.2019
1159 Clouds 27 1015 74 16093 3.6 100 11:37 28.09.2019
1160 Clouds 27 1015 74 16093 3.6 100 11:18 28.09.2019
1161 Clouds 27 1015 69 16093 4.1 100 10:42 28.09.2019
1162 Clouds 27 1015 69 16093 4.1 100 10:20 28.09.2019
1163 Clouds 27 1015 74 16093 4.6 120 09:56 28.09.2019
1164 Clouds 27 1015 69 16093 4.1 100 09:37 28.09.2019
1165 Clouds 27 1015 69 16093 4.1 100 09:18 28.09.2019
1166 Clouds 27 1015 74 16093 4.6 80 08:44 28.09.2019
1167 Clouds 27 1015 74 16093 4.6 80 08:26 28.09.2019
1168 Clouds 27 1015 69 16093 4.1 90 07:45 28.09.2019
1169 Clouds 27 1015 69 16093 4.1 90 07:21 28.09.2019
1170 Clouds 27 1016 69 16093 5.1 90 06:55 28.09.2019
1171 Clouds 27 1016 69 16093 5.1 90 06:31 28.09.2019
1172 Clouds 28 1016 69 16093 5.7 80 05:55 28.09.2019
1173 Clouds 28 1016 69 16093 5.7 80 05:20 28.09.2019
1174 Clouds 28 1016 69 16093 6.2 80 04:39 28.09.2019
1175 Rain 28 1015 69 16093 4.6 90 03:58 28.09.2019
1176 Rain 28 1015 69 16093 4.6 90 03:58 28.09.2019
1177 Rain 28 1015 69 16093 4.6 90 03:23 28.09.2019
1178 Rain 28 1015 74 16093 4.6 90 02:56 28.09.2019
1179 Rain 28 1014 66 16093 6.2 80 02:32 28.09.2019
1180 Rain 28 1014 62 16093 5.7 80 01:49 28.09.2019
1181 Rain 28 1014 62 16093 5.7 80 01:26 28.09.2019
1182 Clouds 29 1014 66 16093 7.2 90 00:55 28.09.2019
1183 Clouds 29 1014 66 16093 7.2 90 00:36 28.09.2019
1184 Clouds 29 1014 66 16093 7.2 90 00:18 28.09.2019
1185 Clouds 30 1014 55 16093 6.7 90 23:37 27.09.2019
1186 Clouds 30 1014 55 16093 6.7 90 23:19 27.09.2019
1187 Clouds 31 1014 55 16093 6.2 80 22:45 27.09.2019
1188 Clouds 31 1014 55 16093 6.2 80 22:19 27.09.2019
1189 Clouds 31 1013 70 16093 6.2 50 21:57 27.09.2019
1190 Clouds 31 1013 70 16093 6.2 50 21:37 27.09.2019
1191 Clouds 31 1014 52 16093 6.2 100 21:19 27.09.2019
1192 Clouds 31 1015 52 16093 4.6 80 20:56 27.09.2019
1193 Clouds 31 1015 52 16093 4.6 80 20:38 27.09.2019
1194 Clouds 31 1015 52 16093 4.6 80 20:19 27.09.2019
1195 Clouds 32 1014 74 16093 5.1 80 19:56 27.09.2019
1196 Clouds 32 1014 74 16093 5.1 80 19:37 27.09.2019
1197 Clouds 31 1015 52 16093 5.7 110 19:18 27.09.2019
1198 Clouds 31 1016 62 16093 4.1 70 18:40 27.09.2019
1199 Clouds 31 1016 62 16093 4.1 70 18:22 27.09.2019
1200 -273 0 0 0 0 0 17:55 27.09.2019
1201 Drizzle 30 1016 62 16093 5.1 90 17:37 27.09.2019
1202 Drizzle 30 1016 62 16093 5.1 90 17:18 27.09.2019
1203 Clear 30 1015 74 16093 5.1 80 16:57 27.09.2019
1204 Clear 30 1015 74 16093 5.1 80 16:56 27.09.2019
1205 Drizzle 30 1015 62 16093 4.6 110 16:37 27.09.2019
1206 Clear 30 1015 74 16093 5.1 80 16:37 27.09.2019
1207 Drizzle 30 1015 62 16093 4.6 110 16:18 27.09.2019
1208 Drizzle 29 1015 62 16093 3.6 90 15:44 27.09.2019
1209 Clouds 28 1015 62 16093 3.6 90 15:20 27.09.2019
1210 Clouds 27 1014 69 16093 2.1 40 14:57 27.09.2019
1211 Clouds 27 1014 69 16093 2.1 40 14:39 27.09.2019
1212 Clouds 27 1014 69 16093 2.1 40 14:20 27.09.2019
1213 Clouds 25 1014 69 16093 2.1 30 13:57 27.09.2019
1214 Clouds 25 1014 69 16093 2.1 30 13:39 27.09.2019
1215 Clouds 25 1014 69 16093 2.1 30 13:20 27.09.2019
1216 Clouds 25 1013 74 16093 2.1 80 12:52 27.09.2019
1217 Clouds 25 1013 74 16093 2.1 80 12:23 27.09.2019
1218 Clouds 25 1013 74 16093 3.6 110 11:57 27.09.2019
1219 Clouds 25 1013 74 16093 3.6 110 11:38 27.09.2019
1220 Clouds 26 1013 74 16093 3.6 110 11:19 27.09.2019
1221 Clouds 26 1012 69 16093 3.6 90 10:43 27.09.2019
1222 Clouds 26 1012 69 16093 3.6 90 10:21 27.09.2019
1223 Clouds 26 1013 69 16093 3.1 100 09:56 27.09.2019
1224 Clouds 26 1013 69 16093 3.1 100 09:38 27.09.2019
1225 Clouds 26 1013 69 16093 3.1 100 09:18 27.09.2019
1226 Clouds 26 1013 69 16093 4.6 90 08:41 27.09.2019
1227 Clouds 26 1013 65 16093 3.1 100 08:21 27.09.2019
1228 Rain 26 1013 65 16093 4.1 90 07:50 27.09.2019
1229 Rain 26 1013 65 16093 4.1 90 07:29 27.09.2019
1230 Rain 26 1014 78 16093 2.6 90 06:49 27.09.2019
1231 Rain 27 1014 74 16093 3.1 70 06:31 27.09.2019
1232 Clouds 27 1014 58 16093 4.6 90 05:54 27.09.2019
1233 Clouds 27 1014 58 16093 4.6 90 05:34 27.09.2019
1234 Clouds 27 1014 65 16093 4.6 70 04:52 27.09.2019
1235 Clouds 27 1013 61 16093 3.6 60 03:38 27.09.2019
1236 Clouds 27 1012 58 16093 5.7 60 01:55 27.09.2019
1237 Clouds 27 1012 58 16093 5.7 60 01:30 27.09.2019
1238 Clouds 27 1012 58 16093 5.7 60 01:30 27.09.2019
1239 Clouds 28 1012 54 16093 4.6 60 00:41 27.09.2019
1240 Clouds 29 1012 48 16093 6.7 70 23:57 26.09.2019
1241 Clouds 29 1012 48 16093 6.7 70 23:39 26.09.2019
1242 Clouds 30 1012 48 16093 6.7 70 23:20 26.09.2019
1243 Clouds 30 1012 45 16093 5.1 60 22:58 26.09.2019
1244 Clouds 30 1012 45 16093 5.1 60 22:39 26.09.2019
1245 Clouds 30 1012 45 16093 5.1 60 22:18 26.09.2019
1246 Clouds 30 1012 45 16093 5.1 60 22:18 26.09.2019
1247 Clouds 31 1012 45 16093 4.6 60 21:58 26.09.2019
1248 Clouds 31 1012 45 16093 4.6 60 21:38 26.09.2019
1249 Clouds 31 1012 45 16093 4.6 60 21:19 26.09.2019
1250 Clouds 31 1012 45 16093 4.6 60 21:19 26.09.2019
1251 Clouds 31 1013 48 16093 4.6 50 20:58 26.09.2019
1252 Clouds 31 1013 48 16093 4.6 50 20:39 26.09.2019
1253 Clouds 31 1013 48 16093 4.6 50 20:21 26.09.2019
1254 Clouds 31 1014 48 16093 5.7 80 19:59 26.09.2019
1255 Clouds 31 1014 48 16093 5.7 80 19:39 26.09.2019
1256 Clouds 31 1014 48 16093 5.7 80 19:18 26.09.2019
1257 Clouds 31 1014 55 16093 3.6 60 18:54 26.09.2019
1258 Clouds 30 1014 55 16093 3.6 60 18:36 26.09.2019
1259 Clouds 30 1014 55 16093 3.6 60 18:18 26.09.2019
1260 Clouds 30 1014 54 16093 3.1 30 17:38 26.09.2019
1261 Clouds 30 1014 54 16093 3.1 30 17:38 26.09.2019
1262 Clouds 30 1014 54 16093 3.1 30 17:38 26.09.2019
1263 Clouds 30 1014 54 16093 3.1 30 17:38 26.09.2019
1264 Clouds 30 1014 54 16093 3.1 30 17:38 26.09.2019
1265 Clouds 29 1014 54 16093 3.1 30 17:19 26.09.2019
1266 Clouds 29 1014 58 16093 3.1 50 16:57 26.09.2019
1267 Clouds 29 1014 58 16093 3.1 50 16:39 26.09.2019
1268 Clouds 29 1014 58 16093 3.1 50 16:19 26.09.2019
1269 Clouds 28 1013 58 16093 1.5 360 15:56 26.09.2019
1270 Clouds 28 1013 58 16093 1.5 360 15:36 26.09.2019
1271 Clouds 27 1013 58 16093 1.5 360 15:18 26.09.2019
1272 Clouds 25 1013 65 16093 1.98 91.073 14:41 26.09.2019
1273 Clouds 25 1013 65 16093 1.98 91.073 14:22 26.09.2019
1274 Clouds 24 1013 65 16093 1.5 360 13:58 26.09.2019
1275 Clouds 24 1013 65 16093 1.5 360 13:40 26.09.2019
1276 Clouds 24 1013 65 16093 1.5 360 13:19 26.09.2019
1277 Clouds 24 1013 65 16093 1.5 360 13:19 26.09.2019
1278 Clouds 23 1013 69 16093 1.5 330 12:56 26.09.2019
1279 Clouds 24 1013 69 16093 1.5 330 12:38 26.09.2019
1280 Clouds 23 1013 69 16093 1.5 330 12:19 26.09.2019
1281 Clouds 23 1013 69 16093 1.5 330 12:19 26.09.2019
1282 Clouds 24 1012 69 16093 1.5 310 11:42 26.09.2019
1283 Clouds 24 1012 69 16093 1.5 310 11:21 26.09.2019
1284 Clouds 24 1012 73 16093 3 81.97 10:55 26.09.2019
1285 Clouds 24 1012 73 16093 3 81.97 10:37 26.09.2019
1286 Clouds 24 1012 73 16093 3 81.97 10:19 26.09.2019
1287 Clouds 25 1012 61 16093 2.1 360 09:41 26.09.2019
1288 Clouds 25 1012 61 16093 2.1 360 09:23 26.09.2019
1289 Clouds 25 1013 61 16093 2.1 10 08:54 26.09.2019
1290 Clouds 25 1013 61 16093 2.1 10 08:32 26.09.2019
1291 Clouds 25 1013 57 16093 4.1 70 07:59 26.09.2019
1292 Clouds 25 1013 57 16093 4.1 70 07:41 26.09.2019
1293 Clouds 25 1013 57 16093 4.1 70 07:41 26.09.2019
1294 Clouds 25 1013 57 16093 4.1 70 07:20 26.09.2019
1295 Clouds 25 1012 74 16093 2.6 50 06:43 26.09.2019
1296 Clouds 25 1013 57 16093 2.6 40 06:24 26.09.2019
1297 Clouds 26 1013 57 16093 2.6 50 05:44 26.09.2019
1298 Clouds 26 1013 57 16093 2.6 50 05:21 26.09.2019
1299 Clouds 26 1012 57 16093 4.1 50 02:47 26.09.2019
1300 Clouds 27 1012 51 16093 4.1 40 01:49 26.09.2019
1301 Clouds 27 1012 51 16093 4.1 40 01:28 26.09.2019
1302 Clouds 28 1012 48 16093 6.2 80 00:55 26.09.2019
1303 Clouds 28 1012 48 16093 6.2 80 00:37 26.09.2019
1304 Clouds 29 1012 48 16093 6.2 80 23:47 25.09.2019
1305 Clouds 30 1012 48 16093 6.2 80 23:28 25.09.2019
1306 Clouds 30 1012 45 16093 6.7 70 22:57 25.09.2019
1307 Clouds 30 1012 45 16093 6.7 70 22:39 25.09.2019
1308 Clouds 30 1012 45 16093 6.7 70 22:20 25.09.2019
1309 Clouds 30 1012 45 16093 3.1 0 21:56 25.09.2019
1310 Clouds 30 1012 45 16093 3.1 0 21:38 25.09.2019
1311 Clouds 30 1012 45 16093 3.1 0 21:19 25.09.2019
1312 Clouds 31 1013 45 16093 4.1 50 20:56 25.09.2019
1313 Clouds 31 1013 45 16093 4.1 50 20:38 25.09.2019
1314 Clouds 31 1013 45 16093 4.1 50 20:19 25.09.2019
1315 Clouds 31 1013 51 16093 4.6 80 19:41 25.09.2019
1316 Clouds 31 1013 51 16093 4.6 80 19:22 25.09.2019
1317 Clouds 31 1014 45 16093 3.1 10 18:57 25.09.2019
1318 Clouds 30 1014 45 16093 3.1 10 18:39 25.09.2019
1319 Clouds 30 1014 45 16093 3.1 10 18:21 25.09.2019
1320 Clouds 30 1014 51 16093 2.6 40 17:58 25.09.2019
1321 Clouds 29 1014 51 16093 2.6 40 17:37 25.09.2019
1322 Clouds 29 1014 51 16093 2.6 40 17:19 25.09.2019
1323 Clouds 29 1014 54 16093 3.1 30 16:45 25.09.2019
1324 Clouds 28 1014 54 16093 3.1 30 16:27 25.09.2019
1325 Clouds 27 1013 61 16093 2.1 360 15:59 25.09.2019
1326 Clouds 27 1013 61 16093 2.1 360 15:40 25.09.2019
1327 Clouds 26 1013 61 16093 2.1 360 15:22 25.09.2019
1328 Clouds 25 1013 73 16093 1.57 343.788 14:56 25.09.2019
1329 Clouds 24 1013 73 16093 1.57 343.788 14:38 25.09.2019
1330 Clouds 23 1013 73 16093 1.57 343.788 14:20 25.09.2019
1331 Clouds 22 1012 78 16093 2.1 300 13:41 25.09.2019
1332 Clouds 22 1012 78 16093 2.1 300 13:22 25.09.2019
1333 Clouds 22 1012 78 16093 1.11 27.445 12:58 25.09.2019
1334 Clouds 22 1012 78 16093 1.11 27.445 12:39 25.09.2019
1335 Clouds 22 1012 78 16093 1.28 80.215 12:21 25.09.2019
1336 Clouds 22 1012 73 16093 1.28 80.215 11:45 25.09.2019
1337 Clouds 22 1012 73 16093 1.28 80.215 11:22 25.09.2019
1338 Clouds 22 1012 73 16093 1.28 80.215 10:59 25.09.2019
1339 Clouds 23 1012 73 16093 1.28 80.215 10:41 25.09.2019
1340 Clouds 23 1012 73 16093 1.28 80.215 10:21 25.09.2019
1341 Clouds 23 1012 69 16093 1.28 80.215 09:56 25.09.2019
1342 Clouds 23 1012 69 16093 1.28 80.215 09:36 25.09.2019
1343 Clouds 23 1012 69 16093 2.26 62.515 09:18 25.09.2019
1344 Clouds 24 1012 61 16093 2.6 80 08:42 25.09.2019
1345 Clouds 24 1012 61 16093 2.6 80 08:21 25.09.2019
1346 Clouds 25 1012 65 16093 2.38 73.239 07:56 25.09.2019
1347 Clouds 25 1012 65 16093 2.38 73.239 07:37 25.09.2019
1348 Clouds 25 1012 65 16093 2.38 73.239 07:19 25.09.2019
1349 Clouds 25 1013 61 16093 2.1 50 06:38 25.09.2019
1350 Clouds 25 1013 61 16093 2.1 50 06:18 25.09.2019
1351 Clouds 25 1013 61 16093 2.6 50 05:27 25.09.2019
1352 Clouds 26 1013 61 16093 3.6 40 04:50 25.09.2019
1353 Clouds 27 1011 58 16093 3.6 60 02:19 25.09.2019
1354 Clouds 28 1011 54 16093 4.6 70 00:45 25.09.2019
1355 -273 0 0 0 0 0 00:24 25.09.2019
1356 Clouds 29 1011 54 16093 5.7 80 23:55 24.09.2019
1357 Clouds 29 1011 54 16093 5.7 80 23:37 24.09.2019
1358 Clouds 29 1011 54 16093 5.7 80 23:18 24.09.2019
1359 Clouds 30 1011 51 16093 4.6 60 22:39 24.09.2019
1360 Clouds 30 1011 51 16093 4.6 60 22:20 24.09.2019
1361 Clouds 30 1011 48 16093 4.1 40 21:56 24.09.2019
1362 Clouds 30 1011 48 16093 4.1 40 21:37 24.09.2019
1363 Clouds 30 1011 48 16093 4.1 40 21:19 24.09.2019
1364 Clouds 30 1011 48 16093 4.1 40 21:19 24.09.2019
1365 Clouds 30 1012 54 16093 4.6 80 20:57 24.09.2019
1366 Clouds 30 1012 54 16093 4.6 80 20:39 24.09.2019
1367 Clouds 30 1012 54 16093 4.6 80 20:20 24.09.2019
1368 Clouds 30 1013 45 16093 2.1 0 19:44 24.09.2019
1369 Clouds 30 1013 45 16093 2.1 0 19:23 24.09.2019
1370 Clouds 30 1013 48 16093 3.1 60 18:59 24.09.2019
1371 Clouds 30 1013 48 16093 3.1 60 18:41 24.09.2019
1372 Clouds 30 1013 48 16093 3.1 60 18:41 24.09.2019
1373 Clouds 30 1013 48 16093 3.1 60 18:22 24.09.2019
1374 Clouds 30 1014 52 16093 6.2 70 17:58 24.09.2019
1375 Clouds 29 1014 51 16093 3.6 60 17:38 24.09.2019
1376 Clouds 29 1014 51 16093 3.6 60 17:38 24.09.2019
1377 Clouds 29 1014 51 16093 3.6 60 17:20 24.09.2019
1378 Clouds 29 1014 51 16093 3.1 350 16:58 24.09.2019
1379 Clouds 29 1014 51 16093 3.1 350 16:40 24.09.2019
1380 Clouds 28 1014 51 16093 3.1 350 16:19 24.09.2019
1381 Clouds 27 1013 57 16093 3.6 350 15:42 24.09.2019
1382 Clouds 26 1013 57 16093 3.6 350 15:23 24.09.2019
1383 Clouds 25 1013 65 16093 2.68 353.995 14:45 24.09.2019
1384 Clear 24 1013 78 16093 3.1 350 14:21 24.09.2019
1385 Clouds 23 1012 65 16093 2.68 353.995 13:59 24.09.2019
1386 Clear 22 1012 78 16093 2.6 350 13:40 24.09.2019
1387 Clear 22 1012 78 16093 2.6 350 13:21 24.09.2019
1388 Clear 22 1012 78 16093 2.6 340 12:42 24.09.2019
1389 Clouds 22 1012 69 16093 2.63 22.892 12:21 24.09.2019
1390 Clouds 23 1012 65 16093 1.5 320 11:57 24.09.2019
1391 Clouds 23 1012 65 16093 1.5 320 11:39 24.09.2019
1392 Clouds 23 1012 65 16093 1.5 320 11:19 24.09.2019
1393 Clouds 23 1012 73 16093 2.63 22.892 10:40 24.09.2019
1394 Clouds 23 1012 73 16093 2.63 22.892 10:21 24.09.2019
1395 Clouds 24 1012 65 16093 1.5 340 09:57 24.09.2019
1396 Clouds 24 1012 65 16093 1.5 340 09:39 24.09.2019
1397 Clouds 24 1012 65 16093 1.5 340 09:19 24.09.2019
1398 Clouds 24 1012 83 16093 3.48 28.97 08:55 24.09.2019
1399 Clouds 24 1012 83 16093 3.48 28.97 08:55 24.09.2019
1400 Clouds 24 1012 83 16093 3.48 28.97 08:55 24.09.2019
1401 Clouds 24 1012 83 16093 3.48 28.97 08:55 24.09.2019
1402 Clouds 24 1012 61 16093 1.5 20 08:36 24.09.2019
1403 Clouds 25 1012 61 16093 1.5 20 08:18 24.09.2019
1404 Clouds 25 1013 61 16093 2.1 20 07:41 24.09.2019
1405 Clouds 25 1013 61 16093 2.1 20 07:22 24.09.2019
1406 Clouds 25 1014 61 16093 1.5 30 06:46 24.09.2019
1407 Clouds 25 1014 61 16093 1.5 30 06:27 24.09.2019
1408 Clouds 26 1014 57 16093 2.1 30 05:25 24.09.2019
1409 Clouds 26 1014 57 16093 1.5 40 04:19 24.09.2019
1410 Clouds 26 1014 57 16093 3.1 50 03:34 24.09.2019
1411 Clouds 27 1013 57 16093 4.1 50 02:45 24.09.2019
1412 Clouds 27 1013 58 16093 5.1 50 01:43 24.09.2019
1413 Clouds 28 1013 51 16093 6.2 40 00:42 24.09.2019
1414 Clouds 28 1013 51 16093 6.2 40 00:23 24.09.2019
1415 Clouds 29 1013 51 16093 5.7 60 23:43 23.09.2019
1416 Clouds 29 1013 51 16093 5.7 60 23:23 23.09.2019
1417 Clouds 30 1013 48 16093 6.2 50 22:57 23.09.2019
1418 Clouds 30 1013 48 16093 6.2 50 22:37 23.09.2019
1419 Clouds 30 1013 48 16093 6.2 50 22:37 23.09.2019
1420 Clouds 30 1013 48 16093 6.2 50 22:19 23.09.2019
1421 Clouds 30 1014 52 16093 3.6 70 21:56 23.09.2019
1422 Clouds 31 1014 46 16093 4.6 50 21:37 23.09.2019
1423 Clouds 31 1014 46 16093 4.6 50 21:18 23.09.2019
1424 Clouds 31 1014 48 16093 4.1 30 20:40 23.09.2019
1425 Clouds 31 1014 48 16093 4.1 30 20:19 23.09.2019
1426 Clouds 30 1015 48 16093 5.7 60 19:55 23.09.2019
1427 Clouds 30 1015 48 16093 5.7 60 19:55 23.09.2019
1428 Clouds 30 1015 48 16093 5.7 60 19:37 23.09.2019
1429 Clouds 30 1015 48 16093 5.7 60 19:19 23.09.2019
1430 Clouds 30 1015 48 16093 5.7 60 19:19 23.09.2019
1431 Clouds 30 1016 54 16093 4.1 40 18:42 23.09.2019
1432 Clouds 30 1016 54 16093 4.1 40 18:21 23.09.2019
1433 Clouds 30 1016 55 16093 7.7 40 17:59 23.09.2019
1434 Clouds 29 1016 54 16093 4.6 40 17:39 23.09.2019
1435 Clouds 29 1016 54 16093 4.6 40 17:20 23.09.2019
1436 Clouds 29 1016 58 16093 6.7 80 16:57 23.09.2019
1437 Clouds 29 1016 58 16093 6.7 80 16:37 23.09.2019
1438 Clouds 29 1016 58 16093 6.7 80 16:18 23.09.2019
1439 Clouds 28 1015 58 16093 4.6 50 15:56 23.09.2019
1440 Clouds 28 1015 58 16093 4.6 50 15:38 23.09.2019
1441 Clouds 28 1015 58 16093 4.6 50 15:19 23.09.2019
1442 Clouds 27 1014 65 16093 3.1 40 14:40 23.09.2019
1443 Clouds 27 1014 65 16093 3.1 40 14:40 23.09.2019
1444 Clouds 26 1014 65 16093 3.1 40 14:21 23.09.2019
1445 Clouds 26 1014 65 16093 3.6 30 13:59 23.09.2019
1446 Clouds 26 1014 65 16093 3.6 30 13:39 23.09.2019
1447 Clouds 25 1014 65 16093 3.6 30 13:18 23.09.2019
1448 Clouds 25 1014 65 16093 2.6 40 12:56 23.09.2019
1449 Clouds 25 1014 65 16093 2.6 40 12:37 23.09.2019
1450 Clouds 25 1014 65 16093 2.6 40 12:19 23.09.2019
1451 Clouds 26 1014 61 16093 3.6 40 11:44 23.09.2019
1452 Clouds 26 1014 61 16093 3.6 40 11:26 23.09.2019
1453 Clouds 26 1014 65 16093 5.1 50 10:55 23.09.2019
1454 Clouds 26 1014 65 16093 5.1 50 10:36 23.09.2019
1455 Clouds 26 1014 65 16093 5.1 50 10:18 23.09.2019
1456 Clouds 26 1014 65 16093 3.6 40 09:38 23.09.2019
1457 Clouds 26 1014 65 16093 3.6 40 09:20 23.09.2019
1458 Clouds 26 1015 65 16093 3.6 40 08:50 23.09.2019
1459 Clouds 26 1015 65 16093 3.6 40 08:30 23.09.2019
1460 Clouds 26 1015 69 16093 4.6 50 07:58 23.09.2019
1461 Clouds 26 1015 69 16093 4.6 50 07:31 23.09.2019
1462 Clouds 27 1016 69 16093 5.7 50 06:42 23.09.2019
1463 Rain 27 1016 69 16093 5.7 50 06:18 23.09.2019
1464 Rain 27 1017 74 16093 6.7 60 05:22 23.09.2019
1465 Clouds 27 1016 83 16093 5.7 40 04:55 23.09.2019
1466 Rain 27 1016 65 16093 4.6 40 03:34 23.09.2019
1467 Clouds 28 1015 65 16093 8.2 40 01:22 23.09.2019
1468 Clouds 28 1015 62 16093 8.7 40 00:23 23.09.2019
1469 Clouds 29 1015 66 16093 8.2 40 23:57 22.09.2019
1470 Clouds 29 1015 62 16093 6.7 40 23:33 22.09.2019
1471 Clouds 29 1016 66 16093 8.7 50 22:59 22.09.2019
1472 Clouds 29 1016 66 16093 8.7 50 22:41 22.09.2019
1473 Clouds 29 1015 62 16093 5.7 50 22:23 22.09.2019
1474 Clouds 29 1016 62 16093 8.2 50 21:55 22.09.2019
1475 Clouds 29 1016 62 16093 8.2 50 21:37 22.09.2019
1476 Clouds 29 1016 62 16093 8.2 50 21:37 22.09.2019
1477 Clouds 30 1016 62 16093 8.2 50 21:19 22.09.2019
1478 Clouds 30 1016 48 16093 6.7 60 20:42 22.09.2019
1479 Clouds 30 1016 48 16093 6.7 60 20:24 22.09.2019
1480 Rain 30 1017 54 16093 7.2 60 19:56 22.09.2019
1481 Rain 30 1017 54 16093 7.2 60 19:37 22.09.2019
1482 Rain 30 1017 54 16093 7.2 60 19:19 22.09.2019
1483 Clouds 30 1018 54 16093 9.3 70 18:55 22.09.2019
1484 Clouds 30 1018 54 16093 9.3 70 18:36 22.09.2019
1485 Clouds 30 1018 54 16093 9.3 70 18:18 22.09.2019
1486 Clouds 29 1017 54 16093 7.2 70 17:41 22.09.2019
1487 Clouds 29 1017 54 16093 7.2 70 17:22 22.09.2019
1488 Clouds 28 1017 58 16093 6.7 60 16:46 22.09.2019
1489 Clouds 28 1017 58 16093 6.7 60 16:27 22.09.2019
1490 Clouds 28 1017 61 16093 6.2 60 15:58 22.09.2019
1491 Clouds 28 1017 61 16093 6.2 60 15:40 22.09.2019
1492 Clouds 28 1017 61 16093 6.2 60 15:21 22.09.2019
1493 Clouds 28 1017 61 16093 6.2 60 15:21 22.09.2019
1494 Clouds 27 1016 65 16093 5.1 50 14:46 22.09.2019
1495 Clouds 27 1016 65 16093 5.1 50 14:26 22.09.2019
1496 Clouds 27 1016 61 16093 6.7 60 13:59 22.09.2019
1497 Clouds 27 1016 61 16093 6.7 60 13:41 22.09.2019
1498 Clouds 26 1016 61 16093 6.7 60 13:22 22.09.2019
1499 Clouds 26 1016 65 16093 8.7 80 12:56 22.09.2019
1500 Clouds 26 1016 61 16093 5.1 50 12:37 22.09.2019
1501 Clouds 26 1016 61 16093 5.1 50 12:18 22.09.2019
1502 Clouds 27 1014 78 16093 8.2 30 11:42 22.09.2019
1503 Drizzle 27 1015 61 16093 6.7 50 11:24 22.09.2019
1504 Clouds 27 1015 74 16093 8.2 40 10:55 22.09.2019
1505 Clouds 27 1016 61 16093 6.2 60 10:37 22.09.2019
1506 Clouds 27 1016 61 16093 6.2 60 10:18 22.09.2019
1507 Clouds 27 1016 69 16093 6.7 50 09:42 22.09.2019
1508 Clouds 27 1016 69 16093 6.7 50 09:21 22.09.2019
1509 Rain 27 1015 78 16093 7.2 50 08:48 22.09.2019
1510 Rain 27 1016 69 16093 6.7 50 08:26 22.09.2019
1511 Rain 27 1015 78 16093 7.2 50 07:58 22.09.2019
1512 Rain 27 1015 78 16093 7.2 50 07:39 22.09.2019
1513 Rain 27 1017 74 16093 6.7 50 07:20 22.09.2019
1514 Rain 27 1017 74 12874 6.7 50 06:56 22.09.2019
1515 Rain 27 1018 78 16093 7.2 60 05:37 22.09.2019
1516 Rain 27 1016 88 11265 6.2 50 03:50 22.09.2019
1517 Rain 27 1015 88 16093 8.7 40 02:41 22.09.2019
1518 Rain 27 1016 69 16093 5.7 40 02:23 22.09.2019
1519 Rain 27 1017 69 16093 8.2 50 01:23 22.09.2019
1520 Rain 27 1017 69 16093 10.3 50 00:39 22.09.2019
1521 Clouds 28 1017 83 16093 3.1 90 00:20 22.09.2019
1522 Thunderstorm 28 1017 74 14484 9.3 60 23:41 21.09.2019
1523 Rain 28 1017 74 14484 9.3 60 23:22 21.09.2019
1524 Rain 28 1017 66 16093 9.3 50 22:39 21.09.2019
1525 Rain 28 1017 70 16093 10.8 50 22:21 21.09.2019
1526 Rain 28 1017 70 16093 10.8 50 22:21 21.09.2019
1527 Rain 29 1017 70 16093 10.8 40 21:55 21.09.2019
1528 Rain 29 1017 74 11265 7.2 40 21:37 21.09.2019
1529 Rain 28 1017 88 3219 6.7 60 21:18 21.09.2019
1530 Rain 28 1017 88 3219 6.7 60 21:18 21.09.2019
1531 Rain 29 1016 83 16093 10.3 40 20:40 21.09.2019
1532 Rain 29 1016 83 16093 10.3 40 20:40 21.09.2019
1533 Rain 29 1017 70 16093 9.8 60 20:22 21.09.2019
1534 Rain 29 1017 70 16093 9.8 60 20:22 21.09.2019
1535 Rain 29 1018 66 16093 7.2 60 19:55 21.09.2019
1536 Rain 29 1018 62 16093 8.2 40 19:36 21.09.2019
1537 Clouds 29 1018 62 16093 8.2 40 19:18 21.09.2019
1538 Rain 30 1019 62 16093 9.8 50 18:39 21.09.2019
1539 Rain 30 1019 62 16093 9.8 50 18:20 21.09.2019
1540 Rain 30 1019 62 16093 9.8 50 18:20 21.09.2019
1541 Rain 29 1017 79 16093 9.3 40 17:42 21.09.2019
1542 Rain 29 1017 79 16093 9.3 40 17:42 21.09.2019
1543 Rain 29 1019 66 16093 9.3 50 17:23 21.09.2019
1544 Rain 29 1018 78 16093 3.6 40 16:56 21.09.2019
1545 Rain 28 1018 78 16093 3.6 40 16:36 21.09.2019
1546 Rain 28 1018 78 16093 3.6 40 16:18 21.09.2019
1547 Rain 27 1018 88 16093 6.2 40 15:42 21.09.2019
1548 Rain 27 1018 78 14484 6.2 60 15:20 21.09.2019
1549 Rain 27 1018 78 8047 4.6 80 14:47 21.09.2019
1550 Rain 27 1017 69 16093 6.2 40 14:28 21.09.2019
1551 Rain 27 1017 69 16093 6.2 40 14:28 21.09.2019
1552 Clouds 27 1017 88 16093 4.1 60 13:45 21.09.2019
1553 Clouds 27 1017 88 16093 4.1 60 13:25 21.09.2019
1554 Rain 27 1017 74 16093 5.1 50 12:58 21.09.2019
1555 Rain 27 1017 74 16093 5.1 50 12:39 21.09.2019
1556 Rain 27 1017 74 16093 5.1 50 12:20 21.09.2019
1557 Rain 27 1017 74 16093 5.1 50 12:20 21.09.2019
1558 Rain 27 1016 83 16093 7.2 50 11:57 21.09.2019
1559 Rain 27 1016 83 16093 7.2 50 11:38 21.09.2019
1560 Rain 27 1017 74 16093 6.2 60 11:18 21.09.2019
1561 Rain 27 1016 78 16093 6.7 60 10:40 21.09.2019
1562 Rain 27 1017 74 16093 6.2 70 10:20 21.09.2019
1563 Rain 27 1016 78 16093 7.2 60 09:57 21.09.2019
1564 Rain 27 1016 78 16093 7.2 60 09:37 21.09.2019
1565 Rain 27 1017 74 16093 6.2 60 09:19 21.09.2019
1566 Rain 27 1016 78 16093 8.2 50 08:48 21.09.2019
1567 Rain 27 1016 78 16093 9.8 50 08:20 21.09.2019
1568 Rain 27 1018 69 16093 7.2 70 07:40 21.09.2019
1569 Rain 27 1018 69 16093 7.2 70 07:20 21.09.2019
1570 Rain 27 1018 69 16093 7.2 70 07:20 21.09.2019
1571 Rain 27 1018 65 16093 5.7 50 06:36 21.09.2019
1572 Rain 27 1017 78 16093 6.7 50 05:51 21.09.2019
1573 Rain 27 1017 78 16093 6.7 50 05:51 21.09.2019
1574 Rain 27 1017 78 16093 7.2 50 04:40 21.09.2019
1575 Rain 27 1016 78 16093 8.7 50 03:39 21.09.2019
1576 Rain 27 1017 61 16093 6.7 70 02:25 21.09.2019
1577 Rain 27 1016 88 16093 6.7 40 01:49 21.09.2019
1578 Rain 27 1017 69 16093 7.2 60 01:26 21.09.2019
1579 Rain 28 1016 69 14484 7.7 70 00:26 21.09.2019
1580 Rain 28 1015 78 16093 7.7 40 23:58 20.09.2019
1581 Rain 29 1016 65 12874 7.7 70 23:30 20.09.2019
1582 Rain 29 1016 58 16093 9.3 70 22:56 20.09.2019
1583 Rain 29 1016 58 16093 9.3 70 22:56 20.09.2019
1584 Rain 29 1016 58 16093 11.3 80 22:38 20.09.2019
1585 Rain 29 1016 58 16093 11.3 80 22:20 20.09.2019
1586 Rain 29 1015 74 14484 9.3 50 21:55 20.09.2019
1587 Rain 30 1016 66 16093 9.3 60 21:37 20.09.2019
1588 Rain 30 1016 66 16093 9.3 60 21:18 20.09.2019
1589 Rain 30 1016 66 16093 9.3 60 21:18 20.09.2019
1590 Rain 30 1017 58 16093 11.8 60 20:41 20.09.2019
1591 Rain 30 1015 70 16093 11.3 80 20:21 20.09.2019
1592 Rain 29 1017 70 16093 10.3 70 19:58 20.09.2019
1593 Rain 29 1017 62 16093 11.8 60 19:39 20.09.2019
1594 Rain 29 1016 70 16093 11.3 80 19:20 20.09.2019
1595 Rain 29 1016 83 16093 2.1 0 18:40 20.09.2019
1596 Rain 29 1016 83 16093 2.1 0 18:20 20.09.2019
1597 Rain 29 1016 74 16093 6.7 50 17:58 20.09.2019
1598 Rain 29 1017 62 16093 6.7 60 17:40 20.09.2019
1599 Rain 29 1016 74 16093 6.7 50 17:40 20.09.2019
1600 Rain 29 1017 62 16093 6.7 60 17:21 20.09.2019
1601 Rain 28 1017 83 16093 7.7 70 16:41 20.09.2019
1602 Rain 28 1016 65 16093 8.7 60 16:19 20.09.2019
1603 Rain 27 1016 74 12874 2.6 0 15:43 20.09.2019
1604 Rain 28 1016 78 16093 6.2 60 15:24 20.09.2019
1605 Rain 28 1016 78 16093 6.2 60 15:24 20.09.2019
1606 Rain 27 1015 74 16093 4.1 50 14:59 20.09.2019
1607 Rain 27 1015 74 16093 4.1 50 14:41 20.09.2019
1608 Rain 27 1015 74 16093 4.1 50 14:41 20.09.2019
1609 Rain 27 1016 65 16093 6.7 70 14:18 20.09.2019
1610 Rain 27 1016 65 16093 6.7 70 14:18 20.09.2019
1611 Rain 27 1015 61 16093 4.1 50 13:47 20.09.2019
1612 Rain 26 1015 69 16093 5.7 60 13:27 20.09.2019
1613 Rain 26 1014 78 16093 3.6 50 12:57 20.09.2019
1614 Rain 26 1014 69 16093 4.1 50 12:36 20.09.2019
1615 Rain 27 1014 69 16093 4.1 50 12:18 20.09.2019
1616 Clouds 26 1014 65 16093 4.1 50 11:48 20.09.2019
1617 Clouds 26 1014 65 16093 4.1 50 11:21 20.09.2019
1618 Clouds 26 1013 78 16093 6.2 60 10:43 20.09.2019
1619 Rain 26 1014 69 16093 5.7 50 10:24 20.09.2019
1620 Clouds 26 1014 65 16093 4.6 50 09:55 20.09.2019
1621 Drizzle 26 1014 65 16093 4.6 50 09:36 20.09.2019
1622 Drizzle 26 1014 65 16093 4.6 50 09:36 20.09.2019
1623 Drizzle 26 1014 65 16093 4.6 50 09:18 20.09.2019
1624 Clouds 26 1015 61 16093 4.6 50 08:41 20.09.2019
1625 Clouds 26 1015 61 16093 4.6 50 08:23 20.09.2019
1626 Rain 26 1015 65 16093 6.2 40 07:47 20.09.2019
1627 Rain 26 1015 65 16093 6.2 40 07:26 20.09.2019
1628 Rain 26 1015 94 16093 4.1 110 06:44 20.09.2019
1629 Rain 26 1015 94 16093 4.1 110 06:44 20.09.2019
1630 Rain 26 1015 65 16093 6.2 50 06:22 20.09.2019
1631 Rain 26 1015 88 16093 6.2 60 05:47 20.09.2019
1632 Rain 26 1014 58 16093 4.6 40 03:42 20.09.2019
1633 Rain 26 1014 58 16093 4.6 40 03:19 20.09.2019
1634 Clouds 27 1013 51 16093 5.7 50 01:44 20.09.2019
1635 Clouds 28 1014 61 16093 6.7 60 00:53 20.09.2019
1636 Clouds 28 1013 48 16093 5.7 50 00:25 20.09.2019
1637 Clouds 29 1013 48 16093 6.7 60 23:42 19.09.2019
1638 Clouds 29 1013 48 16093 6.7 60 23:19 19.09.2019
1639 Rain 29 1013 51 16093 6.7 70 22:55 19.09.2019
1640 Rain 29 1013 51 16093 6.7 70 22:37 19.09.2019
1641 Rain 29 1013 51 16093 6.7 70 22:18 19.09.2019
1642 Clouds 29 1013 51 16093 6.2 60 21:55 19.09.2019
1643 Clouds 29 1013 51 16093 6.2 60 21:36 19.09.2019
1644 Clouds 30 1013 51 16093 6.2 60 21:18 19.09.2019
1645 Rain 30 1014 45 16093 5.7 60 20:43 19.09.2019
1646 Rain 30 1014 45 16093 5.7 60 20:22 19.09.2019
1647 Rain 30 1014 58 16093 7.2 80 19:55 19.09.2019
1648 Rain 30 1014 58 16093 7.2 80 19:37 19.09.2019
1649 Clouds 30 1014 48 16093 7.7 60 19:19 19.09.2019
1650 Clouds 30 1015 45 16093 6.7 60 18:42 19.09.2019
1651 Clouds 30 1015 45 16093 6.7 60 18:24 19.09.2019
1652 Clouds 30 1015 45 16093 7.7 50 17:54 19.09.2019
1653 Clouds 30 1015 48 16093 6.7 40 17:36 19.09.2019
1654 Clouds 30 1015 48 16093 6.7 40 17:18 19.09.2019
1655 Clouds 29 1014 48 16093 6.7 50 16:56 19.09.2019
1656 Clouds 29 1014 48 16093 6.7 50 16:37 19.09.2019
1657 Clouds 29 1014 48 16093 6.7 50 16:18 19.09.2019
1658 Clouds 28 1014 58 16093 5.1 50 15:38 19.09.2019
1659 Clouds 28 1014 58 16093 5.1 50 15:18 19.09.2019
1660 Clouds 27 1014 57 16093 2.6 30 14:41 19.09.2019
1661 Clouds 27 1014 57 16093 2.6 30 14:22 19.09.2019
1662 Clouds 26 1013 57 16093 3.6 40 13:58 19.09.2019
1663 Clouds 26 1013 57 16093 3.6 40 13:38 19.09.2019
1664 Clouds 26 1013 57 16093 3.6 40 13:38 19.09.2019
1665 Clouds 26 1013 57 16093 3.6 40 13:19 19.09.2019
1666 Clouds 26 1013 61 16093 3.1 40 12:38 19.09.2019
1667 Clouds 26 1013 61 16093 3.1 40 12:19 19.09.2019
1668 Clouds 26 1013 57 16093 3.1 30 11:56 19.09.2019
1669 Clouds 26 1013 57 16093 3.1 30 11:38 19.09.2019
1670 Clouds 26 1013 57 16093 3.1 30 11:19 19.09.2019
1671 Clouds 26 1013 57 16093 3.6 40 10:40 19.09.2019
1672 Clouds 27 1013 57 16093 3.6 40 10:21 19.09.2019
1673 Clouds 27 1013 65 16093 4.1 40 09:58 19.09.2019
1674 Clouds 27 1013 65 16093 4.1 40 09:40 19.09.2019
1675 Clouds 27 1013 65 16093 4.1 40 09:20 19.09.2019
1676 Rain 27 1014 78 16093 3.1 30 08:52 19.09.2019
1677 Rain 27 1014 78 16093 3.1 30 08:27 19.09.2019
1678 Rain 27 1013 74 16093 4.6 40 07:46 19.09.2019
1679 Rain 27 1013 74 16093 4.6 40 07:46 19.09.2019
1680 Rain 27 1014 65 16093 3.6 20 07:25 19.09.2019
1681 Clouds 27 1014 65 16093 3.6 40 06:59 19.09.2019
1682 Clouds 28 1014 65 16093 3.6 40 06:40 19.09.2019
1683 Clouds 28 1014 65 16093 3.6 40 06:21 19.09.2019
1684 Clouds 28 1014 65 16093 4.6 30 05:50 19.09.2019
1685 Clouds 28 1014 66 16093 4.6 40 04:23 19.09.2019
1686 Clouds 28 1014 62 16093 3.1 0 03:20 19.09.2019
1687 Clouds 29 1013 62 16093 4.6 40 01:45 19.09.2019
1688 Clouds 29 1013 62 16093 4.6 40 01:20 19.09.2019
1689 Clouds 30 1013 55 16093 4.6 40 00:43 19.09.2019
1690 Clouds 30 1013 55 16093 4.6 40 00:20 19.09.2019
1691 Clouds 31 1013 52 16093 6.2 50 23:38 18.09.2019
1692 Clouds 31 1013 52 16093 6.2 50 23:20 18.09.2019
1693 Clouds 31 1013 49 16093 6.7 40 22:42 18.09.2019
1694 Clouds 31 1013 49 16093 6.7 40 22:42 18.09.2019
1695 Clouds 32 1013 49 16093 6.7 40 22:20 18.09.2019
1696 Clouds 32 1013 49 16093 6.7 40 21:58 18.09.2019
1697 Clouds 32 1013 49 16093 6.7 40 21:40 18.09.2019
1698 Clouds 32 1013 49 16093 6.7 40 21:18 18.09.2019
1699 Clouds 32 1013 55 16093 5.1 70 20:57 18.09.2019
1700 Clouds 32 1013 55 16093 5.1 70 20:39 18.09.2019
1701 Clouds 32 1013 55 16093 5.1 70 20:21 18.09.2019
1702 Clouds 32 1014 43 16093 4.6 70 19:57 18.09.2019
1703 Clouds 32 1014 43 16093 4.6 70 19:57 18.09.2019
1704 Clouds 32 1014 43 16093 4.6 70 19:38 18.09.2019
1705 Clouds 32 1014 43 16093 4.6 70 19:19 18.09.2019
1706 Clouds 32 1014 52 16093 6.2 70 19:19 18.09.2019
1707 Clouds 32 1014 55 16093 4.6 50 18:55 18.09.2019
1708 Clouds 32 1014 55 16093 4.6 50 18:37 18.09.2019
1709 Clouds 32 1014 55 16093 4.6 50 18:18 18.09.2019
1710 Clouds 32 1014 55 16093 4.6 50 18:18 18.09.2019
1711 Clouds 31 1014 58 16093 6.2 50 17:56 18.09.2019
1712 Clouds 31 1014 58 16093 6.2 50 17:38 18.09.2019
1713 Clouds 31 1014 58 16093 6.2 50 17:18 18.09.2019
1714 Clouds 30 1014 66 16093 3.6 30 16:43 18.09.2019
1715 Clouds 30 1014 66 16093 3.6 30 16:23 18.09.2019
1716 Clouds 30 1014 66 16093 3.6 30 16:23 18.09.2019
1717 Clouds 29 1014 70 16093 2.1 360 15:59 18.09.2019
1718 Clouds 29 1014 70 16093 2.1 360 15:41 18.09.2019
1719 Clouds 28 1014 70 16093 2.1 360 15:21 18.09.2019
1720 Rain 27 1014 78 12874 3.1 20 14:59 18.09.2019
1721 Rain 27 1014 78 12874 3.1 20 14:59 18.09.2019
1722 Rain 27 1014 78 12874 3.1 20 14:40 18.09.2019
1723 Rain 26 1014 78 12874 3.1 20 14:22 18.09.2019
1724 Clouds 26 1014 88 16093 2.1 330 13:59 18.09.2019
1725 Clouds 26 1014 88 16093 2.1 330 13:40 18.09.2019
1726 Clouds 26 1014 88 16093 2.1 330 13:19 18.09.2019
1727 Rain 26 1013 88 16093 2.1 330 12:53 18.09.2019
1728 Rain 26 1013 88 16093 2.1 330 12:30 18.09.2019
1729 Clear 26 1013 83 16093 3.48 357.547 11:55 18.09.2019
1730 Clear 26 1013 83 16093 3.48 357.547 11:37 18.09.2019
1731 Clear 26 1013 83 16093 3.48 357.547 11:19 18.09.2019
1732 Clouds 26 1013 78 16093 1.5 10 10:40 18.09.2019
1733 Clouds 26 1013 78 16093 1.5 10 10:21 18.09.2019
1734 Rain 26 1013 74 16093 2.1 320 09:58 18.09.2019
1735 Rain 26 1013 74 16093 2.1 320 09:38 18.09.2019
1736 Rain 26 1013 74 16093 2.1 320 09:20 18.09.2019
1737 Clear 26 1013 78 16093 2.6 340 08:42 18.09.2019
1738 Clear 26 1013 78 16093 2.6 340 08:24 18.09.2019
1739 Clear 26 1013 69 16093 1.5 10 07:57 18.09.2019
1740 Clear 27 1013 69 16093 1.5 10 07:39 18.09.2019
1741 Clear 27 1013 69 16093 1.5 10 07:21 18.09.2019
1742 Clear 27 1014 69 16093 3.47 6.43 06:38 18.09.2019
1743 Clear 28 1014 66 16093 2.1 30 05:50 18.09.2019
1744 Clouds 28 1014 66 16093 2.6 40 04:52 18.09.2019
1745 Clouds 29 1013 66 16093 3.6 40 03:19 18.09.2019
1746 Clouds 29 1013 58 16093 3.6 60 02:29 18.09.2019
1747 Clear 30 1012 46 16093 4.6 10 01:21 18.09.2019
1748 Clouds 31 1012 41 16093 2.1 0 00:49 18.09.2019
1749 Clouds 32 1012 41 16093 2.1 0 00:21 18.09.2019
1750 Clouds 33 1012 41 16093 4.6 300 23:45 17.09.2019
1751 Clouds 33 1012 41 16093 4.6 300 23:22 17.09.2019
1752 Rain 33 1012 43 16093 4.1 290 22:43 17.09.2019
1753 Rain 33 1012 43 16093 4.1 290 22:24 17.09.2019
1754 Rain 33 1013 41 16093 3.6 360 21:55 17.09.2019
1755 Rain 33 1013 41 16093 3.6 360 21:55 17.09.2019
1756 Rain 33 1013 41 16093 3.6 360 21:37 17.09.2019
1757 Rain 33 1013 41 16093 3.6 360 21:19 17.09.2019
1758 Clouds 33 1014 43 16093 3.6 280 20:58 17.09.2019
1759 Clouds 33 1014 43 16093 3.6 280 20:40 17.09.2019
1760 Clouds 33 1014 43 16093 3.6 280 20:22 17.09.2019
1761 Clouds 33 1014 43 16093 4.1 320 19:58 17.09.2019
1762 Clouds 33 1014 43 16093 4.1 320 19:39 17.09.2019
1763 Clouds 33 1014 43 16093 4.1 320 19:19 17.09.2019
1764 Clouds 33 1014 49 16093 4.1 340 18:57 17.09.2019
1765 Clouds 33 1014 43 16093 3.6 10 18:38 17.09.2019
1766 Clouds 33 1014 43 16093 3.6 10 18:20 17.09.2019
1767 Clouds 32 1014 43 16093 3.6 10 18:20 17.09.2019
1768 Clouds 32 1015 62 16093 4.1 310 17:46 17.09.2019
1769 Clouds 31 1015 62 16093 4.1 310 17:20 17.09.2019
1770 Clouds 30 1015 70 16093 2.1 320 16:58 17.09.2019
1771 Clouds 30 1015 70 16093 2.1 320 16:40 17.09.2019
1772 Clouds 30 1015 70 16093 2.1 320 16:21 17.09.2019
1773 Clouds 29 1015 74 16093 3.1 320 15:40 17.09.2019
1774 Clouds 28 1015 74 16093 3.1 320 15:21 17.09.2019
1775 Clouds 27 1014 78 16093 2.1 320 14:57 17.09.2019
1776 Clouds 27 1014 78 16093 2.1 320 14:39 17.09.2019
1777 Clouds 26 1014 78 16093 2.1 320 14:19 17.09.2019
1778 Clouds 26 1014 78 16093 1.5 360 13:57 17.09.2019
1779 Clear 25 1014 88 16093 2.1 330 13:38 17.09.2019
1780 Clear 25 1014 88 16093 2.1 330 13:20 17.09.2019
1781 Clear 25 1013 88 16093 3.6 350 12:42 17.09.2019
1782 Clouds 26 1013 78 16093 2.6 340 12:20 17.09.2019
1783 Clouds 26 1012 83 16093 1.5 330 11:46 17.09.2019
1784 Clouds 26 1012 83 16093 1.5 330 11:26 17.09.2019
1785 Clouds 26 1013 83 16093 2.6 310 10:59 17.09.2019
1786 Clouds 26 1013 83 16093 2.6 310 10:41 17.09.2019
1787 Clouds 26 1012 88 16093 2.6 320 10:21 17.09.2019
1788 Clouds 27 1012 78 16093 1.5 300 09:55 17.09.2019
1789 Clear 27 1013 83 16093 2.6 300 09:37 17.09.2019
1790 Clouds 27 1012 78 16093 1.5 300 09:19 17.09.2019
1791 Clouds 27 1013 78 16093 3.24 355.38 08:43 17.09.2019
1792 Clouds 27 1013 78 16093 3.17 359.278 08:25 17.09.2019
1793 Rain 27 1013 78 16093 1.5 300 07:45 17.09.2019
1794 Rain 27 1013 78 16093 1.5 300 07:27 17.09.2019
1795 Rain 28 1014 83 16093 3.17 359.278 06:54 17.09.2019
1796 Rain 28 1014 83 16093 3.17 359.278 06:35 17.09.2019
1797 Rain 28 1014 78 16093 4.46 3.049 05:54 17.09.2019
1798 Rain 28 1014 74 16093 4.1 10 04:56 17.09.2019
1799 Rain 29 1014 70 16093 2.1 30 03:49 17.09.2019
1800 Clouds 30 1013 55 16093 2.1 310 02:39 17.09.2019
1801 Clouds 31 1012 49 16093 3.1 320 01:50 17.09.2019
1802 Rain 33 1012 46 16093 3.1 340 00:50 17.09.2019
1803 Rain 34 1012 46 16093 3.6 300 23:42 16.09.2019
1804 Rain 34 1012 46 16093 3.6 300 23:20 16.09.2019
1805 Clouds 34 1013 46 16093 3.6 300 22:59 16.09.2019
1806 Clouds 34 1013 46 16093 3.6 300 22:40 16.09.2019
1807 Clouds 34 1013 46 16093 3.6 300 22:22 16.09.2019
1808 Clouds 34 1013 46 16093 3.6 300 22:22 16.09.2019
1809 Clouds 34 1014 46 16093 4.6 290 21:57 16.09.2019
1810 Clouds 34 1014 46 16093 4.6 290 21:38 16.09.2019
1811 Clouds 34 1014 46 16093 4.6 290 21:38 16.09.2019
1812 Clouds 34 1014 46 16093 4.6 290 21:20 16.09.2019
1813 Clouds 34 1014 59 16093 7.2 310 20:42 16.09.2019
1814 Clouds 34 1014 49 16093 4.1 300 20:23 16.09.2019
1815 Clouds 33 1015 52 16093 5.1 290 19:58 16.09.2019
1816 Clouds 33 1015 52 16093 5.1 290 19:40 16.09.2019
1817 Clouds 33 1015 52 16093 5.1 290 19:20 16.09.2019
1818 Clouds 33 1015 55 16093 3.6 280 18:56 16.09.2019
1819 Clouds 32 1015 55 16093 3.6 280 18:37 16.09.2019
1820 Clouds 32 1015 55 16093 3.6 280 18:18 16.09.2019
1821 Clouds 31 1015 62 16093 3.6 300 17:42 16.09.2019
1822 Clouds 31 1015 62 16093 3.6 300 17:24 16.09.2019
1823 Clouds 30 1016 66 16093 4.1 280 16:58 16.09.2019
1824 Clouds 30 1016 66 16093 4.1 280 16:38 16.09.2019
1825 Clouds 30 1016 66 16093 4.1 280 16:20 16.09.2019
1826 Clouds 29 1015 74 16093 2.1 290 15:56 16.09.2019
1827 Clouds 29 1015 74 16093 2.1 290 15:37 16.09.2019
1828 Clouds 28 1015 74 16093 2.1 290 15:18 16.09.2019
1829 Rain 27 1015 78 16093 3.1 300 14:44 16.09.2019
1830 Rain 27 1015 78 16093 3.1 300 14:23 16.09.2019
1831 Rain 26 1014 83 16093 2.6 280 13:59 16.09.2019
1832 Clear 26 1014 88 16093 3.1 290 13:39 16.09.2019
1833 Clear 26 1014 88 16093 3.1 290 13:39 16.09.2019
1834 Clear 26 1014 88 16093 3.1 290 13:39 16.09.2019
1835 Clear 26 1014 88 16093 3.1 290 13:39 16.09.2019
1836 Clear 26 1014 88 16093 3.1 290 13:21 16.09.2019
1837 Clouds 26 1014 83 16093 2.6 280 12:45 16.09.2019
1838 Clouds 26 1014 83 16093 2.6 280 12:27 16.09.2019
1839 Clouds 26 1014 83 16093 2.1 290 11:58 16.09.2019
1840 Clouds 26 1013 83 16093 2.6 300 11:39 16.09.2019
1841 Clouds 26 1013 83 16093 2.6 300 11:21 16.09.2019
1842 Clear 26 1013 88 16093 2.6 300 10:39 16.09.2019
1843 Clear 26 1013 88 16093 2.6 300 10:21 16.09.2019
1844 Clear 27 1014 94 16093 2.1 260 09:58 16.09.2019
1845 Clear 27 1014 94 16093 2.1 260 09:39 16.09.2019
1846 Clouds 27 1014 78 16093 2.1 260 09:19 16.09.2019
1847 Clear 27 1014 88 16093 2.8 291.946 08:47 16.09.2019
1848 Clear 27 1014 88 16093 2.68 282.174 08:28 16.09.2019
1849 Clouds 27 1014 94 16093 2.6 230 07:56 16.09.2019
1850 Clouds 27 1014 94 16093 2.6 230 07:38 16.09.2019
1851 Clouds 27 1014 74 16093 1.5 260 07:20 16.09.2019
1852 Clouds 27 1014 74 16093 3.1 290 06:46 16.09.2019
1853 Clouds 27 1014 74 16093 3.1 290 06:27 16.09.2019
1854 Clouds 27 1014 74 16093 2.6 0 05:51 16.09.2019
1855 Clouds 27 1014 74 16093 2.6 0 05:29 16.09.2019
1856 Rain 28 1014 78 14484 2.6 360 04:38 16.09.2019
1857 Rain 29 1013 62 16093 3.1 280 02:36 16.09.2019
1858 Rain 31 1012 79 16093 3.1 310 00:44 16.09.2019
1859 Rain 31 1012 79 16093 3.1 310 00:26 16.09.2019
1860 Rain 32 1012 52 16093 4.6 260 23:44 15.09.2019
1861 Rain 32 1012 52 16093 4.6 260 23:21 15.09.2019
1862 Rain 33 1012 49 16093 4.6 240 22:58 15.09.2019
1863 Rain 34 1012 49 16093 4.6 240 22:37 15.09.2019
1864 Rain 34 1012 49 16093 4.6 240 22:18 15.09.2019
1865 Clouds 34 1012 52 16093 5.1 240 21:55 15.09.2019
1866 Clouds 34 1012 52 16093 5.1 240 21:37 15.09.2019
1867 Clouds 34 1012 52 16093 5.1 240 21:18 15.09.2019
1868 Clouds 33 1013 55 16093 4.1 250 20:43 15.09.2019
1869 Clouds 33 1013 55 16093 4.1 250 20:25 15.09.2019
1870 Clouds 33 1014 59 16093 3.6 260 19:47 15.09.2019
1871 Clouds 33 1014 59 16093 3.6 260 19:26 15.09.2019
1872 Clouds 32 1014 66 16093 2.6 260 18:55 15.09.2019
1873 Clouds 32 1014 62 16093 2.6 260 18:36 15.09.2019
1874 Clouds 32 1014 62 16093 2.6 260 18:18 15.09.2019
1875 Clouds 31 1014 70 16093 4.1 240 17:41 15.09.2019
1876 Clouds 31 1015 62 16093 2.1 0 17:21 15.09.2019
1877 Clouds 30 1014 74 16093 2.1 310 16:56 15.09.2019
1878 Clouds 30 1014 74 16093 2.1 310 16:38 15.09.2019
1879 Clouds 29 1014 74 16093 2.1 310 16:20 15.09.2019
1880 Clouds 28 1014 83 16093 2.1 0 15:41 15.09.2019
1881 Clouds 28 1014 83 16093 2.1 0 15:21 15.09.2019
1882 Clouds 27 1014 88 16093 3.6 280 14:59 15.09.2019
1883 Clouds 27 1014 88 16093 3.6 280 14:40 15.09.2019
1884 Clear 26 1014 83 16093 1.5 290 14:22 15.09.2019
1885 Clouds 26 1013 88 16093 1.5 290 13:47 15.09.2019
1886 Clouds 26 1013 88 16093 1.5 290 13:25 15.09.2019
1887 Mist 26 1013 88 9656 1.5 300 12:59 15.09.2019
1888 Mist 26 1013 88 9656 1.5 300 12:40 15.09.2019
1889 Mist 26 1013 88 9656 1.5 300 12:20 15.09.2019
1890 Mist 26 1013 88 9656 1.5 300 12:20 15.09.2019
1891 Mist 26 1013 88 9656 1.5 280 11:43 15.09.2019
1892 Mist 26 1013 88 9656 1.5 280 11:23 15.09.2019
1893 Clouds 26 1013 100 16093 2.1 270 10:59 15.09.2019
1894 Rain 26 1013 100 16093 2.1 270 10:40 15.09.2019
1895 Rain 26 1013 88 16093 1.5 270 10:21 15.09.2019
1896 Clouds 26 1013 100 16093 2.1 260 09:43 15.09.2019
1897 Clouds 26 1013 83 16093 2.6 280 09:21 15.09.2019
1898 Rain 26 1013 88 16093 1.5 290 08:59 15.09.2019
1899 Rain 26 1013 88 16093 1.5 290 08:59 15.09.2019
1900 Rain 26 1013 88 16093 1.5 290 08:40 15.09.2019
1901 Rain 26 1013 88 16093 1.5 290 08:19 15.09.2019
1902 Clouds 27 1014 88 16093 1.5 280 07:46 15.09.2019
1903 Rain 27 1014 88 16093 2.1 280 06:44 15.09.2019
1904 Rain 27 1014 94 16093 3.26 344.978 05:58 15.09.2019
1905 Rain 27 1014 83 16093 3.27 247.864 03:19 15.09.2019
1906 Rain 28 1013 74 16093 2.1 20 02:20 15.09.2019
1907 Rain 28 1013 74 16093 2.6 40 01:36 15.09.2019
1908 Rain 29 1012 70 16093 4.1 80 00:57 15.09.2019
1909 Rain 29 1012 70 16093 4.1 80 00:37 15.09.2019
1910 Rain 29 1012 70 16093 4.1 80 00:19 15.09.2019
1911 Rain 29 1012 66 16093 4.6 80 23:56 14.09.2019
1912 Rain 29 1012 66 16093 4.6 80 23:56 14.09.2019
1913 Rain 30 1012 66 16093 4.6 80 23:38 14.09.2019
1914 Rain 30 1012 66 16093 4.6 80 23:38 14.09.2019
1915 Rain 30 1012 66 16093 4.6 80 23:38 14.09.2019
1916 Rain 30 1012 66 16093 4.6 80 23:19 14.09.2019
1917 Rain 30 1012 88 16093 4.6 110 22:55 14.09.2019
1918 Rain 30 1012 62 16093 4.1 70 22:37 14.09.2019
1919 Thunderstorm 31 1012 62 16093 4.1 70 22:18 14.09.2019
1920 Rain 31 1013 62 16093 4.6 50 21:40 14.09.2019
1921 Clouds 31 1013 62 16093 4.6 50 21:21 14.09.2019
1922 Clouds 32 1013 62 16093 4.1 60 20:58 14.09.2019
1923 Rain 31 1013 74 16093 3.6 70 20:39 14.09.2019
1924 Rain 31 1013 74 16093 3.6 70 20:21 14.09.2019
1925 Rain 31 1013 66 12874 2.6 40 19:47 14.09.2019
1926 Rain 31 1013 66 12874 2.6 40 19:23 14.09.2019
1927 Rain 31 1013 74 16093 3.1 350 18:58 14.09.2019
1928 Rain 31 1014 79 16093 4.35 24.416 18:38 14.09.2019
1929 Rain 31 1014 79 16093 5.3 31.736 18:20 14.09.2019
1930 Rain 30 1014 79 16093 5.3 31.736 17:45 14.09.2019
1931 Rain 30 1014 79 16093 5.3 31.736 17:45 14.09.2019
1932 Rain 30 1014 74 16093 2.1 330 17:24 14.09.2019
1933 Rain 30 1014 79 16093 2.6 350 16:59 14.09.2019
1934 Rain 29 1014 79 16093 2.1 340 16:40 14.09.2019
1935 Rain 29 1014 83 16093 3.1 300 16:19 14.09.2019
1936 Rain 29 1014 88 16093 5.3 31.736 15:42 14.09.2019
1937 Rain 28 1014 88 16093 4.27 22.17 15:23 14.09.2019
1938 Rain 28 1013 88 16093 2.1 360 14:57 14.09.2019
1939 Rain 27 1013 78 16093 2.1 20 14:39 14.09.2019
1940 Rain 27 1013 78 16093 2.1 20 14:39 14.09.2019
1941 Rain 27 1013 78 16093 2.1 20 14:18 14.09.2019
1942 Rain 27 1013 83 16093 1.5 10 13:46 14.09.2019
1943 Rain 27 1013 78 16093 1.5 310 13:21 14.09.2019
1944 Rain 26 1012 88 16093 2.6 10 12:46 14.09.2019
1945 Rain 27 1012 78 16093 2.1 30 12:23 14.09.2019
1946 Rain 27 1012 83 16093 3.89 36.599 11:41 14.09.2019
1947 Rain 27 1012 83 16093 3.89 36.599 11:20 14.09.2019
1948 Rain 27 1012 83 16093 3.89 36.599 11:20 14.09.2019
1949 Rain 27 1012 88 16093 5.7 30 10:41 14.09.2019
1950 Rain 27 1013 74 16093 2.1 60 10:22 14.09.2019
1951 Clouds 27 1012 83 16093 2.6 70 09:59 14.09.2019
1952 Clouds 27 1012 83 16093 2.6 70 09:40 14.09.2019
1953 Rain 27 1013 78 16093 2.6 40 09:21 14.09.2019
1954 Rain 27 1012 88 16093 5.1 50 08:59 14.09.2019
1955 Rain 27 1012 88 16093 5.1 50 08:41 14.09.2019
1956 Rain 27 1013 78 16093 2.6 40 08:21 14.09.2019
1957 Rain 28 1013 78 11265 3.6 60 07:43 14.09.2019
1958 Rain 28 1013 78 11265 3.6 60 07:23 14.09.2019
1959 Rain 27 1013 88 16093 4.6 70 06:35 14.09.2019
1960 Rain 27 1014 78 16093 3.1 50 05:55 14.09.2019
1961 Rain 27 1014 83 16093 3.6 50 04:34 14.09.2019
1962 Rain 28 1014 88 14484 6.2 90 03:25 14.09.2019
1963 Rain 28 1015 70 16093 8.7 80 02:48 14.09.2019
1964 Rain 28 1015 70 16093 8.7 80 02:48 14.09.2019
1965 Rain 28 1013 94 12874 5.1 60 01:45 14.09.2019
1966 Rain 28 1013 74 16093 8.7 70 01:19 14.09.2019
1967 Rain 28 1013 83 16093 5.7 60 00:40 14.09.2019
1968 Rain 28 1013 83 16093 5.7 60 00:22 14.09.2019
1969 Rain 28 1013 83 16093 7.2 90 23:56 13.09.2019
1970 Rain 29 1013 78 16093 9.8 80 23:37 13.09.2019
1971 Rain 29 1013 83 6437 11.3 100 23:18 13.09.2019
1972 Rain 29 1013 74 16093 7.7 60 22:55 13.09.2019
1973 Rain 29 1013 74 16093 7.7 60 22:36 13.09.2019
1974 Rain 30 1013 62 16093 10.8 70 22:18 13.09.2019
1975 Rain 30 1012 74 16093 7.7 60 21:39 13.09.2019
1976 Rain 30 1013 74 16093 7.7 60 21:19 13.09.2019
1977 Rain 31 1013 66 16093 10.3 50 20:58 13.09.2019
1978 Rain 31 1013 66 16093 10.3 50 20:38 13.09.2019
1979 Rain 31 1013 59 16093 6.2 60 20:19 13.09.2019
1980 Rain 31 1014 62 16093 7.2 80 19:54 13.09.2019
1981 Rain 31 1014 62 16093 7.2 80 19:36 13.09.2019
1982 Rain 31 1014 62 16093 7.2 80 19:18 13.09.2019
1983 Clouds 31 1015 66 16093 7.7 60 18:38 13.09.2019
1984 Clouds 31 1015 66 16093 7.7 60 18:20 13.09.2019
1985 Rain 31 1014 74 16093 7.7 60 17:55 13.09.2019
1986 Rain 31 1014 74 16093 7.7 60 17:55 13.09.2019
1987 Rain 31 1014 66 16093 7.2 50 17:36 13.09.2019
1988 Rain 31 1014 66 16093 7.2 50 17:18 13.09.2019
1989 Clouds 30 1014 66 16093 6.7 50 16:40 13.09.2019
1990 Clouds 30 1014 66 16093 6.7 50 16:20 13.09.2019
1991 Clouds 30 1015 70 16093 7.7 60 15:45 13.09.2019
1992 Clouds 29 1014 74 16093 4.6 40 15:27 13.09.2019
1993 Clouds 28 1013 83 16093 2.1 50 14:57 13.09.2019
1994 Clouds 28 1013 83 16093 2.1 50 14:38 13.09.2019
1995 Clouds 28 1013 83 16093 2.1 50 14:19 13.09.2019
1996 Rain 27 1013 94 16093 3.1 360 13:45 13.09.2019
1997 Rain 27 1013 78 16093 2.1 20 13:22 13.09.2019
1998 Rain 27 1013 83 11265 2.6 30 12:54 13.09.2019
1999 Rain 27 1013 83 16093 2.6 360 12:36 13.09.2019
2000 Rain 27 1013 83 16093 2.6 360 12:18 13.09.2019
2001 Rain 27 1013 88 16093 3.1 20 11:54 13.09.2019
2002 Clouds 27 1012 78 16093 2.1 20 11:18 13.09.2019
2003 Rain 27 1012 78 16093 2.1 20 10:37 13.09.2019
2004 Rain 27 1012 78 16093 2.1 20 10:19 13.09.2019
2005 Rain 27 1012 83 16093 6.7 70 09:44 13.09.2019
2006 Rain 27 1012 83 16093 6.7 70 09:44 13.09.2019
2007 Rain 27 1012 78 16093 2.1 10 09:23 13.09.2019
2008 Rain 27 1013 83 16093 4.6 10 08:58 13.09.2019
2009 Rain 27 1014 83 12874 4.1 20 08:40 13.09.2019
2010 Rain 27 1013 74 16093 2.1 20 08:20 13.09.2019
2011 Rain 27 1013 74 16093 2.1 20 08:20 13.09.2019
2012 Rain 27 1013 88 16093 3.1 60 07:44 13.09.2019
2013 Rain 27 1013 78 16093 2.6 30 07:26 13.09.2019
2014 Thunderstorm 27 1014 74 16093 4.6 40 06:41 13.09.2019
2015 Rain 28 1015 78 16093 2.1 50 05:43 13.09.2019
2016 Rain 28 1014 78 11265 6.2 60 04:39 13.09.2019
2017 Rain 27 1013 78 16093 5.1 60 03:37 13.09.2019
2018 Rain 27 1013 83 16093 3.1 70 02:20 13.09.2019
2019 Rain 27 1013 70 16093 5.7 30 01:42 13.09.2019
2020 Rain 28 1014 83 3219 7.2 40 01:21 13.09.2019
2021 Thunderstorm 29 1013 70 16093 4.1 60 00:37 13.09.2019
2022 Rain 30 1013 62 16093 9.3 50 23:57 12.09.2019
2023 Rain 30 1013 62 16093 9.3 50 23:35 12.09.2019
2024 Rain 30 1013 79 16093 5.7 50 22:59 12.09.2019
2025 Rain 30 1013 79 16093 5.7 50 22:40 12.09.2019
2026 Rain 30 1013 74 16093 3.6 60 22:22 12.09.2019
2027 Rain 30 1014 66 16093 5.7 50 21:56 12.09.2019
2028 Rain 30 1014 88 16093 4.1 70 21:37 12.09.2019
2029 Rain 30 1014 88 16093 4.1 70 21:19 12.09.2019
2030 Rain 30 1014 74 16093 8.7 60 20:55 12.09.2019
2031 Rain 30 1014 74 16093 8.7 60 20:55 12.09.2019
2032 Rain 30 1014 74 16093 8.7 60 20:55 12.09.2019
2033 Thunderstorm 30 1014 74 16093 6.2 60 20:36 12.09.2019
2034 Thunderstorm 31 1014 66 16093 6.2 70 20:18 12.09.2019
2035 Rain 31 1013 70 14484 8.2 50 19:41 12.09.2019
2036 Rain 31 1014 58 16093 6.2 50 19:20 12.09.2019
2037 Rain 31 1014 70 16093 7.7 50 18:58 12.09.2019
2038 Rain 31 1014 55 16093 6.7 40 18:37 12.09.2019
2039 Rain 31 1014 55 16093 6.7 40 18:18 12.09.2019
2040 Clouds 31 1015 62 16093 6.7 40 17:41 12.09.2019
2041 Clouds 30 1015 62 16093 6.7 40 17:22 12.09.2019
2042 Rain 30 1014 70 16093 9.3 40 16:58 12.09.2019
2043 Rain 30 1014 70 16093 9.3 40 16:58 12.09.2019
2044 Rain 30 1014 70 16093 9.3 40 16:58 12.09.2019
2045 Rain 30 1015 62 16093 6.7 30 16:40 12.09.2019
2046 Rain 30 1015 62 16093 6.7 30 16:20 12.09.2019
2047 Rain 29 1015 74 16093 7.2 60 15:42 12.09.2019
2048 Rain 29 1015 74 16093 7.2 60 15:42 12.09.2019
2049 Rain 29 1015 66 16093 4.6 20 15:24 12.09.2019
2050 Rain 28 1014 83 16093 2.1 350 14:55 12.09.2019
2051 Clouds 28 1014 74 16093 2.1 360 14:37 12.09.2019
2052 Clouds 27 1014 74 16093 2.1 360 14:19 12.09.2019
2053 Clouds 27 1013 88 16093 3.1 330 13:39 12.09.2019
2054 Clouds 27 1014 74 16093 1.5 350 13:20 12.09.2019
2055 Clouds 27 1014 65 16093 1.5 0 12:48 12.09.2019
2056 Clouds 27 1014 65 16093 1.5 0 12:48 12.09.2019
2057 Clouds 27 1014 65 16093 1.5 0 12:19 12.09.2019
2058 Clouds 27 1013 65 16093 2.6 30 11:58 12.09.2019
2059 Clouds 27 1013 65 16093 2.6 30 11:39 12.09.2019
2060 Clouds 27 1013 65 16093 2.6 30 11:21 12.09.2019
2061 Clouds 27 1013 78 16093 3.6 360 10:49 12.09.2019
2062 Clouds 27 1014 65 16093 2.6 30 10:28 12.09.2019
2063 Clouds 27 1014 65 16093 2.1 20 09:57 12.09.2019
2064 Clouds 27 1014 65 16093 2.1 20 09:38 12.09.2019
2065 Clouds 27 1014 65 16093 2.1 20 09:19 12.09.2019
2066 Clouds 27 1015 65 16093 3.6 40 08:44 12.09.2019
2067 Clouds 27 1015 65 16093 3.6 40 08:23 12.09.2019
2068 Clouds 28 1015 65 16093 3.1 50 07:54 12.09.2019
2069 Clouds 28 1015 65 16093 3.1 50 07:36 12.09.2019
2070 Clouds 28 1015 65 16093 3.1 50 07:18 12.09.2019
2071 Clouds 28 1016 65 16093 3.6 50 06:44 12.09.2019
2072 Rain 28 1016 58 16093 4.1 50 05:54 12.09.2019
2073 Rain 28 1016 58 16093 4.1 50 05:36 12.09.2019
2074 Rain 28 1016 69 16093 6.7 70 04:45 12.09.2019
2075 Clouds 28 1015 62 16093 4.6 50 03:23 12.09.2019
2076 Clouds 29 1016 66 16093 6.2 50 01:43 12.09.2019
2077 Clouds 29 1016 66 16093 6.2 50 01:23 12.09.2019
2078 Clear 30 1016 58 16093 7.7 70 00:48 12.09.2019
2079 Clear 30 1016 58 16093 7.7 70 00:28 12.09.2019
2080 Rain 31 1016 43 16093 6.7 50 23:43 11.09.2019
2081 Rain 31 1016 43 16093 6.7 50 23:25 11.09.2019
2082 Clouds 31 1015 66 16093 8.7 40 22:58 11.09.2019
2083 Clouds 31 1016 46 16093 7.7 60 22:38 11.09.2019
2084 Clouds 32 1016 46 16093 7.7 60 22:20 11.09.2019
2085 Clouds 32 1016 49 16093 7.7 60 21:58 11.09.2019
2086 Clouds 32 1017 55 16093 8.7 60 21:40 11.09.2019
2087 Clouds 32 1017 55 16093 8.7 60 21:22 11.09.2019
2088 Clouds 32 1017 49 16093 6.2 70 20:55 11.09.2019
2089 Clouds 32 1017 49 16093 6.2 70 20:37 11.09.2019
2090 Clouds 32 1017 49 16093 6.2 70 20:18 11.09.2019
2091 Rain 32 1018 52 16093 6.7 50 19:55 11.09.2019
2092 Rain 32 1018 52 16093 6.7 50 19:37 11.09.2019
2093 Rain 32 1018 52 16093 6.7 50 19:37 11.09.2019
2094 Clouds 32 1018 52 16093 6.7 50 19:18 11.09.2019
2095 Clouds 32 1018 55 16093 7.2 60 18:42 11.09.2019
2096 Clouds 31 1018 55 16093 7.2 60 18:23 11.09.2019
2097 Rain 31 1018 74 16093 8.7 50 17:58 11.09.2019
2098 Rain 31 1018 74 16093 8.7 50 17:40 11.09.2019
2099 Clouds 31 1019 55 16093 7.7 70 17:21 11.09.2019
2100 Rain 31 1018 70 16093 7.7 40 16:56 11.09.2019
2101 Rain 30 1018 62 16093 6.7 50 16:36 11.09.2019
2102 Rain 30 1018 62 16093 6.7 50 16:18 11.09.2019
2103 Clouds 30 1018 70 16093 5.7 50 15:46 11.09.2019
2104 Clouds 30 1018 70 16093 5.7 50 15:23 11.09.2019
2105 Clouds 29 1018 66 16093 3.6 50 14:57 11.09.2019
2106 Clouds 29 1018 66 16093 3.6 50 14:57 11.09.2019
2107 Clouds 29 1018 66 16093 3.6 50 14:38 11.09.2019
2108 Clouds 29 1018 66 16093 3.6 50 14:19 11.09.2019
2109 Clouds 28 1018 66 16093 4.6 60 13:55 11.09.2019
2110 Clouds 28 1018 66 16093 4.6 60 13:36 11.09.2019
2111 Clouds 28 1018 66 16093 4.6 60 13:18 11.09.2019
2112 Clouds 28 1017 69 16093 3.6 60 12:41 11.09.2019
2113 Clouds 28 1017 69 16093 3.6 60 12:21 11.09.2019
2114 Clouds 28 1017 78 16093 4.6 40 11:55 11.09.2019
2115 -273 0 0 0 0 0 11:55 11.09.2019
2116 Clouds 28 1017 69 16093 3.1 0 11:36 11.09.2019
2117 Clouds 28 1017 69 16093 3.1 0 11:36 11.09.2019
2118 Clouds 28 1017 69 16093 3.1 0 11:18 11.09.2019
2119 Clouds 28 1017 78 16093 4.1 60 10:40 11.09.2019
2120 Clouds 28 1018 69 16093 3.1 50 10:22 11.09.2019
2121 Clouds 28 1018 69 16093 2.6 60 09:41 11.09.2019
2122 Clouds 28 1018 69 16093 2.6 60 09:20 11.09.2019
2123 Rain 28 1019 66 16093 4.1 60 08:59 11.09.2019
2124 Rain 28 1019 66 16093 4.1 60 08:39 11.09.2019
2125 Rain 28 1019 66 16093 4.1 60 08:21 11.09.2019
2126 Clouds 28 1019 66 16093 4.6 60 07:46 11.09.2019
2127 Clouds 28 1019 66 16093 4.6 60 07:23 11.09.2019
2128 Clouds 28 1019 66 16093 6.2 60 06:54 11.09.2019
2129 Clouds 28 1019 66 16093 6.2 60 06:35 11.09.2019
2130 Rain 29 1019 66 16093 6.2 50 05:49 11.09.2019
2131 Rain 29 1019 66 16093 6.2 50 05:29 11.09.2019
2132 Clouds 29 1019 62 16093 6.7 60 04:51 11.09.2019
2133 Clouds 29 1019 66 16093 6.2 60 03:37 11.09.2019
2134 Clouds 29 1019 66 16093 5.7 60 02:58 11.09.2019
2135 Clouds 29 1019 66 16093 5.7 60 02:28 11.09.2019
2136 Clouds 30 1019 58 16093 5.7 40 00:57 11.09.2019
2137 Clouds 30 1019 58 16093 5.7 40 00:31 11.09.2019
2138 Clouds 31 1019 62 16093 7.2 70 23:57 10.09.2019
2139 Clouds 31 1019 55 16093 6.7 70 23:39 10.09.2019
2140 Clouds 31 1019 55 16093 6.7 70 23:39 10.09.2019
2141 Clouds 31 1019 55 16093 6.7 70 23:20 10.09.2019
2142 Clouds 32 1019 49 16093 7.7 70 22:41 10.09.2019
2143 Clouds 32 1019 49 16093 7.7 70 22:20 10.09.2019
2144 Clouds 32 1019 52 16093 5.7 60 21:57 10.09.2019
2145 Clouds 33 1019 52 16093 5.7 60 21:38 10.09.2019
2146 Clouds 33 1019 52 16093 5.7 60 21:20 10.09.2019
2147 Rain 32 1020 52 16093 7.7 80 20:58 10.09.2019
2148 Rain 32 1020 52 16093 7.7 80 20:40 10.09.2019
2149 Rain 32 1020 52 16093 7.7 80 20:22 10.09.2019
2150 Clouds 32 1020 49 16093 6.2 60 19:57 10.09.2019
2151 Clouds 32 1020 49 16093 6.2 60 19:38 10.09.2019
2152 Clouds 33 1020 49 16093 6.2 60 19:19 10.09.2019
2153 Clouds 32 1021 55 16093 4.6 70 18:58 10.09.2019
2154 Clouds 32 1021 55 16093 4.6 70 18:39 10.09.2019
2155 Clouds 32 1021 55 16093 4.6 70 18:21 10.09.2019
2156 Clouds 32 1020 70 16093 4.6 70 17:54 10.09.2019
2157 Clouds 32 1021 55 16093 5.1 70 17:36 10.09.2019
2158 Clouds 32 1021 55 16093 5.1 70 17:36 10.09.2019
2159 Clouds 32 1021 55 16093 5.1 70 17:18 10.09.2019
2160 Clouds 31 1021 58 16093 6.2 70 16:55 10.09.2019
2161 Clouds 31 1021 58 16093 6.2 70 16:55 10.09.2019
2162 Clouds 31 1021 58 16093 6.2 70 16:55 10.09.2019
2163 Clouds 31 1021 58 16093 6.2 70 16:36 10.09.2019
2164 Clouds 31 1021 58 16093 6.2 70 16:18 10.09.2019
2165 Clouds 31 1021 58 16093 6.2 70 16:18 10.09.2019
2166 Clouds 30 1021 62 16093 4.1 60 15:42 10.09.2019
2167 Clouds 30 1021 62 16093 4.1 60 15:21 10.09.2019
2168 Clouds 29 1020 79 16093 2.1 40 14:43 10.09.2019
2169 Clouds 29 1020 79 16093 2.1 40 14:43 10.09.2019
2170 Rain 29 1020 70 16093 3.6 50 14:25 10.09.2019
2171 Clouds 28 1019 69 16093 2.6 50 13:59 10.09.2019
2172 Clouds 27 1019 69 16093 2.6 50 13:40 10.09.2019
2173 Clouds 27 1019 69 16093 2.6 50 13:40 10.09.2019
2174 Clouds 27 1019 69 16093 2.6 50 13:22 10.09.2019
2175 Clouds 27 1019 69 16093 2.6 50 13:22 10.09.2019
2176 Clouds 27 1018 78 16093 2.1 70 12:49 10.09.2019
2177 Clouds 27 1019 69 16093 3.6 70 12:27 10.09.2019
2178 Clear 28 1019 69 16093 4.6 110 11:57 10.09.2019
2179 Clouds 28 1018 69 16093 3.6 100 11:39 10.09.2019
2180 Clouds 28 1018 69 16093 3.6 100 11:20 10.09.2019
2181 Clouds 28 1018 66 16093 4.1 100 10:42 10.09.2019
2182 Clouds 28 1018 66 16093 4.1 100 10:19 10.09.2019
2183 Clouds 28 1018 74 16093 6.7 120 09:56 10.09.2019
2184 Clouds 28 1018 74 16093 7.2 120 09:38 10.09.2019
2185 Clouds 28 1018 74 16093 7.2 120 09:19 10.09.2019
2186 Clouds 28 1018 74 16093 7.2 120 09:19 10.09.2019
2187 Clouds 29 1019 70 16093 4.6 100 08:45 10.09.2019
2188 Clouds 29 1019 70 16093 4.6 100 08:26 10.09.2019
2189 Rain 29 1019 79 16093 4.6 70 07:46 10.09.2019
2190 Clouds 29 1019 70 16093 4.1 90 07:27 10.09.2019
2191 Clouds 29 1019 78 16093 4.1 90 06:56 10.09.2019
2192 Clouds 29 1019 70 16093 7.2 90 06:36 10.09.2019
2193 Clouds 29 1019 70 16093 4.6 90 05:48 10.09.2019
2194 Clouds 29 1019 66 16093 6.7 80 03:57 10.09.2019
2195 Clouds 29 1019 66 16093 6.7 80 02:24 10.09.2019
2196 Clouds 30 1019 70 16093 5.1 120 01:59 10.09.2019
2197 Clouds 30 1019 70 16093 5.1 120 01:59 10.09.2019
2198 Clouds 30 1019 62 16093 5.1 90 01:41 10.09.2019
2199 Clouds 30 1019 62 16093 5.1 90 01:20 10.09.2019
2200 Clouds 31 1018 62 16093 6.2 90 00:25 10.09.2019
2201 Rain 31 1018 70 16093 5.7 70 23:48 09.09.2019
2202 Rain 32 1018 62 16093 6.7 100 23:20 09.09.2019
2203 Rain 32 1018 62 16093 6.7 100 23:20 09.09.2019
2204 Drizzle 32 1018 66 16093 6.7 90 22:57 09.09.2019
2205 Clouds 32 1018 55 16093 4.6 90 22:39 09.09.2019
2206 Clouds 32 1018 55 16093 4.6 90 22:20 09.09.2019
2207 Clouds 33 1019 52 16093 5.1 80 21:58 09.09.2019
2208 Clouds 33 1019 52 16093 5.1 80 21:39 09.09.2019
2209 Clouds 33 1019 52 16093 5.1 80 21:20 09.09.2019
2210 Clouds 33 1019 49 16093 6.2 90 20:57 09.09.2019
2211 Clouds 33 1019 49 16093 6.2 90 20:37 09.09.2019
2212 Clouds 33 1019 49 16093 6.2 90 20:19 09.09.2019
2213 Clouds 33 1019 52 16093 4.1 80 19:58 09.09.2019
2214 Clouds 33 1019 52 16093 4.1 80 19:39 09.09.2019
2215 Clouds 33 1019 52 16093 4.1 80 19:19 09.09.2019
2216 Clouds 33 1020 55 16093 5.1 110 18:58 09.09.2019
2217 Clouds 33 1020 59 16093 4.1 90 18:40 09.09.2019
2218 Clouds 33 1020 59 16093 4.1 90 18:21 09.09.2019
2219 Rain 33 1020 59 16093 4.6 110 17:58 09.09.2019
2220 Rain 32 1020 59 16093 3.6 130 17:40 09.09.2019
2221 Rain 32 1020 59 16093 3.6 130 17:21 09.09.2019
2222 Clouds 32 1020 62 16093 4.1 110 16:56 09.09.2019
2223 Clouds 32 1020 62 16093 4.1 110 16:38 09.09.2019
2224 Clouds 31 1020 62 16093 4.1 110 16:19 09.09.2019
2225 Clouds 31 1019 62 16093 3.6 100 15:55 09.09.2019
2226 Clouds 31 1019 62 16093 3.6 100 15:55 09.09.2019
2227 Clouds 31 1019 62 16093 3.6 100 15:55 09.09.2019
2228 Clouds 31 1019 62 16093 3.6 100 15:36 09.09.2019
2229 Clouds 31 1019 62 16093 3.6 100 15:18 09.09.2019
2230 Clouds 30 1019 70 16093 2.6 110 14:41 09.09.2019
2231 Clouds 29 1019 70 16093 2.6 110 14:23 09.09.2019
2232 Clouds 29 1018 74 16093 2.6 120 14:00 09.09.2019
2233 Clouds 28 1018 74 16093 2.6 120 13:41 09.09.2019
2234 Clouds 28 1018 74 16093 2.6 120 13:19 09.09.2019
2235 Clear 28 1018 78 16093 2.1 80 12:57 09.09.2019
2236 Clouds 28 1018 74 16093 2.6 120 12:38 09.09.2019
2237 Clouds 28 1018 74 16093 2.6 120 12:19 09.09.2019
2238 Clouds 28 1017 74 16093 3.1 110 11:43 09.09.2019
2239 Clouds 28 1017 74 16093 3.1 110 11:22 09.09.2019
2240 Rain 28 1017 74 16093 3.1 110 10:58 09.09.2019
2241 Rain 28 1017 74 16093 3.1 110 10:39 09.09.2019
2242 Rain 29 1017 74 16093 3.1 110 10:20 09.09.2019
2243 Rain 29 1018 74 16093 3.6 120 09:50 09.09.2019
2244 Rain 29 1018 74 16093 3.6 120 09:50 09.09.2019
2245 Rain 29 1018 79 16093 2.6 120 09:31 09.09.2019
2246 Clouds 29 1017 94 16093 1.5 120 08:57 09.09.2019
2247 Clouds 29 1018 70 16093 4.1 100 08:38 09.09.2019
2248 Clouds 29 1018 70 16093 4.1 100 08:19 09.09.2019
2249 Clouds 29 1018 74 16093 3.6 120 07:44 09.09.2019
2250 Clouds 29 1018 74 16093 3.6 120 07:22 09.09.2019
2251 Clear 29 1018 79 16093 4.1 120 06:56 09.09.2019
2252 Clear 29 1018 79 16093 4.1 120 06:56 09.09.2019
2253 Clouds 29 1018 66 16093 4.1 130 06:31 09.09.2019
2254 Clouds 29 1018 70 16093 5.1 100 04:45 09.09.2019
2255 Clouds 30 1017 66 16093 3.6 130 02:43 09.09.2019
2256 Clouds 30 1016 66 16093 5.1 140 01:47 09.09.2019
2257 Drizzle 31 1016 59 16093 5.7 110 00:39 09.09.2019
2258 Drizzle 31 1016 59 16093 5.7 110 00:20 09.09.2019
2259 Clouds 32 1016 66 16093 4.6 120 23:41 08.09.2019
2260 Clouds 32 1016 66 16093 4.6 120 23:23 08.09.2019
2261 Clouds 32 1016 59 16093 5.1 120 22:43 08.09.2019
2262 Clouds 32 1016 59 16093 5.1 120 22:23 08.09.2019
2263 Clouds 33 1016 55 16093 5.1 120 21:59 08.09.2019
2264 Clouds 33 1016 55 16093 5.1 120 21:40 08.09.2019
2265 Clouds 33 1016 55 16093 5.1 120 21:22 08.09.2019
2266 Clouds 33 1017 59 16093 3.1 140 20:57 08.09.2019
2267 Clouds 33 1017 52 16093 3.6 110 20:37 08.09.2019
2268 Clouds 33 1017 52 16093 3.6 110 20:19 08.09.2019
2269 Clouds 33 1017 55 16093 4.1 170 19:56 08.09.2019
2270 Clouds 33 1017 55 16093 4.1 170 19:37 08.09.2019
2271 Clouds 33 1017 55 16093 4.1 170 19:18 08.09.2019
2272 Clouds 33 1017 55 16093 4.1 170 19:18 08.09.2019
2273 Clouds 33 1017 59 16093 3.6 120 18:56 08.09.2019
2274 Clouds 33 1018 55 16093 4.1 110 18:37 08.09.2019
2275 Clouds 33 1018 55 16093 4.1 110 18:18 08.09.2019
2276 Clouds 32 1018 55 16093 2.1 140 17:54 08.09.2019
2277 Clouds 32 1018 55 16093 2.1 140 17:36 08.09.2019
2278 Clouds 32 1018 55 16093 2.1 140 17:18 08.09.2019
2279 Rain 31 1017 62 16093 2.1 160 16:42 08.09.2019
2280 Rain 31 1017 62 16093 2.1 160 16:21 08.09.2019
2281 Clouds 30 1017 62 16093 2.7 201.182 15:58 08.09.2019
2282 Clouds 30 1017 66 16093 2.1 200 15:39 08.09.2019
2283 Clouds 29 1017 66 16093 2.1 200 15:21 08.09.2019
2284 Clear 29 1018 70 16093 1.5 220 14:54 08.09.2019
2285 Clouds 28 1017 74 16093 2.25 188.303 14:36 08.09.2019
2286 Clouds 27 1017 74 16093 2.25 188.303 14:18 08.09.2019
2287 Clouds 26 1016 74 16093 2.25 188.303 13:54 08.09.2019
2288 Clouds 26 1016 74 16093 2.25 188.303 13:36 08.09.2019
2289 Clouds 26 1016 74 16093 2.39 194.228 13:18 08.09.2019
2290 Clouds 26 1016 78 16093 2.1 190 12:41 08.09.2019
2291 Clouds 26 1016 78 16093 2.1 190 12:22 08.09.2019
2292 Clouds 26 1016 78 16093 1.5 170 11:58 08.09.2019
2293 Clouds 26 1016 78 16093 1.5 170 11:38 08.09.2019
2294 Clouds 26 1016 78 16093 1.5 170 11:19 08.09.2019
2295 Clouds 27 1015 83 16093 2.51 206.912 10:55 08.09.2019
2296 Clouds 27 1015 83 16093 1.5 160 10:36 08.09.2019
2297 Clouds 26 1015 83 16093 1.5 160 10:18 08.09.2019
2298 Clouds 27 1015 74 16093 1.5 180 09:38 08.09.2019
2299 Clouds 27 1015 74 16093 1.5 180 09:19 08.09.2019
2300 Clouds 27 1016 74 16093 2.1 190 08:56 08.09.2019
2301 Clouds 27 1016 74 16093 2.1 190 08:36 08.09.2019
2302 Clouds 27 1016 74 16093 2.1 190 08:18 08.09.2019
2303 Clouds 27 1016 74 16093 1.5 200 07:38 08.09.2019
2304 Clouds 28 1016 74 16093 1.5 200 07:20 08.09.2019
2305 Clouds 28 1015 70 16093 2.1 200 06:45 08.09.2019
2306 Thunderstorm 28 1015 70 16093 2.6 230 05:48 08.09.2019
2307 Thunderstorm 29 1015 70 16093 2.6 230 05:29 08.09.2019
2308 Clouds 30 1014 58 16093 4.1 210 03:51 08.09.2019
2309 Clouds 30 1014 52 16093 4.1 210 02:53 08.09.2019
2310 Clouds 30 1014 52 16093 4.1 210 02:25 08.09.2019
2311 Thunderstorm 31 1013 55 16093 3.6 180 01:34 08.09.2019
2312 Thunderstorm 31 1013 55 16093 3.6 180 01:34 08.09.2019
2313 Clouds 31 1013 70 16093 5.1 160 00:57 08.09.2019
2314 Clouds 32 1013 55 16093 4.6 170 00:37 08.09.2019
2315 Clouds 32 1013 55 16093 4.6 170 00:19 08.09.2019
2316 Clouds 32 1013 55 16093 6.2 160 23:38 07.09.2019
2317 Clouds 32 1013 55 16093 6.2 160 23:19 07.09.2019
2318 Clouds 33 1013 55 16093 5.7 140 22:57 07.09.2019
2319 Clouds 33 1013 55 16093 5.7 140 22:37 07.09.2019
2320 Clouds 33 1013 55 16093 5.7 140 22:37 07.09.2019
2321 Clouds 33 1013 55 16093 5.7 140 22:18 07.09.2019
2322 Clouds 33 1014 55 16093 5.7 140 21:41 07.09.2019
2323 Clouds 33 1014 55 16093 5.7 140 21:23 07.09.2019
2324 Clouds 33 1014 55 16093 4.6 130 20:42 07.09.2019
2325 Clouds 33 1014 55 16093 4.6 130 20:22 07.09.2019
2326 Clouds 34 1014 59 16093 6.2 150 19:58 07.09.2019
2327 Clouds 34 1015 49 16093 3.1 190 19:39 07.09.2019
2328 Clouds 34 1015 49 16093 3.1 190 19:21 07.09.2019
2329 Clouds 33 1015 55 16093 5.7 120 18:59 07.09.2019
2330 Clouds 33 1015 52 16093 2.6 0 18:40 07.09.2019
2331 Clouds 33 1015 52 16093 2.6 0 18:22 07.09.2019
2332 Clouds 33 1015 55 16093 4.1 230 17:59 07.09.2019
2333 Clouds 33 1015 55 16093 4.1 230 17:59 07.09.2019
2334 Clouds 32 1016 52 16093 3.1 270 17:41 07.09.2019
2335 Clouds 32 1016 52 16093 3.1 270 17:19 07.09.2019
2336 Clouds 32 1016 62 16093 3.1 240 16:59 07.09.2019
2337 Clouds 31 1016 62 16093 3.1 240 16:40 07.09.2019
2338 Clouds 31 1016 62 16093 3.1 240 16:20 07.09.2019
2339 Clouds 30 1016 70 16093 3.6 270 15:47 07.09.2019
2340 Clouds 30 1016 70 16093 2.1 230 15:26 07.09.2019
2341 Clouds 29 1015 78 16093 2.1 200 14:58 07.09.2019
2342 Clouds 28 1015 78 16093 2.1 200 14:37 07.09.2019
2343 Clouds 28 1015 78 16093 2.1 200 14:19 07.09.2019
2344 Clouds 27 1015 83 16093 1.5 200 13:58 07.09.2019
2345 Clouds 27 1015 83 16093 1.5 200 13:58 07.09.2019
2346 Clouds 27 1015 83 16093 1.5 200 13:39 07.09.2019
2347 Mist 26 1015 83 16093 1.5 200 13:21 07.09.2019
2348 Mist 26 1014 100 8047 1.82 219.576 12:44 07.09.2019
2349 Mist 26 1014 83 16093 1.5 210 12:25 07.09.2019
2350 Mist 27 1014 100 4828 2.04 224.96 11:57 07.09.2019
2351 Mist 27 1014 83 16093 2.1 190 11:39 07.09.2019
2352 Mist 27 1014 83 16093 2.1 190 11:19 07.09.2019
2353 Clouds 27 1014 78 16093 1.5 0 10:40 07.09.2019
2354 Clouds 27 1014 78 16093 1.5 0 10:21 07.09.2019
2355 Clouds 27 1014 74 16093 1.5 0 09:45 07.09.2019
2356 Clouds 27 1014 74 16093 1.5 0 09:27 07.09.2019
2357 Clouds 27 1014 70 16093 2.6 240 08:59 07.09.2019
2358 Clouds 28 1014 70 16093 2.6 240 08:41 07.09.2019
2359 Clouds 28 1014 70 16093 2.6 240 08:41 07.09.2019
2360 Clouds 28 1014 70 16093 2.6 240 08:23 07.09.2019
2361 Clouds 28 1014 74 16093 2.1 250 07:45 07.09.2019
2362 Clouds 28 1014 74 16093 2.1 250 07:26 07.09.2019
2363 Clouds 28 1015 70 16093 3.6 250 06:47 07.09.2019
2364 Clouds 28 1015 70 16093 3.6 250 06:20 07.09.2019
2365 Clouds 29 1015 62 16093 4.1 240 04:49 07.09.2019
2366 Clouds 29 1015 62 16093 4.1 240 04:20 07.09.2019
2367 Clouds 31 1013 52 16093 5.1 240 02:48 07.09.2019
2368 Clouds 32 1013 49 16093 4.6 260 01:53 07.09.2019
2369 Clouds 32 1013 49 16093 4.6 260 01:53 07.09.2019
2370 Clouds 32 1013 49 16093 4.6 260 01:23 07.09.2019
2371 Clouds 33 1013 46 16093 4.1 250 00:40 07.09.2019
2372 Clouds 34 1013 46 16093 4.1 250 00:19 07.09.2019
2373 Clouds 35 1013 44 16093 4.1 260 23:41 06.09.2019
2374 Clouds 35 1013 44 16093 4.1 260 23:22 06.09.2019
2375 Clouds 35 1013 44 16093 3.6 290 22:58 06.09.2019
2376 Clouds 35 1013 44 16093 3.6 290 22:38 06.09.2019
2377 Clouds 35 1013 44 16093 3.6 290 22:19 06.09.2019
2378 Clouds 35 1013 44 16093 3.6 290 22:19 06.09.2019
2379 Clouds 35 1014 49 16093 3.6 240 21:57 06.09.2019
2380 Clouds 35 1014 49 16093 3.6 240 21:39 06.09.2019
2381 Clouds 35 1014 49 16093 3.6 240 21:20 06.09.2019
2382 Clouds 35 1014 56 16093 4.6 280 20:57 06.09.2019
2383 Clouds 34 1014 49 16093 5.1 250 20:39 06.09.2019
2384 Clouds 34 1014 49 16093 5.1 250 20:21 06.09.2019
2385 Clouds 34 1014 50 16093 5.1 260 19:55 06.09.2019
2386 Clouds 34 1015 52 16093 3.1 280 19:37 06.09.2019
2387 Clouds 34 1015 52 16093 3.1 280 19:18 06.09.2019
2388 Clouds 33 1015 55 16093 3.6 270 18:41 06.09.2019
2389 Clouds 33 1015 55 16093 3.6 270 18:41 06.09.2019
2390 Clouds 33 1015 55 16093 3.6 270 18:23 06.09.2019
2391 Clouds 32 1015 59 16093 5.1 290 17:58 06.09.2019
2392 Clouds 32 1016 58 16093 3.1 250 17:38 06.09.2019
2393 Clouds 31 1015 70 16093 2.1 240 17:19 06.09.2019
2394 Clouds 31 1016 66 16093 2.6 260 16:41 06.09.2019
2395 Clouds 30 1016 66 16093 2.6 260 16:19 06.09.2019
2396 Clouds 30 1016 66 16093 2.6 260 16:19 06.09.2019
2397 Clouds 30 1016 74 16093 2.6 240 15:44 06.09.2019
2398 Clouds 29 1016 74 16093 2.6 240 15:26 06.09.2019
2399 Clouds 29 1015 78 16093 1.5 250 14:57 06.09.2019
2400 Clouds 28 1015 78 16093 1.5 250 14:39 06.09.2019
2401 Clouds 28 1015 78 16093 1.5 250 14:18 06.09.2019
2402 Clouds 27 1015 83 16093 1.5 230 13:42 06.09.2019
2403 Clouds 26 1015 83 16093 1.5 230 13:22 06.09.2019
2404 Clouds 26 1014 83 16093 2.1 240 12:38 06.09.2019
2405 Clear 26 1015 83 16093 2.6 230 12:20 06.09.2019
2406 -273 0 0 0 0 0 11:56 06.09.2019
2407 Clear 26 1014 88 16093 3.1 250 11:55 06.09.2019
2408 Clouds 26 1014 83 16093 1.5 220 11:37 06.09.2019
2409 Clouds 26 1014 83 16093 1.5 220 11:18 06.09.2019
2410 Clouds 26 1014 83 16093 1.5 210 10:41 06.09.2019
2411 Clouds 26 1014 83 16093 1.5 210 10:22 06.09.2019
2412 Clouds 27 1015 83 16093 2.1 220 09:58 06.09.2019
2413 Clouds 27 1015 83 16093 2.1 220 09:37 06.09.2019
2414 Clouds 27 1015 83 16093 2.1 220 09:18 06.09.2019
2415 Clear 27 1015 78 16093 2.1 200 08:44 06.09.2019
2416 Clear 27 1015 78 16093 2.1 200 08:26 06.09.2019
2417 Clear 27 1015 78 16093 2.1 200 08:26 06.09.2019
2418 Clear 27 1015 74 16093 2.6 250 07:50 06.09.2019
2419 Clear 27 1015 74 16093 2.6 250 07:28 06.09.2019
2420 Clear 27 1015 78 16093 3.1 260 06:58 06.09.2019
2421 Clear 28 1015 70 16093 2.6 240 06:31 06.09.2019
2422 Clouds 28 1016 70 16093 2.6 220 05:44 06.09.2019
2423 Clear 29 1015 79 16093 4.1 260 04:54 06.09.2019
2424 Clouds 29 1016 66 16093 2.6 240 04:19 06.09.2019
2425 Clouds 30 1015 58 16093 5.7 250 02:40 06.09.2019
2426 Clouds 32 1014 55 16093 6.7 220 00:51 06.09.2019
2427 Clear 33 1014 55 16093 5.1 240 23:58 05.09.2019
2428 Clouds 33 1014 55 16093 5.7 250 23:40 05.09.2019
2429 Clouds 33 1014 55 16093 5.7 250 23:21 05.09.2019
2430 Clouds 34 1014 59 16093 4.6 230 22:45 05.09.2019
2431 Clouds 34 1014 59 16093 4.6 230 22:25 05.09.2019
2432 Clouds 33 1015 59 16093 4.6 220 21:57 05.09.2019
2433 Clouds 33 1015 59 16093 4.6 220 21:38 05.09.2019
2434 Clouds 33 1015 59 16093 4.6 220 21:20 05.09.2019
2435 Clouds 33 1016 55 16093 5.7 220 20:58 05.09.2019
2436 Clouds 33 1016 55 16093 5.7 220 20:38 05.09.2019
2437 Clouds 33 1016 55 16093 5.7 220 20:20 05.09.2019
2438 Clouds 32 1015 46 16093 6.7 240 19:57 05.09.2019
2439 Clouds 33 1016 66 16093 4.6 210 19:38 05.09.2019
2440 Rain 33 1016 66 16093 6.7 250 19:19 05.09.2019
2441 Rain 32 1016 59 16093 4.1 200 18:41 05.09.2019
2442 Rain 33 1016 59 16093 4.1 200 18:22 05.09.2019
2443 Clouds 32 1016 66 16093 4.1 240 17:58 05.09.2019
2444 Clouds 32 1016 62 16093 2.1 230 17:39 05.09.2019
2445 Clouds 32 1016 62 16093 2.1 230 17:39 05.09.2019
2446 Clouds 32 1016 62 16093 2.1 230 17:20 05.09.2019
2447 Clouds 31 1016 70 16093 2.6 0 16:42 05.09.2019
2448 Clouds 31 1016 70 16093 2.6 0 16:22 05.09.2019
2449 Clear 30 1016 66 16093 6.2 260 15:59 05.09.2019
2450 Clouds 29 1016 79 16093 1.5 210 15:39 05.09.2019
2451 Clouds 29 1016 79 16093 1.5 210 15:19 05.09.2019
2452 Clouds 28 1016 83 16093 3.1 0 14:56 05.09.2019
2453 Clouds 28 1016 83 16093 3.1 0 14:38 05.09.2019
2454 Clear 28 1016 83 16093 2.6 220 14:18 05.09.2019
2455 Clouds 27 1015 83 16093 2.6 250 13:42 05.09.2019
2456 Clouds 27 1015 83 16093 2.6 250 13:19 05.09.2019
2457 Clouds 27 1015 94 16093 2.1 210 12:43 05.09.2019
2458 Clouds 27 1015 94 16093 2.1 210 12:25 05.09.2019
2459 Clear 27 1014 88 16093 2.1 230 11:57 05.09.2019
2460 Clouds 27 1014 78 16093 2.6 220 11:38 05.09.2019
2461 Clouds 27 1014 78 16093 2.6 220 11:18 05.09.2019
2462 Clouds 27 1014 78 16093 2.1 200 10:41 05.09.2019
2463 Clouds 27 1014 78 16093 2.1 200 10:22 05.09.2019
2464 Clouds 27 1014 78 16093 2.1 200 10:22 05.09.2019
2465 Clouds 27 1014 78 16093 2.1 220 09:57 05.09.2019
2466 Clouds 27 1014 78 16093 2.1 220 09:38 05.09.2019
2467 Clouds 27 1014 78 16093 2.1 220 09:18 05.09.2019
2468 Clouds 27 1014 78 16093 2.1 220 09:18 05.09.2019
2469 Clouds 28 1014 78 16093 3.6 250 08:45 05.09.2019
2470 Clouds 28 1014 78 16093 3.6 250 08:26 05.09.2019
2471 Clear 28 1015 83 16093 3.6 240 07:45 05.09.2019
2472 Clear 28 1015 83 16093 3.6 240 07:27 05.09.2019
2473 Clear 28 1015 83 16093 3.6 240 06:53 05.09.2019
2474 Clouds 28 1015 74 16093 4.1 250 06:29 05.09.2019
2475 Clouds 28 1015 74 16093 3.6 250 05:50 05.09.2019
2476 Clouds 29 1015 74 16093 3.6 250 05:30 05.09.2019
2477 Clouds 29 1014 70 16093 3.6 240 04:48 05.09.2019
2478 Clouds 29 1014 70 16093 3.6 240 04:24 05.09.2019
2479 Clear 29 1013 70 16093 6.2 240 03:34 05.09.2019
2480 Clouds 30 1013 62 16093 6.2 260 02:44 05.09.2019
2481 Clouds 30 1013 62 16093 6.2 260 02:18 05.09.2019
2482 Clouds 31 1012 55 16093 7.2 250 01:26 05.09.2019
2483 Clouds 32 1012 52 16093 6.2 260 00:42 05.09.2019
2484 Clouds 33 1012 52 16093 6.2 260 00:20 05.09.2019
2485 Clouds 33 1011 52 16093 7.7 250 23:46 04.09.2019
2486 Clouds 34 1011 52 16093 7.7 250 23:26 04.09.2019
2487 Clouds 34 1011 55 16093 7.2 250 22:59 04.09.2019
2488 Clouds 34 1011 52 16093 7.7 240 22:38 04.09.2019
2489 Clouds 34 1011 52 16093 7.7 240 22:18 04.09.2019
2490 Rain 34 1011 46 16093 6.2 250 21:39 04.09.2019
2491 Clouds 34 1011 46 16093 6.2 250 21:20 04.09.2019
2492 Clouds 34 1011 46 16093 6.2 250 21:20 04.09.2019
2493 Clouds 34 1012 52 16093 9.3 240 20:56 04.09.2019
2494 Clouds 34 1012 52 16093 9.3 240 20:38 04.09.2019
2495 Clouds 34 1012 52 16093 9.3 240 20:19 04.09.2019
2496 Clouds 34 1010 52 16093 9.8 240 19:56 04.09.2019
2497 Clouds 33 1012 52 16093 6.2 260 19:37 04.09.2019
2498 Clouds 33 1012 59 16093 9.8 250 19:19 04.09.2019
2499 Clouds 33 1012 59 16093 6.7 240 18:38 04.09.2019
2500 Rain 33 1012 62 16093 6.7 260 18:19 04.09.2019
2501 Rain 32 1013 59 16093 5.1 220 17:42 04.09.2019
2502 Rain 32 1013 59 16093 5.1 220 17:42 04.09.2019
2503 Thunderstorm 32 1013 59 16093 5.1 220 17:23 04.09.2019
2504 Thunderstorm 32 1013 59 16093 5.1 220 17:23 04.09.2019
2505 Clouds 31 1012 66 16093 9.3 260 16:58 04.09.2019
2506 Clouds 31 1012 62 16093 5.1 260 16:40 04.09.2019
2507 Clouds 31 1012 62 16093 5.1 260 16:21 04.09.2019
2508 Clouds 30 1011 66 16093 3.1 240 15:56 04.09.2019
2509 Clouds 30 1011 66 16093 3.1 240 15:55 04.09.2019
2510 Clouds 29 1011 66 16093 3.1 240 15:37 04.09.2019
2511 Clouds 29 1011 66 16093 3.1 240 15:19 04.09.2019
2512 Clouds 28 1012 74 16093 2.6 190 14:54 04.09.2019
2513 Clouds 28 1012 74 16093 2.6 190 14:36 04.09.2019
2514 Clouds 27 1012 74 16093 2.6 190 14:18 04.09.2019
2515 Clouds 26 1011 78 16093 3.1 250 13:40 04.09.2019
2516 Clouds 26 1011 78 16093 3.1 250 13:21 04.09.2019
2517 Clouds 26 1011 78 16093 3.1 250 13:21 04.09.2019
2518 Clear 26 1011 78 16093 3.6 250 12:56 04.09.2019
2519 Clouds 26 1010 78 16093 2.6 250 12:37 04.09.2019
2520 Clouds 26 1010 78 16093 2.6 250 12:18 04.09.2019
2521 Clouds 26 1009 78 16093 3.1 270 11:41 04.09.2019
2522 Clouds 26 1009 78 16093 3.1 270 11:21 04.09.2019
2523 Clouds 26 1008 78 16093 3.1 240 10:59 04.09.2019
2524 Clouds 26 1008 78 16093 3.1 240 10:40 04.09.2019
2525 Clouds 26 1008 78 16093 3.1 240 10:21 04.09.2019
2526 Clouds 27 1008 78 16093 3.6 250 09:46 04.09.2019
2527 Clouds 27 1008 78 16093 3.6 250 09:22 04.09.2019
2528 Clear 27 1009 83 16093 5.1 250 08:58 04.09.2019
2529 Clear 27 1009 83 16093 5.1 250 08:39 04.09.2019
2530 Clear 27 1009 83 16093 5.1 250 08:19 04.09.2019
2531 Clouds 27 1009 78 16093 4.1 250 07:43 04.09.2019
2532 Clouds 27 1009 78 16093 4.1 250 07:24 04.09.2019
2533 Clouds 27 1009 78 16093 3.1 260 06:39 04.09.2019
2534 Clouds 28 1008 74 16093 5.1 250 04:56 04.09.2019
2535 Clouds 28 1008 74 16093 5.1 250 04:25 04.09.2019
2536 Clouds 28 1007 70 16093 5.7 260 03:39 04.09.2019
2537 Rain 29 1006 78 4023 7.2 270 01:21 04.09.2019
2538 Rain 29 1005 83 6437 3.1 320 00:50 04.09.2019
2539 Rain 29 1005 83 6437 3.1 320 00:31 04.09.2019
2540 Rain 30 1005 74 14484 7.2 260 23:54 03.09.2019
2541 Rain 30 1005 55 16093 6.7 270 23:27 03.09.2019
2542 Thunderstorm 31 1004 74 14484 7.2 280 22:57 03.09.2019
2543 Rain 31 1005 55 16093 5.7 300 22:39 03.09.2019
2544 Rain 31 1005 55 16093 5.7 300 22:21 03.09.2019
2545 Rain 31 1005 52 16093 8.2 280 21:55 03.09.2019
2546 Rain 31 1005 52 16093 8.2 280 21:36 03.09.2019
2547 Rain 31 1005 52 16093 8.2 280 21:18 03.09.2019
2548 Rain 31 1005 55 16093 7.7 280 20:42 03.09.2019
2549 Rain 31 1005 55 16093 7.7 280 20:24 03.09.2019
2550 Rain 31 1005 55 16093 7.7 280 20:24 03.09.2019
2551 Rain 31 1005 55 16093 7.7 280 20:24 03.09.2019
2552 Rain 31 1005 59 16093 11.3 280 19:55 03.09.2019
2553 Rain 31 1006 62 16093 8.2 270 19:37 03.09.2019
2554 Rain 31 1006 62 16093 8.2 270 19:18 03.09.2019
2555 Rain 30 1006 62 16093 6.7 260 18:44 03.09.2019
2556 Rain 30 1006 62 16093 6.7 260 18:26 03.09.2019
2557 Rain 29 1006 66 16093 11.3 290 17:58 03.09.2019
2558 Rain 29 1006 74 16093 11.3 280 17:40 03.09.2019
2559 Clouds 29 1005 66 16093 8.2 280 17:19 03.09.2019
2560 Clouds 29 1006 74 16093 8.7 280 16:56 03.09.2019
2561 Rain 28 1005 70 16093 7.7 270 16:38 03.09.2019
2562 Rain 28 1005 70 16093 7.7 270 16:19 03.09.2019
2563 Rain 27 1006 78 16093 5.7 280 15:40 03.09.2019
2564 Clouds 27 1006 78 16093 5.7 280 15:40 03.09.2019
2565 Rain 27 1006 78 16093 5.7 280 15:21 03.09.2019
2566 Rain 27 1006 83 16093 8.7 280 14:58 03.09.2019
2567 Rain 27 1005 83 16093 8.7 290 14:40 03.09.2019
2568 Rain 26 1005 83 16093 8.7 290 14:20 03.09.2019
2569 Rain 26 1005 83 16093 8.7 290 14:20 03.09.2019
2570 Rain 26 1003 88 16093 7.7 280 13:56 03.09.2019
2571 Rain 26 1004 83 16093 9.3 290 13:37 03.09.2019
2572 Rain 26 1005 78 16093 6.7 270 13:19 03.09.2019
2573 Rain 26 1005 78 16093 6.7 270 13:19 03.09.2019
2574 Clouds 26 1004 78 16093 5.7 280 12:49 03.09.2019
2575 Rain 26 1004 78 16093 6.7 280 12:30 03.09.2019
2576 Clouds 26 1002 78 16093 9.3 290 11:59 03.09.2019
2577 Rain 26 1003 78 16093 5.7 280 11:39 03.09.2019
2578 Rain 26 1003 78 16093 5.7 280 11:20 03.09.2019
2579 Rain 26 1003 83 16093 7.7 300 10:55 03.09.2019
2580 Rain 26 1003 78 16093 4.6 290 10:37 03.09.2019
2581 Rain 26 1003 78 16093 4.6 290 10:18 03.09.2019
2582 Rain 26 1002 88 16093 7.2 290 09:42 03.09.2019
2583 Rain 26 1004 78 16093 6.2 290 09:24 03.09.2019
2584 Clouds 26 1004 83 16093 8.7 300 08:41 03.09.2019
2585 Clouds 26 1004 83 16093 8.7 300 08:23 03.09.2019
2586 Clouds 27 1003 83 16093 5.7 300 07:58 03.09.2019
2587 Clouds 27 1005 78 16093 5.1 290 07:39 03.09.2019
2588 Clouds 27 1005 78 16093 5.1 290 07:21 03.09.2019
2589 Clouds 27 1004 83 16093 6.2 300 06:43 03.09.2019
2590 Clouds 27 1005 83 16093 9.8 300 05:36 03.09.2019
2591 Rain 27 1005 74 16093 3.6 290 03:34 03.09.2019
2592 Rain 27 1005 88 16093 7.7 290 02:43 03.09.2019
2593 Rain 27 1005 83 16093 7.7 290 02:23 03.09.2019
2594 Rain 27 1005 88 16093 5.7 290 01:47 03.09.2019
2595 Rain 27 1005 88 16093 5.7 290 01:28 03.09.2019
2596 Rain 26 1005 88 16093 3.6 280 00:40 03.09.2019
2597 Rain 27 1005 83 4828 8.2 280 00:18 03.09.2019
2598 Rain 27 1005 83 16093 10.8 280 23:39 02.09.2019
2599 Rain 27 1005 83 16093 10.8 280 23:39 02.09.2019
2600 Rain 27 1005 83 16093 10.8 280 23:20 02.09.2019
2601 Rain 27 1005 83 16093 10.8 280 23:20 02.09.2019
2602 Rain 28 1005 83 4828 5.1 320 22:56 02.09.2019
2603 Rain 28 1005 83 4828 5.1 320 22:56 02.09.2019
2604 Rain 28 1005 78 16093 4.6 300 22:37 02.09.2019
2605 Rain 28 1004 94 6437 4.1 290 22:19 02.09.2019
2606 Rain 28 1005 94 11265 7.2 290 21:56 02.09.2019
2607 Rain 28 1005 62 16093 7.2 290 21:38 02.09.2019
2608 Rain 29 1005 62 16093 7.2 290 21:19 02.09.2019
2609 Rain 29 1006 83 8047 4.1 320 20:55 02.09.2019
2610 Rain 29 1006 78 3219 8.2 320 20:37 02.09.2019
2611 Rain 28 1005 88 1207 7.2 310 20:18 02.09.2019
2612 -273 0 0 0 0 0 19:55 02.09.2019
2613 Rain 29 1007 88 1609 9.3 310 19:37 02.09.2019
2614 Rain 29 1007 88 1609 9.3 310 19:18 02.09.2019
2615 Rain 29 1007 70 16093 7.7 280 18:38 02.09.2019
2616 Rain 29 1007 70 16093 7.7 280 18:38 02.09.2019
2617 Rain 29 1007 70 16093 7.7 280 18:20 02.09.2019
2618 Rain 29 1007 79 16093 9.3 290 17:56 02.09.2019
2619 Rain 28 1007 79 16093 9.3 300 17:38 02.09.2019
2620 Rain 28 1007 79 16093 9.3 300 17:19 02.09.2019
2621 Rain 28 1007 88 16093 5.1 270 16:41 02.09.2019
2622 Rain 28 1007 88 16093 5.1 270 16:21 02.09.2019
2623 Rain 27 1008 78 16093 6.2 280 15:57 02.09.2019
2624 Rain 27 1007 83 16093 8.2 270 15:38 02.09.2019
2625 Rain 27 1007 83 16093 8.2 270 15:19 02.09.2019
2626 Rain 27 1007 83 16093 9.8 290 14:56 02.09.2019
2627 Rain 27 1007 83 16093 7.7 280 14:37 02.09.2019
2628 Clouds 27 1007 83 16093 7.7 280 14:18 02.09.2019
2629 Clouds 27 1007 83 16093 5.1 270 13:44 02.09.2019
2630 Clouds 27 1007 83 16093 5.1 270 13:25 02.09.2019
2631 Clouds 27 1007 83 14484 5.1 270 12:47 02.09.2019
2632 Clouds 27 1007 83 14484 5.1 270 12:27 02.09.2019
2633 Clouds 27 1007 83 14484 5.1 280 12:00 02.09.2019
2634 Clouds 27 1007 88 16093 6.7 290 11:41 02.09.2019
2635 Clouds 27 1007 88 16093 7.7 280 11:22 02.09.2019
2636 Clouds 27 1007 88 16093 6.2 280 10:59 02.09.2019
2637 Clouds 27 1007 88 16093 6.2 280 10:59 02.09.2019
2638 Clouds 27 1007 88 16093 6.2 280 10:41 02.09.2019
2639 Clouds 27 1007 88 16093 6.2 280 10:22 02.09.2019
2640 Clouds 27 1007 83 16093 4.1 290 09:58 02.09.2019
2641 Clouds 27 1007 83 16093 4.1 290 09:38 02.09.2019
2642 Clouds 27 1007 83 16093 4.1 290 09:19 02.09.2019
2643 Clouds 27 1008 78 16093 3.1 300 08:42 02.09.2019
2644 Clouds 27 1008 78 16093 3.1 300 08:21 02.09.2019
2645 Clouds 27 1009 78 16093 3.6 300 07:54 02.09.2019
2646 Clouds 27 1009 78 16093 3.6 300 07:54 02.09.2019
2647 Clouds 27 1009 78 16093 3.6 300 07:36 02.09.2019
2648 Clouds 27 1009 78 16093 3.6 300 07:18 02.09.2019
2649 Clear 27 1010 78 16093 7.2 320 06:39 02.09.2019
2650 Clear 27 1010 74 16093 6.7 330 05:53 02.09.2019
2651 Clear 27 1010 74 16093 6.7 330 05:22 02.09.2019
2652 Clouds 28 1009 78 16093 6.2 340 04:48 02.09.2019
2653 Rain 30 1009 62 16093 8.7 330 01:59 02.09.2019
2654 Rain 30 1009 62 16093 3.6 320 01:28 02.09.2019
2655 Thunderstorm 30 1009 55 16093 5.1 310 00:36 02.09.2019
2656 Thunderstorm 31 1010 66 16093 5.7 310 00:18 02.09.2019
2657 Clouds 32 1010 74 16093 3.1 90 23:39 01.09.2019
2658 Clouds 32 1010 74 16093 3.1 90 23:19 01.09.2019
2659 Rain 32 1009 55 16093 3.1 0 22:56 01.09.2019
2660 Rain 32 1009 55 16093 3.1 0 22:56 01.09.2019
2661 Rain 32 1009 55 16093 3.1 0 22:38 01.09.2019
2662 Rain 32 1009 55 16093 3.1 0 22:18 01.09.2019
2663 Rain 32 1011 74 2414 6.2 310 21:42 01.09.2019
2664 Rain 32 1011 74 2414 6.2 310 21:23 01.09.2019
2665 Rain 33 1012 62 16093 5.1 300 20:58 01.09.2019
2666 Rain 32 1011 55 16093 5.1 300 20:39 01.09.2019
2667 Rain 32 1011 55 16093 5.1 300 20:19 01.09.2019
2668 Rain 33 1012 62 4023 5.7 20 19:59 01.09.2019
2669 Rain 33 1012 62 4023 5.7 20 19:59 01.09.2019
2670 Rain 33 1012 62 4023 5.7 20 19:59 01.09.2019
2671 Rain 33 1012 52 16093 3.6 290 19:40 01.09.2019
2672 Rain 33 1012 52 16093 3.6 290 19:21 01.09.2019
2673 Clouds 32 1013 55 16093 4.13 326.941 18:45 01.09.2019
2674 Clouds 32 1013 55 16093 4.13 326.941 18:27 01.09.2019
2675 Clouds 32 1013 62 16093 2.6 340 17:59 01.09.2019
2676 Clouds 32 1013 62 16093 3.1 320 17:39 01.09.2019
2677 Clouds 32 1013 62 16093 3.1 320 17:21 01.09.2019
2678 Clouds 31 1013 66 16093 3.1 330 16:41 01.09.2019
2679 Clouds 31 1013 66 16093 3.1 330 16:41 01.09.2019
2680 Clouds 31 1013 66 16093 3.1 330 16:41 01.09.2019
2681 Clouds 30 1013 66 16093 3.1 330 16:22 01.09.2019
2682 Clouds 30 1013 79 16093 2.1 0 15:59 01.09.2019
2683 Clouds 29 1013 79 16093 2.1 0 15:41 01.09.2019
2684 Clouds 29 1013 79 16093 2.1 0 15:23 01.09.2019
2685 Rain 27 1013 83 16093 2.1 300 14:44 01.09.2019
2686 Rain 27 1013 83 16093 2.1 300 14:26 01.09.2019
2687 Rain 26 1012 83 16093 2.1 300 13:59 01.09.2019
2688 Rain 26 1012 83 16093 2.1 300 13:40 01.09.2019
2689 Rain 26 1012 83 16093 2.1 300 13:22 01.09.2019
2690 Clouds 26 1012 83 16093 2.1 300 12:44 01.09.2019
2691 Clouds 26 1012 83 16093 2.1 300 12:26 01.09.2019
2692 Clouds 26 1012 83 16093 2.1 300 12:26 01.09.2019
2693 Clouds 26 1012 83 16093 1.5 310 11:58 01.09.2019
2694 Rain 26 1012 88 16093 1.46 37.492 11:38 01.09.2019
2695 Clouds 26 1012 88 16093 1.46 37.492 11:18 01.09.2019
2696 Clouds 26 1012 83 16093 1.46 37.492 10:45 01.09.2019
2697 Clouds 26 1012 83 16093 1.46 37.492 10:23 01.09.2019
2698 Rain 26 1012 88 16093 1.5 310 09:47 01.09.2019
2699 Rain 26 1013 83 16093 1.5 290 09:26 01.09.2019
2700 Rain 26 1013 78 16093 1.5 230 08:56 01.09.2019
2701 Rain 26 1013 78 16093 1.5 230 08:38 01.09.2019
2702 Rain 26 1013 78 16093 1.5 230 08:19 01.09.2019
2703 Rain 26 1013 83 16093 1.5 90 07:41 01.09.2019
2704 Rain 26 1013 83 16093 1.5 90 07:20 01.09.2019
2705 Rain 26 1014 83 16093 2.02 82.843 06:38 01.09.2019
2706 Rain 26 1014 88 16093 2.1 310 05:59 01.09.2019
2707 Rain 26 1014 88 16093 2.1 310 05:59 01.09.2019
2708 Rain 27 1014 88 4828 3.6 10 04:41 01.09.2019
2709 Rain 28 1014 78 16093 1.5 40 03:48 01.09.2019
2710 Rain 28 1013 74 16093 5.1 90 03:29 01.09.2019
2711 Clouds 29 1013 70 16093 3.6 60 02:37 01.09.2019
2712 Clouds 29 1013 70 16093 3.6 60 02:19 01.09.2019
2713 Clouds 29 1012 66 16093 6.7 80 01:28 01.09.2019
2714 Clouds 30 1012 66 16093 6.7 80 00:55 01.09.2019
2715 Rain 30 1012 58 16093 5.1 100 00:36 01.09.2019
2716 Rain 30 1012 66 16093 5.7 90 00:18 01.09.2019
2717 Clouds 31 1012 55 16093 5.1 90 23:40 31.08.2019
2718 Clouds 31 1012 55 16093 5.1 90 23:20 31.08.2019
2719 Rain 31 1013 66 16093 5.1 90 22:54 31.08.2019
2720 Rain 31 1013 66 16093 5.1 70 22:36 31.08.2019
2721 Clouds 32 1013 66 16093 5.1 70 22:18 31.08.2019
2722 Clouds 32 1013 59 16093 6.7 100 21:42 31.08.2019
2723 Clouds 32 1013 59 16093 6.7 100 21:21 31.08.2019
2724 Rain 32 1014 55 16093 5.1 90 20:59 31.08.2019
2725 Rain 32 1014 55 16093 5.1 90 20:40 31.08.2019
2726 Rain 32 1014 55 16093 5.1 90 20:22 31.08.2019
2727 Clouds 32 1014 59 16093 6.7 120 19:41 31.08.2019
2728 Clouds 32 1014 59 16093 6.7 120 19:22 31.08.2019
2729 Clouds 32 1014 62 16093 7.2 120 18:55 31.08.2019
2730 Clouds 32 1014 62 16093 7.2 120 18:55 31.08.2019
2731 Clouds 32 1014 62 16093 6.7 110 18:36 31.08.2019
2732 Clouds 32 1015 66 16093 7.2 100 18:18 31.08.2019
2733 Clouds 32 1015 66 16093 7.2 100 18:18 31.08.2019
2734 Rain 31 1014 58 16093 7.7 90 17:54 31.08.2019
2735 Rain 31 1014 58 16093 7.7 90 17:36 31.08.2019
2736 Rain 31 1014 58 16093 7.7 90 17:18 31.08.2019
2737 Rain 30 1014 66 16093 4.6 100 16:42 31.08.2019
2738 Rain 30 1014 66 16093 4.6 100 16:23 31.08.2019
2739 Rain 29 1014 70 16093 6.7 110 15:59 31.08.2019
2740 Rain 29 1014 66 16093 5.1 100 15:40 31.08.2019
2741 Rain 28 1014 66 16093 5.1 100 15:18 31.08.2019
2742 Rain 28 1014 88 16093 5.02 91.781 14:42 31.08.2019
2743 Rain 28 1014 88 16093 5.02 91.781 14:24 31.08.2019
2744 Clouds 27 1013 83 16093 2.1 80 13:59 31.08.2019
2745 Clouds 27 1013 83 16093 2.1 80 13:38 31.08.2019
2746 Clouds 27 1013 83 16093 2.1 80 13:19 31.08.2019
2747 Rain 27 1014 83 16093 2.6 80 12:54 31.08.2019
2748 Rain 27 1013 83 9656 5.1 90 12:36 31.08.2019
2749 Rain 27 1014 83 16093 2.6 100 12:18 31.08.2019
2750 Rain 27 1013 74 16093 3.6 110 11:42 31.08.2019
2751 Rain 27 1013 74 16093 3.6 110 11:24 31.08.2019
2752 Rain 27 1013 74 16093 3.1 120 10:55 31.08.2019
2753 Clouds 27 1013 74 16093 3.1 120 10:36 31.08.2019
2754 Clouds 27 1013 74 16093 3.1 120 10:18 31.08.2019
2755 Clouds 27 1013 70 16093 5.1 90 09:40 31.08.2019
2756 Clouds 27 1013 70 16093 5.1 90 09:22 31.08.2019
2757 Clouds 27 1013 69 16093 5.1 100 08:57 31.08.2019
2758 Clouds 27 1013 69 16093 5.1 100 08:38 31.08.2019
2759 Clouds 27 1013 69 16093 5.1 100 08:19 31.08.2019
2760 Rain 27 1014 66 16093 5.7 110 07:38 31.08.2019
2761 Rain 27 1014 66 16093 5.7 110 07:18 31.08.2019
2762 Rain 28 1014 74 16093 4.6 90 06:27 31.08.2019
2763 Rain 28 1014 83 16093 3.6 80 05:54 31.08.2019
2764 Clouds 28 1014 70 16093 5.1 100 05:28 31.08.2019
2765 Rain 28 1014 74 16093 4.6 100 04:29 31.08.2019
2766 Rain 28 1014 88 9656 1.5 120 03:42 31.08.2019
2767 Rain 29 1013 78 6437 5.1 90 02:22 31.08.2019
2768 Thunderstorm 30 1013 62 16093 5.1 120 01:47 31.08.2019
2769 Rain 30 1013 74 16093 7.7 90 01:28 31.08.2019
2770 Clouds 30 1013 62 16093 5.1 90 00:46 31.08.2019
2771 Clouds 30 1012 62 16093 6.7 100 00:46 31.08.2019
2772 Clouds 31 1012 62 16093 6.7 100 00:27 31.08.2019
2773 Clouds 31 1012 62 16093 6.7 100 00:27 31.08.2019
2774 Clouds 31 1012 66 16093 5.1 120 23:50 30.08.2019
2775 Clouds 32 1011 55 16093 7.2 100 23:19 30.08.2019
2776 Rain 32 1012 62 16093 5.7 120 22:58 30.08.2019
2777 Rain 32 1012 55 16093 7.7 100 22:38 30.08.2019
2778 Rain 32 1012 55 16093 7.7 100 22:19 30.08.2019
2779 Clouds 32 1012 62 16093 5.7 100 21:57 30.08.2019
2780 Clouds 32 1013 62 16093 7.2 110 21:36 30.08.2019
2781 Clouds 32 1013 62 16093 7.2 110 21:18 30.08.2019
2782 Clouds 32 1013 62 16093 7.2 110 21:18 30.08.2019
2783 Clouds 31 1013 66 16093 4.1 90 20:56 30.08.2019
2784 Clouds 31 1013 66 16093 6.2 130 20:37 30.08.2019
2785 Rain 31 1014 66 16093 6.2 110 20:18 30.08.2019
2786 Rain 30 1014 66 16093 5.1 100 19:41 30.08.2019
2787 Rain 30 1014 66 16093 5.7 80 19:22 30.08.2019
2788 Rain 30 1014 66 16093 5.7 80 18:59 30.08.2019
2789 Rain 30 1014 66 16093 5.1 100 18:41 30.08.2019
2790 Rain 30 1014 66 16093 5.1 100 18:23 30.08.2019
2791 Rain 29 1014 74 16093 4.1 100 17:56 30.08.2019
2792 Rain 29 1014 70 16093 2.6 110 17:38 30.08.2019
2793 Rain 29 1014 70 16093 2.6 110 17:18 30.08.2019
2794 Rain 28 1013 88 16093 2.1 30 16:46 30.08.2019
2795 Rain 28 1014 83 16093 4.64 113.074 16:27 30.08.2019
2796 Rain 27 1014 83 16093 3.1 110 15:58 30.08.2019
2797 Rain 26 1014 83 16093 3.1 110 15:38 30.08.2019
2798 Rain 26 1014 83 16093 3.1 110 15:19 30.08.2019
2799 Rain 26 1014 88 16093 3.6 80 14:44 30.08.2019
2800 -273 0 0 0 0 0 14:25 30.08.2019
2801 Rain 25 1014 88 16093 3.1 150 13:56 30.08.2019
2802 Thunderstorm 25 1013 83 16093 3.1 150 13:37 30.08.2019
2803 Rain 25 1013 83 16093 3.1 150 13:19 30.08.2019
2804 Rain 25 1013 83 16093 3.1 150 13:19 30.08.2019
2805 Rain 26 1013 94 16093 3.28 118.158 12:42 30.08.2019
2806 Rain 26 1012 100 16093 3.6 160 12:23 30.08.2019
2807 Rain 26 1012 88 2414 3.1 360 11:43 30.08.2019
2808 Thunderstorm 26 1012 83 16093 1.5 360 11:25 30.08.2019
2809 Rain 26 1011 94 16093 2.6 320 10:59 30.08.2019
2810 Clouds 26 1012 83 16093 2.1 350 10:37 30.08.2019
2811 Rain 26 1012 83 16093 2.1 350 10:18 30.08.2019
2812 Rain 26 1012 83 16093 1.5 320 09:42 30.08.2019
2813 Rain 26 1012 83 16093 1.5 320 09:20 30.08.2019
2814 Rain 26 1012 88 16093 2.96 112.642 08:59 30.08.2019
2815 Rain 26 1013 78 11265 1.5 50 08:40 30.08.2019
2816 Rain 26 1013 78 11265 1.5 50 08:21 30.08.2019
2817 Thunderstorm 26 1012 88 16093 2.96 112.642 07:44 30.08.2019
2818 Thunderstorm 26 1013 88 16093 2.1 180 07:23 30.08.2019
2819 Rain 26 1014 83 16093 1.5 40 06:49 30.08.2019
2820 Rain 26 1014 83 16093 1.5 40 06:30 30.08.2019
2821 Rain 26 1014 88 16093 2.81 107.603 05:55 30.08.2019
2822 Rain 26 1014 94 3219 4.6 270 04:53 30.08.2019
2823 Rain 27 1013 83 4023 2.6 320 03:55 30.08.2019
2824 Rain 27 1013 83 4023 2.6 320 03:55 30.08.2019
2825 Rain 28 1013 74 16093 2.1 90 03:33 30.08.2019
2826 Rain 29 1012 74 16093 3.6 110 02:34 30.08.2019
2827 Thunderstorm 29 1012 70 16093 3.1 100 01:38 30.08.2019
2828 Clouds 30 1011 66 16093 3.6 80 00:46 30.08.2019
2829 Clouds 30 1012 66 16093 3.1 80 00:18 30.08.2019
2830 Clouds 30 1011 70 16093 3.1 100 23:42 29.08.2019
2831 Clouds 30 1011 70 16093 3.1 100 23:21 29.08.2019
2832 Thunderstorm 30 1012 70 16093 2.1 110 22:45 29.08.2019
2833 Thunderstorm 30 1012 70 16093 2.1 110 22:45 29.08.2019
2834 Thunderstorm 30 1012 70 16093 2.1 110 22:45 29.08.2019
2835 Thunderstorm 30 1012 70 16093 2.1 110 22:26 29.08.2019
2836 Thunderstorm 30 1012 70 16093 2.1 110 22:26 29.08.2019
2837 Rain 30 1011 74 16093 4.6 100 21:58 29.08.2019
2838 Rain 30 1011 74 16093 4.6 100 21:58 29.08.2019
2839 Rain 30 1012 74 16093 2.6 70 21:40 29.08.2019
2840 Rain 30 1012 74 16093 2.6 70 21:21 29.08.2019
2841 Rain 30 1012 74 16093 2.6 70 21:21 29.08.2019
2842 Thunderstorm 30 1013 88 16093 4.1 160 20:57 29.08.2019
2843 Rain 30 1013 78 16093 2.1 160 20:38 29.08.2019
2844 Rain 30 1013 78 11265 4.6 80 20:18 29.08.2019
2845 Rain 31 1012 78 16093 2.6 180 19:46 29.08.2019
2846 Rain 31 1013 83 2414 4.1 130 19:26 29.08.2019
2847 Thunderstorm 32 1012 70 14484 7.7 230 18:57 29.08.2019
2848 Thunderstorm 32 1013 56 16093 3.6 320 18:38 29.08.2019
2849 Thunderstorm 32 1013 62 16093 2.1 340 18:18 29.08.2019
2850 Rain 31 1013 70 16093 3.1 350 17:54 29.08.2019
2851 Rain 31 1013 70 16093 3.1 350 17:54 29.08.2019
2852 Thunderstorm 31 1013 59 16093 3.1 280 17:36 29.08.2019
2853 Thunderstorm 31 1013 59 16093 3.1 280 17:18 29.08.2019
2854 Thunderstorm 31 1013 59 16093 3.1 280 17:18 29.08.2019
2855 Clouds 31 1013 66 16093 1.5 0 16:41 29.08.2019
2856 Clouds 30 1014 74 16093 2.6 320 16:22 29.08.2019
2857 Clouds 29 1013 70 16093 2.91 10.164 15:41 29.08.2019
2858 Clouds 28 1013 70 16093 2.66 359.806 15:21 29.08.2019
2859 Clouds 28 1013 74 16093 2.66 359.806 14:58 29.08.2019
2860 Rain 27 1013 74 16093 2.66 359.806 14:39 29.08.2019
2861 Rain 27 1013 74 16093 2.66 359.806 14:20 29.08.2019
2862 Rain 27 1012 78 16093 2.1 30 13:56 29.08.2019
2863 Rain 27 1012 78 16093 2.1 30 13:56 29.08.2019
2864 Rain 26 1012 78 16093 2.1 30 13:37 29.08.2019
2865 Rain 26 1012 83 16093 2.11 3.425 13:18 29.08.2019
2866 Rain 26 1012 88 16093 2.11 3.425 12:56 29.08.2019
2867 Thunderstorm 26 1012 78 16093 2.11 3.425 12:37 29.08.2019
2868 Thunderstorm 26 1012 78 16093 2.25 332.444 12:19 29.08.2019
2869 Clouds 26 1011 78 16093 2.25 332.444 11:42 29.08.2019
2870 Clouds 26 1012 88 16093 1.5 290 11:21 29.08.2019
2871 Rain 26 1012 83 16093 2.25 332.444 10:57 29.08.2019
2872 Rain 26 1012 83 16093 2.25 332.444 10:38 29.08.2019
2873 Rain 26 1012 83 16093 2.25 332.444 10:19 29.08.2019
2874 Rain 26 1012 94 16093 1.5 60 09:41 29.08.2019
2875 Rain 27 1012 78 16093 3.6 300 09:19 29.08.2019
2876 Rain 27 1012 88 16093 2.6 340 08:49 29.08.2019
2877 Rain 27 1013 78 16093 3.34 313.109 08:31 29.08.2019
2878 Thunderstorm 28 1013 74 16093 1.5 190 07:59 29.08.2019
2879 Clouds 28 1013 83 16093 1.5 210 07:41 29.08.2019
2880 Clouds 28 1013 83 16093 1.5 210 07:23 29.08.2019
2881 Clouds 28 1013 83 16093 3.34 313.109 06:40 29.08.2019
2882 Clouds 28 1013 83 16093 1.5 140 05:52 29.08.2019
2883 Clouds 28 1013 78 16093 3.73 295.925 05:32 29.08.2019
2884 Rain 28 1013 83 16093 3.73 295.925 04:49 29.08.2019
2885 Rain 28 1013 74 16093 3.73 295.925 04:28 29.08.2019
2886 Rain 29 1012 74 16093 4.23 318.211 02:21 29.08.2019
2887 Rain 29 1012 74 16093 2.6 170 01:41 29.08.2019
2888 Rain 30 1013 55 16093 4.1 330 00:51 29.08.2019
2889 Rain 30 1012 83 14484 6.2 40 00:24 29.08.2019
2890 Rain 32 1013 70 16093 4.1 280 23:59 28.08.2019
2891 Thunderstorm 32 1012 46 16093 3.1 340 23:40 28.08.2019
2892 Thunderstorm 32 1012 46 16093 3.1 340 23:22 28.08.2019
2893 Clouds 34 1012 44 16093 2.6 0 22:57 28.08.2019
2894 Clouds 34 1012 44 16093 2.6 0 22:38 28.08.2019
2895 Clouds 34 1012 44 16093 2.6 0 22:18 28.08.2019
2896 Thunderstorm 34 1012 50 16093 4.1 330 21:54 28.08.2019
2897 Clouds 34 1013 47 16093 2.1 340 21:36 28.08.2019
2898 Clouds 34 1013 49 16093 5.1 320 21:18 28.08.2019
2899 Clouds 34 1013 49 16093 3.6 320 20:40 28.08.2019
2900 Clouds 34 1013 49 16093 3.6 320 20:22 28.08.2019
2901 Clouds 34 1014 52 16093 2.1 260 19:44 28.08.2019
2902 Clouds 33 1014 52 16093 2.1 260 19:23 28.08.2019
2903 Clouds 33 1014 59 16093 3.6 340 18:59 28.08.2019
2904 Clouds 33 1015 55 16093 2.6 0 18:41 28.08.2019
2905 Clouds 33 1015 55 16093 2.6 0 18:21 28.08.2019
2906 Clouds 32 1015 59 16093 3.1 320 17:39 28.08.2019
2907 Clouds 32 1015 59 16093 3.1 320 17:20 28.08.2019
2908 Clouds 31 1015 66 16093 1.5 0 16:56 28.08.2019
2909 Clouds 31 1015 66 16093 1.5 0 16:38 28.08.2019
2910 Clouds 31 1015 66 16093 1.5 0 16:38 28.08.2019
2911 Clouds 30 1015 66 16093 1.5 0 16:18 28.08.2019
2912 Clouds 29 1015 74 16093 3.01 313.252 15:39 28.08.2019
2913 Clouds 29 1015 74 16093 1.69 311.622 15:20 28.08.2019
2914 Clouds 29 1015 74 16093 1.69 311.622 15:20 28.08.2019
2915 Clear 28 1014 83 16093 1.69 311.622 14:58 28.08.2019
2916 Clouds 28 1015 74 16093 1.69 311.622 14:40 28.08.2019
2917 Clear 27 1015 83 16093 3.1 320 14:21 28.08.2019
2918 Clear 27 1015 83 16093 3.1 320 14:21 28.08.2019
2919 Clouds 26 1014 78 16093 1.5 280 13:59 28.08.2019
2920 Clear 26 1014 88 16093 1.5 270 13:39 28.08.2019
2921 Clear 26 1014 88 16093 1.5 270 13:20 28.08.2019
2922 Clear 26 1014 88 16093 1.5 270 12:43 28.08.2019
2923 Clear 26 1014 88 16093 1.5 270 12:25 28.08.2019
2924 Clear 26 1014 88 16093 2.74 316.731 11:59 28.08.2019
2925 Clear 26 1014 88 16093 2.74 316.731 11:40 28.08.2019
2926 Clear 26 1014 88 16093 2.74 316.731 11:21 28.08.2019
2927 -273 0 0 0 0 0 10:56 28.08.2019
2928 Clear 26 1014 88 16093 2.74 316.731 10:56 28.08.2019
2929 Clear 26 1014 88 16093 2.74 316.731 10:37 28.08.2019
2930 Clear 26 1014 88 16093 2.74 316.731 10:19 28.08.2019
2931 Clear 26 1014 88 16093 2.74 316.731 09:41 28.08.2019
2932 Clear 26 1014 88 16093 3.66 328.886 09:21 28.08.2019
2933 Clear 26 1015 83 16093 3.66 328.886 08:40 28.08.2019
2934 Clear 26 1015 83 16093 3.66 328.886 08:21 28.08.2019
2935 Rain 26 1015 88 16093 3.66 328.886 07:59 28.08.2019
2936 Rain 26 1015 78 16093 3.66 328.886 07:37 28.08.2019
2937 Rain 26 1015 78 16093 3.66 328.886 07:18 28.08.2019
2938 Clear 27 1015 74 16093 2.1 320 06:44 28.08.2019
2939 Clear 27 1015 74 16093 2.1 320 05:52 28.08.2019
2940 Clouds 27 1016 70 16093 2.1 320 04:40 28.08.2019
2941 Rain 27 1015 66 16093 2.1 0 01:57 28.08.2019
2942 Rain 28 1015 66 16093 2.1 0 01:30 28.08.2019
2943 Rain 28 1014 100 16093 2.1 310 00:43 28.08.2019
2944 Rain 30 1014 69 16093 3.6 10 00:22 28.08.2019
2945 Rain 31 1014 59 16093 3.41 298.738 23:43 27.08.2019
2946 Rain 31 1014 59 16093 3.41 298.738 23:22 27.08.2019
2947 Thunderstorm 32 1014 59 16093 3.1 160 22:59 27.08.2019
2948 Thunderstorm 32 1014 62 16093 3.6 180 22:39 27.08.2019
2949 Thunderstorm 32 1014 62 16093 3.6 180 22:39 27.08.2019
2950 Thunderstorm 32 1014 62 16093 3.6 180 22:20 27.08.2019
2951 Rain 32 1014 66 16093 7.2 160 21:56 27.08.2019
2952 Thunderstorm 33 1014 52 16093 4.1 260 21:37 27.08.2019
2953 Thunderstorm 33 1014 52 16093 4.1 260 21:18 27.08.2019
2954 Thunderstorm 33 1014 49 16093 2.1 290 20:55 27.08.2019
2955 Thunderstorm 33 1015 56 16093 5.1 280 20:37 27.08.2019
2956 Thunderstorm 33 1015 59 16093 7.2 260 20:18 27.08.2019
2957 Rain 33 1015 74 16093 3.6 100 19:42 27.08.2019
2958 Rain 33 1015 70 16093 4.1 70 19:24 27.08.2019
2959 Rain 33 1016 56 16093 4.6 290 18:55 27.08.2019
2960 Rain 33 1016 55 16093 3.1 280 18:36 27.08.2019
2961 Rain 33 1016 59 16093 2.1 310 18:18 27.08.2019
2962 Clouds 32 1016 62 16093 3.1 0 17:43 27.08.2019
2963 Clouds 32 1016 62 16093 3.1 0 17:23 27.08.2019
2964 Clouds 32 1017 62 16093 3.1 280 16:49 27.08.2019
2965 Clouds 31 1017 66 16093 1.5 280 16:28 27.08.2019
2966 Clouds 30 1016 79 16093 3.1 300 15:59 27.08.2019
2967 Clouds 30 1015 79 16093 2.1 240 15:40 27.08.2019
2968 Clouds 29 1015 79 16093 2.1 240 15:22 27.08.2019
2969 Clouds 29 1015 88 16093 2.1 240 14:59 27.08.2019
2970 Clouds 28 1015 88 16093 2.1 240 14:41 27.08.2019
2971 Clouds 28 1015 88 16093 2.1 240 14:22 27.08.2019
2972 Clouds 26 1014 83 16093 2.52 281.475 13:43 27.08.2019
2973 Clouds 27 1014 83 16093 2.52 281.475 13:43 27.08.2019
2974 Clouds 26 1014 83 16093 2.46 286.3 13:24 27.08.2019
2975 Clear 26 1014 88 16093 2.46 286.3 12:55 27.08.2019
2976 Clouds 26 1014 83 16093 2.46 286.3 12:37 27.08.2019
2977 Clouds 26 1014 83 16093 2.19 281.141 12:18 27.08.2019
2978 Mist 26 1014 88 16093 2.19 281.141 11:43 27.08.2019
2979 Mist 26 1014 88 16093 2.19 281.141 11:25 27.08.2019
2980 Clouds 26 1014 83 16093 1.5 210 10:44 27.08.2019
2981 Clouds 26 1014 83 16093 1.5 210 10:21 27.08.2019
2982 Clouds 26 1015 83 16093 2.19 281.141 09:58 27.08.2019
2983 Clouds 26 1015 83 16093 2.19 281.141 09:39 27.08.2019
2984 Clouds 26 1015 83 16093 2.98 298.551 09:20 27.08.2019
2985 Clear 26 1016 83 16093 2.98 298.551 08:54 27.08.2019
2986 Clear 26 1016 83 16093 2.98 298.551 08:36 27.08.2019
2987 Clear 26 1016 88 16093 2.98 298.551 08:18 27.08.2019
2988 Clouds 26 1016 83 16093 2.98 298.551 07:39 27.08.2019
2989 Clouds 27 1016 83 16093 2.98 298.551 07:19 27.08.2019
2990 Clouds 27 1017 78 16093 2.98 298.551 06:50 27.08.2019
2991 Clouds 27 1017 78 16093 3.38 286.169 06:22 27.08.2019
2992 Clouds 27 1016 83 16093 3.38 286.169 05:36 27.08.2019
2993 Clouds 27 1016 74 16093 3.38 286.169 04:33 27.08.2019
2994 Clouds 28 1015 74 16093 3.38 286.169 03:33 27.08.2019
2995 Clouds 28 1014 74 16093 1.5 200 02:23 27.08.2019
2996 Clouds 29 1014 70 16093 2.6 180 01:35 27.08.2019
2997 Thunderstorm 29 1014 70 16093 3.13 297.204 00:54 27.08.2019
2998 Thunderstorm 29 1014 70 16093 3.13 297.204 00:29 27.08.2019
2999 Thunderstorm 30 1014 74 16093 7.75 302.835 23:59 26.08.2019
3000 Rain 29 1014 83 16093 2.1 40 23:37 26.08.2019
3001 Clouds 30 1014 83 16093 2.1 40 23:19 26.08.2019
3002 Thunderstorm 29 1015 78 16093 7.75 302.835 22:39 26.08.2019
3003 Thunderstorm 29 1015 78 16093 7.75 302.835 22:19 26.08.2019
3004 Thunderstorm 29 1015 78 16093 4.41 287.392 21:57 26.08.2019
3005 Thunderstorm 28 1015 78 16093 1.5 180 21:37 26.08.2019
3006 Thunderstorm 29 1015 78 16093 1.5 180 21:19 26.08.2019
3007 Rain 29 1015 78 16093 2.1 150 20:55 26.08.2019
3008 Rain 29 1015 78 16093 2.6 330 20:37 26.08.2019
3009 Rain 29 1016 74 16093 3.34 241.602 20:18 26.08.2019
3010 Rain 29 1015 59 16093 8.7 330 19:42 26.08.2019
3011 Rain 30 1015 74 16093 3.1 110 19:19 26.08.2019
3012 Rain 30 1015 53 16093 4.6 260 18:58 26.08.2019
3013 Rain 31 1015 59 16093 4.1 250 18:37 26.08.2019
3014 Rain 31 1015 59 16093 4.1 250 18:37 26.08.2019
3015 Rain 30 1015 55 16093 3.1 240 18:19 26.08.2019
3016 Rain 31 1016 70 16093 2.1 340 17:44 26.08.2019
3017 Rain 31 1016 74 6437 2.8 262.275 17:20 26.08.2019
3018 Thunderstorm 32 1016 62 16093 2.1 270 16:57 26.08.2019
3019 Thunderstorm 31 1016 74 16093 2.1 220 16:39 26.08.2019
3020 Thunderstorm 31 1016 66 16093 2.1 190 16:18 26.08.2019
3021 Thunderstorm 30 1015 74 16093 3.6 210 15:54 26.08.2019
3022 Thunderstorm 30 1015 83 16093 3.1 220 15:36 26.08.2019
3023 Thunderstorm 30 1015 83 16093 3.1 220 15:18 26.08.2019
3024 Rain 28 1015 88 16093 1.5 210 14:42 26.08.2019
3025 Rain 28 1015 88 16093 1.5 210 14:22 26.08.2019
3026 Clouds 26 1014 88 16093 1.46 232.738 13:44 26.08.2019
3027 Clouds 26 1014 88 16093 1.6 235.663 13:23 26.08.2019
3028 Rain 26 1014 88 16093 1.6 235.663 12:57 26.08.2019
3029 Rain 26 1014 88 16093 1.6 235.663 12:39 26.08.2019
3030 Rain 26 1014 88 16093 1.58 267.563 12:20 26.08.2019
3031 Mist 26 1014 88 16093 1.58 267.563 11:39 26.08.2019
3032 Mist 26 1014 88 16093 1.58 267.563 11:21 26.08.2019
3033 Mist 26 1013 94 4828 1.58 267.563 10:58 26.08.2019
3034 Mist 26 1014 83 16093 1.58 267.563 10:39 26.08.2019
3035 Mist 26 1014 83 16093 1.58 267.563 10:19 26.08.2019
3036 Clouds 27 1014 88 16093 1.58 267.563 09:42 26.08.2019
3037 Clouds 27 1014 88 16093 2.04 267.947 09:24 26.08.2019
3038 Clouds 27 1015 88 16093 2.04 267.947 08:58 26.08.2019
3039 Clouds 27 1015 88 16093 2.04 267.947 08:39 26.08.2019
3040 Clouds 27 1015 88 16093 2.04 267.947 08:21 26.08.2019
3041 Clouds 27 1015 83 16093 2.04 267.947 07:45 26.08.2019
3042 Clouds 27 1015 83 16093 2.04 267.947 07:25 26.08.2019
3043 Clouds 27 1015 88 16093 1.5 190 06:58 26.08.2019
3044 Clouds 27 1015 88 16093 1.5 190 06:39 26.08.2019
3045 Clouds 27 1015 88 16093 1.5 190 06:18 26.08.2019
3046 Clouds 27 1015 83 16093 2.08 282.609 05:41 26.08.2019
3047 Clouds 28 1015 88 16093 2.08 282.609 04:22 26.08.2019
3048 Rain 28 1013 88 16093 2.6 250 02:40 26.08.2019
3049 Rain 28 1013 88 16093 2.6 250 02:40 26.08.2019
3050 Rain 29 1013 79 16093 2.6 90 01:23 26.08.2019
3051 Rain 30 1013 74 16093 2.6 140 00:45 26.08.2019
3052 Rain 30 1013 74 16093 2.6 140 00:26 26.08.2019
3053 Rain 30 1014 74 16093 4.1 180 23:45 25.08.2019
3054 Rain 30 1013 62 16093 3.6 280 23:21 25.08.2019
3055 Rain 30 1013 74 16093 2.6 340 22:59 25.08.2019
3056 Rain 30 1013 70 16093 2.6 180 22:40 25.08.2019
3057 Thunderstorm 31 1013 70 16093 2.6 180 22:20 25.08.2019
3058 Thunderstorm 31 1013 59 16093 3.1 260 21:58 25.08.2019
3059 Thunderstorm 31 1013 59 16093 3.1 260 21:58 25.08.2019
3060 Thunderstorm 32 1014 62 16093 3.1 240 21:39 25.08.2019
3061 Thunderstorm 32 1014 62 16093 3.1 240 21:19 25.08.2019
3062 Rain 31 1014 59 16093 4.6 200 20:56 25.08.2019
3063 Rain 31 1014 62 16093 4.6 210 20:38 25.08.2019
3064 Rain 31 1014 62 16093 4.6 210 20:19 25.08.2019
3065 Rain 31 1014 70 16093 4.1 280 19:41 25.08.2019
3066 Rain 32 1014 66 16093 5.7 260 19:23 25.08.2019
3067 Rain 32 1015 74 16093 3.6 160 18:59 25.08.2019
3068 Rain 33 1015 66 16093 5.1 260 18:40 25.08.2019
3069 Rain 32 1015 66 16093 5.1 260 18:22 25.08.2019
3070 Rain 32 1014 59 16093 4.6 240 17:59 25.08.2019
3071 Clouds 32 1015 62 16093 3.6 210 17:40 25.08.2019
3072 Clouds 32 1015 62 16093 3.6 210 17:20 25.08.2019
3073 Clouds 31 1015 66 16093 3.1 230 16:41 25.08.2019
3074 Clouds 31 1015 66 16093 3.1 230 16:23 25.08.2019
3075 Clouds 30 1015 74 16093 3.1 230 15:56 25.08.2019
3076 Clouds 30 1015 74 16093 3.1 230 15:37 25.08.2019
3077 Clouds 29 1015 74 16093 3.1 230 15:19 25.08.2019
3078 Clouds 28 1014 83 16093 2.6 200 14:39 25.08.2019
3079 Clouds 28 1014 83 16093 2.6 200 14:21 25.08.2019
3080 Clouds 27 1013 83 16093 2.97 224.482 13:45 25.08.2019
3081 Clouds 26 1013 83 16093 3.07 208.446 13:22 25.08.2019
3082 Rain 26 1013 94 16093 2.6 200 12:56 25.08.2019
3083 Rain 26 1013 88 16093 1.5 190 12:38 25.08.2019
3084 Rain 26 1013 88 16093 1.5 190 12:20 25.08.2019
3085 Rain 27 1013 88 16093 4.1 190 11:56 25.08.2019
3086 Drizzle 26 1013 94 16093 2.1 190 11:36 25.08.2019
3087 Clouds 27 1013 88 16093 1.5 0 11:18 25.08.2019
3088 Clouds 27 1013 88 16093 3.04 208.612 10:41 25.08.2019
3089 Clouds 27 1013 88 16093 3.04 208.612 10:21 25.08.2019
3090 Clouds 27 1013 83 16093 2.1 230 09:59 25.08.2019
3091 Clouds 27 1013 83 16093 2.1 230 09:41 25.08.2019
3092 Clouds 27 1013 83 16093 2.1 230 09:22 25.08.2019
3093 Mist 27 1014 83 16093 2.1 240 08:44 25.08.2019
3094 Mist 27 1014 83 16093 2.1 240 08:22 25.08.2019
3095 Clouds 27 1014 83 16093 2.1 180 07:46 25.08.2019
3096 Clouds 27 1014 83 16093 2.1 180 07:23 25.08.2019
3097 Clouds 27 1014 83 16093 2.1 210 06:31 25.08.2019
3098 Clear 28 1014 83 16093 3.1 220 04:58 25.08.2019
3099 Clouds 28 1014 74 16093 1.5 180 03:43 25.08.2019
3100 Clouds 29 1013 79 16093 3.1 170 02:41 25.08.2019
3101 Clouds 29 1012 66 16093 2.6 170 01:42 25.08.2019
3102 Clouds 30 1012 66 16093 2.6 160 00:41 25.08.2019
3103 Clouds 31 1012 66 16093 2.6 160 00:21 25.08.2019
3104 Rain 30 1013 70 16093 2.1 160 23:53 24.08.2019
3105 Rain 30 1013 70 16093 2.1 160 23:24 24.08.2019
3106 Thunderstorm 30 1012 88 16093 2.6 100 22:57 24.08.2019
3107 Thunderstorm 30 1012 83 16093 3.1 90 22:39 24.08.2019
3108 Thunderstorm 30 1012 83 16093 3.1 90 22:19 24.08.2019
3109 Thunderstorm 29 1013 88 16093 1.5 100 21:56 24.08.2019
3110 Thunderstorm 28 1014 78 16093 1.5 160 21:38 24.08.2019
3111 Rain 28 1014 78 16093 1.5 160 21:20 24.08.2019
3112 Rain 28 1013 94 14484 2.6 80 20:56 24.08.2019
3113 Rain 28 1013 94 14484 2.6 80 20:56 24.08.2019
3114 Rain 28 1014 88 16093 2.1 180 20:37 24.08.2019
3115 Rain 28 1014 88 16093 2.1 180 20:37 24.08.2019
3116 Rain 28 1014 78 16093 2.6 140 20:18 24.08.2019
3117 Rain 28 1015 78 16093 2.6 130 19:57 24.08.2019
3118 Rain 28 1015 78 16093 2.6 130 19:57 24.08.2019
3119 Rain 28 1015 88 14484 2.1 160 19:38 24.08.2019
3120 Rain 28 1014 78 16093 4.6 140 19:18 24.08.2019
3121 Rain 28 1014 78 16093 4.6 140 19:18 24.08.2019
3122 Thunderstorm 30 1015 78 16093 2.1 140 18:42 24.08.2019
3123 Rain 30 1014 88 16093 2.6 190 18:23 24.08.2019
3124 Thunderstorm 31 1014 74 16093 2.6 180 17:45 24.08.2019
3125 Rain 31 1014 88 16093 3.67 187.89 17:25 24.08.2019
3126 Rain 30 1015 66 16093 2.6 210 16:55 24.08.2019
3127 Rain 30 1014 70 16093 1.5 0 16:36 24.08.2019
3128 Rain 30 1014 74 16093 1.5 180 16:18 24.08.2019
3129 Clouds 29 1014 74 16093 1.5 170 15:41 24.08.2019
3130 Clouds 29 1014 74 16093 1.5 170 15:23 24.08.2019
3131 Clouds 28 1013 83 16093 3.6 200 14:45 24.08.2019
3132 Clouds 27 1013 83 16093 3.6 200 14:23 24.08.2019
3133 Clouds 26 1013 88 16093 2.1 190 13:59 24.08.2019
3134 Clouds 26 1013 88 16093 2.1 190 13:41 24.08.2019
3135 Clouds 26 1013 88 16093 2.1 190 13:22 24.08.2019
3136 Clouds 26 1013 83 16093 1.5 200 12:58 24.08.2019
3137 Rain 26 1013 83 16093 1.5 200 12:39 24.08.2019
3138 Rain 26 1013 83 16093 1.5 200 12:20 24.08.2019
3139 Rain 26 1013 88 16093 2.1 200 11:45 24.08.2019
3140 Rain 26 1013 83 16093 1.41 216.357 11:23 24.08.2019
3141 Rain 26 1012 94 16093 3.1 180 10:53 24.08.2019
3142 Rain 26 1013 88 3219 5.7 110 10:24 24.08.2019
3143 Rain 26 1013 88 16093 1.41 216.357 09:55 24.08.2019
3144 Rain 26 1013 83 16093 1.5 150 09:36 24.08.2019
3145 Rain 26 1013 83 16093 1.5 150 09:18 24.08.2019
3146 Rain 27 1013 83 16093 2.67 140.982 08:41 24.08.2019
3147 Rain 27 1013 83 16093 2.67 140.982 08:22 24.08.2019
3148 Rain 27 1014 88 8047 2.1 150 07:50 24.08.2019
3149 Rain 27 1014 83 4023 3.6 170 07:27 24.08.2019
3150 Clouds 27 1014 78 16093 1.5 170 06:30 24.08.2019
3151 Drizzle 27 1014 78 16093 3.31 98.705 05:43 24.08.2019
3152 Drizzle 27 1014 78 16093 3.31 98.705 05:23 24.08.2019
3153 Rain 28 1013 78 16093 3.31 98.705 03:38 24.08.2019
3154 Rain 28 1013 88 12874 1.5 210 02:33 24.08.2019
3155 Clouds 28 1012 78 16093 2.1 0 01:47 24.08.2019
3156 Rain 28 1012 78 16093 2.6 190 01:22 24.08.2019
3157 Rain 29 1012 78 16093 4.6 100 00:43 24.08.2019
3158 Thunderstorm 30 1013 66 16093 1.5 0 00:18 24.08.2019
3159 Clouds 30 1013 62 16093 4.1 120 23:43 23.08.2019
3160 Clouds 30 1013 62 16093 4.1 120 23:19 23.08.2019
3161 Rain 30 1012 70 16093 2.6 30 22:43 23.08.2019
3162 Rain 30 1012 70 16093 2.6 30 22:24 23.08.2019
3163 Rain 30 1013 70 16093 4.6 80 21:54 23.08.2019
3164 Rain 30 1013 70 16093 2.1 20 21:36 23.08.2019
3165 Rain 29 1013 70 16093 2.1 20 21:18 23.08.2019
3166 Rain 29 1014 74 16093 4.6 70 20:45 23.08.2019
3167 Rain 30 1014 74 16093 4.6 70 20:27 23.08.2019
3168 Rain 30 1014 79 16093 5.7 70 19:45 23.08.2019
3169 Rain 30 1013 74 16093 2.1 60 19:19 23.08.2019
3170 Rain 30 1014 79 16093 2.6 50 18:49 23.08.2019
3171 Rain 31 1014 74 14484 3.1 0 18:31 23.08.2019
3172 Rain 31 1015 62 16093 5.1 20 17:59 23.08.2019
3173 Rain 31 1015 70 14484 5.1 40 17:40 23.08.2019
3174 Rain 30 1015 70 14484 5.1 40 17:21 23.08.2019
3175 Rain 30 1015 74 16093 1.5 30 16:48 23.08.2019
3176 Rain 30 1015 74 16093 1.5 30 16:29 23.08.2019
3177 Rain 29 1015 78 16093 3.1 60 15:58 23.08.2019
3178 Clouds 29 1015 74 16093 2.1 0 15:38 23.08.2019
3179 Rain 29 1015 74 16093 2.1 0 15:20 23.08.2019
3180 Clouds 28 1015 78 16093 3.1 60 14:43 23.08.2019
3181 Clouds 27 1014 74 16093 2.48 40.027 14:21 23.08.2019
3182 Rain 27 1014 78 16093 1.5 10 13:58 23.08.2019
3183 Rain 27 1014 78 16093 1.5 10 13:58 23.08.2019
3184 Rain 27 1014 78 16093 1.5 10 13:40 23.08.2019
3185 Rain 27 1014 78 16093 1.5 10 13:22 23.08.2019
3186 Clouds 26 1013 78 16093 2.1 10 12:58 23.08.2019
3187 Clouds 26 1013 78 16093 2.1 10 12:40 23.08.2019
3188 Clouds 26 1013 78 16093 2.1 10 12:21 23.08.2019
3189 Rain 27 1013 74 16093 2.1 20 11:56 23.08.2019
3190 Rain 26 1013 74 16093 2.1 20 11:38 23.08.2019
3191 Rain 26 1013 74 16093 2.1 20 11:38 23.08.2019
3192 Rain 27 1013 74 16093 2.1 20 11:18 23.08.2019
3193 Rain 27 1014 83 16093 1.5 40 10:45 23.08.2019
3194 Rain 27 1014 83 16093 1.5 40 10:23 23.08.2019
3195 Rain 27 1013 88 16093 2.1 350 09:58 23.08.2019
3196 Rain 27 1013 83 16093 2.1 330 09:40 23.08.2019
3197 Rain 27 1013 83 16093 2.1 330 09:20 23.08.2019
3198 Clouds 27 1014 74 16093 2.6 60 08:44 23.08.2019
3199 Clouds 27 1014 74 16093 2.6 60 08:20 23.08.2019
3200 Rain 27 1015 83 16093 1.5 0 07:44 23.08.2019
3201 Rain 27 1015 83 16093 1.5 0 07:24 23.08.2019
3202 Rain 27 1015 74 16093 2.6 40 06:59 23.08.2019
3203 Rain 27 1015 74 16093 2.6 40 06:40 23.08.2019
3204 Rain 27 1015 74 16093 2.6 40 06:21 23.08.2019
3205 Clouds 27 1016 74 16093 2.6 40 05:43 23.08.2019
3206 Clouds 27 1016 74 16093 2.6 40 05:22 23.08.2019
3207 Rain 28 1015 74 16093 2.6 70 03:23 23.08.2019
3208 Rain 28 1015 74 16093 3.6 50 02:24 23.08.2019
3209 Rain 28 1015 66 16093 3.6 50 01:52 23.08.2019
3210 Clouds 29 1015 66 16093 4.6 50 00:46 23.08.2019
3211 Rain 29 1015 66 16093 4.6 50 00:22 23.08.2019
3212 Rain 29 1016 83 16093 3.6 60 23:50 22.08.2019
3213 Rain 29 1015 55 16093 5.1 60 23:32 22.08.2019
3214 Rain 29 1016 70 12874 7.2 60 22:58 22.08.2019
3215 Rain 30 1015 58 16093 6.7 70 22:40 22.08.2019
3216 Rain 30 1015 58 16093 6.7 70 22:22 22.08.2019
3217 Rain 30 1016 78 8047 5.1 110 21:57 22.08.2019
3218 Rain 31 1016 55 16093 5.7 80 21:39 22.08.2019
3219 Rain 31 1016 55 16093 5.7 80 21:19 22.08.2019
3220 Rain 31 1016 58 16093 3.6 70 20:57 22.08.2019
3221 Rain 31 1016 58 16093 3.6 70 20:38 22.08.2019
3222 Rain 31 1016 58 16093 3.6 70 20:18 22.08.2019
3223 Rain 31 1016 58 16093 3.6 70 20:18 22.08.2019
3224 Rain 31 1017 66 16093 3.1 0 19:56 22.08.2019
3225 Rain 30 1017 66 16093 3.1 0 19:37 22.08.2019
3226 Clouds 30 1017 66 16093 3.1 0 19:19 22.08.2019
3227 Clouds 30 1017 70 16093 5.79 85.81 18:56 22.08.2019
3228 Clouds 30 1017 70 16093 5.79 85.81 18:37 22.08.2019
3229 Rain 30 1017 78 16093 2.6 240 18:18 22.08.2019
3230 Rain 29 1017 88 16093 5.1 50 17:42 22.08.2019
3231 Rain 29 1017 88 16093 5.1 50 17:23 22.08.2019
3232 Rain 29 1018 74 16093 4.1 130 16:58 22.08.2019
3233 Rain 29 1017 74 16093 2.6 30 16:40 22.08.2019
3234 Rain 29 1017 74 16093 2.6 30 16:21 22.08.2019
3235 Rain 29 1017 74 16093 2.6 30 16:21 22.08.2019
3236 Rain 28 1017 74 16093 1.5 350 15:59 22.08.2019
3237 Rain 29 1017 74 16093 1.5 350 15:39 22.08.2019
3238 Rain 29 1017 74 16093 1.5 350 15:39 22.08.2019
3239 Rain 28 1017 74 16093 1.5 350 15:20 22.08.2019
3240 Rain 28 1017 74 16093 1.5 350 15:20 22.08.2019
3241 Rain 27 1017 78 6437 2.6 50 14:56 22.08.2019
3242 Rain 27 1017 78 6437 2.6 50 14:38 22.08.2019
3243 Rain 27 1017 83 16093 3.26 68.248 14:18 22.08.2019
3244 Rain 26 1017 83 2816 2.6 100 13:55 22.08.2019
3245 Rain 26 1017 88 4023 2.1 0 13:36 22.08.2019
3246 Rain 26 1016 78 16093 1.5 130 13:18 22.08.2019
3247 Rain 26 1016 69 16093 1.5 350 12:40 22.08.2019
3248 Rain 26 1016 69 16093 1.5 350 12:21 22.08.2019
3249 Rain 27 1016 88 9656 2.1 50 11:55 22.08.2019
3250 -273 0 0 0 0 0 11:55 22.08.2019
3251 Rain 27 1016 88 12874 2.1 330 11:36 22.08.2019
3252 Rain 27 1016 69 16093 2.71 71.993 11:18 22.08.2019
3253 Rain 27 1016 94 16093 2.1 60 10:56 22.08.2019
3254 Clouds 27 1016 69 16093 1.5 20 10:36 22.08.2019
3255 Rain 27 1016 69 16093 1.5 20 10:18 22.08.2019
3256 Rain 27 1016 69 16093 3.4 81.603 09:39 22.08.2019
3257 Rain 27 1016 69 16093 3.28 85.207 09:21 22.08.2019
3258 Rain 27 1017 74 16093 3.28 85.207 08:58 22.08.2019
3259 Clouds 27 1017 69 16093 2.1 50 08:39 22.08.2019
3260 Clouds 27 1017 69 16093 2.1 50 08:20 22.08.2019
3261 Clouds 28 1017 69 16093 2.6 60 07:41 22.08.2019
3262 Clouds 28 1017 69 16093 2.6 60 07:23 22.08.2019
3263 Clouds 28 1018 74 16093 2.6 70 06:55 22.08.2019
3264 Clouds 28 1018 74 16093 2.6 70 06:37 22.08.2019
3265 Clouds 28 1018 74 16093 2.6 70 06:18 22.08.2019
3266 Clouds 28 1018 69 16093 4.1 90 04:42 22.08.2019
3267 Clouds 28 1017 66 16093 4.6 80 02:52 22.08.2019
3268 Rain 28 1017 74 16093 2.6 60 02:34 22.08.2019
3269 Clouds 29 1017 74 16093 6.2 100 01:26 22.08.2019
3270 Clouds 30 1017 55 16093 4.6 90 00:47 22.08.2019
3271 Clouds 31 1017 55 16093 4.6 90 00:28 22.08.2019
3272 Clouds 31 1017 59 16093 4.6 90 23:58 21.08.2019
3273 Clouds 32 1017 59 16093 4.6 90 23:37 21.08.2019
3274 Clouds 32 1017 59 16093 4.6 90 23:19 21.08.2019
3275 Clouds 32 1017 52 16093 5.1 90 22:55 21.08.2019
3276 Clouds 32 1017 52 16093 5.1 90 22:37 21.08.2019
3277 Clouds 32 1017 52 16093 5.1 90 22:19 21.08.2019
3278 Clouds 32 1018 52 16093 4.6 80 21:55 21.08.2019
3279 Clouds 32 1018 52 16093 4.6 80 21:36 21.08.2019
3280 Clouds 32 1018 52 16093 4.6 80 21:18 21.08.2019
3281 Clouds 32 1018 52 16093 5.1 100 20:43 21.08.2019
3282 Clouds 32 1018 52 16093 5.1 100 20:24 21.08.2019
3283 Rain 32 1018 55 16093 6.2 110 19:58 21.08.2019
3284 Rain 32 1018 52 16093 5.7 80 19:39 21.08.2019
3285 Rain 32 1018 52 16093 5.7 80 19:20 21.08.2019
3286 Clouds 32 1018 59 16093 4.6 120 18:55 21.08.2019
3287 Clouds 32 1019 55 16093 4.6 120 18:37 21.08.2019
3288 Clouds 32 1019 55 16093 4.6 120 18:37 21.08.2019
3289 Clouds 32 1019 55 16093 4.6 120 18:19 21.08.2019
3290 Clouds 31 1019 52 16093 3.1 90 17:42 21.08.2019
3291 Clouds 31 1019 52 16093 3.1 90 17:20 21.08.2019
3292 Clouds 31 1019 58 16093 4.1 70 16:55 21.08.2019
3293 Clouds 31 1019 58 16093 4.1 70 16:36 21.08.2019
3294 Clouds 31 1019 58 16093 4.1 70 16:18 21.08.2019
3295 Clouds 30 1019 62 16093 4.1 100 15:56 21.08.2019
3296 Clouds 30 1019 62 16093 4.1 100 15:37 21.08.2019
3297 Clouds 30 1019 62 16093 4.1 100 15:18 21.08.2019
3298 Clouds 29 1018 66 16093 2.87 101.709 14:39 21.08.2019
3299 Clouds 28 1018 66 16093 2.87 101.709 14:21 21.08.2019
3300 Clouds 27 1018 74 16093 2.87 101.709 13:58 21.08.2019
3301 Clouds 26 1018 74 16093 2.87 101.709 13:40 21.08.2019
3302 Clouds 26 1018 74 16093 3.54 106.56 13:19 21.08.2019
3303 Clouds 26 1017 69 16093 3.54 106.56 12:57 21.08.2019
3304 Clouds 26 1017 69 16093 3.54 106.56 12:38 21.08.2019
3305 Clouds 25 1017 69 16093 3.5 109.666 12:19 21.08.2019
3306 Clouds 26 1017 69 16093 2.6 90 11:43 21.08.2019
3307 Clouds 26 1017 69 16093 2.6 90 11:23 21.08.2019
3308 Clouds 26 1017 69 16093 2.1 100 10:58 21.08.2019
3309 Clouds 26 1017 69 16093 2.1 100 10:38 21.08.2019
3310 Clouds 26 1017 69 16093 2.1 100 10:20 21.08.2019
3311 Clouds 26 1018 74 16093 3.1 90 09:58 21.08.2019
3312 Clouds 26 1018 74 16093 3.1 90 09:40 21.08.2019
3313 Clouds 26 1018 74 16093 3.1 90 09:21 21.08.2019
3314 Clouds 27 1018 69 16093 3.1 110 08:49 21.08.2019
3315 Clouds 27 1018 69 16093 3.1 110 08:25 21.08.2019
3316 Clouds 27 1019 69 16093 2.1 110 07:45 21.08.2019
3317 Clouds 27 1019 69 16093 2.1 110 07:26 21.08.2019
3318 Rain 27 1019 78 16093 1.5 90 06:51 21.08.2019
3319 Rain 27 1019 69 16093 2.6 120 06:33 21.08.2019
3320 Clouds 27 1019 65 16093 3.1 100 05:57 21.08.2019
3321 Rain 28 1019 65 16093 3.1 100 05:28 21.08.2019
3322 Clouds 28 1019 74 16093 2.6 90 04:42 21.08.2019
3323 Clouds 28 1018 62 16093 5.1 110 02:40 21.08.2019
3324 Clouds 29 1018 66 16093 4.1 120 01:30 21.08.2019
3325 Clouds 30 1018 62 16093 8.2 120 00:41 21.08.2019
3326 Clouds 30 1018 62 16093 8.2 120 00:20 21.08.2019
3327 Clouds 30 1017 58 16093 8.2 120 23:45 20.08.2019
3328 Clouds 31 1017 58 16093 8.2 120 23:20 20.08.2019
3329 Clouds 31 1018 62 16093 7.2 140 22:59 20.08.2019
3330 Clouds 31 1018 62 16093 7.2 140 22:59 20.08.2019
3331 Clouds 31 1018 59 16093 7.7 120 22:40 20.08.2019
3332 Clouds 31 1018 59 16093 7.7 120 22:40 20.08.2019
3333 Clouds 31 1018 59 16093 7.7 120 22:21 20.08.2019
3334 Clouds 31 1018 58 16093 5.7 110 21:58 20.08.2019
3335 Clouds 31 1018 58 16093 5.7 110 21:39 20.08.2019
3336 Clouds 31 1018 58 16093 5.7 110 21:19 20.08.2019
3337 Clouds 32 1018 66 16093 5.7 100 20:58 20.08.2019
3338 Clouds 32 1018 66 16093 5.7 100 20:58 20.08.2019
3339 Clouds 32 1019 58 16093 7.7 120 20:40 20.08.2019
3340 Clouds 31 1019 58 16093 7.7 120 20:21 20.08.2019
3341 Clouds 32 1019 62 16093 4.1 140 19:39 20.08.2019
3342 Rain 32 1019 62 16093 4.1 140 19:21 20.08.2019
3343 Rain 31 1019 58 16093 7.2 90 18:56 20.08.2019
3344 Rain 31 1019 58 16093 7.2 90 18:38 20.08.2019
3345 Clouds 31 1019 66 16093 7.2 110 18:19 20.08.2019
3346 Clouds 31 1019 66 16093 7.2 110 18:19 20.08.2019
3347 Clear 30 1020 66 16093 5.1 100 17:56 20.08.2019
3348 Clouds 30 1019 58 16093 4.1 120 17:38 20.08.2019
3349 Clouds 30 1019 58 16093 4.1 120 17:19 20.08.2019
3350 Clouds 29 1019 70 16093 6.7 100 16:44 20.08.2019
3351 Clouds 29 1019 70 16093 3.6 110 16:25 20.08.2019
3352 Rain 27 1019 74 16093 5.7 120 15:43 20.08.2019
3353 Rain 27 1019 74 16093 5.7 120 15:19 20.08.2019
3354 Rain 26 1018 78 16093 4.6 90 14:59 20.08.2019
3355 Rain 26 1019 78 16093 4.1 100 14:41 20.08.2019
3356 Rain 26 1019 78 16093 4.1 100 14:21 20.08.2019
3357 Rain 26 1019 88 16093 3.1 110 13:56 20.08.2019
3358 Rain 25 1019 88 16093 3.1 110 13:37 20.08.2019
3359 Rain 26 1019 88 16093 3.1 110 13:19 20.08.2019
3360 Rain 26 1017 78 16093 3.1 130 12:50 20.08.2019
3361 Rain 26 1017 78 16093 3.1 130 12:26 20.08.2019
3362 Clouds 26 1017 74 16093 4.1 90 11:58 20.08.2019
3363 Clouds 26 1017 74 16093 4.1 90 11:58 20.08.2019
3364 Clouds 26 1017 74 16093 4.1 90 11:58 20.08.2019
3365 Clouds 26 1017 74 16093 2.6 140 11:38 20.08.2019
3366 Clouds 26 1017 74 16093 2.6 140 11:18 20.08.2019
3367 Clouds 27 1017 69 16093 3.1 100 10:57 20.08.2019
3368 Clouds 27 1017 69 16093 3.1 100 10:57 20.08.2019
3369 Clouds 27 1017 69 16093 3.1 100 10:38 20.08.2019
3370 Clouds 27 1017 69 16093 3.1 100 10:19 20.08.2019
3371 Clouds 27 1017 74 16093 2.1 110 09:43 20.08.2019
3372 Clouds 27 1017 74 16093 2.1 110 09:25 20.08.2019
3373 Clouds 27 1017 78 16093 2.6 100 08:57 20.08.2019
3374 Clouds 27 1018 74 16093 3.6 110 08:39 20.08.2019
3375 Clouds 27 1018 74 16093 3.6 110 08:20 20.08.2019
3376 Clouds 27 1018 78 16093 1.5 140 07:55 20.08.2019
3377 Clouds 27 1018 78 16093 1.5 140 07:37 20.08.2019
3378 Clear 27 1019 78 16093 1.5 120 07:18 20.08.2019
3379 Clouds 27 1018 78 16093 1.5 90 06:25 20.08.2019
3380 Clear 27 1018 78 16093 1.5 130 05:49 20.08.2019
3381 Clouds 27 1018 78 16093 3.1 100 05:30 20.08.2019
3382 Rain 27 1018 78 16093 4.1 90 04:18 20.08.2019
3383 Clouds 28 1017 74 16093 9.3 130 02:44 20.08.2019
3384 Clouds 29 1016 66 16093 6.7 110 01:39 20.08.2019
3385 Clouds 30 1016 62 16093 5.7 80 00:57 20.08.2019
3386 Clouds 31 1016 58 16093 6.2 70 00:39 20.08.2019
3387 Clouds 31 1016 58 16093 6.2 70 00:19 20.08.2019
3388 Clouds 31 1016 62 16093 6.2 80 23:40 19.08.2019
3389 Clouds 31 1016 62 16093 6.2 80 23:18 19.08.2019
3390 Clouds 31 1017 59 16093 5.7 70 22:56 19.08.2019
3391 Clouds 32 1017 59 16093 5.7 70 22:38 19.08.2019
3392 Rain 32 1017 59 16093 5.7 70 22:18 19.08.2019
3393 Rain 31 1017 66 16093 5.1 80 21:55 19.08.2019
3394 Rain 31 1017 66 16093 3.6 40 21:36 19.08.2019
3395 Rain 31 1017 66 16093 3.6 40 21:18 19.08.2019
3396 Rain 31 1018 74 16093 2.6 20 20:40 19.08.2019
3397 Rain 31 1018 74 16093 2.6 20 20:20 19.08.2019
3398 Rain 32 1018 62 11265 5.7 140 19:58 19.08.2019
3399 Thunderstorm 33 1018 48 16093 9.3 90 19:39 19.08.2019
3400 Thunderstorm 32 1018 62 16093 4.1 110 19:19 19.08.2019
3401 Clouds 32 1018 55 16093 5.7 100 18:47 19.08.2019
3402 Clouds 32 1018 55 16093 5.7 100 18:29 19.08.2019
3403 Thunderstorm 32 1019 59 16093 5.7 120 17:59 19.08.2019
3404 Thunderstorm 32 1019 55 16093 5.1 90 17:41 19.08.2019
3405 Thunderstorm 32 1019 55 16093 5.1 90 17:22 19.08.2019
3406 Rain 32 1019 55 16093 6.2 100 16:58 19.08.2019
3407 Rain 32 1019 55 16093 6.2 100 16:37 19.08.2019
3408 Rain 31 1019 55 16093 6.2 100 16:19 19.08.2019
3409 Rain 30 1018 66 16093 4.1 100 15:55 19.08.2019
3410 Rain 30 1018 66 16093 4.1 100 15:37 19.08.2019
3411 Rain 29 1018 66 16093 4.1 100 15:18 19.08.2019
3412 Rain 28 1018 74 2816 2.6 0 14:41 19.08.2019
3413 Rain 28 1018 74 2816 2.6 0 14:22 19.08.2019
3414 Clouds 28 1017 78 16093 2.87 73.352 13:57 19.08.2019
3415 Clouds 27 1017 78 16093 2.87 73.352 13:38 19.08.2019
3416 Clouds 27 1017 78 16093 2.88 87.372 13:19 19.08.2019
3417 Clouds 27 1017 78 16093 2.88 87.372 13:19 19.08.2019
3418 Clouds 27 1017 69 16093 1.5 40 12:45 19.08.2019
3419 Clouds 27 1017 69 16093 1.5 40 12:25 19.08.2019
3420 Rain 27 1017 78 16093 1.5 30 11:59 19.08.2019
3421 Rain 27 1017 78 16093 1.5 30 11:39 19.08.2019
3422 Rain 27 1017 78 16093 1.5 30 11:20 19.08.2019
3423 Rain 27 1017 61 6437 3.1 120 10:56 19.08.2019
3424 Rain 27 1017 61 6437 3.1 120 10:37 19.08.2019
3425 Rain 27 1017 61 6437 3.1 120 10:18 19.08.2019
3426 Clouds 28 1017 70 16093 3.6 70 09:44 19.08.2019
3427 Clouds 28 1018 70 16093 3.6 90 09:23 19.08.2019
3428 Clouds 28 1018 70 16093 3.6 90 08:56 19.08.2019
3429 Clouds 28 1018 70 16093 3.6 90 08:38 19.08.2019
3430 Clouds 28 1018 70 16093 3.6 90 08:18 19.08.2019
3431 Clouds 28 1018 70 16093 3.1 80 07:45 19.08.2019
3432 Clouds 28 1018 70 16093 3.1 80 07:27 19.08.2019
3433 Clouds 29 1019 66 16093 5.1 80 06:47 19.08.2019
3434 Clouds 29 1019 66 16093 5.1 80 06:25 19.08.2019
3435 Clouds 29 1018 62 16093 3.1 60 04:54 19.08.2019
3436 Clouds 29 1018 62 16093 3.1 60 04:25 19.08.2019
3437 Clear 29 1018 74 16093 3.6 80 03:21 19.08.2019
3438 Clouds 30 1018 62 16093 4.1 90 02:19 19.08.2019
3439 Clouds 31 1018 62 16093 5.7 90 01:21 19.08.2019
3440 Clouds 31 1017 59 16093 5.1 100 00:43 19.08.2019
3441 Clouds 31 1017 59 16093 5.1 100 00:43 19.08.2019
3442 Clouds 32 1017 59 16093 5.1 100 00:23 19.08.2019
3443 Clouds 32 1018 55 16093 6.7 80 23:42 18.08.2019
3444 Clouds 33 1018 55 16093 6.7 80 23:21 18.08.2019
3445 Clouds 33 1018 52 16093 4.6 90 22:42 18.08.2019
3446 Clouds 33 1018 52 16093 4.6 90 22:22 18.08.2019
3447 Clouds 33 1018 52 16093 4.6 90 21:59 18.08.2019
3448 Clouds 33 1019 59 16093 4.1 120 21:41 18.08.2019
3449 Clouds 33 1019 59 16093 4.1 120 21:22 18.08.2019
3450 Clouds 33 1018 66 16093 4.1 80 20:59 18.08.2019
3451 Clouds 33 1019 52 16093 4.6 120 20:41 18.08.2019
3452 Clouds 33 1019 52 16093 4.6 120 20:23 18.08.2019
3453 Clouds 33 1019 49 16093 3.6 110 19:54 18.08.2019
3454 Clouds 33 1019 49 16093 3.6 110 19:36 18.08.2019
3455 Clouds 33 1019 49 16093 3.6 110 19:18 18.08.2019
3456 Clouds 33 1019 55 16093 2.6 130 18:41 18.08.2019
3457 Clouds 33 1019 55 16093 2.6 130 18:23 18.08.2019
3458 Clouds 32 1019 62 16093 3.1 110 17:56 18.08.2019
3459 Clouds 32 1019 62 16093 3.1 110 17:38 18.08.2019
3460 Clouds 32 1019 62 16093 3.1 110 17:19 18.08.2019
3461 Clouds 32 1019 59 16093 4.1 120 16:56 18.08.2019
3462 Clouds 32 1019 59 16093 4.1 120 16:38 18.08.2019
3463 Clouds 32 1019 59 16093 4.1 120 16:19 18.08.2019
3464 Clouds 31 1019 59 16093 3.6 110 15:55 18.08.2019
3465 Clouds 31 1018 66 16093 3.29 103.85 15:36 18.08.2019
3466 Clouds 30 1018 66 16093 1.73 108.466 15:18 18.08.2019
3467 Clouds 28 1018 78 16093 1.5 50 14:40 18.08.2019
3468 Clouds 28 1018 78 16093 1.5 50 14:40 18.08.2019
3469 Clouds 28 1018 78 16093 1.5 50 14:20 18.08.2019
3470 Clouds 27 1019 94 16093 1.5 230 13:59 18.08.2019
3471 Clouds 26 1018 78 16093 1.5 350 13:40 18.08.2019
3472 Clouds 26 1018 78 16093 1.5 350 13:21 18.08.2019
3473 Clouds 26 1018 83 16093 1.73 108.466 12:54 18.08.2019
3474 Clouds 26 1018 83 16093 1.73 108.466 12:36 18.08.2019
3475 Clouds 26 1018 83 16093 1.35 150.482 12:18 18.08.2019
3476 Clouds 26 1018 83 16093 1.35 150.482 12:18 18.08.2019
3477 Clouds 27 1018 78 16093 1.35 150.482 11:41 18.08.2019
3478 Clouds 27 1018 78 16093 1.35 150.482 11:22 18.08.2019
3479 Clouds 26 1018 83 16093 1.35 150.482 10:56 18.08.2019
3480 Clouds 26 1018 83 16093 1.35 150.482 10:38 18.08.2019
3481 Clouds 27 1018 83 16093 1.35 150.482 10:18 18.08.2019
3482 Clouds 27 1019 83 16093 1.35 150.482 09:42 18.08.2019
3483 Clouds 27 1019 83 16093 2.11 232.266 09:19 18.08.2019
3484 Clouds 27 1019 78 16093 2.1 350 08:43 18.08.2019
3485 Clouds 27 1019 78 16093 2.1 350 08:25 18.08.2019
3486 Clouds 27 1019 78 16093 1.5 290 07:54 18.08.2019
3487 Clouds 27 1019 78 16093 1.5 290 07:29 18.08.2019
3488 Clouds 28 1020 70 16093 1.5 130 06:33 18.08.2019
3489 Clouds 28 1020 74 16093 0.83 243.189 05:42 18.08.2019
3490 Clouds 29 1019 74 16093 2.1 330 03:51 18.08.2019
3491 Clouds 30 1018 62 16093 3.6 130 02:52 18.08.2019
3492 Clouds 30 1018 62 16093 3.6 130 02:34 18.08.2019
3493 Clouds 31 1018 62 16093 4.1 130 01:57 18.08.2019
3494 Clouds 31 1018 62 16093 4.1 130 01:26 18.08.2019
3495 Rain 31 1017 59 16093 4.1 120 00:42 18.08.2019
3496 Rain 31 1017 59 16093 4.1 120 00:22 18.08.2019
3497 Clear 32 1018 55 16093 4.28 210.132 23:58 17.08.2019
3498 Clouds 32 1018 59 16093 4.6 120 23:38 17.08.2019
3499 Clouds 32 1018 59 16093 4.6 120 23:19 17.08.2019
3500 Rain 30 1018 63 16093 4.1 150 22:57 17.08.2019
3501 Rain 30 1018 63 16093 4.1 150 22:39 17.08.2019
3502 Rain 30 1018 63 16093 4.1 150 22:20 17.08.2019
3503 Rain 30 1018 63 16093 4.1 150 22:20 17.08.2019
3504 Rain 29 1018 74 16093 3.1 110 21:54 17.08.2019
3505 Rain 28 1018 59 16093 4.1 120 21:36 17.08.2019
3506 Rain 29 1019 74 16093 3.1 250 21:18 17.08.2019
3507 Rain 30 1019 78 16093 5.1 30 20:39 17.08.2019
3508 Rain 33 1018 62 16093 5.7 160 20:19 17.08.2019
3509 Clouds 33 1019 55 16093 4.1 140 19:44 17.08.2019
3510 Clouds 33 1019 55 16093 4.1 140 19:24 17.08.2019
3511 Clouds 33 1020 55 16093 3.6 170 18:59 17.08.2019
3512 Clouds 33 1020 55 16093 3.6 170 18:39 17.08.2019
3513 Clouds 33 1020 55 16093 3.6 170 18:18 17.08.2019
3514 -273 0 0 0 0 0 17:55 17.08.2019
3515 Clouds 33 1019 59 16093 2.1 0 17:37 17.08.2019
3516 Clouds 33 1019 59 16093 2.1 0 17:37 17.08.2019
3517 Clouds 32 1019 59 16093 2.1 0 17:18 17.08.2019
3518 Clouds 31 1019 66 16093 2.6 0 16:41 17.08.2019
3519 Clouds 31 1019 66 16093 2.6 0 16:22 17.08.2019
3520 Clouds 30 1019 70 16093 1.5 0 15:57 17.08.2019
3521 Clouds 30 1019 70 16093 1.5 0 15:38 17.08.2019
3522 Clouds 30 1019 70 16093 1.5 0 15:20 17.08.2019
3523 Clouds 28 1018 69 16093 2.53 161.888 14:40 17.08.2019
3524 Clouds 27 1018 69 16093 2.53 161.888 14:22 17.08.2019
3525 Clouds 25 1018 69 16093 2.53 161.888 13:46 17.08.2019
3526 Clouds 25 1018 69 16093 1.99 163.5 13:22 17.08.2019
3527 Clouds 25 1018 69 16093 1.99 163.5 12:57 17.08.2019
3528 Clouds 25 1018 69 16093 1.99 163.5 12:39 17.08.2019
3529 Clouds 25 1018 69 16093 1.02 120.151 12:18 17.08.2019
3530 Clouds 25 1018 69 16093 1.5 100 11:43 17.08.2019
3531 Clear 25 1018 78 16093 1.5 160 11:21 17.08.2019
3532 Clouds 25 1018 69 16093 1.02 120.151 10:55 17.08.2019
3533 Clouds 25 1018 69 16093 1.02 120.151 10:37 17.08.2019
3534 Clouds 25 1018 69 16093 1.02 120.151 10:18 17.08.2019
3535 Clouds 25 1018 69 16093 1.5 30 09:43 17.08.2019
3536 Clouds 25 1018 69 16093 1.5 30 09:25 17.08.2019
3537 Clouds 26 1019 69 16093 1.5 300 08:53 17.08.2019
3538 Clouds 26 1019 69 16093 1.5 300 08:25 17.08.2019
3539 Drizzle 26 1020 74 16093 1.5 170 07:46 17.08.2019
3540 Drizzle 26 1020 69 16093 5.1 160 07:21 17.08.2019
3541 Rain 26 1020 78 16093 1.5 160 06:41 17.08.2019
3542 Clouds 25 1019 69 16093 2.34 224.965 05:30 17.08.2019
3543 Clouds 25 1019 69 16093 2.34 224.965 04:28 17.08.2019
3544 Clouds 26 1018 69 16093 3.6 250 02:53 17.08.2019
3545 Rain 27 1018 69 16093 2.6 260 01:42 17.08.2019
3546 Clouds 27 1018 69 16093 2.6 260 01:24 17.08.2019
3547 Thunderstorm 28 1018 65 16093 4.6 260 00:54 17.08.2019
3548 Thunderstorm 29 1018 62 16093 3.6 300 00:27 17.08.2019
3549 Thunderstorm 31 1018 59 16093 4.6 120 23:48 16.08.2019
3550 Rain 31 1017 59 16093 3.1 160 23:26 16.08.2019
3551 Thunderstorm 31 1017 62 16093 5.1 170 22:55 16.08.2019
3552 Rain 32 1018 55 16093 7.2 140 22:36 16.08.2019
3553 Thunderstorm 32 1018 52 16093 5.1 190 22:18 16.08.2019
3554 Thunderstorm 32 1018 52 16093 5.1 190 22:18 16.08.2019
3555 Thunderstorm 33 1018 55 16093 6.2 120 21:39 16.08.2019
3556 Clouds 33 1018 55 16093 6.2 120 21:19 16.08.2019
3557 Clouds 33 1018 55 16093 5.1 140 20:55 16.08.2019
3558 Clouds 33 1018 55 16093 5.1 140 20:37 16.08.2019
3559 Clouds 33 1018 55 16093 5.1 140 20:18 16.08.2019
3560 Clouds 33 1018 52 16093 4.1 170 19:41 16.08.2019
3561 Clouds 33 1018 52 16093 4.1 170 19:22 16.08.2019
3562 Clouds 33 1018 62 16093 2.6 180 18:43 16.08.2019
3563 Clear 33 1019 59 16093 3.1 190 18:25 16.08.2019
3564 Clear 33 1019 59 16093 3.1 190 18:25 16.08.2019
3565 Clear 32 1019 62 16093 4.1 200 17:56 16.08.2019
3566 Clear 32 1019 62 16093 4.1 200 17:37 16.08.2019
3567 Rain 32 1019 62 16093 4.1 200 17:18 16.08.2019
3568 Rain 31 1019 66 16093 2.6 0 16:41 16.08.2019
3569 Rain 31 1019 66 16093 2.6 0 16:21 16.08.2019
3570 Clouds 30 1019 70 16093 4.1 140 15:57 16.08.2019
3571 Drizzle 30 1019 83 16093 1.5 150 15:39 16.08.2019
3572 Drizzle 29 1019 83 16093 1.5 150 15:21 16.08.2019
3573 Clouds 28 1019 78 16093 3.24 179.77 14:57 16.08.2019
3574 Clouds 28 1019 78 16093 3.24 179.77 14:38 16.08.2019
3575 Clouds 27 1019 78 16093 3.24 179.77 14:18 16.08.2019
3576 Clouds 25 1018 78 16093 3.24 179.77 13:41 16.08.2019
3577 Clouds 25 1018 78 16093 2.98 181.728 13:23 16.08.2019
3578 Clouds 24 1017 83 16093 2.98 181.728 12:56 16.08.2019
3579 Clouds 24 1017 83 16093 2.98 181.728 12:37 16.08.2019
3580 Clouds 24 1017 83 16093 2.79 187.846 12:19 16.08.2019
3581 Clouds 24 1017 88 16093 1.5 330 11:42 16.08.2019
3582 Clouds 24 1017 88 16093 1.5 330 11:41 16.08.2019
3583 Clouds 24 1017 88 16093 1.5 330 11:23 16.08.2019
3584 Clouds 25 1017 83 16093 2.79 187.846 10:43 16.08.2019
3585 Clouds 25 1017 83 16093 2.79 187.846 10:25 16.08.2019
3586 Clouds 25 1018 83 16093 2.79 187.846 09:56 16.08.2019
3587 Clouds 25 1018 83 16093 2.79 187.846 09:37 16.08.2019
3588 Clouds 25 1018 83 16093 2.79 187.846 09:37 16.08.2019
3589 Rain 25 1018 83 16093 2.52 179.5 09:18 16.08.2019
3590 Rain 25 1018 83 16093 2.52 179.5 08:41 16.08.2019
3591 Rain 25 1018 83 16093 2.52 179.5 08:21 16.08.2019
3592 Rain 25 1019 83 6437 2.1 240 07:53 16.08.2019
3593 Rain 26 1019 83 6437 2.1 240 07:32 16.08.2019
3594 Rain 26 1019 88 16093 2.1 260 06:57 16.08.2019
3595 Rain 26 1019 78 16093 2.52 179.5 06:31 16.08.2019
3596 Clouds 26 1019 78 16093 2.1 190 05:40 16.08.2019
3597 Clouds 27 1018 74 16093 1.37 91.887 04:28 16.08.2019
3598 Thunderstorm 27 1017 88 16093 1.5 320 02:40 16.08.2019
3599 Rain 28 1017 69 16093 1.5 310 01:33 16.08.2019
3600 Rain 28 1017 69 16093 1.5 270 00:59 16.08.2019
3601 Rain 28 1017 69 16093 1.5 270 00:40 16.08.2019
3602 Rain 28 1017 69 16093 1.5 270 00:20 16.08.2019
3603 Rain 28 1016 94 16093 2.6 260 23:44 15.08.2019
3604 Rain 28 1017 74 16093 2.6 260 23:21 15.08.2019
3605 Rain 30 1016 74 16093 5.1 250 22:57 15.08.2019
3606 Rain 31 1016 74 16093 5.1 250 22:39 15.08.2019
3607 Rain 31 1016 74 16093 5.1 250 22:39 15.08.2019
3608 Rain 30 1017 74 16093 5.7 210 22:20 15.08.2019
3609 Rain 30 1017 83 14484 3.1 310 21:54 15.08.2019
3610 Rain 31 1017 88 2012 5.1 190 21:36 15.08.2019
3611 Rain 31 1016 66 16093 5.7 190 21:18 15.08.2019
3612 Rain 30 1017 69 16093 3.1 200 20:42 15.08.2019
3613 Rain 30 1017 74 14484 4.1 230 20:21 15.08.2019
3614 Thunderstorm 32 1017 62 16093 7.7 140 19:57 15.08.2019
3615 Thunderstorm 32 1017 70 16093 4.1 220 19:38 15.08.2019
3616 Thunderstorm 33 1017 70 16093 4.1 220 19:19 15.08.2019
3617 Clouds 33 1017 59 16093 4.6 140 18:46 15.08.2019
3618 Clouds 33 1017 59 16093 4.6 140 18:23 15.08.2019
3619 Clouds 33 1017 59 16093 2.6 0 17:57 15.08.2019
3620 Clouds 33 1017 59 16093 2.6 0 17:37 15.08.2019
3621 Clouds 33 1017 59 16093 2.6 0 17:19 15.08.2019
3622 Clouds 32 1017 62 16093 2.1 180 16:48 15.08.2019
3623 Clouds 32 1017 62 16093 2.1 180 16:28 15.08.2019
3624 Clouds 31 1017 70 16093 3.6 180 15:59 15.08.2019
3625 Clouds 30 1017 70 16093 3.6 180 15:38 15.08.2019
3626 Clouds 30 1017 70 16093 3.6 180 15:19 15.08.2019
3627 Clouds 28 1017 78 16093 1.5 190 14:43 15.08.2019
3628 Clouds 27 1017 78 16093 1.5 190 14:24 15.08.2019
3629 Clouds 27 1017 78 16093 3.26 192.517 13:59 15.08.2019
3630 Clouds 26 1017 78 16093 3.26 192.517 13:40 15.08.2019
3631 Clouds 26 1017 78 16093 2.68 200.268 13:21 15.08.2019
3632 Clear 26 1016 94 16093 2.6 230 12:59 15.08.2019
3633 Clouds 26 1016 78 16093 2.68 200.268 12:39 15.08.2019
3634 Clouds 26 1016 78 16093 3.11 199.739 12:19 15.08.2019
3635 Clear 26 1016 83 16093 2.1 150 11:57 15.08.2019
3636 Clouds 26 1016 78 16093 3.11 199.739 11:37 15.08.2019
3637 Clouds 26 1016 78 16093 3.11 199.739 11:37 15.08.2019
3638 Clouds 26 1016 78 16093 3.11 199.739 11:18 15.08.2019
3639 Clouds 26 1016 78 16093 3.11 199.739 10:57 15.08.2019
3640 Clouds 26 1016 78 16093 3.11 199.739 10:36 15.08.2019
3641 Clouds 26 1016 78 16093 3.11 199.739 10:18 15.08.2019
3642 Clouds 26 1016 78 16093 3.11 199.739 09:42 15.08.2019
3643 Clouds 26 1016 78 16093 3.28 201.62 09:22 15.08.2019
3644 Drizzle 27 1016 88 16093 3.28 201.62 08:39 15.08.2019
3645 Drizzle 27 1016 88 16093 3.28 201.62 08:21 15.08.2019
3646 Clouds 27 1016 74 16093 3.28 201.62 07:56 15.08.2019
3647 Clouds 27 1016 74 16093 3.28 201.62 07:37 15.08.2019
3648 Clouds 27 1016 74 16093 3.28 201.62 07:18 15.08.2019
3649 Clouds 27 1017 74 16093 3.28 201.62 06:43 15.08.2019
3650 Clouds 27 1017 74 16093 3.14 216.516 06:22 15.08.2019
3651 Clouds 27 1016 70 16093 2.1 0 05:29 15.08.2019
3652 Clouds 28 1017 74 16093 1.5 170 04:56 15.08.2019
3653 Clouds 28 1016 70 16093 1.5 170 03:51 15.08.2019
3654 Clouds 28 1016 70 16093 1.5 170 03:18 15.08.2019
3655 -273 0 0 0 0 0 02:25 15.08.2019
3656 Clouds 30 1015 62 16093 3.1 140 01:39 15.08.2019
3657 Clouds 31 1015 59 16093 3.1 0 00:55 15.08.2019
3658 Clouds 31 1015 59 16093 3.1 0 00:36 15.08.2019
3659 Clouds 31 1015 59 16093 3.1 0 00:18 15.08.2019
3660 Clouds 31 1014 55 16093 3.11 210.964 23:54 14.08.2019
3661 Clouds 31 1014 55 16093 3.11 210.964 23:36 14.08.2019
3662 Clouds 31 1014 55 16093 3.11 210.964 23:18 14.08.2019
3663 Rain 30 1015 62 16093 1.5 200 22:40 14.08.2019
3664 Rain 29 1015 62 16093 1.5 200 22:22 14.08.2019
3665 Rain 28 1015 78 16093 3.11 210.964 21:57 14.08.2019
3666 Rain 27 1015 78 16093 3.11 210.964 21:38 14.08.2019
3667 Rain 27 1015 78 16093 2.81 267.979 21:20 14.08.2019
3668 Rain 26 1015 88 16093 2.81 267.979 20:56 14.08.2019
3669 Rain 26 1016 83 14484 1.5 310 20:37 14.08.2019
3670 Rain 27 1016 78 4828 1.5 210 20:18 14.08.2019
3671 Thunderstorm 32 1017 62 4828 2.81 267.979 19:40 14.08.2019
3672 Thunderstorm 32 1016 70 16093 6.7 290 19:22 14.08.2019
3673 Thunderstorm 32 1016 59 16093 2.1 0 18:57 14.08.2019
3674 Clouds 32 1016 59 16093 3.1 220 18:39 14.08.2019
3675 Clouds 31 1016 59 16093 3.1 220 18:21 14.08.2019
3676 Clouds 30 1016 70 16093 1.5 100 17:59 14.08.2019
3677 Clouds 30 1016 70 16093 1.5 100 17:38 14.08.2019
3678 Clouds 30 1016 70 16093 1.5 100 17:20 14.08.2019
3679 Clouds 29 1016 78 16093 3.1 300 16:55 14.08.2019
3680 Thunderstorm 30 1017 66 16093 4.6 150 16:37 14.08.2019
3681 Clouds 29 1017 74 16093 3.39 220.801 16:18 14.08.2019
3682 Thunderstorm 29 1017 74 16093 3.39 220.801 15:42 14.08.2019
3683 Thunderstorm 28 1017 79 16093 1.5 100 15:18 14.08.2019
3684 Clouds 26 1016 83 16093 1.5 360 14:55 14.08.2019
3685 Clouds 26 1016 83 16093 1.5 360 14:36 14.08.2019
3686 Clouds 26 1016 83 16093 1.5 360 14:18 14.08.2019
3687 Clouds 25 1015 83 16093 3.49 203.889 13:43 14.08.2019
3688 Clouds 25 1015 83 16093 2.68 202.552 13:24 14.08.2019
3689 Clouds 25 1015 83 16093 2.68 202.552 13:24 14.08.2019
3690 Clouds 25 1015 88 16093 2.68 202.552 12:57 14.08.2019
3691 Clouds 25 1015 88 16093 2.68 202.552 12:38 14.08.2019
3692 Clouds 25 1015 88 16093 2.33 206.301 12:20 14.08.2019
3693 Clouds 25 1015 88 16093 1.5 340 11:55 14.08.2019
3694 Clouds 25 1015 88 16093 1.5 340 11:37 14.08.2019
3695 Clouds 25 1015 88 16093 1.5 340 11:18 14.08.2019
3696 Clouds 25 1014 88 16093 2.33 206.301 10:42 14.08.2019
3697 Clouds 25 1014 88 16093 2.33 206.301 10:23 14.08.2019
3698 Clouds 25 1014 88 16093 2.1 10 09:55 14.08.2019
3699 Clouds 25 1014 88 16093 2.1 10 09:36 14.08.2019
3700 Clouds 25 1014 88 16093 2.1 10 09:18 14.08.2019
3701 Clouds 25 1015 88 16093 1.59 181.116 08:36 14.08.2019
3702 Clouds 25 1015 88 16093 1.59 181.116 08:18 14.08.2019
3703 Clouds 25 1015 88 16093 1.59 181.116 07:45 14.08.2019
3704 Clouds 25 1015 88 16093 1.59 181.116 07:27 14.08.2019
3705 Rain 25 1015 88 16093 1.59 181.116 06:45 14.08.2019
3706 Rain 24 1015 88 16093 3.92 184.051 05:48 14.08.2019
3707 Rain 24 1016 88 16093 1.5 170 04:54 14.08.2019
3708 Rain 24 1016 100 4023 3.1 90 03:37 14.08.2019
3709 Rain 25 1016 88 3219 8.7 220 02:32 14.08.2019
3710 Rain 28 1015 78 16093 7.7 320 01:38 14.08.2019
3711 Thunderstorm 30 1014 74 16093 2.6 330 00:59 14.08.2019
3712 Rain 32 1013 62 16093 3.6 150 23:50 13.08.2019
3713 Rain 32 1013 62 16093 3.6 150 23:25 13.08.2019
3714 Clear 32 1013 79 16093 4.6 140 22:59 13.08.2019
3715 Thunderstorm 32 1013 62 16093 2.6 150 22:39 13.08.2019
3716 Thunderstorm 32 1013 62 16093 2.6 150 22:21 13.08.2019
3717 Rain 32 1013 79 16093 2.1 150 21:58 13.08.2019
3718 Rain 31 1013 74 16093 3.6 310 21:37 13.08.2019
3719 Rain 31 1013 74 16093 3.6 310 21:19 13.08.2019
3720 Rain 31 1014 69 16093 4.1 150 20:56 13.08.2019
3721 Rain 30 1014 69 16093 4.1 150 20:36 13.08.2019
3722 Rain 29 1015 66 16093 3.1 190 20:18 13.08.2019
3723 Rain 30 1015 83 16093 3.6 210 19:43 13.08.2019
3724 Rain 30 1015 78 14484 3.1 270 19:21 13.08.2019
3725 Rain 32 1015 70 14484 5.1 170 18:57 13.08.2019
3726 Thunderstorm 32 1015 66 16093 4.1 110 18:38 13.08.2019
3727 Thunderstorm 32 1015 66 16093 6.2 140 18:19 13.08.2019
3728 Clouds 33 1015 55 16093 3.1 210 17:42 13.08.2019
3729 Clouds 32 1015 55 16093 3.1 210 17:21 13.08.2019
3730 Rain 32 1015 62 16093 2.6 180 16:57 13.08.2019
3731 Rain 31 1015 62 16093 2.6 180 16:39 13.08.2019
3732 Rain 31 1015 62 16093 2.6 180 16:20 13.08.2019
3733 Clouds 31 1015 66 16093 1.5 240 15:58 13.08.2019
3734 Clouds 30 1015 66 16093 1.5 240 15:36 13.08.2019
3735 Clouds 30 1015 66 16093 1.5 240 15:18 13.08.2019
3736 Clouds 28 1015 79 16093 2.65 204.371 14:41 13.08.2019
3737 Clouds 27 1015 79 16093 2.65 204.371 14:19 13.08.2019
3738 Clouds 26 1014 78 16093 2.65 204.371 13:56 13.08.2019
3739 Clear 26 1014 88 16093 2.65 204.371 13:37 13.08.2019
3740 Clear 25 1014 88 16093 2.49 218.717 13:18 13.08.2019
3741 Clear 25 1014 88 16093 2.49 218.717 12:41 13.08.2019
3742 Clouds 25 1014 88 16093 1.77 226.698 12:23 13.08.2019
3743 Clear 25 1013 94 16093 1.77 226.698 11:59 13.08.2019
3744 Clear 25 1013 94 16093 1.77 226.698 11:40 13.08.2019
3745 Clear 25 1013 94 16093 1.77 226.698 11:21 13.08.2019
3746 Clear 25 1013 94 16093 1.77 226.698 11:21 13.08.2019
3747 Clouds 26 1013 83 16093 1.77 226.698 10:57 13.08.2019
3748 Clouds 26 1013 83 16093 1.77 226.698 10:37 13.08.2019
3749 Clouds 26 1013 83 16093 1.77 226.698 10:19 13.08.2019
3750 Clouds 26 1013 83 16093 1.77 226.698 09:44 13.08.2019
3751 Clouds 26 1013 83 16093 1.5 243.708 09:23 13.08.2019
3752 Clouds 26 1013 83 16093 1.5 243.708 09:23 13.08.2019
3753 Clouds 26 1014 83 16093 1.5 243.708 08:44 13.08.2019
3754 Clouds 26 1014 83 16093 1.5 243.708 08:23 13.08.2019
3755 Clouds 26 1015 83 16093 1.5 243.708 07:58 13.08.2019
3756 Clouds 26 1015 83 16093 1.5 243.708 07:38 13.08.2019
3757 Clouds 26 1015 83 16093 1.5 243.708 07:38 13.08.2019
3758 Clouds 26 1015 83 16093 1.5 243.708 07:20 13.08.2019
3759 Clouds 26 1015 83 16093 1.5 243.708 06:43 13.08.2019
3760 Clear 26 1015 88 16093 1.47 7.057 05:46 13.08.2019
3761 Rain 27 1015 78 16093 2.6 120 03:45 13.08.2019
3762 Clear 27 1015 78 16093 1.5 360 02:22 13.08.2019
3763 Rain 27 1015 79 16093 2.6 310 01:26 13.08.2019
3764 Rain 28 1014 70 16093 3.1 280 00:47 13.08.2019
3765 Clouds 28 1014 66 16093 4.6 270 00:18 13.08.2019
3766 Rain 28 1014 70 16093 2.6 360 23:41 12.08.2019
3767 Rain 28 1014 70 16093 2.6 360 23:20 12.08.2019
3768 Rain 28 1015 83 16093 2.6 280 22:40 12.08.2019
3769 Rain 28 1015 83 16093 2.6 280 22:20 12.08.2019
3770 Rain 29 1015 74 16093 7.2 310 21:57 12.08.2019
3771 Thunderstorm 30 1015 62 16093 4.6 250 21:38 12.08.2019
3772 Rain 31 1015 66 16093 4.1 160 21:19 12.08.2019
3773 Thunderstorm 31 1015 59 16093 5.1 180 20:58 12.08.2019
3774 Thunderstorm 32 1015 59 16093 5.1 180 20:39 12.08.2019
3775 Rain 32 1016 78 16093 5.1 150 20:20 12.08.2019
3776 Rain 32 1016 88 8047 4.6 120 19:57 12.08.2019
3777 Rain 33 1015 70 8047 3.64 237.018 19:38 12.08.2019
3778 Thunderstorm 33 1016 70 16093 3.6 90 19:20 12.08.2019
3779 Thunderstorm 33 1016 66 16093 3.6 120 18:56 12.08.2019
3780 Thunderstorm 32 1015 62 11265 5.1 260 18:37 12.08.2019
3781 Thunderstorm 33 1015 66 16093 2.6 220 18:19 12.08.2019
3782 Clouds 32 1016 59 16093 3.1 210 17:47 12.08.2019
3783 Clouds 32 1016 59 16093 3.1 210 17:28 12.08.2019
3784 Clouds 32 1016 63 16093 2.6 250 16:58 12.08.2019
3785 Clouds 31 1016 74 16093 3.1 250 16:39 12.08.2019
3786 Clouds 31 1016 74 16093 3.1 250 16:20 12.08.2019
3787 Clouds 30 1016 66 16093 2.1 190 15:59 12.08.2019
3788 Clouds 30 1015 70 16093 1.5 0 15:41 12.08.2019
3789 Clouds 30 1015 70 16093 1.5 0 15:40 12.08.2019
3790 Clouds 29 1015 70 16093 1.5 0 15:21 12.08.2019
3791 Clouds 28 1015 78 16093 1.64 197.231 14:56 12.08.2019
3792 Clouds 28 1015 78 16093 1.64 197.231 14:38 12.08.2019
3793 Clouds 27 1015 78 16093 1.64 197.231 14:18 12.08.2019
3794 Clouds 27 1015 78 16093 1.64 197.231 14:18 12.08.2019
3795 Clouds 26 1014 88 16093 1.64 197.231 13:43 12.08.2019
3796 Clouds 25 1014 88 16093 1.64 204.865 13:24 12.08.2019
3797 Clear 25 1014 88 16093 1.5 210 12:57 12.08.2019
3798 Clear 25 1014 88 16093 1.5 210 12:57 12.08.2019
3799 Clouds 25 1014 83 16093 1.5 180 12:39 12.08.2019
3800 Clear 25 1014 88 16093 1.5 210 12:18 12.08.2019
3801 Clear 25 1014 83 16093 2.05 229.384 11:41 12.08.2019
3802 Clear 25 1014 83 16093 2.05 229.384 11:23 12.08.2019
3803 Clouds 25 1014 83 16093 2.05 229.384 10:42 12.08.2019
3804 Clouds 25 1014 83 16093 2.05 229.384 10:23 12.08.2019
3805 Clouds 25 1014 83 16093 2.05 229.384 10:23 12.08.2019
3806 Clouds 25 1015 83 16093 2.05 229.384 09:56 12.08.2019
3807 Clouds 25 1015 83 16093 2.05 229.384 09:38 12.08.2019
3808 Clouds 25 1015 83 16093 2.54 218.79 09:19 12.08.2019
3809 Clouds 26 1015 78 16093 2.54 218.79 08:55 12.08.2019
3810 Clouds 26 1015 78 16093 2.54 218.79 08:37 12.08.2019
3811 Clouds 26 1015 78 16093 2.54 218.79 08:19 12.08.2019
3812 Clouds 26 1015 83 16093 1.5 200 07:42 12.08.2019
3813 Clouds 26 1015 83 16093 1.5 200 07:20 12.08.2019
3814 Clouds 26 1016 88 16093 1.5 190 06:44 12.08.2019
3815 Clouds 26 1016 88 16093 1.85 181.051 05:37 12.08.2019
3816 Rain 26 1016 83 16093 2.66 267.821 02:44 12.08.2019
3817 Rain 26 1016 83 16093 3.1 80 01:53 12.08.2019
3818 Rain 26 1016 83 16093 3.1 80 01:20 12.08.2019
3819 Rain 26 1016 94 16093 2.1 110 00:57 12.08.2019
3820 Rain 26 1016 83 16093 2.6 130 00:38 12.08.2019
3821 Rain 26 1016 83 16093 1.5 70 00:19 12.08.2019
3822 Rain 26 1016 94 11265 1.5 70 23:42 11.08.2019
3823 Rain 26 1016 83 16093 6.2 310 23:20 11.08.2019
3824 Rain 27 1017 88 1207 4.6 290 22:58 11.08.2019
3825 Rain 29 1016 83 3219 8.2 290 22:39 11.08.2019
3826 Rain 29 1015 62 16093 3.1 220 22:19 11.08.2019
3827 Rain 29 1015 62 16093 3.1 220 22:19 11.08.2019
3828 Rain 31 1015 74 16093 4.1 80 21:58 11.08.2019
3829 Rain 31 1015 59 16093 5.1 200 21:39 11.08.2019
3830 Rain 32 1016 62 16093 3.1 40 21:20 11.08.2019
3831 Rain 32 1016 62 16093 4.6 230 20:56 11.08.2019
3832 Thunderstorm 33 1016 66 16093 7.2 130 20:38 11.08.2019
3833 Thunderstorm 33 1016 66 16093 7.2 130 20:19 11.08.2019
3834 Rain 34 1016 63 16093 5.1 250 19:42 11.08.2019
3835 Thunderstorm 34 1017 56 16093 4.1 290 19:18 11.08.2019
3836 Clouds 33 1017 52 16093 2.6 290 18:41 11.08.2019
3837 Clouds 33 1017 52 16093 2.6 290 18:22 11.08.2019
3838 Clouds 33 1017 59 16093 2.1 300 17:58 11.08.2019
3839 Clouds 33 1017 59 16093 2.1 300 17:58 11.08.2019
3840 Clouds 32 1017 59 16093 2.1 300 17:40 11.08.2019
3841 Clouds 32 1017 59 16093 2.1 300 17:20 11.08.2019
3842 Clouds 32 1017 62 16093 2.6 260 16:56 11.08.2019
3843 Clouds 32 1017 62 16093 2.6 260 16:38 11.08.2019
3844 Clouds 31 1017 62 16093 2.6 260 16:18 11.08.2019
3845 Clouds 30 1017 70 16093 2.1 240 15:43 11.08.2019
3846 Clouds 30 1017 70 16093 2.1 240 15:24 11.08.2019
3847 Clouds 30 1017 70 16093 2.1 240 15:24 11.08.2019
3848 Clouds 29 1016 83 16093 1.5 240 14:59 11.08.2019
3849 Clouds 28 1016 83 16093 1.5 240 14:39 11.08.2019
3850 Clouds 28 1016 83 16093 1.5 240 14:20 11.08.2019
3851 Clouds 27 1015 83 16093 1.81 264.293 13:44 11.08.2019
3852 Clouds 27 1015 83 16093 1.93 254.706 13:25 11.08.2019
3853 Clear 26 1015 88 16093 2.1 230 12:56 11.08.2019
3854 Clear 26 1015 88 16093 2.1 230 12:36 11.08.2019
3855 Clear 26 1015 88 16093 2.1 230 12:18 11.08.2019
3856 Clear 26 1015 88 16093 2.1 260 11:39 11.08.2019
3857 Clear 26 1015 88 16093 2.1 260 11:20 11.08.2019
3858 Clouds 27 1015 83 16093 1.5 180 10:55 11.08.2019
3859 Clouds 26 1015 83 16093 1.5 180 10:37 11.08.2019
3860 Clouds 27 1015 83 16093 1.5 180 10:18 11.08.2019
3861 Clouds 27 1016 78 16093 1.93 280.931 09:40 11.08.2019
3862 Clouds 27 1016 78 16093 1.86 267.075 09:22 11.08.2019
3863 Clouds 27 1016 74 16093 1.5 200 08:49 11.08.2019
3864 Clouds 27 1016 74 16093 1.5 200 08:29 11.08.2019
3865 Clouds 27 1016 74 16093 2.69 268.084 07:57 11.08.2019
3866 Clouds 27 1016 74 16093 2.69 268.084 07:30 11.08.2019
3867 Clear 27 1017 78 16093 2.69 268.084 06:46 11.08.2019
3868 Clear 27 1017 78 16093 2.74 274.837 06:26 11.08.2019
3869 Clouds 28 1016 70 16093 1.5 220 04:38 11.08.2019
3870 Clouds 29 1015 66 16093 3.17 308.016 02:50 11.08.2019
3871 Clouds 30 1014 62 16093 2.1 350 01:53 11.08.2019
3872 Clouds 30 1014 62 16093 2.1 350 01:28 11.08.2019
3873 Clouds 30 1015 62 16093 3.6 310 00:54 11.08.2019
3874 Clouds 30 1015 62 16093 3.6 310 00:34 11.08.2019
3875 Clear 29 1015 70 16093 4.6 320 23:49 10.08.2019
3876 Rain 29 1015 70 16093 4.6 320 23:29 10.08.2019
3877 Thunderstorm 30 1015 49 16093 5.7 290 22:48 10.08.2019
3878 Rain 30 1015 49 16093 5.7 290 22:27 10.08.2019
3879 Rain 32 1015 58 16093 4.1 250 21:59 10.08.2019
3880 Rain 33 1014 83 16093 4.6 150 21:40 10.08.2019
3881 Rain 34 1015 49 16093 4.6 300 21:21 10.08.2019
3882 Clouds 34 1015 56 16093 2.1 0 20:57 10.08.2019
3883 Clear 33 1016 56 16093 3.6 290 20:39 10.08.2019
3884 Clouds 33 1016 59 16093 2.1 250 20:19 10.08.2019
3885 Rain 33 1016 49 16093 2.6 250 19:43 10.08.2019
3886 Rain 33 1016 49 16093 2.6 250 19:24 10.08.2019
3887 Clouds 33 1017 55 16093 3.1 260 18:42 10.08.2019
3888 Clouds 33 1017 55 16093 3.1 260 18:24 10.08.2019
3889 Clouds 32 1017 59 16093 1.5 0 17:56 10.08.2019
3890 Clouds 32 1017 59 16093 1.5 0 17:38 10.08.2019
3891 Clouds 32 1017 59 16093 1.5 0 17:19 10.08.2019
3892 Clouds 31 1017 66 16093 1.5 300 16:42 10.08.2019
3893 Clouds 31 1017 66 16093 1.5 300 16:22 10.08.2019
3894 Clouds 30 1016 79 16093 1.5 260 15:45 10.08.2019
3895 Clouds 29 1016 79 16093 1.5 260 15:22 10.08.2019
3896 Clouds 28 1016 83 16093 1.86 254.92 14:44 10.08.2019
3897 Clouds 28 1016 83 16093 1.86 254.92 14:21 10.08.2019
3898 Clouds 26 1016 88 16093 1.86 254.92 13:41 10.08.2019
3899 Clouds 26 1016 88 16093 1.92 267.097 13:20 10.08.2019
3900 Clouds 26 1015 88 16093 1.92 267.097 12:55 10.08.2019
3901 Clouds 26 1015 88 16093 1.92 267.097 12:37 10.08.2019
3902 Clouds 26 1015 88 16093 1.88 238.043 12:18 10.08.2019
3903 Clouds 26 1014 88 16093 1.88 238.043 11:41 10.08.2019
3904 Clouds 26 1014 88 16093 1.88 238.043 11:41 10.08.2019
3905 Clouds 26 1014 88 16093 1.88 238.043 11:22 10.08.2019
3906 Clouds 26 1015 88 16093 1.88 238.043 10:55 10.08.2019
3907 Clouds 26 1015 88 16093 1.88 238.043 10:37 10.08.2019
3908 Clouds 26 1015 88 16093 1.88 238.043 10:18 10.08.2019
3909 Clouds 26 1015 88 16093 1.88 238.043 09:41 10.08.2019
3910 Clouds 26 1015 88 16093 1.88 238.043 09:41 10.08.2019
3911 Clouds 26 1015 88 16093 2.53 270.771 09:23 10.08.2019
3912 Clouds 26 1016 88 16093 2.56 291.232 08:42 10.08.2019
3913 Clouds 26 1016 88 16093 2.56 291.232 08:20 10.08.2019
3914 Clouds 26 1016 88 16093 1.5 180 07:54 10.08.2019
3915 Clouds 26 1016 88 16093 1.5 180 07:29 10.08.2019
3916 Clouds 26 1017 83 16093 2.56 291.232 06:49 10.08.2019
3917 Clouds 26 1017 83 16093 2.56 291.232 06:28 10.08.2019
3918 Clouds 26 1017 78 16093 2.1 210 05:26 10.08.2019
3919 Rain 26 1017 83 16093 2.1 220 04:35 10.08.2019
3920 Clear 26 1015 83 16093 3.1 240 02:58 10.08.2019
3921 Clouds 26 1015 83 16093 4.27 293.701 02:27 10.08.2019
3922 Rain 27 1016 83 16093 4.27 293.701 01:42 10.08.2019
3923 Rain 26 1016 83 16093 4.51 311.142 01:22 10.08.2019
3924 Rain 26 1016 78 16093 4.51 311.142 00:49 10.08.2019
3925 Rain 27 1016 78 16093 5.05 275.319 00:25 10.08.2019
3926 Rain 27 1016 88 16093 3.1 130 23:45 09.08.2019
3927 Rain 27 1015 83 11265 1.5 30 23:24 09.08.2019
3928 Rain 27 1016 88 4828 2.1 170 22:58 09.08.2019
3929 Rain 27 1017 83 402 5.1 250 22:39 09.08.2019
3930 Rain 29 1015 78 16093 10.3 320 22:21 09.08.2019
3931 Thunderstorm 32 1015 63 16093 4.6 230 21:56 09.08.2019
3932 Clouds 33 1015 49 16093 2.6 270 21:38 09.08.2019
3933 Clouds 33 1015 49 16093 2.6 270 21:20 09.08.2019
3934 Clouds 33 1016 49 16093 2.6 0 20:56 09.08.2019
3935 Thunderstorm 33 1016 74 16093 5.7 170 20:37 09.08.2019
3936 Clouds 33 1016 49 16093 2.6 0 20:18 09.08.2019
3937 Clouds 33 1016 49 16093 2.6 0 20:18 09.08.2019
3938 Clouds 34 1017 49 16093 1.5 0 19:41 09.08.2019
3939 Clouds 34 1017 49 16093 1.5 0 19:20 09.08.2019
3940 Clouds 33 1017 55 16093 2.6 300 18:42 09.08.2019
3941 Clouds 33 1017 55 16093 2.6 300 18:22 09.08.2019
3942 Clouds 33 1017 56 16093 3.1 320 17:59 09.08.2019
3943 Clouds 32 1017 59 16093 2.35 261.487 17:41 09.08.2019
3944 Clouds 32 1017 59 16093 2.35 261.487 17:22 09.08.2019
3945 Clouds 31 1017 66 16093 2.6 260 16:42 09.08.2019
3946 Clouds 31 1017 66 16093 2.6 260 16:42 09.08.2019
3947 Clouds 31 1017 66 16093 2.6 260 16:24 09.08.2019
3948 Clouds 30 1017 70 16093 2.1 310 15:58 09.08.2019
3949 Clouds 30 1016 79 16093 2.35 261.487 15:39 09.08.2019
3950 Clouds 30 1016 79 16093 1.37 279.938 15:20 09.08.2019
3951 Rain 28 1016 88 16093 1.37 279.938 14:56 09.08.2019
3952 Rain 28 1016 88 16093 1.37 279.938 14:37 09.08.2019
3953 Rain 27 1016 88 16093 1.37 279.938 14:19 09.08.2019
3954 Clouds 26 1015 88 16093 1.37 279.938 13:44 09.08.2019
3955 Clouds 25 1015 88 16093 1.73 284.341 13:20 09.08.2019
3956 Clouds 25 1015 88 16093 1.73 284.341 12:48 09.08.2019
3957 Clouds 25 1015 88 16093 2 277.951 12:25 09.08.2019
3958 Clear 25 1015 94 16093 2 277.951 11:59 09.08.2019
3959 Clear 25 1015 94 16093 2 277.951 11:59 09.08.2019
3960 Clouds 25 1015 88 16093 2 277.951 11:40 09.08.2019
3961 Clouds 25 1015 88 16093 2 277.951 11:20 09.08.2019
3962 Clouds 26 1015 88 16093 2 277.951 10:41 09.08.2019
3963 Clouds 26 1015 88 16093 2 277.951 10:22 09.08.2019
3964 Clouds 26 1015 88 16093 2 277.951 09:59 09.08.2019
3965 Clouds 26 1015 88 16093 2 277.951 09:37 09.08.2019
3966 Clouds 26 1015 88 16093 1.55 250.264 09:18 09.08.2019
3967 Clouds 26 1016 88 16093 1.83 279.189 08:44 09.08.2019
3968 Clouds 26 1016 88 16093 1.83 279.189 08:25 09.08.2019
3969 Clouds 26 1017 88 16093 1.83 279.189 07:55 09.08.2019
3970 Clouds 26 1017 88 16093 1.83 279.189 07:24 09.08.2019
3971 Clouds 26 1017 83 16093 1.83 279.189 06:59 09.08.2019
3972 Clouds 26 1017 83 16093 1.83 279.189 06:38 09.08.2019
3973 Clouds 26 1017 83 16093 2.39 318.287 06:20 09.08.2019
3974 Clouds 26 1017 83 16093 2.39 318.287 04:57 09.08.2019
3975 Rain 26 1016 83 16093 2.48 252.685 02:26 09.08.2019
3976 Rain 26 1016 78 16093 4.59 247.169 01:21 09.08.2019
3977 Rain 26 1016 83 16093 2.1 200 00:41 09.08.2019
3978 Rain 27 1016 94 16093 1.5 110 00:22 09.08.2019
3979 Rain 27 1017 94 16093 3.1 100 23:56 08.08.2019
3980 Rain 28 1017 88 2414 3.6 210 23:36 08.08.2019
3981 Rain 29 1017 88 2414 3.6 210 23:18 08.08.2019
3982 Rain 30 1016 74 4828 4.6 160 22:38 08.08.2019
3983 Rain 30 1017 74 3219 2.6 0 22:19 08.08.2019
3984 Rain 31 1016 70 16093 5.1 30 21:59 08.08.2019
3985 Rain 32 1016 70 16093 5.1 30 21:41 08.08.2019
3986 Rain 32 1016 66 16093 4.6 120 21:22 08.08.2019
3987 Rain 33 1017 62 12874 3.1 150 20:57 08.08.2019
3988 Rain 32 1017 55 16093 4.6 130 20:39 08.08.2019
3989 Rain 33 1017 55 16093 4.6 130 20:19 08.08.2019
3990 Clouds 33 1017 63 16093 4.6 190 19:48 08.08.2019
3991 Clouds 33 1017 55 16093 3.6 110 19:28 08.08.2019
3992 Thunderstorm 33 1017 70 16093 3.6 100 18:57 08.08.2019
3993 Clouds 33 1017 55 16093 2.67 269.636 18:36 08.08.2019
3994 Clouds 33 1017 55 16093 2.25 288.652 18:18 08.08.2019
3995 Clouds 32 1017 55 16093 2.25 288.652 17:42 08.08.2019
3996 Clouds 32 1017 55 16093 2.25 288.652 17:23 08.08.2019
3997 Clouds 32 1017 62 16093 1.5 100 16:56 08.08.2019
3998 Clouds 31 1017 62 16093 1.5 100 16:37 08.08.2019
3999 Clouds 31 1017 62 16093 1.5 100 16:37 08.08.2019
4000 Clouds 31 1017 62 16093 1.5 100 16:19 08.08.2019
4001 Clouds 30 1017 66 16093 2.1 230 15:56 08.08.2019
4002 Clouds 30 1017 70 16093 2.25 288.652 15:37 08.08.2019
4003 Clouds 29 1017 70 16093 1.55 258.429 15:19 08.08.2019
4004 Clouds 28 1016 83 16093 1.55 258.429 14:37 08.08.2019
4005 Clouds 27 1016 83 16093 1.55 258.429 14:18 08.08.2019
4006 Clouds 27 1016 83 16093 1.55 258.429 14:18 08.08.2019
4007 Clouds 26 1016 83 16093 1.5 130 13:42 08.08.2019
4008 Clouds 26 1016 83 16093 1.5 130 13:23 08.08.2019
4009 Clear 25 1015 88 16093 1.72 236.264 12:57 08.08.2019
4010 Clear 26 1015 88 16093 1.72 236.264 12:37 08.08.2019
4011 Clear 26 1015 88 16093 1.8 217.431 12:18 08.08.2019
4012 Clouds 26 1015 83 16093 1.8 217.431 11:42 08.08.2019
4013 Clouds 26 1015 83 16093 1.8 217.431 11:23 08.08.2019
4014 Clouds 26 1015 83 16093 1.8 217.431 11:23 08.08.2019
4015 Clouds 26 1016 83 16093 1.8 217.431 10:41 08.08.2019
4016 Clouds 26 1016 83 16093 1.8 217.431 10:41 08.08.2019
4017 Clouds 26 1016 83 16093 1.8 217.431 10:22 08.08.2019
4018 Clouds 26 1016 83 16093 1.8 217.431 10:22 08.08.2019
4019 Clouds 26 1016 83 16093 1.8 217.431 09:58 08.08.2019
4020 Clouds 26 1016 83 16093 1.8 217.431 09:39 08.08.2019
4021 Clouds 26 1016 83 16093 1.98 242.905 09:20 08.08.2019
4022 Clouds 26 1016 78 16093 2.62 214.698 08:40 08.08.2019
4023 Clouds 27 1016 78 16093 2.62 214.698 08:21 08.08.2019
4024 Clouds 27 1016 78 16093 2.62 214.698 07:56 08.08.2019
4025 Clouds 27 1016 78 16093 2.62 214.698 07:37 08.08.2019
4026 Clouds 27 1016 78 16093 2.62 214.698 07:18 08.08.2019
4027 Clouds 27 1017 78 16093 1.5 150 06:41 08.08.2019
4028 Clouds 27 1017 74 16093 2.9 213.964 05:55 08.08.2019
4029 Clear 27 1017 83 16093 2.9 213.964 05:28 08.08.2019
4030 Clouds 27 1017 78 16093 2.1 150 03:59 08.08.2019
4031 Clouds 28 1016 78 16093 2.9 213.964 03:39 08.08.2019
4032 Clouds 29 1016 70 16093 2.6 110 01:42 08.08.2019
4033 Rain 29 1015 66 16093 2.63 213.11 00:57 08.08.2019
4034 Rain 29 1015 66 16093 5.23 152.896 00:21 08.08.2019
4035 Rain 28 1015 74 16093 5.23 152.896 23:23 07.08.2019
4036 Rain 28 1016 74 16093 3.1 260 23:00 07.08.2019
4037 Rain 28 1016 74 16093 3.1 260 22:41 07.08.2019
4038 Rain 28 1016 74 16093 3.1 260 22:21 07.08.2019
4039 Rain 29 1016 74 16093 6.2 240 21:58 07.08.2019
4040 Rain 30 1016 74 16093 6.2 240 21:40 07.08.2019
4041 Rain 30 1016 62 16093 3.1 60 21:21 07.08.2019
4042 Rain 31 1017 78 16093 3.1 250 20:59 07.08.2019
4043 Rain 31 1016 62 16093 3.6 100 20:41 07.08.2019
4044 Rain 31 1017 59 16093 2.6 70 20:20 07.08.2019
4045 Rain 31 1017 59 16093 2.6 70 20:20 07.08.2019
4046 Rain 31 1017 74 16093 3.1 110 19:55 07.08.2019
4047 Rain 31 1017 62 16093 1.94 224.77 19:36 07.08.2019
4048 Thunderstorm 31 1017 62 16093 5.7 150 19:18 07.08.2019
4049 Rain 32 1017 62 16093 4.1 140 18:40 07.08.2019
4050 Rain 32 1017 62 14484 3.1 150 18:20 07.08.2019
4051 Thunderstorm 32 1017 70 16093 4.6 130 17:56 07.08.2019
4052 Rain 32 1017 59 16093 2.1 0 17:38 07.08.2019
4053 Rain 31 1017 59 16093 2.1 0 17:19 07.08.2019
4054 Clouds 31 1017 66 16093 2.6 0 16:56 07.08.2019
4055 Clouds 31 1017 66 16093 2.6 0 16:56 07.08.2019
4056 Clouds 31 1017 66 16093 2.6 0 16:37 07.08.2019
4057 Clouds 30 1017 62 16093 2.6 170 16:18 07.08.2019
4058 Clouds 30 1017 74 16093 1.5 0 15:42 07.08.2019
4059 Clouds 29 1017 74 16093 1.5 0 15:20 07.08.2019
4060 Clouds 28 1017 78 16093 1.85 205.417 14:49 07.08.2019
4061 Clouds 27 1017 78 16093 1.85 205.417 14:30 07.08.2019
4062 Clear 26 1016 94 16093 1.85 205.417 13:59 07.08.2019
4063 Clouds 25 1016 88 16093 1.85 205.417 13:39 07.08.2019
4064 Clouds 25 1016 88 16093 1.89 230.975 13:19 07.08.2019
4065 Clouds 25 1016 83 16093 1.89 230.975 12:57 07.08.2019
4066 Clouds 25 1016 83 16093 1.89 230.975 12:38 07.08.2019
4067 Clouds 25 1016 83 16093 2.83 224.241 12:19 07.08.2019
4068 Clouds 25 1016 88 16093 2.83 224.241 11:55 07.08.2019
4069 Clouds 25 1016 88 16093 2.83 224.241 11:37 07.08.2019
4070 Clouds 25 1016 88 16093 2.83 224.241 11:18 07.08.2019
4071 Clouds 25 1016 83 16093 2.83 224.241 10:40 07.08.2019
4072 Clouds 25 1016 83 16093 2.83 224.241 10:19 07.08.2019
4073 Clear 25 1016 94 16093 2.83 224.241 09:48 07.08.2019
4074 Clouds 25 1016 78 16093 3.37 200.07 09:24 07.08.2019
4075 Clouds 26 1016 78 16093 3.37 200.07 08:59 07.08.2019
4076 Clouds 26 1016 83 16093 3.52 198.049 08:41 07.08.2019
4077 Clouds 26 1016 83 16093 3.52 198.049 08:23 07.08.2019
4078 Clouds 26 1016 83 16093 3.52 198.049 07:50 07.08.2019
4079 Clouds 26 1016 83 16093 3.52 198.049 07:29 07.08.2019
4080 Clouds 26 1016 83 16093 2.6 170 06:43 07.08.2019
4081 Clouds 27 1016 83 16093 2.6 170 06:21 07.08.2019
4082 Rain 27 1017 83 16093 3.6 180 05:41 07.08.2019
4083 Clouds 26 1017 78 16093 3.32 153.373 04:29 07.08.2019
4084 Clouds 27 1017 83 16093 2.1 40 02:54 07.08.2019
4085 Clouds 27 1017 83 16093 2.1 40 02:36 07.08.2019
4086 Clouds 27 1016 74 16093 1.5 30 01:50 07.08.2019
4087 Rain 27 1016 88 16093 1.5 60 00:54 07.08.2019
4088 Rain 27 1016 78 16093 2.76 43.722 00:24 07.08.2019
4089 Rain 27 1016 88 16093 3.1 20 23:57 06.08.2019
4090 Rain 27 1016 69 16093 1.5 330 23:36 06.08.2019
4091 Rain 27 1016 69 16093 1.5 330 23:18 06.08.2019
4092 Rain 27 1016 88 16093 4.1 10 22:40 06.08.2019
4093 Rain 27 1016 94 14484 2.1 260 22:21 06.08.2019
4094 Rain 28 1016 88 3219 6.2 220 21:57 06.08.2019
4095 Rain 29 1016 88 3219 6.2 220 21:38 06.08.2019
4096 Rain 30 1016 70 16093 2.58 243.156 21:19 06.08.2019
4097 Thunderstorm 30 1016 74 16093 1.5 110 20:43 06.08.2019
4098 Rain 31 1015 78 16093 4.1 210 20:24 06.08.2019
4099 Thunderstorm 32 1016 69 16093 5.7 90 19:49 06.08.2019
4100 Thunderstorm 32 1016 62 16093 2.1 190 19:29 06.08.2019
4101 Thunderstorm 32 1017 55 16093 3.6 290 18:57 06.08.2019
4102 Thunderstorm 32 1016 62 16093 4.1 300 18:39 06.08.2019
4103 Rain 32 1017 62 16093 3.1 0 18:20 06.08.2019
4104 Rain 32 1017 79 16093 4.6 190 17:57 06.08.2019
4105 Rain 32 1017 79 16093 4.6 190 17:37 06.08.2019
4106 Clouds 31 1017 59 16093 2.1 190 17:19 06.08.2019
4107 Clouds 31 1017 62 16093 2.1 180 16:44 06.08.2019
4108 Clouds 31 1016 74 16093 6.2 200 16:25 06.08.2019
4109 Rain 30 1017 70 16093 1.5 240 15:58 06.08.2019
4110 Rain 30 1017 74 16093 1.5 210 15:40 06.08.2019
4111 Rain 29 1017 74 16093 1.5 210 15:21 06.08.2019
4112 Rain 28 1016 78 16093 1.64 200.613 14:54 06.08.2019
4113 Rain 27 1016 78 16093 1.64 200.613 14:36 06.08.2019
4114 Rain 27 1016 78 16093 1.64 200.613 14:18 06.08.2019
4115 Clouds 25 1017 94 16093 1.64 200.613 13:45 06.08.2019
4116 Clouds 25 1017 94 16093 2 195.001 13:26 06.08.2019
4117 Clear 25 1016 100 16093 2 195.001 12:59 06.08.2019
4118 Clouds 25 1016 83 16093 2 195.001 12:39 06.08.2019
4119 Clouds 25 1016 83 16093 1.99 192.135 12:21 06.08.2019
4120 Clouds 25 1016 83 16093 1.99 192.135 12:21 06.08.2019
4121 Clouds 25 1016 83 16093 1.99 192.135 11:45 06.08.2019
4122 Clouds 25 1016 83 16093 1.99 192.135 11:20 06.08.2019
4123 Clouds 25 1016 74 16093 1.5 130 10:56 06.08.2019
4124 Clouds 26 1016 74 16093 1.5 130 10:38 06.08.2019
4125 Clouds 26 1016 74 16093 1.5 130 10:20 06.08.2019
4126 Clouds 26 1016 74 16093 2.1 120 09:41 06.08.2019
4127 Clouds 26 1016 74 16093 2.1 120 09:21 06.08.2019
4128 Clouds 26 1016 74 16093 2.1 120 09:21 06.08.2019
4129 Clouds 26 1016 74 16093 2.1 120 09:21 06.08.2019
4130 Clouds 26 1017 78 16093 2.6 140 08:49 06.08.2019
4131 Clouds 26 1017 78 16093 2.6 140 08:28 06.08.2019
4132 Clouds 25 1017 78 16093 2.96 133.561 07:59 06.08.2019
4133 Clouds 25 1017 78 16093 2.96 133.561 07:29 06.08.2019
4134 Clouds 25 1018 78 16093 2.96 133.561 06:44 06.08.2019
4135 Clouds 25 1018 78 16093 5.45 42.335 06:22 06.08.2019
4136 Clouds 25 1018 78 16093 5.45 42.335 05:23 06.08.2019
4137 Clouds 26 1017 78 16093 2.84 47.524 02:48 06.08.2019
4138 Rain 26 1016 69 16093 2.02 77.37 01:25 06.08.2019
4139 Rain 26 1017 74 16093 1.5 30 00:51 06.08.2019
4140 Rain 26 1016 88 16093 2.1 0 23:59 05.08.2019
4141 Rain 25 1017 78 16093 2.1 40 23:20 05.08.2019
4142 Rain 25 1017 78 16093 2.1 360 22:42 05.08.2019
4143 Rain 25 1017 78 16093 2.1 360 22:23 05.08.2019
4144 Rain 25 1017 88 8047 2.6 280 21:59 05.08.2019
4145 Rain 25 1018 88 16093 2.6 320 21:41 05.08.2019
4146 Rain 25 1018 83 16093 2.6 40 21:20 05.08.2019
4147 Rain 25 1018 83 16093 2.6 10 20:57 05.08.2019
4148 Rain 25 1018 83 16093 2.1 350 20:39 05.08.2019
4149 Rain 26 1018 78 16093 2.6 340 20:20 05.08.2019
4150 Rain 28 1018 74 16093 4.07 205.973 19:55 05.08.2019
4151 Thunderstorm 29 1017 74 11265 5.1 200 19:36 05.08.2019
4152 Rain 29 1017 74 11265 5.1 200 19:18 05.08.2019
4153 Rain 31 1018 59 0 2.6 290 18:40 05.08.2019
4154 Rain 31 1017 62 16093 2.6 290 18:19 05.08.2019
4155 Thunderstorm 31 1017 66 16093 1.5 0 17:47 05.08.2019
4156 Thunderstorm 31 1017 59 16093 1.5 0 17:29 05.08.2019
4157 Thunderstorm 31 1017 66 16093 3.6 230 16:58 05.08.2019
4158 Thunderstorm 30 1017 66 16093 3.6 230 16:40 05.08.2019
4159 Thunderstorm 30 1017 74 16093 1.5 0 16:22 05.08.2019
4160 Clouds 29 1017 88 16093 3.99 214.778 15:40 05.08.2019
4161 Clouds 28 1017 74 16093 1.5 0 15:20 05.08.2019
4162 Clouds 27 1017 78 16093 1.79 191.209 14:40 05.08.2019
4163 Clear 27 1017 94 16093 1.79 191.209 14:21 05.08.2019
4164 Clouds 26 1016 83 16093 1.5 300 13:48 05.08.2019
4165 Clouds 26 1016 83 16093 1.5 300 13:24 05.08.2019
4166 Thunderstorm 26 1016 94 16093 2.04 214.587 12:50 05.08.2019
4167 Clear 26 1016 88 16093 1.5 290 12:22 05.08.2019
4168 Clouds 26 1016 83 16093 2.14 221.418 11:55 05.08.2019
4169 Clouds 26 1016 83 16093 2.14 221.418 11:37 05.08.2019
4170 Clouds 26 1016 83 16093 2.14 221.418 11:18 05.08.2019
4171 Clouds 26 1015 83 16093 2.14 221.418 10:43 05.08.2019
4172 Clouds 26 1015 83 16093 2.14 221.418 10:25 05.08.2019
4173 Clouds 26 1015 88 16093 2.14 221.418 09:54 05.08.2019
4174 Clouds 26 1016 83 16093 2.14 221.418 09:36 05.08.2019
4175 Clouds 26 1016 83 16093 3.53 221.597 09:18 05.08.2019
4176 Clouds 26 1016 83 16093 1.5 140 08:41 05.08.2019
4177 Clouds 26 1016 83 16093 1.5 140 08:20 05.08.2019
4178 Clouds 26 1017 83 16093 3.09 222.782 07:47 05.08.2019
4179 Clouds 26 1017 83 16093 3.09 222.782 07:27 05.08.2019
4180 Clouds 26 1018 83 16093 1.5 180 06:41 05.08.2019
4181 Clouds 26 1017 83 16093 3.28 106.162 05:53 05.08.2019
4182 Clouds 26 1017 83 16093 3.28 106.162 05:22 05.08.2019
4183 Clouds 26 1017 83 16093 1.5 170 04:32 05.08.2019
4184 Clear 26 1017 88 16093 1.5 170 03:42 05.08.2019
4185 Clouds 27 1017 78 16093 2.49 40 02:37 05.08.2019
4186 Rain 27 1016 78 16093 1.5 40 01:40 05.08.2019
4187 Rain 27 1016 78 16093 1.5 40 01:40 05.08.2019
4188 Rain 27 1016 78 16093 1.5 40 01:40 05.08.2019
4189 Rain 27 1016 78 16093 4.22 235.895 00:56 05.08.2019
4190 Rain 27 1016 78 16093 4.22 235.895 00:37 05.08.2019
4191 Rain 27 1016 78 16093 5.15 250.183 00:18 05.08.2019
4192 Rain 27 1016 78 16093 5.15 250.183 23:41 04.08.2019
4193 Rain 27 1016 78 16093 5.15 250.183 23:21 04.08.2019
4194 Rain 26 1016 83 16093 2.1 110 22:57 04.08.2019
4195 Rain 26 1016 83 16093 2.1 110 22:37 04.08.2019
4196 Rain 26 1016 83 16093 2.1 110 22:19 04.08.2019
4197 Rain 26 1017 94 16093 1.5 170 21:45 04.08.2019
4198 Rain 25 1017 88 16093 4.31 224.013 21:23 04.08.2019
4199 Rain 27 1017 83 3219 2.6 200 20:57 04.08.2019
4200 Rain 27 1017 100 4828 2.6 90 20:38 04.08.2019
4201 Rain 28 1017 83 805 8.7 240 20:18 04.08.2019
4202 Thunderstorm 32 1016 62 16093 3.1 0 19:48 04.08.2019
4203 Thunderstorm 33 1017 55 16093 2.1 150 19:26 04.08.2019
4204 Clouds 33 1017 55 16093 4.1 180 18:44 04.08.2019
4205 Clouds 33 1017 55 16093 4.1 180 18:21 04.08.2019
4206 Clouds 33 1017 56 16093 4.1 260 17:59 04.08.2019
4207 Clouds 32 1017 62 16093 3.1 220 17:40 04.08.2019
4208 Clouds 32 1017 62 16093 3.1 220 17:21 04.08.2019
4209 Clouds 31 1017 66 16093 3.1 200 16:44 04.08.2019
4210 Clouds 31 1017 66 16093 3.1 200 16:26 04.08.2019
4211 Clouds 30 1017 79 16093 2.6 210 15:45 04.08.2019
4212 Clouds 29 1017 79 16093 2.6 210 15:23 04.08.2019
4213 Clear 28 1017 79 16093 3.1 210 14:57 04.08.2019
4214 Clouds 27 1016 83 16093 2.1 220 14:39 04.08.2019
4215 Clouds 27 1016 83 16093 2.1 220 14:20 04.08.2019
4216 Clouds 26 1016 88 16093 3.7 188.292 13:43 04.08.2019
4217 Clouds 26 1016 88 16093 3.39 190.7 13:23 04.08.2019
4218 Clouds 26 1016 88 16093 3.39 190.7 12:46 04.08.2019
4219 Clouds 26 1016 88 16093 3.69 191.797 12:27 04.08.2019
4220 Clouds 25 1015 88 16093 3.69 191.797 11:57 04.08.2019
4221 Clouds 25 1015 88 16093 3.69 191.797 11:37 04.08.2019
4222 Clouds 25 1015 88 16093 3.69 191.797 11:19 04.08.2019
4223 Clouds 25 1015 88 16093 3.69 191.797 11:19 04.08.2019
4224 Clear 25 1016 88 16093 3.69 191.797 10:41 04.08.2019
4225 Clear 25 1016 88 16093 3.69 191.797 10:21 04.08.2019
4226 Clouds 25 1015 88 16093 3.69 191.797 09:45 04.08.2019
4227 Clouds 25 1015 88 16093 3.78 189.988 09:23 04.08.2019
4228 Rain 26 1016 94 16093 2.1 170 08:48 04.08.2019
4229 Rain 25 1016 94 16093 2.1 170 08:27 04.08.2019
4230 Clouds 26 1016 88 16093 3.18 193.831 07:52 04.08.2019
4231 Clouds 25 1016 88 16093 3.18 193.831 07:22 04.08.2019
4232 Rain 25 1017 83 16093 3.18 193.831 06:28 04.08.2019
4233 Rain 25 1016 83 12874 2.1 100 04:43 04.08.2019
4234 Rain 26 1016 88 14484 1.5 290 02:47 04.08.2019
4235 Rain 25 1015 94 1609 5.1 250 01:44 04.08.2019
4236 Rain 25 1015 94 1609 5.1 250 01:25 04.08.2019
4237 Rain 25 1015 83 11265 1.5 250 00:41 04.08.2019
4238 Rain 26 1015 88 16093 5.4 227.913 00:21 04.08.2019
4239 Rain 26 1015 88 16093 5.4 227.913 23:41 03.08.2019
4240 Rain 26 1015 88 11265 2.6 350 23:19 03.08.2019
4241 Rain 26 1015 88 11265 2.6 350 23:19 03.08.2019
4242 Rain 26 1015 88 2816 5.7 110 22:55 03.08.2019
4243 Rain 27 1015 88 805 2.1 0 22:37 03.08.2019
4244 Rain 27 1014 88 16093 4.1 140 22:18 03.08.2019
4245 Rain 29 1014 70 16093 5.1 170 21:38 03.08.2019
4246 Rain 30 1014 74 16093 7.2 200 21:19 03.08.2019
4247 Rain 30 1015 69 1609 4.1 140 20:43 03.08.2019
4248 Rain 31 1014 78 4023 13.9 270 20:23 03.08.2019
4249 Rain 31 1015 78 16093 4.1 90 19:43 03.08.2019
4250 Rain 31 1015 78 16093 4.1 90 19:43 03.08.2019
4251 Rain 32 1015 59 16093 5.7 240 19:25 03.08.2019
4252 Rain 31 1015 74 16093 4.6 310 18:56 03.08.2019
4253 Rain 32 1016 66 16093 2.6 230 18:28 03.08.2019
4254 Rain 32 1016 66 16093 4.1 230 17:51 03.08.2019
4255 Rain 31 1015 70 16093 4.1 260 17:23 03.08.2019
4256 Rain 31 1015 83 9656 1.5 210 16:58 03.08.2019
4257 Thunderstorm 31 1015 62 16093 6.7 220 16:38 03.08.2019
4258 Rain 31 1015 79 16093 4.6 240 16:19 03.08.2019
4259 Clouds 30 1015 79 16093 2.6 200 15:45 03.08.2019
4260 Clouds 30 1015 79 16093 2.6 200 15:45 03.08.2019
4261 Clouds 29 1015 79 16093 2.6 200 15:24 03.08.2019
4262 Clouds 27 1014 83 16093 3.49 176.795 14:44 03.08.2019
4263 Clouds 27 1014 83 16093 3.49 176.795 14:23 03.08.2019
4264 Clouds 26 1014 83 16093 1.5 130 13:57 03.08.2019
4265 Clouds 26 1014 83 16093 1.5 130 13:36 03.08.2019
4266 Clouds 26 1014 83 16093 1.5 130 13:18 03.08.2019
4267 Clouds 26 1014 83 16093 1.5 120 12:41 03.08.2019
4268 Clouds 26 1014 83 16093 1.5 120 12:23 03.08.2019
4269 Rain 26 1014 83 16093 2.6 120 11:52 03.08.2019
4270 Rain 26 1014 83 16093 2.6 120 11:33 03.08.2019
4271 Rain 26 1014 83 16093 3.6 120 10:46 03.08.2019
4272 Rain 26 1014 83 16093 3.6 120 10:24 03.08.2019
4273 Rain 26 1014 88 11265 4.6 150 09:45 03.08.2019
4274 Rain 26 1014 83 11265 3.1 140 09:24 03.08.2019
4275 Rain 26 1014 94 16093 3.6 150 08:56 03.08.2019
4276 Rain 26 1015 78 16093 2.6 120 08:21 03.08.2019
4277 Rain 27 1015 78 16093 2.1 90 07:37 03.08.2019
4278 Clouds 27 1015 78 16093 3.1 90 06:40 03.08.2019
4279 Clear 26 1015 78 16093 1.5 70 05:44 03.08.2019
4280 Rain 27 1014 65 16093 1.5 60 02:43 03.08.2019
4281 Rain 27 1013 74 16093 2.59 199.45 01:54 03.08.2019
4282 Rain 27 1013 74 16093 2.05 268.77 00:56 03.08.2019
4283 Rain 28 1013 62 16093 2.05 268.77 00:29 03.08.2019
4284 Rain 28 1013 69 16093 2.1 250 23:41 02.08.2019
4285 Rain 28 1013 69 16093 2.1 250 23:20 02.08.2019
4286 Rain 27 1013 94 12874 4.1 280 22:57 02.08.2019
4287 Rain 27 1013 94 12874 4.1 280 22:57 02.08.2019
4288 Rain 27 1014 88 14484 9.3 270 22:39 02.08.2019
4289 Rain 27 1014 88 14484 9.3 270 22:20 02.08.2019
4290 Rain 29 1014 78 16093 8.7 290 21:55 02.08.2019
4291 Clouds 31 1013 55 16093 5.1 170 21:36 02.08.2019
4292 Clouds 31 1013 55 16093 5.1 170 21:18 02.08.2019
4293 Clouds 32 1014 59 16093 5.1 160 20:41 02.08.2019
4294 Clouds 32 1014 59 16093 5.1 160 20:21 02.08.2019
4295 Rain 31 1015 62 16093 2.6 0 19:49 02.08.2019
4296 Rain 31 1015 62 16093 2.6 0 19:29 02.08.2019
4297 Rain 30 1015 66 16093 3.1 130 18:45 02.08.2019
4298 Rain 30 1015 66 16093 3.1 130 18:27 02.08.2019
4299 Rain 30 1014 74 16093 3.1 130 17:48 02.08.2019
4300 Rain 29 1014 74 16093 3.1 130 17:26 02.08.2019
4301 Rain 29 1015 74 16093 4.1 150 16:59 02.08.2019
4302 Rain 28 1014 74 16093 4.6 150 16:39 02.08.2019
4303 Rain 28 1015 74 16093 4.1 140 16:20 02.08.2019
4304 Rain 27 1014 83 16093 3.1 110 15:45 02.08.2019
4305 Rain 26 1014 83 16093 3.1 110 15:20 02.08.2019
4306 Rain 25 1014 94 16093 2.6 120 14:47 02.08.2019
4307 Rain 25 1015 88 16093 2.62 143.897 14:19 02.08.2019
4308 Rain 25 1014 88 16093 2.6 30 13:50 02.08.2019
4309 Rain 24 1014 94 16093 2.97 153.521 13:29 02.08.2019
4310 Rain 24 1014 88 16093 1.5 20 12:47 02.08.2019
4311 Rain 24 1014 88 16093 1.5 20 12:25 02.08.2019
4312 Rain 24 1014 60 12874 2.9 102.402 11:59 02.08.2019
4313 Rain 24 1014 88 9656 2.9 102.402 11:40 02.08.2019
4314 Rain 24 1014 88 9656 2.9 102.402 11:22 02.08.2019
4315 Rain 24 1014 40 9656 2.1 10 10:44 02.08.2019
4316 Rain 25 1015 94 11265 3.6 150 10:24 02.08.2019
4317 Rain 25 1015 94 4828 4.1 210 09:53 02.08.2019
4318 Rain 26 1015 83 16093 4.1 210 09:29 02.08.2019
4319 Rain 26 1015 94 6437 4.6 190 08:54 02.08.2019
4320 Rain 27 1015 94 12874 4.6 190 08:25 02.08.2019
4321 Rain 27 1015 83 16093 4.1 150 07:54 02.08.2019
4322 Rain 28 1015 74 16093 4.1 100 07:35 02.08.2019
4323 Rain 28 1016 83 16093 2.6 60 06:58 02.08.2019
4324 Rain 27 1015 94 16093 6.7 90 06:27 02.08.2019
4325 Clouds 27 1016 83 16093 5.7 100 05:41 02.08.2019
4326 Clouds 27 1015 74 16093 3.1 80 03:32 02.08.2019
4327 Clouds 27 1015 74 16093 3.1 50 02:37 02.08.2019
4328 Clouds 27 1014 69 16093 3.1 50 01:34 02.08.2019
4329 Rain 28 1015 69 16093 2.1 60 00:31 02.08.2019
4330 Rain 28 1014 74 16093 5.1 80 23:44 01.08.2019
4331 Rain 28 1014 74 16093 5.1 80 23:24 01.08.2019
4332 Rain 28 1015 88 16093 4.1 40 22:42 01.08.2019
4333 Rain 28 1015 88 16093 4.1 40 22:22 01.08.2019
4334 Rain 28 1016 83 16093 2.6 70 21:55 01.08.2019
4335 Rain 28 1016 83 16093 2.6 70 21:37 01.08.2019
4336 Rain 27 1016 83 16093 2.6 70 21:19 01.08.2019
4337 Rain 27 1016 83 16093 3.1 160 20:44 01.08.2019
4338 Rain 27 1016 83 16093 3.1 160 20:23 01.08.2019
4339 Rain 27 1016 78 16093 4.1 150 19:45 01.08.2019
4340 Rain 27 1017 88 16093 2.1 150 19:23 01.08.2019
4341 Rain 27 1017 88 6437 3.1 130 18:58 01.08.2019
4342 Rain 28 1017 88 6437 3.1 130 18:40 01.08.2019
4343 Rain 28 1017 88 6437 3.1 130 18:40 01.08.2019
4344 Rain 28 1017 78 16093 8.7 110 18:21 01.08.2019
4345 Rain 28 1017 83 16093 3.1 0 17:45 01.08.2019
4346 Rain 28 1017 88 16093 3.1 130 17:26 01.08.2019
4347 Rain 27 1016 83 16093 2.6 80 16:44 01.08.2019
4348 Rain 27 1016 83 16093 2.6 80 16:22 01.08.2019
4349 Rain 27 1016 88 8047 6.2 60 15:46 01.08.2019
4350 Rain 27 1016 83 16093 5.1 90 15:20 01.08.2019
4351 Rain 27 1016 83 16093 1.5 70 14:55 01.08.2019
4352 Rain 26 1016 83 16093 1.5 70 14:37 01.08.2019
4353 Rain 26 1016 83 16093 3.92 98.785 14:18 01.08.2019
4354 Rain 26 1016 83 16093 1.5 20 13:41 01.08.2019
4355 Rain 25 1016 83 16093 1.5 20 13:22 01.08.2019
4356 Rain 25 1016 74 16093 2.6 350 12:58 01.08.2019
4357 Rain 25 1016 74 16093 2.6 350 12:40 01.08.2019
4358 Rain 25 1016 83 16093 2.6 10 12:21 01.08.2019
4359 Rain 26 1016 78 11265 6.2 60 11:41 01.08.2019
4360 Rain 26 1016 83 11265 5.7 90 11:22 01.08.2019
4361 Rain 26 1016 83 11265 5.7 90 11:22 01.08.2019
4362 Rain 27 1015 74 16093 4.6 50 10:45 01.08.2019
4363 Rain 27 1015 74 16093 3.1 100 10:27 01.08.2019
4364 Rain 28 1015 70 16093 1.5 20 09:56 01.08.2019
4365 Rain 27 1015 70 16093 1.5 20 09:38 01.08.2019
4366 Rain 27 1015 70 16093 1.5 20 09:20 01.08.2019
4367 Rain 28 1015 83 16093 2.1 90 08:42 01.08.2019
4368 Rain 28 1016 70 16093 4.6 90 08:19 01.08.2019
4369 Thunderstorm 28 1017 74 16093 7.7 40 07:46 01.08.2019
4370 Rain 28 1016 78 16093 2.1 60 07:22 01.08.2019
4371 Clouds 28 1017 74 16093 3.6 70 06:45 01.08.2019
4372 Clouds 28 1017 70 16093 2.1 60 05:48 01.08.2019
4373 Clear 29 1017 66 16093 2.6 70 03:53 01.08.2019
4374 Clouds 29 1016 62 16093 3.1 50 02:27 01.08.2019
4375 Clouds 30 1016 62 16093 3.6 80 00:42 01.08.2019
4376 Clouds 30 1016 62 16093 3.6 80 00:24 01.08.2019
4377 Clouds 31 1015 62 16093 6.2 80 23:42 31.07.2019
4378 Clouds 31 1015 62 16093 6.2 80 23:20 31.07.2019
4379 Rain 31 1016 55 16093 6.7 80 22:47 31.07.2019
4380 Rain 31 1016 55 16093 6.7 80 22:29 31.07.2019
4381 Clouds 31 1017 55 16093 5.1 120 21:45 31.07.2019
4382 Clouds 32 1017 55 16093 5.1 120 21:25 31.07.2019
4383 Clouds 32 1017 62 16093 9.3 100 20:58 31.07.2019
4384 Clouds 32 1017 62 16093 9.3 100 20:58 31.07.2019
4385 Thunderstorm 32 1017 66 16093 4.6 110 20:39 31.07.2019
4386 Thunderstorm 32 1017 62 16093 5.7 100 20:21 31.07.2019
4387 Thunderstorm 33 1017 66 16093 5.1 60 19:41 31.07.2019
4388 Thunderstorm 33 1017 66 16093 5.1 60 19:23 31.07.2019
4389 Clouds 32 1017 70 16093 5.7 90 18:53 31.07.2019
4390 Clouds 32 1018 55 16093 3.6 90 18:25 31.07.2019
4391 Clouds 32 1017 74 16093 5.1 40 17:57 31.07.2019
4392 Clouds 31 1018 59 16093 4.1 80 17:39 31.07.2019
4393 Clouds 31 1018 59 16093 4.1 80 17:19 31.07.2019
4394 Rain 30 1018 66 16093 2.1 40 16:42 31.07.2019
4395 Rain 30 1018 66 16093 2.1 40 16:20 31.07.2019
4396 Rain 28 1017 74 16093 3.16 103.257 15:44 31.07.2019
4397 Rain 27 1017 74 16093 1.86 101.612 15:24 31.07.2019
4398 Rain 27 1017 83 16093 1.86 101.612 14:43 31.07.2019
4399 Rain 26 1017 83 16093 1.5 10 14:22 31.07.2019
4400 Rain 26 1017 83 16093 1.5 30 13:58 31.07.2019
4401 Rain 26 1017 78 16093 2.1 0 13:38 31.07.2019
4402 Rain 26 1016 78 11265 2.1 250 13:20 31.07.2019
4403 Thunderstorm 27 1016 78 16093 1.5 350 12:45 31.07.2019
4404 Thunderstorm 27 1016 78 16093 1.5 350 12:45 31.07.2019
4405 Thunderstorm 27 1016 88 16093 1.21 110.783 12:27 31.07.2019
4406 Rain 27 1016 78 16093 1.5 340 11:59 31.07.2019
4407 Rain 27 1016 78 16093 1.5 340 11:38 31.07.2019
4408 Rain 27 1016 83 16093 1.08 100.22 11:19 31.07.2019
4409 Rain 28 1016 78 16093 1.08 100.22 10:41 31.07.2019
4410 Clouds 28 1016 74 16093 1.5 70 10:20 31.07.2019
4411 Rain 28 1015 83 16093 1.08 100.22 09:44 31.07.2019
4412 Rain 28 1015 83 16093 1.53 125.92 09:24 31.07.2019
4413 Clouds 28 1016 70 16093 2.6 100 08:57 31.07.2019
4414 Clouds 28 1016 70 16093 2.6 100 08:39 31.07.2019
4415 Clouds 28 1016 70 16093 2.6 100 08:20 31.07.2019
4416 Clouds 28 1017 66 16093 5.1 110 07:34 31.07.2019
4417 Clouds 29 1017 74 16093 3.6 100 06:32 31.07.2019
4418 Clouds 29 1017 74 16093 3.1 100 04:50 31.07.2019
4419 Clouds 30 1015 62 16093 3.1 110 01:48 31.07.2019
4420 Clouds 31 1015 70 16093 5.1 140 23:58 30.07.2019
4421 Clouds 31 1015 52 16093 2.6 0 23:39 30.07.2019
4422 Clouds 31 1015 52 16093 2.6 0 23:19 30.07.2019
4423 Thunderstorm 32 1016 55 16093 2.6 90 22:45 30.07.2019
4424 Thunderstorm 32 1016 55 16093 4.1 130 22:25 30.07.2019
4425 Thunderstorm 33 1016 52 16093 5.1 130 21:40 30.07.2019
4426 Thunderstorm 33 1016 52 16093 5.1 130 21:20 30.07.2019
4427 Thunderstorm 33 1016 52 16093 5.1 130 20:59 30.07.2019
4428 Clouds 33 1017 49 16093 1.5 0 20:41 30.07.2019
4429 Clouds 33 1017 49 16093 1.5 0 20:23 30.07.2019
4430 Clouds 33 1017 55 16093 3.1 90 19:56 30.07.2019
4431 Clouds 33 1017 55 16093 3.1 90 19:38 30.07.2019
4432 Clouds 32 1018 59 16093 3.1 0 18:56 30.07.2019
4433 Clouds 32 1018 59 16093 3.1 0 18:38 30.07.2019
4434 Clouds 32 1018 59 16093 3.1 0 18:18 30.07.2019
4435 Clear 31 1017 62 16093 2.6 80 17:41 30.07.2019
4436 Clear 30 1017 62 16093 2.6 80 17:19 30.07.2019
4437 Clouds 30 1017 74 16093 0.73 93.62 16:51 30.07.2019
4438 Clouds 29 1017 74 16093 0.73 93.62 16:21 30.07.2019
4439 Clouds 29 1017 78 16093 3.1 120 15:56 30.07.2019
4440 Clouds 28 1017 78 16093 3.1 120 15:37 30.07.2019
4441 Rain 27 1017 78 16093 3.1 120 15:18 30.07.2019
4442 Rain 26 1016 74 16093 0.52 202.007 14:41 30.07.2019
4443 Clouds 26 1016 74 16093 0.52 202.007 14:19 30.07.2019
4444 Rain 26 1016 78 16093 0.52 202.007 13:46 30.07.2019
4445 Rain 25 1017 78 16093 2.1 70 13:28 30.07.2019
4446 Rain 25 1016 78 16093 2.1 40 12:58 30.07.2019
4447 Rain 25 1016 78 16093 2.1 40 12:39 30.07.2019
4448 Rain 25 1016 78 16093 2.1 10 12:21 30.07.2019
4449 Rain 26 1016 74 16093 2.6 320 11:40 30.07.2019
4450 Clouds 26 1015 88 16093 3.1 320 11:20 30.07.2019
4451 Clouds 26 1015 78 16093 4.1 320 10:46 30.07.2019
4452 Clouds 26 1015 78 16093 4.6 310 10:27 30.07.2019
4453 Clear 27 1014 78 16093 1.5 130 09:50 30.07.2019
4454 Clear 26 1014 78 16093 1.5 130 09:31 30.07.2019
4455 Clouds 26 1015 83 16093 3.6 100 08:58 30.07.2019
4456 Clouds 25 1015 83 16093 3.6 100 08:31 30.07.2019
4457 Rain 25 1017 83 16093 1.5 90 07:48 30.07.2019
4458 Rain 25 1017 83 16093 1.5 90 07:29 30.07.2019
4459 Rain 24 1017 94 16093 12.3 270 06:48 30.07.2019
4460 Rain 25 1018 83 16093 3.1 250 06:22 30.07.2019
4461 Rain 26 1018 83 6437 5.7 300 05:33 30.07.2019
4462 Clouds 29 1016 66 16093 2.6 110 03:28 30.07.2019
4463 Clouds 31 1014 62 16093 4.6 130 01:20 30.07.2019
4464 Clouds 31 1015 59 16093 4.6 100 00:21 30.07.2019
4465 Clouds 32 1015 52 16093 3.1 120 23:46 29.07.2019
4466 Clouds 32 1015 52 16093 3.1 120 23:27 29.07.2019
4467 Thunderstorm 32 1015 55 16093 2.6 110 22:57 29.07.2019
4468 Thunderstorm 32 1015 55 16093 2.6 110 22:39 29.07.2019
4469 Thunderstorm 32 1015 55 16093 2.6 110 22:20 29.07.2019
4470 Thunderstorm 33 1015 55 16093 5.1 120 21:57 29.07.2019
4471 Thunderstorm 33 1015 55 16093 5.1 120 21:38 29.07.2019
4472 Thunderstorm 33 1016 55 16093 4.1 90 21:20 29.07.2019
4473 Thunderstorm 33 1016 59 16093 4.6 100 20:49 29.07.2019
4474 Thunderstorm 33 1016 59 16093 4.6 130 20:26 29.07.2019
4475 Clouds 33 1016 56 16093 4.1 120 19:59 29.07.2019
4476 Clouds 33 1017 55 16093 3.1 110 19:41 29.07.2019
4477 Clouds 33 1017 55 16093 3.1 110 19:20 29.07.2019
4478 Clouds 33 1017 55 16093 2.6 120 18:43 29.07.2019
4479 Clouds 33 1017 55 16093 2.6 120 18:22 29.07.2019
4480 Clouds 32 1017 55 16093 2.6 120 17:53 29.07.2019
4481 Clouds 32 1017 55 16093 2.6 120 17:35 29.07.2019
4482 Clouds 31 1017 66 16093 1.39 98.159 16:59 29.07.2019
4483 Clouds 31 1017 66 16093 1.39 98.159 16:40 29.07.2019
4484 Clouds 31 1017 66 16093 1.39 98.159 16:22 29.07.2019
4485 Clouds 31 1017 70 16093 1.39 98.159 15:52 29.07.2019
4486 Clouds 31 1017 70 16093 1.39 98.159 15:52 29.07.2019
4487 Clouds 31 1017 70 16093 1.39 98.159 15:52 29.07.2019
4488 Clouds 30 1017 70 16093 1.39 98.159 15:33 29.07.2019
4489 Clouds 29 1017 70 16093 2.02 82.738 14:56 29.07.2019
4490 Clouds 28 1017 70 16093 2.02 82.738 14:37 29.07.2019
4491 Clouds 28 1017 70 16093 2.02 82.738 14:19 29.07.2019
4492 Clouds 26 1017 74 16093 2.02 82.738 13:42 29.07.2019
4493 Clouds 26 1017 74 16093 0.74 75.099 13:23 29.07.2019
4494 Clouds 26 1016 74 16093 0.74 75.099 12:42 29.07.2019
4495 Clouds 26 1016 74 16093 0.42 266.415 12:24 29.07.2019
4496 Clouds 26 1016 83 16093 12.3 270 11:44 29.07.2019
4497 Clouds 26 1016 74 16093 0.42 266.415 11:22 29.07.2019
4498 Clouds 26 1016 74 16093 0.42 266.415 10:47 29.07.2019
4499 Clouds 26 1016 74 16093 0.42 266.415 10:25 29.07.2019
4500 Clouds 26 1016 69 16093 0.42 266.415 09:51 29.07.2019
4501 Clouds 26 1016 69 16093 0.42 266.415 09:28 29.07.2019
4502 Clouds 26 1017 69 16093 0.19 229.164 08:57 29.07.2019
4503 Clouds 26 1017 69 16093 1.83 121.521 08:32 29.07.2019
4504 Clouds 26 1018 65 16093 1.83 121.521 07:59 29.07.2019
4505 Clouds 26 1018 65 16093 1.83 121.521 07:36 29.07.2019
4506 Clouds 27 1018 65 16093 1.83 121.521 06:53 29.07.2019
4507 Clouds 27 1018 65 16093 3.06 103.551 05:46 29.07.2019
4508 Clouds 27 1018 61 16093 3.06 103.551 04:53 29.07.2019
4509 Clouds 29 1017 48 16093 2.18 74.664 02:26 29.07.2019
4510 Clouds 29 1017 58 16093 1.5 0 01:43 29.07.2019
4511 Thunderstorm 29 1017 58 16093 1.5 0 01:22 29.07.2019
4512 Thunderstorm 29 1018 74 16093 1.5 260 00:43 29.07.2019
4513 Thunderstorm 30 1018 74 16093 1.5 260 00:20 29.07.2019
4514 Thunderstorm 31 1018 55 16093 2.1 0 23:41 28.07.2019
4515 Thunderstorm 31 1018 55 16093 2.6 60 23:18 28.07.2019
4516 Thunderstorm 31 1018 78 16093 5.1 360 22:40 28.07.2019
4517 Thunderstorm 31 1018 62 16093 1.5 160 22:22 28.07.2019
4518 Thunderstorm 32 1018 66 16093 4.1 100 21:48 28.07.2019
4519 Thunderstorm 33 1018 58 16093 4.1 90 21:19 28.07.2019
4520 Thunderstorm 33 1018 59 16093 3.6 80 20:48 28.07.2019
4521 Rain 33 1019 59 16093 2.6 100 20:29 28.07.2019
4522 Thunderstorm 33 1019 50 16093 2.1 340 19:54 28.07.2019
4523 Rain 33 1019 59 16093 3.6 110 19:36 28.07.2019
4524 Clouds 33 1019 49 16093 1.5 100 19:18 28.07.2019
4525 Clouds 33 1020 55 16093 2.1 0 18:42 28.07.2019
4526 Clouds 33 1020 55 16093 2.1 0 18:19 28.07.2019
4527 Clouds 33 1020 58 16093 1.5 250 17:42 28.07.2019
4528 Clouds 32 1020 58 16093 1.5 250 17:22 28.07.2019
4529 Clouds 32 1020 59 16093 1.5 30 16:57 28.07.2019
4530 Clouds 32 1020 62 16093 1.2 357.469 16:39 28.07.2019
4531 Clouds 31 1020 62 16093 1.2 357.469 16:20 28.07.2019
4532 Clouds 31 1019 70 16093 1.5 300 15:43 28.07.2019
4533 Clouds 31 1019 70 16093 1.5 300 15:43 28.07.2019
4534 Clouds 30 1019 70 16093 1.5 300 15:21 28.07.2019
4535 Clouds 28 1020 78 16093 1.5 310 14:38 28.07.2019
4536 Clouds 28 1020 78 16093 1.5 310 14:19 28.07.2019
4537 Clouds 27 1019 83 16093 1.16 349.58 13:45 28.07.2019
4538 Clouds 26 1019 83 16093 1.22 309.601 13:25 28.07.2019
4539 Clear 26 1019 100 16093 1.22 309.601 12:59 28.07.2019
4540 Clouds 26 1019 83 16093 1.22 309.601 12:40 28.07.2019
4541 Clouds 26 1019 83 16093 1.15 181.345 12:22 28.07.2019
4542 Clouds 26 1019 78 16093 1.15 181.345 11:48 28.07.2019
4543 Clouds 26 1019 78 16093 1.15 181.345 11:27 28.07.2019
4544 Clouds 26 1019 78 16093 1.15 181.345 10:42 28.07.2019
4545 Clouds 26 1019 78 16093 1.15 181.345 10:22 28.07.2019
4546 Clouds 26 1018 83 16093 1.15 181.345 09:54 28.07.2019
4547 Clouds 26 1018 83 16093 1.15 181.345 09:36 28.07.2019
4548 Clouds 26 1019 74 16093 1.5 20 09:18 28.07.2019
4549 Clouds 26 1020 78 16093 2.1 40 08:41 28.07.2019
4550 Clouds 27 1020 78 16093 2.1 40 08:18 28.07.2019
4551 Thunderstorm 27 1020 83 16093 2.95 159.791 07:38 28.07.2019
4552 Thunderstorm 27 1020 78 16093 3.1 130 06:46 28.07.2019
4553 Thunderstorm 27 1021 74 16093 1.5 120 05:53 28.07.2019
4554 Clouds 27 1020 78 16093 1.5 290 03:39 28.07.2019
4555 Clouds 28 1020 74 16093 1.36 157.26 02:24 28.07.2019
4556 Rain 28 1019 74 16093 3.1 0 01:21 28.07.2019
4557 Rain 28 1019 83 16093 12.3 270 00:47 28.07.2019
4558 Thunderstorm 29 1020 74 1207 10.8 280 00:22 28.07.2019
4559 Rain 30 1019 88 16093 5.1 80 23:46 27.07.2019
4560 Rain 30 1019 59 16093 4.1 120 23:22 27.07.2019
4561 Rain 32 1019 52 16093 3.1 150 22:42 27.07.2019
4562 Rain 32 1019 52 16093 4.1 120 22:23 27.07.2019
4563 Thunderstorm 33 1019 49 16093 0.75 254.598 21:43 27.07.2019
4564 Thunderstorm 33 1019 58 16093 5.1 140 21:22 27.07.2019
4565 Thunderstorm 33 1020 59 16093 2.1 0 20:53 27.07.2019
4566 Clouds 33 1020 55 16093 3.1 120 20:26 27.07.2019
4567 Clouds 33 1021 59 16093 3.6 120 19:58 27.07.2019
4568 Clouds 33 1021 59 16093 3.6 120 19:38 27.07.2019
4569 Clouds 33 1021 59 16093 3.6 120 19:19 27.07.2019
4570 Clouds 33 1021 55 16093 2.1 100 18:45 27.07.2019
4571 Clouds 33 1021 55 16093 2.1 100 18:27 27.07.2019
4572 Clouds 32 1022 62 16093 2.1 90 17:42 27.07.2019
4573 Clouds 32 1022 66 16093 0.99 206.746 17:24 27.07.2019
4574 Clouds 31 1022 62 16093 0.99 206.746 16:53 27.07.2019
4575 Clouds 31 1022 62 16093 0.99 206.746 16:34 27.07.2019
4576 Clouds 30 1021 74 16093 0.99 206.746 15:56 27.07.2019
4577 Clouds 29 1021 74 16093 0.99 206.746 15:28 27.07.2019
4578 Clouds 27 1021 83 16093 1.5 40 14:53 27.07.2019
4579 Clouds 27 1021 83 16093 1.5 40 14:34 27.07.2019
4580 Clouds 25 1021 83 16093 1.5 40 13:59 27.07.2019
4581 Clouds 25 1020 83 16093 0.56 31.735 13:41 27.07.2019
4582 Clouds 25 1020 83 16093 0.33 341.123 13:21 27.07.2019
4583 Clouds 25 1020 83 16093 0.33 341.123 12:49 27.07.2019
4584 Clouds 24 1020 83 16093 0.33 341.123 12:26 27.07.2019
4585 Clouds 24 1019 88 16093 1.25 315.713 11:46 27.07.2019
4586 Clouds 24 1019 88 16093 1.25 315.713 11:25 27.07.2019
4587 Clouds 25 1019 88 16093 1.25 315.713 10:57 27.07.2019
4588 Clouds 25 1019 88 16093 1.25 315.713 10:39 27.07.2019
4589 Clouds 25 1019 88 16093 1.25 315.713 10:19 27.07.2019
4590 Clouds 25 1020 83 16093 1.5 300 09:40 27.07.2019
4591 Clouds 25 1020 83 16093 1.5 300 09:22 27.07.2019
4592 Clouds 25 1020 83 16093 1.76 170.238 08:47 27.07.2019
4593 Clouds 25 1020 83 16093 1.76 170.238 08:27 27.07.2019
4594 Rain 25 1021 78 16093 1.76 170.238 07:47 27.07.2019
4595 Rain 25 1021 78 16093 1.76 170.238 07:27 27.07.2019
4596 Rain 25 1021 78 16093 1.5 60 06:55 27.07.2019
4597 Rain 25 1021 78 16093 1.5 60 06:29 27.07.2019
4598 Rain 25 1021 83 16093 1.75 43.236 05:43 27.07.2019
4599 Rain 25 1021 83 16093 1.75 43.236 04:59 27.07.2019
4600 Rain 25 1021 78 16093 1.75 43.236 04:25 27.07.2019
4601 Rain 26 1021 94 805 4.6 30 02:44 27.07.2019
4602 Rain 27 1020 78 16093 6.7 350 02:26 27.07.2019
4603 Thunderstorm 29 1019 70 16093 1.16 2.771 01:43 27.07.2019
4604 Clouds 31 1019 59 16093 3.1 130 00:57 27.07.2019
4605 Clouds 31 1019 59 16093 3.1 130 00:32 27.07.2019
4606 Clouds 31 1019 59 16093 3.1 140 23:51 26.07.2019
4607 Clouds 31 1019 59 16093 3.1 140 23:32 26.07.2019
4608 Rain 30 1020 62 16093 1.5 0 22:56 26.07.2019
4609 Rain 30 1020 62 16093 1.5 0 22:38 26.07.2019
4610 Rain 30 1020 62 16093 1.5 0 22:20 26.07.2019
4611 Rain 29 1019 78 16093 4.19 242.749 21:44 26.07.2019
4612 Rain 29 1020 88 16093 2.54 229.766 21:18 26.07.2019
4613 Rain 30 1019 62 16093 6.7 120 20:42 26.07.2019
4614 Rain 30 1019 62 16093 6.7 120 20:42 26.07.2019
4615 Rain 31 1020 78 11265 3.6 340 20:22 26.07.2019
4616 Thunderstorm 32 1020 59 16093 5.1 140 19:43 26.07.2019
4617 Thunderstorm 33 1020 59 16093 2.1 110 19:24 26.07.2019
4618 Clouds 33 1021 59 16093 4.1 90 18:56 26.07.2019
4619 Thunderstorm 32 1021 59 16093 4.1 90 18:36 26.07.2019
4620 Thunderstorm 32 1021 59 16093 4.1 90 18:18 26.07.2019
4621 Clouds 32 1021 58 16093 2.6 250 17:42 26.07.2019
4622 Clouds 31 1021 58 16093 2.6 250 17:19 26.07.2019
4623 Clouds 31 1020 79 16093 2.1 20 16:56 26.07.2019
4624 Clouds 31 1020 58 16093 2.43 210.621 16:37 26.07.2019
4625 Clouds 30 1020 58 16093 2.43 210.621 16:18 26.07.2019
4626 Clouds 30 1020 70 16093 2.43 210.621 15:45 26.07.2019
4627 Clouds 29 1020 70 16093 1.2 220.965 15:23 26.07.2019
4628 Clouds 28 1020 78 16093 1.2 220.965 14:58 26.07.2019
4629 Clouds 27 1020 78 16093 1.2 220.965 14:40 26.07.2019
4630 Clouds 27 1020 78 16093 1.2 220.965 14:21 26.07.2019
4631 Clouds 25 1019 83 16093 1.2 220.965 13:40 26.07.2019
4632 Clouds 24 1019 83 16093 1.61 218.199 13:21 26.07.2019
4633 Clouds 24 1019 94 16093 1.61 218.199 12:45 26.07.2019
4634 Clouds 24 1019 94 16093 1.5 218.009 12:20 26.07.2019
4635 Clouds 24 1018 88 16093 1.5 218.009 11:40 26.07.2019
4636 Clouds 24 1018 88 16093 1.5 218.009 11:20 26.07.2019
4637 Clouds 24 1018 88 16093 1.5 218.009 10:55 26.07.2019
4638 Clouds 24 1018 88 16093 1.5 218.009 10:36 26.07.2019
4639 Clouds 24 1018 88 16093 1.5 218.009 09:55 26.07.2019
4640 Clouds 24 1018 88 16093 1.5 218.009 09:36 26.07.2019
4641 Clouds 24 1019 88 16093 2 156.3 08:44 26.07.2019
4642 Clouds 24 1019 88 16093 2 156.3 08:22 26.07.2019
4643 Clouds 24 1019 88 16093 2 156.3 07:59 26.07.2019
4644 Clouds 24 1019 88 16093 2 156.3 07:29 26.07.2019
4645 Clouds 24 1020 83 16093 2 156.3 06:53 26.07.2019
4646 Clouds 25 1020 78 16093 2.37 146.29 05:23 26.07.2019
4647 Clouds 25 1019 78 16093 2.37 146.29 04:22 26.07.2019
4648 Clouds 25 1019 78 16093 4.97 97.814 02:45 26.07.2019
4649 Rain 25 1018 78 16093 1.5 200 01:43 26.07.2019
4650 Rain 25 1017 83 16093 2.6 130 00:45 26.07.2019
4651 Rain 24 1018 83 9656 2.1 80 23:57 25.07.2019
4652 Rain 24 1019 88 16093 2.6 100 23:24 25.07.2019
4653 Rain 24 1018 94 16093 1.5 170 22:58 25.07.2019
4654 Rain 24 1018 94 16093 1.5 170 22:39 25.07.2019
4655 Rain 24 1019 88 16093 4.1 140 22:20 25.07.2019
4656 Rain 25 1019 88 9656 3.6 140 21:44 25.07.2019
4657 Rain 27 1019 88 2414 1.5 200 21:21 25.07.2019
4658 Rain 27 1019 88 2414 1.5 200 21:21 25.07.2019
4659 Rain 29 1019 78 16093 4.6 90 20:48 25.07.2019
4660 Thunderstorm 31 1017 55 16093 5.7 130 20:23 25.07.2019
4661 Rain 32 1018 46 16093 4.1 120 19:44 25.07.2019
4662 Rain 32 1018 46 16093 4.1 120 19:44 25.07.2019
4663 Rain 33 1018 58 16093 6.7 340 19:26 25.07.2019
4664 Clouds 33 1018 52 16093 2.6 310 18:58 25.07.2019
4665 Clouds 33 1018 52 16093 2.6 310 18:39 25.07.2019
4666 Clouds 33 1018 52 16093 2.6 310 18:20 25.07.2019
4667 Clouds 32 1018 55 16093 3.01 240.755 17:44 25.07.2019
4668 Clouds 32 1018 55 16093 3.01 240.755 17:24 25.07.2019
4669 Clouds 31 1017 58 16093 2.6 180 16:45 25.07.2019
4670 Clouds 31 1017 58 16093 2.6 180 16:26 25.07.2019
4671 Clouds 30 1017 74 16093 3.6 200 15:56 25.07.2019
4672 Clouds 29 1017 74 16093 3.6 200 15:21 25.07.2019
4673 Clouds 29 1017 74 16093 3.6 200 14:59 25.07.2019
4674 Clouds 28 1016 69 16093 2.6 210 14:40 25.07.2019
4675 Clouds 27 1016 69 16093 2.6 210 14:21 25.07.2019
4676 Clouds 26 1016 78 16093 2.1 180 13:43 25.07.2019
4677 Clouds 26 1016 78 16093 2.1 180 13:25 25.07.2019
4678 Clouds 26 1016 78 16093 1.5 170 12:39 25.07.2019
4679 Clouds 26 1016 78 16093 1.5 170 12:21 25.07.2019
4680 Clouds 26 1016 74 16093 1.58 271.852 11:41 25.07.2019
4681 Clouds 26 1016 74 16093 1.58 271.852 11:23 25.07.2019
4682 Thunderstorm 26 1016 78 16093 2.6 240 10:45 25.07.2019
4683 Rain 26 1016 78 16093 2.6 240 10:26 25.07.2019
4684 Thunderstorm 27 1016 83 16093 2.1 170 09:52 25.07.2019
4685 Thunderstorm 27 1017 83 16093 5.7 130 09:34 25.07.2019
4686 Thunderstorm 27 1017 83 16093 2.6 190 08:53 25.07.2019
4687 Thunderstorm 27 1018 74 16093 3.1 90 08:33 25.07.2019
4688 Clear 27 1017 74 16093 1.66 330.862 07:42 25.07.2019
4689 Clear 27 1017 74 16093 1.66 330.862 07:24 25.07.2019
4690 Clouds 27 1018 74 16093 1.5 30 06:40 25.07.2019
4691 Clouds 27 1017 70 16093 2.6 30 05:37 25.07.2019
4692 Clouds 28 1017 70 16093 1.5 0 04:53 25.07.2019
4693 Clouds 29 1016 66 16093 3.1 230 03:32 25.07.2019
4694 Rain 32 1015 55 16093 3.6 260 01:26 25.07.2019
4695 Rain 33 1014 49 16093 5.7 270 00:37 25.07.2019
4696 Rain 33 1014 52 16093 4.6 270 00:18 25.07.2019
4697 Thunderstorm 34 1014 55 16093 5.1 250 23:43 24.07.2019
4698 Thunderstorm 34 1014 55 16093 5.1 250 23:24 24.07.2019
4699 Rain 34 1014 55 16093 6.2 250 22:45 24.07.2019
4700 Rain 34 1014 58 16093 2.6 270 22:23 24.07.2019
4701 Rain 34 1014 47 16093 6.7 250 21:56 24.07.2019
4702 Rain 34 1014 55 16093 6.2 240 21:38 24.07.2019
4703 Rain 34 1015 52 16093 6.2 250 21:19 24.07.2019
4704 Clouds 34 1015 55 16093 8.2 260 20:47 24.07.2019
4705 Clouds 34 1015 55 16093 8.2 260 20:29 24.07.2019
4706 Clouds 34 1015 70 16093 6.2 230 19:59 24.07.2019
4707 Clear 34 1015 55 16093 4.6 240 19:40 24.07.2019
4708 Rain 34 1015 70 16093 6.2 230 19:20 24.07.2019
4709 Haze 33 1016 59 16093 4.6 200 18:43 24.07.2019
4710 Rain 33 1016 59 16093 4.6 200 18:24 24.07.2019
4711 Rain 32 1016 66 16093 6.2 210 17:48 24.07.2019
4712 Rain 32 1016 66 16093 6.2 210 17:23 24.07.2019
4713 Clear 31 1016 66 16093 4.6 220 16:57 24.07.2019
4714 Clear 31 1016 66 16093 4.6 220 16:39 24.07.2019
4715 Clear 31 1016 66 16093 4.6 220 16:20 24.07.2019
4716 Clouds 30 1016 88 16093 3.1 210 15:37 24.07.2019
4717 Clouds 29 1016 88 16093 3.1 210 15:19 24.07.2019
4718 Clouds 28 1016 88 16093 2.6 240 14:45 24.07.2019
4719 Clouds 28 1016 88 16093 2.6 240 14:21 24.07.2019
4720 Clouds 26 1015 88 16093 2.1 240 13:40 24.07.2019
4721 Clouds 26 1015 88 16093 2.1 240 13:19 24.07.2019
4722 Clouds 26 1015 88 16093 3.1 200 12:53 24.07.2019
4723 Clouds 26 1015 88 16093 3.1 200 12:34 24.07.2019
4724 Clouds 25 1015 100 16093 2.6 190 11:55 24.07.2019
4725 Clouds 25 1015 100 16093 2.6 190 11:36 24.07.2019
4726 Clouds 25 1015 100 16093 2.6 190 11:18 24.07.2019
4727 Clouds 26 1015 88 16093 2.1 220 10:39 24.07.2019
4728 Clouds 26 1015 88 16093 2.1 220 10:18 24.07.2019
4729 Clouds 26 1015 83 16093 2.6 200 09:43 24.07.2019
4730 Clouds 26 1015 83 16093 2.6 200 09:22 24.07.2019
4731 Clouds 26 1016 78 16093 2.1 240 08:43 24.07.2019
4732 Clouds 26 1016 78 16093 2.1 240 08:22 24.07.2019
4733 Clouds 26 1016 78 16093 2.1 240 07:46 24.07.2019
4734 Clouds 26 1016 78 16093 2.1 240 07:20 24.07.2019
4735 Rain 26 1017 88 16093 3.37 224.712 06:28 24.07.2019
4736 Clouds 26 1016 88 16093 3.1 170 05:24 24.07.2019
4737 Rain 26 1015 83 16093 1.5 150 01:55 24.07.2019
4738 Rain 26 1014 83 16093 3.1 80 00:58 24.07.2019
4739 Rain 26 1014 88 16093 1.5 170 00:39 24.07.2019
4740 Rain 27 1015 94 16093 3.6 170 23:57 23.07.2019
4741 Rain 28 1015 94 8047 4.6 180 23:37 23.07.2019
4742 Rain 28 1015 88 9656 5.7 170 23:18 23.07.2019
4743 Rain 30 1016 100 3219 12.9 340 22:38 23.07.2019
4744 Rain 31 1014 62 16093 7.7 150 22:19 23.07.2019
4745 Thunderstorm 32 1014 55 16093 6.2 150 21:45 23.07.2019
4746 Thunderstorm 33 1014 56 16093 5.1 160 21:27 23.07.2019
4747 Thunderstorm 33 1015 59 16093 4.1 220 20:49 23.07.2019
4748 Thunderstorm 33 1015 47 16093 2.1 0 20:30 23.07.2019
4749 Clouds 33 1016 49 16093 3.6 230 19:44 23.07.2019
4750 Clouds 33 1016 49 16093 3.6 230 19:24 23.07.2019
4751 Clouds 33 1016 52 16093 3.1 0 18:59 23.07.2019
4752 Clouds 33 1016 52 16093 3.1 0 18:40 23.07.2019
4753 Clouds 33 1016 52 16093 3.1 0 18:40 23.07.2019
4754 Clouds 33 1016 52 16093 3.1 0 18:20 23.07.2019
4755 Clouds 32 1016 49 16093 1.5 210 17:43 23.07.2019
4756 Clouds 32 1016 49 16093 1.5 210 17:22 23.07.2019
4757 Clouds 31 1016 58 16093 2.6 190 16:48 23.07.2019
4758 Clouds 30 1016 58 16093 2.6 190 16:27 23.07.2019
4759 Clouds 29 1016 66 16093 2.6 220 15:52 23.07.2019
4760 Clouds 29 1016 66 16093 2.6 220 15:34 23.07.2019
4761 Clear 28 1016 78 16093 3.1 280 14:59 23.07.2019
4762 Clouds 27 1016 74 16093 1.6 250.739 14:37 23.07.2019
4763 Clouds 26 1016 74 16093 1.6 250.739 14:18 23.07.2019
4764 Clouds 25 1016 78 16093 1.6 250.739 13:56 23.07.2019
4765 Clouds 25 1016 78 16093 1.6 250.739 13:37 23.07.2019
4766 Clouds 25 1016 78 16093 1.55 228.946 13:19 23.07.2019
4767 Clouds 25 1015 78 16093 1.5 280 12:42 23.07.2019
4768 Clouds 25 1015 78 16093 1.5 280 12:24 23.07.2019
4769 Clouds 25 1015 83 16093 1.66 290.143 11:42 23.07.2019
4770 Clouds 25 1015 83 16093 1.66 290.143 11:23 23.07.2019
4771 Clouds 25 1015 83 16093 1.5 230 10:51 23.07.2019
4772 Clouds 25 1015 83 16093 1.5 230 10:25 23.07.2019
4773 Clouds 25 1015 78 16093 1.5 240 09:44 23.07.2019
4774 Clouds 25 1015 78 16093 1.5 240 09:22 23.07.2019
4775 Clouds 25 1015 78 16093 2.15 316.849 08:57 23.07.2019
4776 Clouds 25 1015 78 16093 1.5 237.849 08:38 23.07.2019
4777 Clouds 25 1015 78 16093 1.5 237.849 08:18 23.07.2019
4778 Clouds 26 1015 74 16093 1.5 300 07:44 23.07.2019
4779 Clouds 26 1015 74 16093 1.5 300 07:26 23.07.2019
4780 Clouds 26 1016 74 16093 1.5 290 06:37 23.07.2019
4781 Clouds 26 1016 78 16093 2.1 330 04:51 23.07.2019
4782 Clouds 28 1015 62 16093 2.1 60 01:55 23.07.2019
4783 Rain 29 1015 70 16093 4.6 70 00:54 23.07.2019
4784 Rain 29 1015 66 16093 0.29 299.131 00:26 23.07.2019
4785 Thunderstorm 30 1015 66 16093 1.5 290 23:40 22.07.2019
4786 Thunderstorm 31 1015 66 16093 1.5 290 23:21 22.07.2019
4787 Thunderstorm 31 1015 58 16093 7.2 90 22:46 22.07.2019
4788 Thunderstorm 31 1015 58 16093 7.2 90 22:27 22.07.2019
4789 Thunderstorm 31 1015 65 16093 5.1 340 21:58 22.07.2019
4790 Thunderstorm 32 1015 59 16093 7.2 80 21:40 22.07.2019
4791 Thunderstorm 32 1015 55 16093 7.7 100 21:20 22.07.2019
4792 Clouds 32 1016 55 16093 4.1 50 20:44 22.07.2019
4793 Clouds 32 1016 55 16093 4.1 50 20:23 22.07.2019
4794 Clouds 33 1016 52 16093 2.6 0 19:43 22.07.2019
4795 Clouds 33 1016 52 16093 2.6 0 19:24 22.07.2019
4796 Clouds 33 1017 52 16093 2.6 0 18:57 22.07.2019
4797 Clouds 32 1017 52 16093 2.6 0 18:39 22.07.2019
4798 Clouds 32 1017 52 16093 2.6 0 18:21 22.07.2019
4799 Clouds 32 1017 52 16093 4.6 100 17:41 22.07.2019
4800 Clouds 32 1017 52 16093 4.6 100 17:23 22.07.2019
4801 Clouds 31 1017 55 16093 4.1 70 16:41 22.07.2019
4802 Clouds 31 1017 55 16093 4.1 70 16:21 22.07.2019
4803 Clouds 30 1017 66 16093 2.6 70 15:58 22.07.2019
4804 Clouds 30 1017 66 16093 2.6 70 15:37 22.07.2019
4805 Clouds 29 1017 66 16093 2.6 70 15:18 22.07.2019
4806 Clouds 28 1017 74 16093 1.5 0 14:42 22.07.2019
4807 Clouds 28 1017 74 16093 1.5 0 14:20 22.07.2019
4808 Clouds 26 1016 78 16093 1.5 0 13:46 22.07.2019
4809 Clouds 26 1016 78 16093 1.5 0 13:28 22.07.2019
4810 Clouds 25 1016 78 16093 2.81 74.777 12:45 22.07.2019
4811 Clouds 25 1016 78 16093 2.52 79.671 12:25 22.07.2019
4812 Clouds 25 1016 78 16093 1.5 20 11:45 22.07.2019
4813 Clouds 25 1016 78 16093 1.5 20 11:24 22.07.2019
4814 Clouds 25 1016 74 16093 1.5 20 10:48 22.07.2019
4815 Clouds 25 1016 74 16093 1.5 20 10:29 22.07.2019
4816 Clouds 25 1016 74 16093 2.6 340 09:44 22.07.2019
4817 Clouds 25 1016 74 16093 2.6 340 09:25 22.07.2019
4818 Clouds 25 1017 74 16093 1.37 43.37 08:47 22.07.2019
4819 Clouds 26 1017 74 16093 1.37 43.37 08:26 22.07.2019
4820 Clouds 26 1018 74 16093 1.37 43.37 07:58 22.07.2019
4821 Clouds 26 1018 74 16093 1.37 43.37 07:40 22.07.2019
4822 Clouds 26 1018 74 16093 1.37 43.37 07:21 22.07.2019
4823 Clouds 27 1018 69 16093 2.1 330 03:57 22.07.2019
4824 Clouds 28 1018 69 16093 3.1 310 02:42 22.07.2019
4825 Clouds 30 1017 58 16093 3.6 120 00:57 22.07.2019
4826 Clouds 31 1017 58 16093 3.6 120 00:28 22.07.2019
4827 Clouds 31 1016 55 16093 4.6 120 23:56 21.07.2019
4828 Clouds 31 1016 55 16093 4.6 120 23:36 21.07.2019
4829 Clouds 32 1017 59 16093 7.2 120 22:54 21.07.2019
4830 Clouds 32 1017 59 16093 7.2 120 22:36 21.07.2019
4831 Clouds 32 1017 59 16093 7.2 120 22:18 21.07.2019
4832 Drizzle 32 1017 62 16093 5.1 120 21:43 21.07.2019
4833 Drizzle 32 1017 62 16093 5.1 120 21:22 21.07.2019
4834 Clouds 32 1018 52 16093 6.2 120 20:54 21.07.2019
4835 Clouds 32 1018 52 16093 6.2 120 20:36 21.07.2019
4836 Clouds 32 1018 52 16093 6.2 120 20:36 21.07.2019
4837 Clouds 32 1018 52 16093 6.2 120 20:18 21.07.2019
4838 Clouds 32 1019 55 16093 5.7 100 19:44 21.07.2019
4839 Clouds 32 1019 55 16093 5.7 100 19:22 21.07.2019
4840 Clouds 32 1018 55 16093 4.6 100 18:48 21.07.2019
4841 Clouds 32 1018 55 16093 4.6 100 18:26 21.07.2019
4842 Clouds 32 1018 55 16093 5.1 120 17:43 21.07.2019
4843 Clouds 32 1018 55 16093 5.1 120 17:20 21.07.2019
4844 Clouds 31 1018 58 16093 3.6 70 16:57 21.07.2019
4845 Clouds 31 1018 58 16093 3.6 70 16:38 21.07.2019
4846 Clouds 31 1018 58 16093 3.6 70 16:20 21.07.2019
4847 Clouds 30 1018 70 16093 2.1 80 15:37 21.07.2019
4848 Clouds 29 1018 70 16093 2.1 80 15:18 21.07.2019
4849 Clouds 28 1018 74 16093 2.78 123.433 14:41 21.07.2019
4850 Clouds 27 1018 74 16093 2.78 123.433 14:22 21.07.2019
4851 Clouds 26 1017 78 16093 2.78 123.433 13:51 21.07.2019
4852 Clouds 26 1017 78 16093 2.78 123.433 13:30 21.07.2019
4853 Clouds 25 1017 74 16093 2.89 124.807 12:44 21.07.2019
4854 Clear 25 1017 83 16093 2.6 320 12:25 21.07.2019
4855 Clear 25 1017 83 16093 3.92 123.353 11:51 21.07.2019
4856 Clear 25 1017 83 16093 3.92 123.353 11:30 21.07.2019
4857 Clouds 25 1016 74 16093 3.92 123.353 10:58 21.07.2019
4858 Clouds 25 1016 74 16093 3.92 123.353 10:40 21.07.2019
4859 Clouds 26 1016 74 16093 3.92 123.353 10:22 21.07.2019
4860 Rain 26 1017 74 16093 3.92 123.353 09:38 21.07.2019
4861 Rain 26 1017 74 16093 3.64 106.675 09:20 21.07.2019
4862 Rain 26 1017 83 16093 3.44 113.297 08:43 21.07.2019
4863 Rain 26 1018 74 16093 4.1 180 08:25 21.07.2019
4864 Rain 27 1018 74 16093 3.6 110 07:37 21.07.2019
4865 Rain 28 1018 70 16093 3.1 90 06:50 21.07.2019
4866 Clouds 28 1018 70 16093 2.6 90 05:41 21.07.2019
4867 Clouds 29 1017 66 16093 3.6 130 02:43 21.07.2019
4868 Thunderstorm 30 1016 58 16093 4.6 130 00:58 21.07.2019
4869 Thunderstorm 30 1016 58 16093 4.6 130 00:39 21.07.2019
4870 Thunderstorm 30 1016 58 16093 4.6 130 00:18 21.07.2019
4871 Thunderstorm 30 1017 62 16093 4.6 100 23:39 20.07.2019
4872 Thunderstorm 30 1017 62 16093 4.6 100 23:19 20.07.2019
4873 Thunderstorm 31 1017 70 16093 7.2 140 22:43 20.07.2019
4874 Thunderstorm 31 1017 62 16093 6.2 120 22:21 20.07.2019
4875 Thunderstorm 31 1018 62 16093 4.6 140 21:45 20.07.2019
4876 Thunderstorm 32 1018 62 16093 7.7 110 21:26 20.07.2019
4877 Thunderstorm 32 1018 62 16093 4.6 120 20:56 20.07.2019
4878 Rain 32 1018 62 16093 6.2 120 20:38 20.07.2019
4879 Rain 32 1018 62 16093 6.2 120 20:38 20.07.2019
4880 Thunderstorm 32 1018 62 16093 6.2 120 20:18 20.07.2019
4881 Rain 31 1019 70 16093 2.1 100 19:42 20.07.2019
4882 Clouds 31 1019 70 16093 2.1 100 19:19 20.07.2019
4883 Clouds 31 1019 78 16093 4.6 140 18:40 20.07.2019
4884 Clouds 31 1019 78 16093 4.6 140 18:20 20.07.2019
4885 Thunderstorm 31 1019 74 16093 6.7 150 17:48 20.07.2019
4886 Thunderstorm 30 1019 66 16093 7.2 130 17:20 20.07.2019
4887 Thunderstorm 30 1018 55 16093 5.7 110 16:43 20.07.2019
4888 Thunderstorm 30 1018 55 16093 5.1 100 16:25 20.07.2019
4889 Thunderstorm 30 1019 74 16093 3.6 70 15:57 20.07.2019
4890 Thunderstorm 29 1018 69 16093 4.96 115.729 15:38 20.07.2019
4891 Thunderstorm 28 1018 69 16093 2.56 108.208 15:19 20.07.2019
4892 Rain 27 1018 74 16093 3.1 130 14:43 20.07.2019
4893 Rain 27 1018 74 16093 3.6 70 14:21 20.07.2019
4894 Rain 27 1018 83 6437 4.1 90 13:38 20.07.2019
4895 Thunderstorm 27 1018 78 16093 3.1 100 13:20 20.07.2019
4896 Thunderstorm 27 1018 78 16093 2.98 116.04 12:52 20.07.2019
4897 Thunderstorm 27 1017 78 16093 2.6 70 12:21 20.07.2019
4898 Rain 27 1017 74 16093 2.1 20 11:55 20.07.2019
4899 Rain 27 1017 70 16093 4.6 90 11:23 20.07.2019
4900 Rain 27 1017 78 16093 3.18 114.807 10:55 20.07.2019
4901 Rain 27 1017 70 16093 3.6 110 10:36 20.07.2019
4902 Thunderstorm 28 1017 78 9656 1.5 0 10:18 20.07.2019
4903 Clouds 28 1017 74 16093 2.1 100 09:43 20.07.2019
4904 Clouds 28 1017 74 16093 2.1 100 09:18 20.07.2019
4905 Clouds 28 1017 74 16093 2.1 100 09:18 20.07.2019
4906 Clouds 28 1018 70 16093 3.6 110 08:39 20.07.2019
4907 Clouds 28 1018 70 16093 3.6 110 08:19 20.07.2019
4908 Thunderstorm 29 1018 74 16093 3.1 90 07:18 20.07.2019
4909 Rain 29 1019 66 16093 4.1 80 06:35 20.07.2019
4910 Clouds 29 1018 66 16093 5.1 80 04:31 20.07.2019
4911 Clouds 29 1017 62 16093 5.7 110 03:28 20.07.2019
4912 Clouds 30 1017 58 16093 4.1 120 01:21 20.07.2019
4913 Thunderstorm 31 1017 55 16093 5.7 120 00:46 20.07.2019
4914 Thunderstorm 31 1017 55 16093 5.7 120 00:21 20.07.2019
4915 Thunderstorm 32 1018 55 16093 4.6 110 23:44 19.07.2019
4916 Thunderstorm 32 1018 55 16093 4.6 110 23:25 19.07.2019
4917 Clouds 33 1018 52 16093 5.1 130 22:50 19.07.2019
4918 Clouds 33 1018 52 16093 5.1 130 22:26 19.07.2019
4919 Clouds 33 1019 55 16093 5.7 130 21:51 19.07.2019
4920 Clouds 33 1019 55 16093 5.7 130 21:33 19.07.2019
4921 Drizzle 33 1018 66 16093 4.1 90 20:58 19.07.2019
4922 Clouds 33 1019 59 16093 4.1 100 20:38 19.07.2019
4923 Clouds 33 1019 59 16093 4.1 100 20:20 19.07.2019
4924 Clouds 33 1019 59 16093 4.6 110 19:35 19.07.2019
4925 Clouds 33 1019 52 16093 5.1 130 18:43 19.07.2019
4926 Clouds 33 1019 52 16093 5.1 130 18:25 19.07.2019
4927 Clouds 32 1019 62 16093 5.1 80 17:56 19.07.2019
4928 Clouds 32 1019 55 16093 5.1 140 17:29 19.07.2019
4929 Rain 32 1019 62 16093 4.1 130 16:57 19.07.2019
4930 Rain 32 1019 62 16093 4.1 130 16:39 19.07.2019
4931 Rain 31 1019 62 16093 4.1 130 16:18 19.07.2019
4932 Clouds 31 1019 66 16093 3.6 100 15:44 19.07.2019
4933 Clouds 30 1019 66 16093 3.6 100 15:25 19.07.2019
4934 Clouds 29 1018 78 16093 3.1 130 14:45 19.07.2019
4935 Clouds 29 1018 78 16093 3.1 130 14:45 19.07.2019
4936 Clouds 29 1018 78 16093 3.1 130 14:25 19.07.2019
4937 Clouds 28 1018 74 16093 1.5 130 13:57 19.07.2019
4938 Clouds 28 1018 74 16093 1.5 130 13:38 19.07.2019
4939 Clouds 27 1018 74 16093 1.5 130 13:20 19.07.2019
4940 Rain 27 1018 74 16093 2.1 0 12:44 19.07.2019
4941 Rain 27 1018 74 16093 2.1 0 12:25 19.07.2019
4942 Rain 27 1017 78 16093 3.1 110.062 11:46 19.07.2019
4943 Clouds 27 1017 78 16093 3.1 110.062 11:19 19.07.2019
4944 Clouds 27 1017 78 16093 3.1 110.062 11:19 19.07.2019
4945 Clouds 27 1017 78 16093 2.1 80 10:48 19.07.2019
4946 Clouds 27 1017 78 16093 2.1 80 10:23 19.07.2019
4947 Clouds 27 1018 74 16093 2.6 40 09:59 19.07.2019
4948 Clouds 27 1018 74 16093 2.6 40 09:41 19.07.2019
4949 Clouds 27 1018 74 16093 2.6 40 09:22 19.07.2019
4950 Rain 28 1019 78 16093 2.4 103.398 08:49 19.07.2019
4951 Rain 28 1019 78 16093 2.4 103.398 08:22 19.07.2019
4952 Rain 28 1019 70 16093 2.1 50 07:29 19.07.2019
4953 Rain 28 1019 70 16093 3.6 80 06:26 19.07.2019
4954 Clouds 29 1018 62 16093 3.6 110 02:56 19.07.2019
4955 Clouds 30 1017 74 16093 2.6 80 01:21 19.07.2019
4956 Clouds 31 1017 70 16093 2.1 340 00:46 19.07.2019
4957 Clouds 31 1017 70 16093 1.69 349.534 23:59 18.07.2019
4958 Clouds 31 1018 52 16093 1.5 120 23:40 18.07.2019
4959 Clouds 31 1018 52 16093 1.5 120 23:22 18.07.2019
4960 Clouds 31 1019 55 16093 3.1 130 22:42 18.07.2019
4961 Clouds 31 1019 55 16093 3.1 130 22:20 18.07.2019
4962 Thunderstorm 31 1018 62 16093 3.6 90 21:56 18.07.2019
4963 Clear 31 1019 66 16093 4.1 110 21:37 18.07.2019
4964 Clear 31 1019 66 16093 4.1 110 21:18 18.07.2019
4965 Rain 31 1019 55 16093 4.6 120 20:42 18.07.2019
4966 Rain 30 1019 55 16093 4.6 120 20:23 18.07.2019
4967 Thunderstorm 32 1019 59 16093 6.7 140 19:47 18.07.2019
4968 Thunderstorm 32 1020 62 16093 6.2 110 19:27 18.07.2019
4969 Thunderstorm 32 1019 66 16093 6.7 110 18:50 18.07.2019
4970 Clouds 32 1019 62 16093 4.1 150 18:22 18.07.2019
4971 -273 0 0 0 0 0 17:56 18.07.2019
4972 Clouds 32 1019 52 16093 4.6 120 17:36 18.07.2019
4973 Clouds 32 1019 52 16093 4.6 120 17:18 18.07.2019
4974 Clouds 32 1019 55 16093 4.6 110 16:43 18.07.2019
4975 Clouds 31 1019 55 16093 4.6 110 16:24 18.07.2019
4976 Thunderstorm 30 1019 74 16093 3.1 180 15:55 18.07.2019
4977 Clouds 30 1019 70 16093 5.1 150 15:36 18.07.2019
4978 Rain 29 1019 70 16093 2.6 140 14:55 18.07.2019
4979 Rain 29 1019 70 16093 4.6 120 14:37 18.07.2019
4980 Clouds 29 1019 83 16093 2.37 140.464 13:57 18.07.2019
4981 Rain 28 1018 70 16093 3.1 120 13:36 18.07.2019
4982 Clouds 28 1018 70 16093 3.1 120 13:18 18.07.2019
4983 Clouds 28 1018 70 16093 3.1 150 12:42 18.07.2019
4984 Rain 28 1018 70 16093 3.1 150 12:18 18.07.2019
4985 Rain 28 1018 70 16093 3.1 110 11:50 18.07.2019
4986 Rain 28 1018 70 16093 3.1 110 11:27 18.07.2019
4987 Rain 28 1018 70 16093 3.1 110 11:27 18.07.2019
4988 Thunderstorm 28 1018 83 16093 4.1 160 10:52 18.07.2019
4989 Thunderstorm 28 1018 70 16093 4.1 100 10:18 18.07.2019
4990 Clouds 28 1018 70 16093 3.6 90 09:44 18.07.2019
4991 Clouds 28 1018 70 16093 3.6 90 09:21 18.07.2019
4992 Clouds 28 1019 70 16093 3.1 90 08:43 18.07.2019
4993 Clouds 28 1019 70 16093 3.1 90 08:19 18.07.2019
4994 Clouds 28 1019 70 16093 3.1 80 07:37 18.07.2019
4995 Clouds 28 1020 74 16093 2.36 115.708 06:59 18.07.2019
4996 Clouds 28 1020 70 16093 3.1 100 06:34 18.07.2019
4997 Clouds 29 1019 66 16093 2.1 110 04:20 18.07.2019
4998 Clouds 30 1019 62 16093 4.1 130 02:52 18.07.2019
4999 Clouds 30 1018 58 16093 5.7 110 01:37 18.07.2019
5000 Clouds 32 1018 55 16093 6.7 100 00:26 18.07.2019
5001 Clouds 32 1018 52 16093 5.1 140 23:49 17.07.2019
5002 Clouds 32 1018 52 16093 5.1 140 23:18 17.07.2019
5003 Clouds 33 1019 55 16093 4.1 120 22:43 17.07.2019
5004 Clouds 33 1019 55 16093 4.1 120 22:23 17.07.2019
5005 Clouds 33 1019 52 16093 4.6 140 21:58 17.07.2019
5006 Clouds 33 1019 52 16093 4.6 140 21:40 17.07.2019
5007 Clouds 33 1019 52 16093 4.6 140 21:21 17.07.2019
5008 Clouds 33 1019 55 16093 5.7 120 20:57 17.07.2019
5009 Clouds 33 1020 59 16093 4.6 120 20:39 17.07.2019
5010 Clouds 33 1020 59 16093 4.6 120 20:20 17.07.2019
5011 Clouds 33 1020 55 16093 4.6 110 19:43 17.07.2019
5012 Clouds 33 1020 55 16093 4.6 110 19:21 17.07.2019
5013 Rain 33 1020 52 16093 5.1 150 18:56 17.07.2019
5014 Rain 33 1020 55 16093 4.1 110 18:38 17.07.2019
5015 Rain 33 1020 55 16093 4.1 110 18:18 17.07.2019
5016 Clouds 32 1021 55 16093 3.6 110 17:43 17.07.2019
5017 Rain 31 1021 55 16093 3.6 110 17:23 17.07.2019
5018 Rain 31 1020 55 16093 3.6 120 16:42 17.07.2019
5019 Rain 31 1020 55 16093 3.6 120 16:22 17.07.2019
5020 Clouds 31 1020 66 16093 4.1 100 15:51 17.07.2019
5021 Clouds 31 1020 58 16093 5.1 130 15:31 17.07.2019
5022 Clouds 30 1020 70 16093 3.1 120 14:57 17.07.2019
5023 Clouds 30 1020 70 16093 3.1 120 14:39 17.07.2019
5024 Clouds 29 1020 70 16093 3.1 120 14:21 17.07.2019
5025 Clouds 29 1019 74 16093 3.6 120 13:56 17.07.2019
5026 Clouds 28 1019 74 16093 3.6 120 13:36 17.07.2019
5027 Clouds 28 1019 74 16093 3.6 120 13:18 17.07.2019
5028 Clouds 28 1019 74 16093 4.6 100 12:39 17.07.2019
5029 Clouds 28 1019 74 16093 4.6 100 12:19 17.07.2019
5030 Clouds 28 1018 74 16093 3.6 110 11:43 17.07.2019
5031 Clouds 28 1018 74 16093 3.6 110 11:19 17.07.2019
5032 Clouds 28 1018 74 16093 4.6 100 10:49 17.07.2019
5033 Clouds 28 1018 74 16093 4.6 100 10:24 17.07.2019
5034 Clouds 28 1019 74 16093 3.1 100 09:46 17.07.2019
5035 Clouds 28 1019 74 16093 3.1 100 09:28 17.07.2019
5036 Clouds 28 1019 70 16093 2.1 80 08:56 17.07.2019
5037 Clouds 28 1019 70 16093 2.1 80 08:37 17.07.2019
5038 Clouds 28 1019 70 16093 2.1 80 08:19 17.07.2019
5039 Clouds 29 1020 70 16093 3.1 80 07:41 17.07.2019
5040 Clouds 29 1020 70 16093 3.1 80 07:22 17.07.2019
5041 Clouds 29 1020 70 16093 3.1 80 06:46 17.07.2019
5042 Clouds 29 1020 70 16093 3.1 80 06:45 17.07.2019
5043 Clouds 29 1020 70 16093 3.1 80 06:27 17.07.2019
5044 Clouds 29 1020 66 16093 3.1 80 05:41 17.07.2019
5045 Clear 29 1020 74 16093 2.1 140 04:59 17.07.2019
5046 Clouds 29 1019 62 16093 3.6 100 03:57 17.07.2019
5047 Clouds 29 1019 58 16093 4.1 130 02:44 17.07.2019
5048 Clouds 30 1019 52 16093 3.6 110 01:43 17.07.2019
5049 Clouds 31 1019 52 16093 3.6 110 01:23 17.07.2019
5050 Clouds 32 1019 46 16093 4.6 110 00:43 17.07.2019
5051 Clouds 32 1019 46 16093 4.6 110 00:23 17.07.2019
5052 Clouds 32 1019 52 16093 5.1 110 23:47 16.07.2019
5053 Clouds 32 1019 52 16093 5.1 110 23:28 16.07.2019
5054 Clouds 32 1019 52 16093 5.1 110 22:57 16.07.2019
5055 Clouds 32 1019 52 16093 5.1 110 22:39 16.07.2019
5056 Clouds 32 1019 52 16093 5.1 110 22:19 16.07.2019
5057 Clouds 32 1019 55 16093 6.2 120 21:43 16.07.2019
5058 Clouds 33 1019 55 16093 6.2 120 21:20 16.07.2019
5059 Clouds 33 1020 55 16093 3.6 130 20:41 16.07.2019
5060 Clouds 33 1020 55 16093 3.6 130 20:23 16.07.2019
5061 Clouds 33 1020 59 16093 4.1 120 19:56 16.07.2019
5062 Clouds 33 1020 52 16093 6.2 110 19:37 16.07.2019
5063 Clouds 33 1020 52 16093 6.2 110 19:19 16.07.2019
5064 Clouds 33 1020 52 16093 5.1 100 18:45 16.07.2019
5065 Clouds 33 1020 52 16093 5.1 100 18:21 16.07.2019
5066 Clouds 32 1021 56 16093 6.2 100 17:55 16.07.2019
5067 Clouds 32 1021 56 16093 6.2 100 17:55 16.07.2019
5068 Clouds 32 1021 62 16093 3.6 140 17:36 16.07.2019
5069 Clouds 32 1020 58 16093 3.1 120 16:59 16.07.2019
5070 Clouds 32 1020 58 16093 3.1 120 16:38 16.07.2019
5071 Clouds 31 1020 58 16093 3.1 120 16:18 16.07.2019
5072 Clouds 31 1020 66 16093 4.1 120 15:39 16.07.2019
5073 Clouds 30 1020 66 16093 4.1 120 15:20 16.07.2019
5074 Clouds 30 1020 74 16093 2.6 120 14:57 16.07.2019
5075 Clouds 30 1019 74 16093 3.1 100 14:38 16.07.2019
5076 Clouds 29 1019 74 16093 3.1 100 14:19 16.07.2019
5077 Rain 29 1019 74 16093 3.1 100 13:44 16.07.2019
5078 Rain 28 1019 74 16093 3.1 100 13:20 16.07.2019
5079 Clouds 28 1018 78 16093 3.1 100 12:44 16.07.2019
5080 Clouds 28 1018 78 16093 3.1 100 12:20 16.07.2019
5081 Clouds 28 1018 78 16093 2.1 110 11:55 16.07.2019
5082 Clouds 28 1018 78 16093 2.1 110 11:37 16.07.2019
5083 Clouds 28 1018 78 16093 2.1 110 11:19 16.07.2019
5084 Clouds 28 1018 78 16093 3.1 100 10:45 16.07.2019
5085 Clouds 28 1018 78 16093 3.1 100 10:22 16.07.2019
5086 Clouds 28 1018 88 16093 1.5 110 09:44 16.07.2019
5087 Clouds 28 1018 74 16093 2.6 80 09:22 16.07.2019
5088 Thunderstorm 28 1019 78 16093 4.1 100 08:58 16.07.2019
5089 Thunderstorm 28 1019 78 16093 4.1 100 08:40 16.07.2019
5090 Thunderstorm 28 1019 78 16093 4.1 100 08:18 16.07.2019
5091 Thunderstorm 28 1019 74 16093 3.1 70 07:41 16.07.2019
5092 Thunderstorm 28 1019 74 16093 3.1 70 07:22 16.07.2019
5093 Rain 29 1020 78 16093 3.61 90.048 06:45 16.07.2019
5094 Rain 29 1020 88 16093 2.6 90 05:59 16.07.2019
5095 Rain 29 1019 78 12874 1.5 140 05:32 16.07.2019
5096 Rain 29 1019 83 9656 3.6 130 04:57 16.07.2019
5097 Clouds 29 1018 66 16093 4.1 60 03:52 16.07.2019
5098 Clouds 29 1018 66 16093 4.1 60 03:18 16.07.2019
5099 Clear 30 1018 70 16093 4.6 110 02:30 16.07.2019
5100 Clouds 30 1018 66 16093 4.6 100 01:43 16.07.2019
5101 Clouds 31 1018 55 16093 5.7 90 00:42 16.07.2019
5102 Clouds 32 1018 55 16093 5.7 90 00:20 16.07.2019
5103 Rain 32 1018 55 16093 4.6 90 23:45 15.07.2019
5104 Rain 32 1018 55 16093 4.6 90 23:27 15.07.2019
5105 Clouds 32 1017 70 16093 4.6 70 22:47 15.07.2019
5106 Clouds 32 1018 55 16093 5.7 90 22:22 15.07.2019
5107 Clouds 33 1018 66 16093 5.1 80 21:58 15.07.2019
5108 Clouds 32 1018 55 16093 5.7 90 21:40 15.07.2019
5109 Clouds 32 1018 55 16093 5.7 90 21:20 15.07.2019
5110 Rain 32 1019 59 16093 6.2 80 20:55 15.07.2019
5111 Rain 33 1019 59 16093 6.2 80 20:36 15.07.2019
5112 Rain 33 1018 70 16093 5.1 90 20:18 15.07.2019
5113 Rain 32 1019 62 16093 4.6 80 19:39 15.07.2019
5114 Rain 32 1019 62 16093 4.6 80 19:19 15.07.2019
5115 Rain 32 1019 59 16093 5.7 80 18:50 15.07.2019
5116 Rain 32 1019 59 16093 5.7 80 18:23 15.07.2019
5117 Rain 32 1020 66 16093 6.2 110 17:59 15.07.2019
5118 Rain 32 1019 55 16093 6.7 90 17:41 15.07.2019
5119 Rain 32 1019 55 16093 6.7 90 17:22 15.07.2019
5120 Clouds 31 1019 66 16093 6.2 80 16:58 15.07.2019
5121 Clouds 31 1019 62 16093 5.1 70 16:38 15.07.2019
5122 Clouds 31 1019 62 16093 5.1 70 16:20 15.07.2019
5123 Thunderstorm 31 1019 62 16093 5.1 70 15:45 15.07.2019
5124 Thunderstorm 30 1019 62 16093 5.1 70 15:27 15.07.2019
5125 Clouds 30 1018 62 16093 5.1 70 14:59 15.07.2019
5126 Clouds 29 1018 70 16093 3.1 70 14:40 15.07.2019
5127 Clouds 29 1018 70 16093 3.1 70 14:21 15.07.2019
5128 Clouds 28 1018 66 16093 2.6 60 13:48 15.07.2019
5129 Clouds 28 1018 66 16093 2.6 60 13:21 15.07.2019
5130 Clouds 28 1017 78 16093 2.6 70 12:56 15.07.2019
5131 Clouds 28 1018 74 16093 2.6 80 12:37 15.07.2019
5132 Clouds 28 1018 74 16093 2.6 80 12:18 15.07.2019
5133 Clouds 28 1018 74 16093 4.1 90 11:41 15.07.2019
5134 Clouds 28 1018 74 16093 4.1 90 11:20 15.07.2019
5135 Clouds 28 1018 70 16093 4.1 90 10:43 15.07.2019
5136 Clouds 28 1018 70 16093 4.1 90 10:24 15.07.2019
5137 Clouds 28 1018 70 16093 5.7 80 09:43 15.07.2019
5138 Clouds 28 1018 70 16093 5.7 80 09:23 15.07.2019
5139 Clouds 28 1018 74 16093 4.1 70 08:47 15.07.2019
5140 Clouds 28 1019 70 16093 3.1 70 08:27 15.07.2019
5141 Clouds 28 1019 78 16093 3.1 60 07:55 15.07.2019
5142 Clouds 28 1020 70 16093 2.6 60 07:33 15.07.2019
5143 Clouds 28 1020 70 16093 4.6 90 06:48 15.07.2019
5144 Clouds 29 1020 70 16093 4.6 90 06:30 15.07.2019
5145 Clouds 29 1020 66 16093 5.1 100 05:43 15.07.2019
5146 Clouds 29 1020 79 16093 4.1 100 04:52 15.07.2019
5147 Clouds 29 1020 66 16093 5.7 90 04:34 15.07.2019
5148 Clouds 29 1019 74 16093 4.1 70 03:29 15.07.2019
5149 Clouds 30 1018 62 16093 5.1 70 02:25 15.07.2019
5150 Clouds 30 1018 62 16093 6.2 80 01:37 15.07.2019
5151 Clouds 31 1018 55 16093 5.1 70 00:54 15.07.2019
5152 Clouds 31 1018 55 16093 5.1 70 00:29 15.07.2019
5153 Clouds 32 1018 59 16093 5.1 90 23:59 14.07.2019
5154 Clouds 32 1018 52 16093 6.2 90 23:41 14.07.2019
5155 Clouds 32 1018 52 16093 6.2 90 23:21 14.07.2019
5156 Clouds 32 1018 74 16093 6.2 70 22:58 14.07.2019
5157 Clouds 33 1018 52 16093 6.2 90 22:38 14.07.2019
5158 Clouds 33 1018 52 16093 6.2 90 22:20 14.07.2019
5159 Clouds 33 1019 49 16093 3.6 70 21:46 14.07.2019
5160 Clouds 33 1019 49 16093 3.6 70 21:19 14.07.2019
5161 Clouds 33 1020 49 16093 5.7 100 20:59 14.07.2019
5162 Clouds 33 1020 49 16093 5.7 100 20:38 14.07.2019
5163 Clouds 33 1020 49 16093 5.7 100 20:38 14.07.2019
5164 Clouds 33 1020 49 16093 5.7 100 20:20 14.07.2019
5165 Clouds 33 1020 59 16093 4.6 120 19:55 14.07.2019
5166 Clouds 33 1020 59 16093 4.6 120 19:36 14.07.2019
5167 Clouds 33 1020 59 16093 4.6 120 19:18 14.07.2019
5168 Clouds 33 1020 55 16093 5.7 100 18:41 14.07.2019
5169 Clouds 33 1020 55 16093 5.7 100 18:22 14.07.2019
5170 Clouds 32 1021 59 16093 4.6 120 17:58 14.07.2019
5171 Clouds 32 1021 59 16093 4.6 120 17:23 14.07.2019
5172 Clouds 32 1021 59 16093 5.1 140 16:54 14.07.2019
5173 Clouds 31 1020 62 16093 6.2 100 16:26 14.07.2019
5174 Clouds 31 1020 59 16093 3.6 140 15:58 14.07.2019
5175 Clouds 31 1020 62 16093 5.1 100 15:38 14.07.2019
5176 Clouds 30 1020 62 16093 5.1 100 15:19 14.07.2019
5177 Clouds 30 1020 66 16093 4.6 80 14:44 14.07.2019
5178 Rain 29 1020 66 16093 4.6 80 14:20 14.07.2019
5179 Rain 29 1019 70 16093 2.6 80 13:45 14.07.2019
5180 Clouds 28 1019 70 16093 2.6 80 13:23 14.07.2019
5181 Clouds 28 1019 70 16093 3.6 90 12:56 14.07.2019
5182 Clouds 28 1019 70 16093 3.6 90 12:37 14.07.2019
5183 Clouds 28 1019 70 16093 3.6 90 12:18 14.07.2019
5184 Clouds 28 1018 70 16093 4.1 90 11:45 14.07.2019
5185 Clouds 28 1018 70 16093 4.1 90 11:20 14.07.2019
5186 Clouds 28 1018 70 16093 5.1 90 10:42 14.07.2019
5187 Clouds 28 1018 70 16093 5.1 90 10:20 14.07.2019
5188 Clouds 28 1019 70 16093 6.2 90 09:45 14.07.2019
5189 Clouds 28 1019 70 16093 6.2 90 09:27 14.07.2019
5190 Clouds 28 1020 74 16093 3.6 100 08:46 14.07.2019
5191 Clouds 28 1020 74 16093 3.6 100 08:27 14.07.2019
5192 Clouds 28 1019 88 16093 2.6 150 07:43 14.07.2019
5193 Thunderstorm 28 1020 74 16093 4.1 100 07:19 14.07.2019
5194 Clouds 29 1020 70 16093 5.1 90 05:46 14.07.2019
5195 Thunderstorm 29 1019 83 16093 5.1 60 03:53 14.07.2019
5196 Thunderstorm 29 1019 74 16093 4.1 80 03:34 14.07.2019
5197 Rain 29 1019 74 16093 3.1 70 02:52 14.07.2019
5198 Rain 29 1019 74 16093 3.1 70 02:22 14.07.2019
5199 Clouds 30 1018 62 16093 5.1 90 01:35 14.07.2019
5200 Clouds 31 1018 59 16093 5.7 110 00:59 14.07.2019
5201 Clouds 31 1018 59 16093 5.7 110 00:40 14.07.2019
5202 Clouds 31 1018 59 16093 5.7 110 00:20 14.07.2019
5203 Thunderstorm 31 1018 74 16093 3.1 60 23:56 13.07.2019
5204 Thunderstorm 31 1018 55 16093 5.7 100 23:37 13.07.2019
5205 Thunderstorm 31 1018 66 16093 2.6 60 23:19 13.07.2019
5206 Thunderstorm 32 1019 70 16093 6.2 100 22:40 13.07.2019
5207 Thunderstorm 32 1019 55 16093 6.2 110 22:21 13.07.2019
5208 Thunderstorm 32 1019 62 16093 5.1 90 21:45 13.07.2019
5209 Thunderstorm 32 1019 55 16093 5.7 110 21:20 13.07.2019
5210 Clouds 32 1019 66 16093 5.1 100 20:47 13.07.2019
5211 Clouds 32 1019 52 16093 7.2 110 20:28 13.07.2019
5212 Clouds 33 1019 55 16093 6.7 130 19:48 13.07.2019
5213 Clouds 33 1019 55 16093 6.7 130 19:29 13.07.2019
5214 Clouds 32 1019 55 16093 5.1 110 18:46 13.07.2019
5215 Clouds 32 1019 55 16093 5.1 110 18:23 13.07.2019
5216 Clouds 32 1019 66 16093 5.7 100 17:42 13.07.2019
5217 Clouds 32 1019 66 16093 5.7 100 17:42 13.07.2019
5218 Clouds 32 1019 66 16093 5.7 100 17:21 13.07.2019
5219 Clouds 32 1019 66 16093 6.2 110 16:58 13.07.2019
5220 Clouds 31 1019 66 16093 4.6 120 16:38 13.07.2019
5221 Clouds 31 1019 66 16093 4.6 120 16:19 13.07.2019
5222 Clouds 31 1019 70 16093 2.6 120 15:45 13.07.2019
5223 Clouds 30 1019 70 16093 2.6 120 15:22 13.07.2019
5224 Clouds 29 1018 74 16093 3.6 120 14:46 13.07.2019
5225 Clouds 29 1018 74 16093 3.6 120 14:25 13.07.2019
5226 Clouds 28 1017 78 16093 2.6 90 13:46 13.07.2019
5227 Clouds 28 1017 78 16093 2.6 90 13:27 13.07.2019
5228 Clouds 27 1017 78 16093 2.6 100 12:59 13.07.2019
5229 Clouds 27 1017 78 16093 2.6 100 12:39 13.07.2019
5230 Clouds 27 1017 78 16093 2.6 100 12:20 13.07.2019
5231 Rain 27 1017 78 16093 2.6 80 11:43 13.07.2019
5232 Rain 28 1017 78 16093 2.6 80 11:19 13.07.2019
5233 Rain 28 1017 78 16093 2.6 80 11:19 13.07.2019
5234 Clouds 27 1016 83 16093 2.1 90 10:45 13.07.2019
5235 Clouds 27 1017 78 16093 2.6 80 10:23 13.07.2019
5236 Clouds 27 1017 78 16093 3.1 90 09:57 13.07.2019
5237 Clouds 27 1017 78 16093 3.1 90 09:38 13.07.2019
5238 Clouds 27 1017 78 16093 3.1 90 09:18 13.07.2019
5239 Clouds 28 1017 78 16093 2.6 90 08:33 13.07.2019
5240 Clouds 28 1017 83 16093 2.44 106.53 07:59 13.07.2019
5241 Clouds 28 1018 74 16093 3.6 90 07:30 13.07.2019
5242 Clouds 28 1018 74 16093 3.1 100 06:40 13.07.2019
5243 Clouds 28 1018 74 16093 2.6 120 05:58 13.07.2019
5244 Clouds 28 1018 74 16093 2.6 120 05:28 13.07.2019
5245 Clouds 29 1018 74 16093 2.6 110 04:23 13.07.2019
5246 Clouds 29 1017 83 16093 2.6 110 03:56 13.07.2019
5247 Clouds 29 1017 74 16093 3.6 110 03:37 13.07.2019
5248 Clouds 29 1017 79 16093 2.6 140 01:55 13.07.2019
5249 Clouds 29 1016 74 16093 5.1 130 01:37 13.07.2019
5250 Clouds 29 1016 74 16093 5.1 130 01:18 13.07.2019
5251 Clouds 30 1016 70 16093 4.1 100 00:51 13.07.2019
5252 Clouds 30 1016 70 16093 4.1 100 00:19 13.07.2019
5253 Clouds 30 1016 66 16093 5.7 110 23:44 12.07.2019
5254 Clouds 30 1016 66 16093 5.7 110 23:25 12.07.2019
5255 Clouds 30 1016 62 16093 6.2 100 22:46 12.07.2019
5256 Clouds 30 1016 62 16093 6.2 100 22:24 12.07.2019
5257 Clouds 31 1017 62 16093 6.2 110 21:43 12.07.2019
5258 Haze 31 1017 62 16093 6.2 110 21:22 12.07.2019
5259 Haze 31 1017 62 16093 5.7 110 20:54 12.07.2019
5260 Haze 30 1017 62 16093 5.7 110 20:24 12.07.2019
5261 Haze 31 1018 58 16093 3.6 130 19:59 12.07.2019
5262 Haze 31 1018 58 16093 3.6 130 19:41 12.07.2019
5263 Haze 31 1018 58 16093 3.6 130 19:23 12.07.2019
5264 Clouds 31 1017 55 16093 2.6 140 18:41 12.07.2019
5265 Clouds 31 1017 55 16093 2.6 140 18:21 12.07.2019
5266 Drizzle 30 1017 74 16093 1.5 110 17:49 12.07.2019
5267 Rain 30 1017 62 16093 0.96 41.107 17:28 12.07.2019
5268 Rain 28 1016 78 16093 0.96 41.107 16:45 12.07.2019
5269 Clear 27 1016 69 16093 2.6 110 16:21 12.07.2019
5270 Rain 26 1016 74 16093 3.6 90 15:42 12.07.2019
5271 Rain 26 1016 74 16093 3.6 90 15:22 12.07.2019
5272 Rain 25 1016 83 16093 3.1 90 14:57 12.07.2019
5273 Rain 25 1016 83 16093 3.1 90 14:38 12.07.2019
5274 Rain 25 1016 83 16093 3.1 90 14:20 12.07.2019
5275 Rain 24 1016 83 16093 3.6 80 13:42 12.07.2019
5276 Rain 24 1016 83 16093 3.6 80 13:20 12.07.2019
5277 Rain 24 1017 83 12874 2.6 130 12:40 12.07.2019
5278 Rain 23 1017 83 12874 2.6 130 12:21 12.07.2019
5279 Rain 23 1016 94 16093 1.5 30 11:45 12.07.2019
5280 Rain 23 1017 83 11265 2.1 70 11:23 12.07.2019
5281 Rain 23 1015 94 16093 1.5 30 10:44 12.07.2019
5282 Rain 24 1017 88 4828 6.2 250 10:25 12.07.2019
5283 Rain 25 1017 83 3219 9.8 230 09:55 12.07.2019
5284 Rain 25 1016 88 2414 11.8 230 09:31 12.07.2019
5285 Rain 26 1016 83 16093 1.5 130 09:00 12.07.2019
5286 Rain 26 1017 61 16093 1.5 0 08:41 12.07.2019
5287 Rain 26 1017 61 16093 1.5 0 08:20 12.07.2019
5288 Rain 27 1017 74 16093 4.1 170 07:46 12.07.2019
5289 Rain 28 1017 83 16093 1.5 180 07:27 12.07.2019
5290 Thunderstorm 29 1017 74 16093 1.5 190 06:29 12.07.2019
5291 Clouds 29 1017 70 16093 1.5 160 05:50 12.07.2019
5292 Clouds 29 1016 66 16093 3.1 140 03:24 12.07.2019
5293 Clouds 30 1015 66 16093 6.2 130 01:46 12.07.2019
5294 Clouds 30 1015 66 16093 6.2 130 01:26 12.07.2019
5295 Clouds 31 1015 55 16093 6.7 130 00:31 12.07.2019
5296 Clear 32 1015 66 16093 6.2 170 23:50 11.07.2019
5297 Clouds 32 1015 55 16093 6.7 140 23:27 11.07.2019
5298 Clouds 32 1016 59 16093 6.7 120 22:59 11.07.2019
5299 Clouds 32 1016 59 16093 6.7 120 22:40 11.07.2019
5300 Clouds 32 1016 59 16093 6.7 120 22:21 11.07.2019
5301 Clouds 32 1017 55 16093 5.7 130 21:42 11.07.2019
5302 Clouds 32 1017 55 16093 5.7 130 21:19 11.07.2019
5303 Clouds 32 1017 58 16093 5.1 130 20:56 11.07.2019
5304 Clouds 32 1017 58 16093 5.1 130 20:56 11.07.2019
5305 Clouds 32 1017 58 16093 5.1 130 20:37 11.07.2019
5306 Clear 32 1017 49 16093 4.6 170 20:19 11.07.2019
5307 Clouds 31 1017 58 16093 3.6 170 19:47 11.07.2019
5308 Clouds 31 1017 58 16093 3.6 170 19:25 11.07.2019
5309 Rain 29 1018 74 16093 1.5 0 18:54 11.07.2019
5310 Rain 29 1018 74 16093 1.5 0 18:36 11.07.2019
5311 Rain 29 1018 66 16093 4.1 240 18:18 11.07.2019
5312 Rain 28 1017 69 16093 4.1 180 17:41 11.07.2019
5313 Rain 30 1018 78 16093 3.1 190 17:23 11.07.2019
5314 Rain 31 1018 62 16093 12.9 180 16:51 11.07.2019
5315 Thunderstorm 31 1018 62 16093 5.1 180 16:23 11.07.2019
5316 Clouds 30 1017 62 16093 3.6 160 15:54 11.07.2019
5317 Clouds 30 1017 62 16093 3.6 160 15:54 11.07.2019
5318 Clouds 30 1017 62 16093 3.6 160 15:54 11.07.2019
5319 Clouds 30 1017 62 16093 3.6 160 15:36 11.07.2019
5320 Clouds 30 1017 62 16093 3.6 160 15:18 11.07.2019
5321 Clouds 29 1017 74 16093 2.1 190 14:43 11.07.2019
5322 Clouds 29 1017 74 16093 2.1 190 14:21 11.07.2019
5323 Clouds 27 1016 74 16093 1.5 0 13:47 11.07.2019
5324 Clear 26 1016 83 16093 3.75 166.984 13:26 11.07.2019
5325 Clouds 26 1016 74 16093 1.5 180 12:45 11.07.2019
5326 Clouds 26 1016 74 16093 1.5 180 12:27 11.07.2019
5327 Clouds 26 1016 78 16093 3.74 168.918 11:55 11.07.2019
5328 Clouds 26 1016 78 16093 3.74 168.918 11:37 11.07.2019
5329 Clouds 26 1016 78 16093 3.74 168.918 11:18 11.07.2019
5330 Clouds 26 1016 74 16093 2.1 170 10:45 11.07.2019
5331 Clouds 26 1016 74 16093 2.1 170 10:19 11.07.2019
5332 Rain 26 1016 69 16093 1.5 160 09:44 11.07.2019
5333 Rain 26 1016 69 16093 1.5 160 09:26 11.07.2019
5334 Rain 26 1017 83 16093 3.37 178.758 08:52 11.07.2019
5335 Rain 26 1016 83 16093 2.1 110 08:26 11.07.2019
5336 Rain 28 1017 83 8047 6.2 160 07:52 11.07.2019
5337 Rain 28 1017 70 16093 2.6 180 07:34 11.07.2019
5338 Clouds 28 1017 70 16093 2.6 140 06:35 11.07.2019
5339 Clouds 28 1018 70 16093 3.6 130 05:51 11.07.2019
5340 Clouds 29 1018 70 16093 3.6 130 05:29 11.07.2019
5341 Clouds 29 1017 66 16093 3.1 160 04:54 11.07.2019
5342 Clouds 30 1017 66 16093 4.6 170 02:41 11.07.2019
5343 Clouds 30 1016 62 16093 4.6 150 01:27 11.07.2019
5344 Clouds 31 1016 62 16093 5.1 130 00:27 11.07.2019
5345 -273 0 0 0 0 0 23:37 10.07.2019
5346 Clouds 32 1016 59 16093 6.7 130 23:18 10.07.2019
5347 Clouds 32 1016 59 16093 6.2 120 22:46 10.07.2019
5348 Rain 32 1016 59 16093 6.2 120 22:21 10.07.2019
5349 Clouds 33 1017 55 16093 6.2 150 21:45 10.07.2019
5350 Clouds 33 1017 55 16093 6.2 150 21:26 10.07.2019
5351 Clouds 33 1017 55 16093 3.6 160 20:57 10.07.2019
5352 Clouds 33 1017 55 16093 3.6 160 20:39 10.07.2019
5353 Clouds 33 1017 55 16093 3.6 160 20:19 10.07.2019
5354 Clouds 32 1017 59 16093 5.1 180 19:53 10.07.2019
5355 Clouds 33 1017 59 16093 3.1 0 19:22 10.07.2019
5356 Clouds 32 1018 59 16093 5.7 130 18:57 10.07.2019
5357 Clouds 32 1018 59 16093 5.7 130 18:38 10.07.2019
5358 Clouds 32 1018 59 16093 5.7 130 18:20 10.07.2019
5359 Clouds 32 1018 58 16093 3.1 160 17:41 10.07.2019
5360 Clouds 31 1018 58 16093 3.1 160 17:20 10.07.2019
5361 Clouds 31 1018 58 16093 3.1 160 17:20 10.07.2019
5362 Clouds 31 1018 62 16093 3.1 130 16:37 10.07.2019
5363 Clouds 31 1018 62 16093 3.1 130 16:18 10.07.2019
5364 Clouds 30 1018 70 16093 2.1 150 15:45 10.07.2019
5365 Clouds 29 1018 70 16093 2.1 150 15:21 10.07.2019
5366 Clouds 28 1017 69 16093 1.5 190 14:41 10.07.2019
5367 Clouds 28 1017 69 16093 1.5 190 14:22 10.07.2019
5368 Clouds 26 1017 74 16093 1.5 170 13:46 10.07.2019
5369 Clouds 26 1017 74 16093 1.5 170 13:19 10.07.2019
5370 Clouds 26 1017 74 16093 1.5 170 13:19 10.07.2019
5371 Clouds 25 1016 94 16093 2.6 230 12:58 10.07.2019
5372 Clouds 25 1016 78 16093 1.91 194.029 12:37 10.07.2019
5373 Clouds 25 1016 78 16093 1.81 213.392 12:18 10.07.2019
5374 Clouds 25 1016 78 16093 1.81 213.392 11:46 10.07.2019
5375 Clouds 25 1016 78 16093 1.81 213.392 11:21 10.07.2019
5376 Clear 26 1016 78 16093 1.5 160 10:45 10.07.2019
5377 Clear 26 1016 78 16093 1.5 160 10:20 10.07.2019
5378 Clouds 26 1016 74 16093 1.5 250 09:44 10.07.2019
5379 Clouds 26 1016 74 16093 1.5 250 09:21 10.07.2019
5380 Clouds 26 1016 74 16093 2.1 220 08:52 10.07.2019
5381 Clouds 26 1016 74 16093 2.1 220 08:52 10.07.2019
5382 Clouds 26 1016 74 16093 2.1 220 08:29 10.07.2019
5383 Clouds 26 1017 78 16093 2.1 190 07:55 10.07.2019
5384 Clouds 26 1017 78 16093 2.1 190 07:32 10.07.2019
5385 Clouds 26 1017 78 16093 2.1 190 07:32 10.07.2019
5386 Clouds 27 1017 74 16093 2.1 190 06:56 10.07.2019
5387 Clouds 27 1018 74 16093 2.1 180 05:59 10.07.2019
5388 Rain 27 1017 78 16093 2.1 270 04:38 10.07.2019
5389 Clouds 28 1016 66 16093 4.6 240 03:40 10.07.2019
5390 Clouds 31 1015 52 16093 2.1 240 00:47 10.07.2019
5391 Clouds 32 1015 52 16093 2.1 240 00:26 10.07.2019
5392 Clouds 32 1015 55 16093 3.6 250 23:41 09.07.2019
5393 Clouds 32 1015 55 16093 3.6 250 23:21 09.07.2019
5394 Clouds 32 1015 49 16093 2.1 280 22:41 09.07.2019
5395 Clouds 32 1015 49 16093 2.1 280 22:22 09.07.2019
5396 Clouds 33 1016 49 16093 5.1 250 21:56 09.07.2019
5397 Clouds 32 1016 49 16093 5.1 250 21:38 09.07.2019
5398 Clouds 32 1016 49 16093 5.1 250 21:19 09.07.2019
5399 Clear 32 1017 46 16093 4.1 230 20:43 09.07.2019
5400 Clear 32 1017 46 16093 4.1 230 20:24 09.07.2019
5401 Clouds 32 1017 55 16093 3.6 240 19:41 09.07.2019
5402 Clouds 32 1017 55 16093 3.6 240 19:21 09.07.2019
5403 Thunderstorm 31 1017 58 16093 2.6 0 18:46 09.07.2019
5404 Thunderstorm 31 1017 58 16093 2.6 0 18:23 09.07.2019
5405 Thunderstorm 30 1017 70 16093 3.6 230 17:57 09.07.2019
5406 Clouds 30 1017 66 16093 5.1 230 17:37 09.07.2019
5407 Clouds 29 1017 66 16093 5.1 230 17:19 09.07.2019
5408 Clouds 29 1017 62 16093 5.1 210 16:47 09.07.2019
5409 Clouds 29 1017 69 16093 3.1 230 16:24 09.07.2019
5410 Clouds 29 1017 74 16093 2.6 240 15:50 09.07.2019
5411 Clouds 28 1017 74 16093 2.6 240 15:31 09.07.2019
5412 Clear 28 1016 74 16093 3.1 200 14:57 09.07.2019
5413 Clear 27 1016 74 16093 3.1 200 14:39 09.07.2019
5414 Clear 27 1016 74 16093 3.1 200 14:18 09.07.2019
5415 Clouds 26 1016 78 16093 1.5 190 13:43 09.07.2019
5416 Rain 25 1016 78 16093 1.5 190 13:24 09.07.2019
5417 Clouds 25 1016 83 16093 2.96 197.596 12:41 09.07.2019
5418 Clouds 25 1016 83 16093 3.51 197.505 12:22 09.07.2019
5419 Clouds 25 1015 88 16093 3.51 197.505 11:58 09.07.2019
5420 Clouds 24 1015 88 16093 3.51 197.505 11:39 09.07.2019
5421 Clouds 24 1015 88 16093 3.51 197.505 11:20 09.07.2019
5422 Clouds 24 1015 88 16093 1.5 240 10:50 09.07.2019
5423 Clouds 24 1015 88 16093 1.5 240 10:31 09.07.2019
5424 Clouds 24 1015 88 16093 3.51 197.505 09:42 09.07.2019
5425 Clouds 24 1015 88 16093 2.79 204.679 09:22 09.07.2019
5426 Clouds 24 1015 88 16093 2.79 204.679 09:22 09.07.2019
5427 Clouds 24 1015 88 16093 1.5 170 08:55 09.07.2019
5428 Clouds 24 1015 88 16093 1.5 170 08:35 09.07.2019
5429 Smoke 29 1016 74 16093 5.1 110 03:58 05.07.2019
5430 Clouds 29 1016 66 16093 5.1 100 03:38 05.07.2019
5431 Clouds 29 1016 66 16093 5.1 100 03:38 05.07.2019
5432 Clouds 29 1016 66 16093 5.1 100 03:19 05.07.2019
5433 Clear 30 1016 70 16093 5.7 90 02:44 05.07.2019
5434 Clouds 31 1015 62 16093 5.7 90 01:39 05.07.2019
5435 Clouds 31 1016 59 16093 5.7 120 01:19 05.07.2019
5436 Clouds 31 1015 70 16093 3.1 110 00:46 05.07.2019
5437 Clouds 32 1015 66 16093 4.6 100 23:53 04.07.2019
5438 Clouds 32 1015 49 16093 3.6 100 23:21 04.07.2019
5439 Clouds 33 1015 55 16093 5.7 110 22:57 04.07.2019
5440 Clouds 33 1015 55 16093 5.7 110 22:39 04.07.2019
5441 Clear 33 1016 52 16093 5.7 90 22:18 04.07.2019
5442 Clouds 33 1016 55 16093 5.7 100 21:40 04.07.2019
5443 Clouds 33 1016 55 16093 5.7 100 21:22 04.07.2019
5444 Clouds 33 1016 62 16093 3.6 80 20:54 04.07.2019
5445 Drizzle 33 1016 66 16093 4.6 70 20:36 04.07.2019
5446 Drizzle 33 1016 66 16093 4.6 70 20:18 04.07.2019
5447 Clouds 33 1017 52 16093 5.7 120 19:41 04.07.2019
5448 Clouds 33 1017 52 16093 5.7 120 19:20 04.07.2019
5449 Clouds 32 1017 55 16093 4.1 110 18:44 04.07.2019
5450 Clouds 32 1017 55 16093 4.1 110 18:25 04.07.2019
5451 Clear 32 1017 63 16093 4.1 130 17:47 04.07.2019
5452 Clouds 31 1017 59 16093 3.6 90 17:19 04.07.2019
5453 Clouds 31 1016 62 16093 3.1 110 15:59 04.07.2019
5454 Clouds 30 1016 62 16093 3.1 110 15:41 04.07.2019
5455 Clouds 30 1016 62 16093 3.1 110 15:22 04.07.2019
5456 Clouds 29 1016 74 16093 1.5 90 14:56 04.07.2019
5457 Clouds 29 1016 74 16093 1.5 90 14:37 04.07.2019
5458 Clouds 28 1016 74 16093 1.5 90 14:18 04.07.2019
5459 Clouds 27 1015 78 16093 1.5 40 13:54 04.07.2019
5460 Clouds 27 1015 78 16093 1.5 40 13:36 04.07.2019
5461 Clear 27 1016 88 16093 2.07 139.915 13:18 04.07.2019
5462 Clouds 27 1015 78 16093 2.1 360 12:37 04.07.2019
5463 Clouds 27 1015 78 16093 2.1 360 12:19 04.07.2019
5464 Rain 27 1015 78 16093 2.1 360 11:40 04.07.2019
5465 Rain 27 1015 78 16093 2.1 360 11:20 04.07.2019
5466 Clouds 27 1014 88 16093 1.5 350 10:44 04.07.2019
5467 Clouds 27 1014 83 16093 0.72 139.867 10:25 04.07.2019
5468 Clouds 27 1015 78 16093 1.5 20 09:45 04.07.2019
5469 Clouds 27 1015 78 16093 1.5 20 09:26 04.07.2019
5470 Clouds 27 1015 83 16093 0.6 172.006 08:57 04.07.2019
5471 Clouds 27 1015 83 16093 0.6 172.006 08:29 04.07.2019
5472 Clouds 27 1015 78 16093 0.6 172.006 07:47 04.07.2019
5473 Clouds 27 1015 78 16093 0.6 172.006 07:47 04.07.2019
5474 Clouds 27 1015 78 16093 0.6 172.006 07:23 04.07.2019
5475 Clouds 27 1015 88 16093 0.6 172.006 06:56 04.07.2019
5476 Clouds 28 1016 74 16093 1.5 300 05:55 04.07.2019
5477 Clouds 28 1016 74 16093 1.5 300 05:36 04.07.2019
5478 Clouds 28 1015 88 16093 2.1 300 03:30 04.07.2019
5479 Clouds 30 1013 62 16093 2.1 140 01:46 04.07.2019
5480 Clouds 30 1013 62 16093 2.1 140 01:25 04.07.2019
5481 Clouds 30 1014 62 16093 2.1 150 00:37 04.07.2019
5482 Clouds 31 1014 62 16093 2.1 140 23:48 03.07.2019
5483 Clouds 31 1014 62 16093 2.1 140 23:20 03.07.2019
5484 Clouds 31 1015 66 16093 2.6 150 22:56 03.07.2019
5485 Clouds 31 1015 66 16093 2.6 150 22:36 03.07.2019
5486 Clouds 30 1015 66 16093 2.6 150 22:18 03.07.2019
5487 Thunderstorm 30 1015 74 16093 2.1 150 21:47 03.07.2019
5488 Thunderstorm 30 1015 74 16093 2.1 150 21:28 03.07.2019
5489 Rain 30 1016 83 16093 1.06 315.919 20:47 03.07.2019
5490 Rain 29 1016 83 16093 1.06 315.919 20:28 03.07.2019
5491 Rain 28 1016 88 16093 1.5 0 19:54 03.07.2019
5492 Rain 28 1016 88 16093 4.1 50 19:36 03.07.2019
5493 Rain 30 1017 88 6437 2.1 290 18:55 03.07.2019
5494 Rain 31 1016 83 402 6.7 90 18:37 03.07.2019
5495 Thunderstorm 32 1015 62 16093 2.1 0 18:18 03.07.2019
5496 Rain 32 1015 66 16093 5.1 90 17:45 03.07.2019
5497 Rain 33 1016 52 16093 2.1 0 17:19 03.07.2019
5498 Clouds 32 1016 59 16093 1.48 2.75 16:44 03.07.2019
5499 Clouds 32 1016 59 16093 1.48 2.75 16:44 03.07.2019
5500 Clouds 32 1016 59 16093 1.5 0 16:24 03.07.2019
5501 Clouds 31 1015 70 16093 1.48 2.75 15:54 03.07.2019
5502 Clouds 31 1015 70 16093 1.48 2.75 15:36 03.07.2019
5503 Clouds 30 1015 70 16093 2.65 4.717 15:18 03.07.2019
5504 Clouds 30 1015 74 16093 1.5 0 14:42 03.07.2019
5505 Clouds 29 1015 74 16093 1.5 0 14:20 03.07.2019
5506 Clouds 28 1015 78 16093 2.1 280 13:43 03.07.2019
5507 Clouds 28 1015 78 16093 2.1 280 13:24 03.07.2019
5508 Clouds 28 1015 78 16093 2.1 280 13:24 03.07.2019
5509 Clouds 27 1014 78 16093 2.6 280 12:46 03.07.2019
5510 Clear 27 1014 78 16093 3 329.285 12:18 03.07.2019
5511 Clouds 27 1014 78 16093 1.5 280 11:43 03.07.2019
5512 Clouds 28 1014 78 16093 1.5 280 11:23 03.07.2019
5513 Clouds 28 1014 74 16093 2.1 290 10:57 03.07.2019
5514 Clouds 28 1014 74 16093 2.1 290 10:36 03.07.2019
5515 Clouds 28 1014 74 16093 2.1 290 10:18 03.07.2019
5516 Clouds 28 1014 74 16093 1.5 270 09:39 03.07.2019
5517 Clouds 28 1014 74 16093 1.5 270 09:20 03.07.2019
5518 Clouds 29 1015 74 16093 2.87 319.275 08:50 03.07.2019
5519 Clouds 29 1015 74 16093 2.1 329.041 08:26 03.07.2019
5520 Clouds 29 1015 66 16093 2.1 329.041 07:40 03.07.2019
5521 Clear 29 1016 70 16093 1.5 150 07:20 03.07.2019
5522 Clouds 29 1015 66 16093 0.79 79.273 06:25 03.07.2019
5523 Clouds 29 1015 66 16093 0.79 79.273 05:34 03.07.2019
5524 Clouds 30 1015 70 16093 2.6 130 04:38 03.07.2019
5525 Clouds 30 1014 70 16093 3.1 140 03:24 03.07.2019
5526 Clouds 30 1014 70 16093 3.1 140 03:24 03.07.2019
5527 Clouds 31 1014 66 16093 3.6 140 01:59 03.07.2019
5528 Clouds 32 1014 59 16093 3.1 130 01:21 03.07.2019
5529 Clouds 32 1014 59 16093 4.1 130 00:45 03.07.2019
5530 Clouds 32 1014 59 16093 4.1 130 00:18 03.07.2019
5531 Clouds 33 1015 59 16093 4.6 100 23:38 02.07.2019
5532 Clouds 33 1015 63 16093 4.1 110 23:20 02.07.2019
5533 Clouds 33 1015 63 16093 4.6 140 22:56 02.07.2019
5534 Clouds 33 1015 63 16093 4.6 140 22:38 02.07.2019
5535 Clouds 34 1015 63 16093 4.6 140 22:19 02.07.2019
5536 Clouds 34 1016 44 16093 2.1 0 21:43 02.07.2019
5537 Clouds 34 1016 52 16093 3.1 280 21:23 02.07.2019
5538 Clouds 34 1016 52 16093 3.1 280 20:58 02.07.2019
5539 Clouds 34 1016 44 16093 2.6 350 20:39 02.07.2019
5540 Clouds 34 1016 44 16093 2.6 350 20:20 02.07.2019
5541 Clear 34 1017 46 16093 3.1 0 19:42 02.07.2019
5542 Clear 34 1017 46 16093 3.1 0 19:23 02.07.2019
5543 Clouds 33 1017 55 16093 2.6 0 18:50 02.07.2019
5544 Clouds 33 1017 55 16093 2.6 0 18:19 02.07.2019
5545 Clouds 32 1018 59 16093 2.1 0 17:44 02.07.2019
5546 Clouds 32 1018 59 16093 2.1 0 17:24 02.07.2019
5547 Clouds 31 1017 62 16093 3.6 330 16:54 02.07.2019
5548 Clouds 31 1017 62 16093 3.6 330 16:35 02.07.2019
5549 Clouds 30 1017 79 16093 4.6 340 15:59 02.07.2019
5550 Clouds 30 1017 74 16093 3.57 335.876 15:38 02.07.2019
5551 Clouds 29 1017 74 16093 3.71 331.796 15:18 02.07.2019
5552 Clear 28 1017 78 16093 2.1 320 14:40 02.07.2019
5553 Clear 28 1017 78 16093 2.1 320 14:21 02.07.2019
5554 Clouds 27 1017 83 16093 2.1 300 13:42 02.07.2019
5555 Clouds 27 1017 83 16093 2.1 300 13:19 02.07.2019
5556 Rain 27 1016 83 16093 3.1 310 12:44 02.07.2019
5557 Rain 27 1016 83 16093 3.1 310 12:44 02.07.2019
5558 Rain 27 1016 83 16093 3.1 310 12:23 02.07.2019
5559 Clouds 27 1016 83 16093 2.1 290 11:44 02.07.2019
5560 Clouds 27 1016 83 16093 2.1 290 11:44 02.07.2019
5561 Clouds 27 1016 83 16093 2.1 290 11:23 02.07.2019
5562 Clouds 27 1016 83 16093 2.1 290 10:58 02.07.2019
5563 Clouds 27 1016 83 16093 2.1 290 10:37 02.07.2019
5564 Clear 27 1016 74 16093 3.6 280 10:18 02.07.2019
5565 Clouds 27 1016 78 16093 2.1 280 09:37 02.07.2019
5566 Clear 28 1016 78 16093 2.6 280 09:19 02.07.2019
5567 Clouds 28 1016 78 16093 2.1 280 08:39 02.07.2019
5568 Clear 28 1016 78 16093 3.1 290 08:20 02.07.2019
5569 Clouds 28 1017 78 16093 2.1 270 07:47 02.07.2019
5570 Clouds 28 1017 78 16093 2.1 270 07:20 02.07.2019
5571 Clouds 28 1017 88 16093 3.43 311.679 06:40 02.07.2019
5572 Clouds 29 1017 83 16093 2.4 318.041 05:46 02.07.2019
5573 Thunderstorm 30 1017 70 16093 4.6 140 02:43 02.07.2019
5574 Clouds 32 1016 59 16093 4.6 140 00:41 02.07.2019
5575 Clouds 33 1016 55 16093 3.1 150 23:40 01.07.2019
5576 Clouds 33 1016 55 16093 3.1 150 23:19 01.07.2019
5577 Clouds 33 1017 46 16093 4.86 305.798 22:44 01.07.2019
5578 Clouds 33 1017 46 16093 4.86 305.798 22:26 01.07.2019
5579 Clouds 34 1017 44 16093 2.6 320 21:45 01.07.2019
5580 Clouds 34 1017 44 16093 2.6 320 21:25 01.07.2019
5581 Clouds 33 1018 41 16093 2.6 0 20:51 01.07.2019
5582 Clouds 33 1018 41 16093 2.6 0 20:21 01.07.2019
5583 Clouds 33 1018 55 16093 3.1 280 19:57 01.07.2019
5584 Clouds 33 1018 52 16093 3.6 270 19:38 01.07.2019
5585 Clouds 33 1019 55 16093 3.47 291.679 19:20 01.07.2019
5586 Clouds 33 1019 52 16093 3.1 270 18:50 01.07.2019
5587 Clouds 33 1019 52 16093 3.1 270 18:28 01.07.2019
5588 Clouds 32 1019 59 16093 2.1 0 17:48 01.07.2019
5589 Clouds 32 1019 59 16093 2.1 0 17:27 01.07.2019
5590 Clear 31 1018 62 16093 4.1 20 16:58 01.07.2019
5591 Clouds 31 1019 62 16093 2.1 0 16:40 01.07.2019
5592 Clouds 30 1019 62 16093 2.1 0 16:22 01.07.2019
5593 Clouds 29 1019 78 16093 2.87 325.972 15:44 01.07.2019
5594 Clouds 28 1019 78 16093 1.5 324.908 15:26 01.07.2019
5595 Clouds 27 1018 78 16093 1.5 324.908 14:45 01.07.2019
5596 Clouds 26 1018 78 16093 1.5 324.908 14:24 01.07.2019
5597 Clouds 25 1018 78 16093 1.5 324.908 13:48 01.07.2019
5598 Clear 25 1018 94 16093 2.03 341.476 13:24 01.07.2019
5599 Clouds 25 1017 83 16093 2.03 341.476 12:58 01.07.2019
5600 Clouds 25 1017 83 16093 2.03 341.476 12:38 01.07.2019
5601 Clouds 25 1017 83 16093 2.07 314.805 12:20 01.07.2019
5602 Clear 25 1017 94 16093 2.07 314.805 11:47 01.07.2019
5603 Clear 25 1017 94 16093 2.07 314.805 11:28 01.07.2019
5604 Clouds 25 1017 83 16093 2.07 314.805 10:55 01.07.2019
5605 Clouds 25 1017 83 16093 2.07 314.805 10:37 01.07.2019
5606 Clouds 25 1017 83 16093 2.07 314.805 10:18 01.07.2019
5607 Clear 25 1018 88 16093 2.07 314.805 09:41 01.07.2019
5608 Clear 25 1018 88 16093 1.86 298.209 09:22 01.07.2019
5609 Clear 25 1018 83 16093 2.14 316.305 08:39 01.07.2019
5610 Clouds 26 1018 74 16093 1.5 340 08:21 01.07.2019
5611 Clouds 26 1019 74 16093 2.14 316.305 07:33 01.07.2019
5612 Clear 26 1019 78 16093 2.14 316.305 06:39 01.07.2019
5613 Clouds 27 1018 65 16093 2.1 150 04:31 01.07.2019
5614 Thunderstorm 29 1017 70 16093 2.6 150 00:53 01.07.2019
5615 Thunderstorm 29 1017 70 16093 2.6 150 00:31 01.07.2019
5616 Rain 30 1017 83 16093 3.1 270 23:58 30.06.2019
5617 Rain 30 1018 66 16093 2.1 0 23:24 30.06.2019
5618 Rain 31 1017 66 16093 3.1 120 22:54 30.06.2019
5619 Rain 31 1017 66 16093 3.1 120 22:23 30.06.2019
5620 Rain 31 1017 62 16093 4.1 130 21:58 30.06.2019
5621 Rain 30 1018 58 16093 3.6 120 21:40 30.06.2019
5622 Rain 30 1018 58 16093 3.6 120 21:18 30.06.2019
5623 Rain 30 1019 70 16093 2.1 30 20:41 30.06.2019
5624 Rain 29 1019 70 16093 2.1 30 20:23 30.06.2019
5625 Rain 28 1019 94 4023 5.1 310 19:51 30.06.2019
5626 Rain 28 1019 94 4023 5.1 310 19:25 30.06.2019
5627 Rain 29 1019 83 16093 1.5 80 18:48 30.06.2019
5628 Rain 31 1019 62 16093 3.6 80 18:22 30.06.2019
5629 Rain 30 1019 66 16093 4.1 30 17:41 30.06.2019
5630 Rain 30 1019 66 16093 3.1 50 17:19 30.06.2019
5631 Rain 31 1019 78 6437 2.6 200 16:52 30.06.2019
5632 Thunderstorm 31 1019 74 16093 4.6 210 16:33 30.06.2019
5633 Clouds 30 1018 66 16093 4.6 130 15:58 30.06.2019
5634 Clouds 30 1018 70 16093 5.1 120 15:36 30.06.2019
5635 Clouds 29 1018 70 16093 5.1 120 15:18 30.06.2019
5636 Clouds 29 1018 78 16093 0.66 81.747 14:43 30.06.2019
5637 Clouds 28 1018 78 16093 0.66 81.747 14:24 30.06.2019
5638 Clouds 27 1018 83 16093 0.66 81.747 13:43 30.06.2019
5639 Clouds 26 1018 83 16093 1.51 89.962 13:20 30.06.2019
5640 Clouds 26 1018 78 16093 1.5 40 12:47 30.06.2019
5641 Clouds 26 1018 78 16093 1.5 40 12:24 30.06.2019
5642 Clouds 26 1018 78 16093 1.5 20 11:48 30.06.2019
5643 Clouds 26 1018 78 16093 1.5 20 11:26 30.06.2019
5644 Clouds 26 1018 78 16093 1.04 126.462 10:59 30.06.2019
5645 Clouds 26 1018 78 16093 1.04 126.462 10:38 30.06.2019
5646 Clouds 26 1018 78 16093 1.04 126.462 10:19 30.06.2019
5647 Clouds 26 1019 78 16093 1.04 126.462 09:44 30.06.2019
5648 Clouds 26 1019 78 16093 1.04 126.462 09:44 30.06.2019
5649 Clouds 26 1019 78 16093 2.09 133.7 09:23 30.06.2019
5650 Thunderstorm 26 1018 100 16093 1.5 250 08:58 30.06.2019
5651 Clouds 26 1019 78 16093 2.01 153.486 08:32 30.06.2019
5652 Clouds 26 1019 78 16093 1.5 140 07:58 30.06.2019
5653 Clouds 26 1019 78 16093 1.5 140 07:29 30.06.2019
5654 Clouds 26 1019 69 16093 2.6 90 06:41 30.06.2019
5655 Clouds 27 1019 74 16093 2.1 80 05:34 30.06.2019
5656 Rain 27 1019 83 16093 4.1 70 02:53 30.06.2019
5657 Clouds 28 1018 69 16093 5.7 80 01:30 30.06.2019
5658 Clouds 28 1019 70 16093 3.6 50 00:32 30.06.2019
5659 Clouds 29 1018 70 16093 4.6 100 23:56 29.06.2019
5660 Clouds 29 1018 70 16093 4.6 100 23:25 29.06.2019
5661 Clouds 28 1017 74 16093 4.1 70 22:58 29.06.2019
5662 Clouds 28 1018 70 16093 4.6 100 22:40 29.06.2019
5663 Clouds 28 1018 70 16093 4.6 100 22:21 29.06.2019
5664 Clouds 27 1019 69 16093 3.1 0 21:49 29.06.2019
5665 Clouds 27 1019 69 16093 3.1 0 21:23 29.06.2019
5666 Rain 26 1019 78 16093 4.1 70 20:42 29.06.2019
5667 Rain 26 1019 78 16093 4.1 70 20:24 29.06.2019
5668 Rain 25 1020 94 16093 2.6 50 19:48 29.06.2019
5669 Rain 25 1020 94 16093 2.6 50 19:24 29.06.2019
5670 Rain 24 1021 88 9656 5.1 130 18:51 29.06.2019
5671 Rain 25 1021 88 11265 2.1 100 18:26 29.06.2019
5672 Rain 25 1020 94 4828 2.6 160 17:43 29.06.2019
5673 Rain 25 1020 94 16093 3.1 350 17:23 29.06.2019
5674 Rain 25 1020 94 16093 3.1 350 17:23 29.06.2019
5675 Rain 25 1020 78 16093 2.6 40 16:58 29.06.2019
5676 Rain 25 1020 78 16093 2.6 40 16:39 29.06.2019
5677 Rain 27 1019 78 11265 4.1 110 15:53 29.06.2019
5678 Rain 27 1018 79 16093 2.1 170 15:30 29.06.2019
5679 Rain 28 1018 70 16093 5.1 110 14:44 29.06.2019
5680 Rain 28 1018 70 16093 5.1 110 14:26 29.06.2019
5681 Rain 27 1018 74 16093 3.1 80 13:47 29.06.2019
5682 Rain 27 1018 74 16093 3.1 80 13:27 29.06.2019
5683 Rain 27 1018 69 16093 2.1 110 12:53 29.06.2019
5684 Rain 27 1018 69 16093 2.1 110 12:34 29.06.2019
5685 Rain 27 1017 83 16093 2.6 120 11:55 29.06.2019
5686 Rain 27 1018 78 16093 2.1 80 11:37 29.06.2019
5687 Rain 27 1018 78 16093 2.1 80 11:19 29.06.2019
5688 Rain 27 1018 74 16093 2.6 100 10:41 29.06.2019
5689 Rain 27 1018 74 16093 2.6 100 10:20 29.06.2019
5690 Rain 27 1017 74 16093 1.5 140 09:48 29.06.2019
5691 Rain 27 1018 78 16093 4.6 110 08:54 29.06.2019
5692 Rain 27 1018 78 16093 4.6 110 08:25 29.06.2019
5693 Rain 27 1019 78 14484 4.1 130 07:44 29.06.2019
5694 Rain 28 1019 70 16093 5.1 120 06:47 29.06.2019
5695 Rain 28 1019 74 16093 4.6 100 06:24 29.06.2019
5696 Rain 27 1018 83 16093 4.7 117.798 02:52 29.06.2019
5697 Rain 27 1017 78 16093 4.6 40 01:32 29.06.2019
5698 Rain 27 1018 83 16093 4.6 130 00:31 29.06.2019
5699 Rain 27 1019 88 16093 4.6 150 23:37 28.06.2019
5700 Rain 27 1019 88 16093 4.6 150 23:37 28.06.2019
5701 Rain 27 1019 88 16093 4.6 150 23:37 28.06.2019
5702 Rain 27 1019 88 16093 4.6 150 23:19 28.06.2019
5703 Rain 26 1019 83 16093 4.1 180 22:45 28.06.2019
5704 Thunderstorm 31 1019 83 16093 7.7 110 21:58 28.06.2019
5705 Rain 32 1018 55 16093 8.2 100 21:27 28.06.2019
5706 Rain 32 1018 59 16093 7.2 90 20:55 28.06.2019
5707 Rain 33 1018 66 16093 6.2 80 20:37 28.06.2019
5708 Thunderstorm 33 1018 55 16093 7.2 80 20:18 28.06.2019
5709 Thunderstorm 33 1019 52 16093 4.6 90 19:37 28.06.2019
5710 Thunderstorm 33 1019 52 16093 4.6 90 19:19 28.06.2019
5711 Clouds 33 1019 49 16093 3.6 110 18:41 28.06.2019
5712 Clouds 33 1019 49 16093 3.6 110 18:21 28.06.2019
5713 Clouds 32 1019 52 16093 5.7 110 17:41 28.06.2019
5714 Clouds 32 1019 52 16093 5.7 110 17:23 28.06.2019
5715 Clouds 31 1019 52 16093 5.1 100 16:46 28.06.2019
5716 Thunderstorm 31 1019 52 16093 5.1 100 16:18 28.06.2019
5717 Clouds 31 1019 62 16093 3.1 120 15:40 28.06.2019
5718 Clouds 30 1019 62 16093 3.1 120 15:18 28.06.2019
5719 Rain 30 1018 74 16093 2.6 118.903 14:39 28.06.2019
5720 Rain 29 1018 74 16093 2.6 118.903 14:21 28.06.2019
5721 Rain 29 1018 74 16093 2.6 118.903 13:46 28.06.2019
5722 Clouds 28 1018 78 16093 1.5 20 13:27 28.06.2019
5723 Clouds 27 1017 83 16093 2.36 142.065 12:51 28.06.2019
5724 Clouds 27 1017 83 16093 2.36 142.065 12:32 28.06.2019
5725 Clouds 27 1017 83 16093 2.18 134.425 11:40 28.06.2019
5726 Clouds 28 1017 83 16093 2.18 134.425 11:18 28.06.2019
5727 Clouds 28 1017 78 16093 2.18 134.425 10:40 28.06.2019
5728 Clouds 27 1017 78 16093 2.18 134.425 10:18 28.06.2019
5729 Rain 28 1017 78 16093 2.1 50 09:44 28.06.2019
5730 Rain 27 1017 78 16093 2.1 50 09:25 28.06.2019
5731 Rain 27 1018 74 16093 2.6 110 08:43 28.06.2019
5732 Rain 28 1018 70 16093 2.1 100 08:24 28.06.2019
5733 Rain 28 1018 78 16093 1.5 90 07:42 28.06.2019
5734 Thunderstorm 28 1018 74 16093 3.1 110 06:54 28.06.2019
5735 Rain 29 1018 70 16093 5.7 90 03:59 28.06.2019
5736 Clouds 31 1017 59 16093 4.6 100 00:48 28.06.2019
5737 Clouds 31 1017 59 16093 4.6 100 00:20 28.06.2019
5738 Clouds 32 1017 52 16093 4.6 80 23:46 27.06.2019
5739 Clouds 32 1017 52 16093 4.6 80 23:24 27.06.2019
5740 Clear 32 1017 55 16093 7.2 70 22:44 27.06.2019
5741 Clouds 32 1018 55 16093 7.2 90 22:25 27.06.2019
5742 Clouds 32 1018 52 16093 5.7 70 21:58 27.06.2019
5743 Clouds 32 1018 52 16093 5.7 70 21:39 27.06.2019
5744 Clouds 32 1018 52 16093 5.7 70 21:20 27.06.2019
5745 Clouds 33 1018 52 16093 5.1 80 20:48 27.06.2019
5746 Clouds 33 1018 52 16093 5.1 80 20:30 27.06.2019
5747 Clouds 33 1019 52 16093 5.7 80 19:50 27.06.2019
5748 Clouds 33 1019 52 16093 5.7 80 19:29 27.06.2019
5749 Clouds 32 1019 52 16093 4.6 40 18:53 27.06.2019
5750 Clouds 32 1019 52 16093 4.6 40 18:32 27.06.2019
5751 Clouds 32 1019 59 16093 5.7 70 17:58 27.06.2019
5752 Clouds 32 1019 52 16093 3.1 60 17:37 27.06.2019
5753 Clouds 32 1019 52 16093 3.1 60 17:19 27.06.2019
5754 Clouds 31 1019 58 16093 3.6 80 16:38 27.06.2019
5755 Clouds 31 1019 58 16093 3.6 80 16:19 27.06.2019
5756 Clouds 30 1019 66 16093 2.1 50 15:45 27.06.2019
5757 Clouds 30 1019 66 16093 2.1 50 15:24 27.06.2019
5758 Clouds 29 1018 69 16093 1.5 360 14:48 27.06.2019
5759 Clouds 28 1018 69 16093 1.5 360 14:29 27.06.2019
5760 Clear 26 1018 78 16093 1.5 340 13:50 27.06.2019
5761 Clear 26 1018 78 16093 1.5 340 13:31 27.06.2019
5762 Clear 25 1018 94 16093 1.5 10 12:58 27.06.2019
5763 Clouds 25 1018 78 16093 2.28 36.162 12:38 27.06.2019
5764 Clouds 25 1018 78 16093 1.9 49.664 12:19 27.06.2019
5765 Clear 25 1018 78 16093 2.1 330 11:42 27.06.2019
5766 Clear 25 1018 78 16093 2.1 330 11:21 27.06.2019
5767 Clear 25 1018 78 16093 1.5 0 10:46 27.06.2019
5768 Clear 25 1018 78 16093 1.5 0 10:22 27.06.2019
5769 Clouds 25 1018 78 16093 1.5 290 09:56 27.06.2019
5770 Clouds 25 1018 78 16093 1.5 290 09:36 27.06.2019
5771 Clouds 25 1018 78 16093 1.5 290 09:18 27.06.2019
5772 Clear 25 1018 78 16093 2.81 29.894 08:41 27.06.2019
5773 Clear 26 1018 78 16093 2.81 29.894 08:19 27.06.2019
5774 Clouds 26 1019 69 16093 2.1 330 07:38 27.06.2019
5775 Clouds 26 1020 69 16093 2.81 29.894 06:54 27.06.2019
5776 Clouds 26 1020 69 16093 2.81 29.894 06:28 27.06.2019
5777 Clouds 28 1018 61 16093 3.1 300 03:22 27.06.2019
5778 Clouds 29 1018 52 16093 4.04 254.152 02:39 27.06.2019
5779 Clouds 31 1018 48 16093 2.1 340 01:18 27.06.2019
5780 Clouds 31 1017 48 16093 3.6 300 00:42 27.06.2019
5781 Thunderstorm 32 1017 52 16093 2.6 0 00:19 27.06.2019
5782 Thunderstorm 32 1018 52 16093 4.1 70 23:42 26.06.2019
5783 Haze 33 1017 55 16093 5.1 120 23:22 26.06.2019
5784 Clouds 33 1017 43 16093 2.1 0 22:46 26.06.2019
5785 Thunderstorm 34 1017 55 16093 5.1 90 22:27 26.06.2019
5786 Thunderstorm 34 1017 55 16093 4.6 140 21:59 26.06.2019
5787 Thunderstorm 34 1018 55 16093 4.1 130 21:39 26.06.2019
5788 Thunderstorm 34 1018 55 16093 5.1 120 21:19 26.06.2019
5789 Thunderstorm 34 1018 59 16093 5.1 120 20:49 26.06.2019
5790 Thunderstorm 34 1018 59 16093 5.1 120 20:30 26.06.2019
5791 Clouds 34 1019 44 16093 3.1 0 19:50 26.06.2019
5792 Clouds 34 1019 44 16093 3.1 0 19:31 26.06.2019
5793 Clouds 34 1019 52 16093 2.6 270 18:58 26.06.2019
5794 Clouds 34 1019 52 16093 2.6 270 18:58 26.06.2019
5795 Clouds 34 1019 41 16093 2.6 310 18:39 26.06.2019
5796 Clouds 33 1019 41 16093 2.6 310 18:19 26.06.2019
5797 Clouds 33 1019 41 16093 2.6 310 18:19 26.06.2019
5798 Clouds 33 1019 49 16093 1.72 294.764 17:46 26.06.2019
5799 Clouds 33 1019 49 16093 1.72 294.764 17:46 26.06.2019
5800 Clouds 33 1019 49 16093 1.72 294.764 17:27 26.06.2019
5801 Clouds 33 1019 49 16093 1.72 294.764 17:27 26.06.2019
5802 Clouds 33 1019 49 16093 1.72 294.764 17:27 26.06.2019
5803 Clouds 33 1019 49 16093 1.72 294.764 17:27 26.06.2019
5804 Clouds 32 1019 52 16093 1.72 294.764 16:52 26.06.2019
5805 Clouds 32 1019 52 16093 1.72 294.764 16:30 26.06.2019
5806 Clouds 32 1019 52 16093 1.72 294.764 16:29 26.06.2019
5807 Clear 31 1019 62 16093 1.72 294.764 15:58 26.06.2019
5808 Clear 31 1019 62 16093 1.72 294.764 15:28 26.06.2019
5809 Clouds 30 1019 66 16093 1.33 270 14:57 26.06.2019
5810 Clouds 30 1019 66 16093 1.33 270 14:57 26.06.2019
5811 Clouds 29 1019 66 16093 1.33 270 14:37 26.06.2019
5812 Clouds 29 1019 66 16093 1.33 270 14:18 26.06.2019
5813 Clouds 27 1018 69 16093 1.33 270 13:39 26.06.2019
5814 Clear 26 1018 83 16093 1.6 255.087 13:18 26.06.2019
5815 Clouds 26 1018 78 16093 1.6 255.087 12:40 26.06.2019
5816 Clouds 26 1018 78 16093 1.67 242.789 12:19 26.06.2019
5817 Clear 26 1018 74 16093 1.67 242.789 11:37 26.06.2019
5818 Clear 26 1018 74 16093 1.67 242.789 11:18 26.06.2019
5819 Clear 26 1018 69 16093 1.67 242.789 10:39 26.06.2019
5820 Clear 26 1018 69 16093 1.67 242.789 10:20 26.06.2019
5821 Clear 26 1019 65 16093 1.67 242.789 09:36 26.06.2019
5822 Clear 27 1019 65 16093 1.35 262.537 09:18 26.06.2019
5823 Clear 27 1019 69 16093 1.72 258.253 08:23 26.06.2019
5824 Clear 27 1019 62 16093 2.1 290 07:59 26.06.2019
5825 Clear 27 1019 62 16093 2.1 290 07:41 26.06.2019
5826 Clear 28 1019 62 16093 1.72 258.253 06:33 26.06.2019
5827 Clouds 30 1017 66 16093 3.1 150 03:33 26.06.2019
5828 Clear 31 1017 62 16093 3.6 90 00:41 26.06.2019
5829 Thunderstorm 32 1016 52 16093 4.6 120 23:58 25.06.2019
5830 Thunderstorm 32 1016 52 16093 4.6 120 23:39 25.06.2019
5831 Thunderstorm 32 1017 52 16093 3.1 100 23:20 25.06.2019
5832 Thunderstorm 34 1016 49 16093 4.6 140 22:42 25.06.2019
5833 Thunderstorm 34 1016 59 16093 3.1 110 22:23 25.06.2019
5834 Thunderstorm 34 1017 52 16093 1.5 0 21:46 25.06.2019
5835 Thunderstorm 35 1017 41 16093 4.1 130 21:27 25.06.2019
5836 -273 0 0 0 0 0 20:57 25.06.2019
5837 Thunderstorm 35 1017 47 16093 4.1 120 20:36 25.06.2019
5838 Clouds 35 1018 52 16093 4.1 120 20:18 25.06.2019
5839 Clouds 35 1018 41 16093 1.5 340 19:43 25.06.2019
5840 Clouds 35 1018 41 16093 1.5 340 19:21 25.06.2019
5841 Clouds 34 1018 49 16093 1.51 347.607 18:42 25.06.2019
5842 Clouds 34 1018 49 16093 2.4 270.359 18:24 25.06.2019
5843 -273 0 0 0 0 0 17:46 25.06.2019
5844 -273 0 0 0 0 0 17:26 25.06.2019
5845 -273 0 0 0 0 0 17:26 25.06.2019
5846 Clouds 33 1018 59 16093 2.1 210 16:44 25.06.2019
5847 Clouds 32 1018 59 16093 2.1 210 16:26 25.06.2019
5848 Clouds 32 1018 58 16093 2.1 210 15:59 25.06.2019
5849 Clouds 31 1018 58 16093 2.1 210 15:39 25.06.2019
5850 Clouds 31 1018 58 16093 2.1 210 15:20 25.06.2019
5851 Clouds 30 1018 70 16093 3.1 200 14:45 25.06.2019
5852 Clouds 29 1018 70 16093 3.1 200 14:26 25.06.2019
5853 Clouds 27 1017 69 16093 2.1 230 13:42 25.06.2019
5854 Clouds 27 1017 69 16093 2.1 230 13:23 25.06.2019
5855 Clouds 27 1017 69 16093 2.1 200 12:42 25.06.2019
5856 Clouds 26 1017 69 16093 2.1 200 12:24 25.06.2019
5857 Haze 27 1016 74 16093 1.5 180 11:45 25.06.2019
5858 Haze 27 1016 74 16093 1.5 180 11:24 25.06.2019
5859 Haze 27 1016 78 9656 2.1 180 10:58 25.06.2019
5860 Clouds 27 1016 69 16093 2.01 229.371 10:37 25.06.2019
5861 Clouds 27 1016 69 16093 2.01 229.371 10:19 25.06.2019
5862 Clouds 27 1017 69 16093 1.5 200 09:39 25.06.2019
5863 Clouds 27 1017 69 16093 1.5 200 09:21 25.06.2019
5864 Clouds 27 1017 70 16093 2.1 210 08:54 25.06.2019
5865 Clouds 28 1017 70 16093 2.1 210 08:31 25.06.2019
5866 Clouds 28 1017 70 16093 2.1 200 07:45 25.06.2019
5867 Clouds 28 1017 70 16093 2.1 200 07:26 25.06.2019
5868 Clouds 28 1018 70 16093 1.5 200 06:47 25.06.2019
5869 Smoke 29 1017 78 16093 1.5 190 05:58 25.06.2019
5870 Smoke 30 1016 62 16093 2.6 160 02:43 25.06.2019
5871 -273 0 0 0 0 0 00:56 25.06.2019
5872 Thunderstorm 31 1016 62 16093 2.6 170 00:20 25.06.2019
5873 Thunderstorm 31 1016 62 16093 2.1 150 23:51 24.06.2019
5874 Rain 31 1017 58 16093 3.6 120 23:32 24.06.2019
5875 Thunderstorm 31 1017 65 16093 4.1 130 22:48 24.06.2019
5876 Thunderstorm 31 1017 52 16093 5.7 70 22:21 24.06.2019
5877 Thunderstorm 33 1017 62 16093 9.3 90 21:57 24.06.2019
5878 Thunderstorm 33 1017 37 16093 4.06 15.43 21:37 24.06.2019
5879 Thunderstorm 34 1016 41 16093 2.6 0 21:18 24.06.2019
5880 Haze 34 1017 55 16093 2.6 90 20:43 24.06.2019
5881 Haze 34 1017 55 16093 2.6 90 20:43 24.06.2019
5882 Haze 34 1017 47 16093 3.1 240 20:23 24.06.2019
5883 Clouds 34 1017 46 16093 2.57 294.287 19:58 24.06.2019
5884 Clouds 34 1017 46 16093 2.57 294.287 19:39 24.06.2019
5885 Clouds 34 1017 46 16093 2.57 294.287 19:21 24.06.2019
5886 Clouds 34 1018 46 16093 2.1 0 18:41 24.06.2019
5887 Clouds 33 1018 46 16093 2.1 0 18:20 24.06.2019
5888 Haze 33 1018 52 16093 2.1 270 17:37 24.06.2019
5889 Haze 32 1018 52 16093 2.1 270 17:18 24.06.2019
5890 Haze 32 1018 55 16093 3.1 210 16:44 24.06.2019
5891 Haze 31 1018 55 16093 3.1 210 16:19 24.06.2019
5892 Clouds 31 1017 58 16093 3.6 240 15:44 24.06.2019
5893 Clouds 30 1017 58 16093 3.6 240 15:25 24.06.2019
5894 Clouds 29 1017 70 16093 2.1 220 14:37 24.06.2019
5895 Clouds 29 1017 70 16093 2.1 220 14:19 24.06.2019
5896 Clouds 27 1017 74 16093 2.6 210 13:33 24.06.2019
5897 Clouds 27 1017 74 16093 2.1 240 12:58 24.06.2019
5898 Clouds 27 1017 74 16093 2.1 240 12:39 24.06.2019
5899 Clouds 26 1017 74 16093 2.1 240 12:20 24.06.2019
5900 Clouds 27 1017 74 16093 1.5 210 11:44 24.06.2019
5901 Clouds 27 1017 74 16093 1.5 210 11:26 24.06.2019
5902 Clouds 27 1017 74 16093 1.5 200 10:52 24.06.2019
5903 Clouds 27 1017 74 16093 1.5 200 10:33 24.06.2019
5904 Clouds 27 1017 69 16093 2.91 227.324 09:56 24.06.2019
5905 Clouds 27 1017 69 16093 2.91 227.324 09:37 24.06.2019
5906 Clouds 27 1017 69 16093 3.37 196.39 09:18 24.06.2019
5907 Clouds 27 1017 69 16093 3.37 196.39 08:34 24.06.2019
5908 Clouds 28 1018 66 16093 3.41 197.818 07:49 24.06.2019
5909 Clouds 27 1018 66 16093 3.41 197.818 07:27 24.06.2019
5910 Clear 28 1018 83 16093 3.41 197.818 06:57 24.06.2019
5911 Clouds 28 1018 65 16093 4.59 175.542 06:23 24.06.2019
5912 Clouds 28 1018 70 16093 3.6 210 05:31 24.06.2019
5913 Clear 29 1017 70 16093 3.1 130 04:34 24.06.2019
5914 Clouds 29 1017 70 16093 3.1 160 03:32 24.06.2019
5915 Thunderstorm 30 1018 70 16093 3.1 190 02:34 24.06.2019
5916 Thunderstorm 30 1017 66 16093 4.6 130 01:54 24.06.2019
5917 Thunderstorm 30 1017 62 16093 4.6 120 01:28 24.06.2019
5918 Thunderstorm 31 1017 52 16093 5.1 100 00:45 24.06.2019
5919 Thunderstorm 32 1017 52 16093 5.1 100 00:20 24.06.2019
5920 Thunderstorm 32 1017 55 16093 5.7 110 23:47 23.06.2019
5921 Thunderstorm 33 1017 52 16093 4.1 130 23:28 23.06.2019
5922 Haze 34 1017 49 16093 5.1 130 22:55 23.06.2019
5923 Haze 34 1017 49 16093 5.1 130 22:37 23.06.2019
5924 Haze 34 1017 49 16093 5.1 130 22:19 23.06.2019
5925 Haze 34 1017 49 16093 3.1 0 21:40 23.06.2019
5926 Haze 34 1017 49 16093 3.1 0 21:21 23.06.2019
5927 Clouds 34 1018 49 16093 2.6 150 20:45 23.06.2019
5928 Clouds 34 1018 49 16093 2.6 150 20:26 23.06.2019
5929 Clouds 34 1019 55 16093 2.1 0 19:46 23.06.2019
5930 Clouds 34 1019 55 16093 2.1 0 19:22 23.06.2019
5931 Clouds 34 1019 66 16093 4.1 80 18:54 23.06.2019
5932 Clouds 34 1019 49 16093 2.72 233.973 18:25 23.06.2019
5933 Clouds 33 1019 49 16093 2.72 233.973 17:54 23.06.2019
5934 Clouds 33 1019 49 16093 2.72 233.973 17:28 23.06.2019
5935 Clouds 32 1019 66 12874 2.72 233.973 16:59 23.06.2019
5936 Clear 32 1020 62 16093 2.1 0 16:41 23.06.2019
5937 Clear 32 1020 62 16093 2.1 0 16:22 23.06.2019
5938 Clouds 30 1019 66 16093 2.72 233.973 15:41 23.06.2019
5939 Clouds 30 1019 66 16093 2.18 254.505 15:22 23.06.2019
5940 Clouds 29 1019 74 16093 2.18 254.505 14:42 23.06.2019
5941 Clouds 29 1019 74 16093 2.18 254.505 14:24 23.06.2019
5942 Clouds 28 1019 78 16093 2.18 254.505 13:59 23.06.2019
5943 Clouds 27 1019 78 16093 2.18 254.505 13:41 23.06.2019
5944 Clouds 27 1019 78 16093 2.26 241.216 13:19 23.06.2019
5945 Clouds 27 1019 78 16093 2.26 241.216 12:47 23.06.2019
5946 Clouds 27 1019 78 16093 2.54 215.58 12:23 23.06.2019
5947 Clouds 27 1019 78 16093 2.54 215.58 11:58 23.06.2019
5948 Clouds 27 1019 78 16093 2.54 215.58 11:40 23.06.2019
5949 Clouds 27 1019 78 16093 2.54 215.58 11:21 23.06.2019
5950 Clouds 27 1019 78 16093 2.54 215.58 10:46 23.06.2019
5951 Clouds 27 1019 78 16093 2.54 215.58 10:20 23.06.2019
5952 Clouds 27 1019 78 16093 2.54 215.58 10:20 23.06.2019
5953 Clouds 28 1019 74 16093 2.54 215.58 09:44 23.06.2019
5954 Clouds 28 1019 74 16093 2.21 238.586 09:21 23.06.2019
5955 Clouds 28 1020 78 16093 2.21 238.586 08:45 23.06.2019
5956 Clouds 28 1020 78 16093 2.23 250.49 08:27 23.06.2019
5957 Clouds 28 1020 74 16093 2.23 250.49 07:55 23.06.2019
5958 Clouds 28 1020 74 16093 2.23 250.49 07:24 23.06.2019
5959 Clouds 29 1020 74 16093 1.5 140 06:54 23.06.2019
5960 Clouds 29 1020 83 16093 2.1 140 05:55 23.06.2019
5961 Clouds 29 1019 74 16093 2.1 180 04:38 23.06.2019
5962 Clouds 30 1019 70 16093 3.1 150 02:19 23.06.2019
5963 Clouds 31 1019 62 16093 3.6 160 01:37 23.06.2019
5964 Clouds 32 1019 55 16093 4.6 130 00:37 23.06.2019
5965 Clouds 32 1019 49 16093 4.6 120 23:57 22.06.2019
5966 Clouds 32 1019 49 16093 4.6 120 23:38 22.06.2019
5967 Clouds 32 1019 49 16093 4.6 120 23:19 22.06.2019
5968 Clouds 33 1019 49 16093 5.1 100 22:44 22.06.2019
5969 Clouds 33 1019 49 16093 5.1 100 22:19 22.06.2019
5970 Clouds 34 1020 49 16093 5.1 120 21:39 22.06.2019
5971 Clouds 34 1020 49 16093 5.1 120 21:20 22.06.2019
5972 Clouds 34 1020 56 16093 5.1 130 20:50 22.06.2019
5973 Clouds 34 1020 56 16093 5.1 130 20:25 22.06.2019
5974 Clouds 34 1020 52 16093 4.1 120 19:50 22.06.2019
5975 Clouds 34 1020 52 16093 4.1 120 19:28 22.06.2019
5976 Clouds 34 1020 52 16093 1.07 214.062 18:55 22.06.2019
5977 Clouds 33 1020 52 16093 1.07 214.062 18:33 22.06.2019
5978 Clouds 33 1021 59 16093 1.5 210 17:57 22.06.2019
5979 Clouds 33 1021 59 16093 1.5 210 17:36 22.06.2019
5980 Clouds 32 1021 59 16093 1.5 210 17:18 22.06.2019
5981 Clouds 32 1020 59 16093 1.5 30 16:39 22.06.2019
5982 Clouds 31 1020 66 16093 1.57 264.763 16:20 22.06.2019
5983 Clouds 30 1021 66 16093 1.57 264.763 15:40 22.06.2019
5984 Clouds 30 1021 79 16093 1.5 240 15:22 22.06.2019
5985 Clouds 29 1020 74 16093 2.6 0 14:37 22.06.2019
5986 Clouds 28 1020 74 16093 2.6 0 14:18 22.06.2019
5987 Clouds 27 1020 78 16093 1.5 260 13:42 22.06.2019
5988 Clouds 27 1020 78 16093 1.5 260 13:23 22.06.2019
5989 Clouds 27 1020 88 16093 1.5 270 12:53 22.06.2019
5990 Clouds 27 1020 83 16093 1.63 239.665 12:34 22.06.2019
5991 Clear 27 1019 100 11265 2.14 230.809 11:58 22.06.2019
5992 Clouds 27 1019 88 16093 2.14 230.809 11:34 22.06.2019
5993 Clouds 27 1019 78 16093 2.14 230.809 10:53 22.06.2019
5994 Mist 27 1019 78 16093 2.14 230.809 10:21 22.06.2019
5995 Mist 27 1019 78 16093 2.14 230.809 10:21 22.06.2019
5996 Mist 27 1019 78 16093 2.14 230.809 09:55 22.06.2019
5997 Mist 27 1019 78 16093 2.32 222.743 09:22 22.06.2019
5998 Clouds 27 1019 78 16093 2.29 212.835 08:43 22.06.2019
5999 Clouds 27 1019 78 16093 2.29 212.835 08:22 22.06.2019
6000 Clouds 28 1020 74 16093 1.5 0 07:33 22.06.2019
6001 Clouds 28 1020 79 16093 2.29 212.835 06:55 22.06.2019
6002 Clouds 28 1020 74 16093 2.1 0 05:22 22.06.2019
6003 Haze 30 1019 62 16093 3.1 0 02:33 22.06.2019
6004 Haze 31 1019 62 16093 5.1 150 01:19 22.06.2019
6005 Thunderstorm 31 1019 59 16093 5.1 130 00:39 22.06.2019
6006 Thunderstorm 32 1019 59 16093 5.1 130 00:19 22.06.2019
6007 Clouds 32 1019 59 16093 5.7 120 23:42 21.06.2019
6008 Clouds 33 1019 59 16093 5.7 120 23:21 21.06.2019
6009 Clouds 33 1019 59 16093 5.7 130 22:47 21.06.2019
6010 Clouds 33 1019 59 16093 5.7 130 22:47 21.06.2019
6011 Clouds 33 1019 59 16093 5.7 130 22:23 21.06.2019
6012 Clouds 33 1019 52 16093 5.1 130 21:40 21.06.2019
6013 Clouds 33 1019 52 16093 5.1 130 21:40 21.06.2019
6014 Clouds 33 1019 52 16093 5.1 130 21:22 21.06.2019
6015 Clouds 33 1019 59 16093 4.1 130 20:54 21.06.2019
6016 Clouds 34 1019 59 16093 4.1 130 20:28 21.06.2019
6017 Clouds 34 1019 50 16093 2.6 120 19:59 21.06.2019
6018 Clouds 34 1019 50 16093 2.6 120 19:31 21.06.2019
6019 Clouds 33 1019 52 16093 2.21 323.322 18:49 21.06.2019
6020 Clouds 33 1019 52 16093 2.21 323.322 18:29 21.06.2019
6021 Clouds 33 1019 59 16093 1.19 250.789 17:46 21.06.2019
6022 Clouds 32 1019 59 16093 1.19 250.789 17:28 21.06.2019
6023 Clouds 32 1019 62 16093 1.5 180 16:40 21.06.2019
6024 Clouds 31 1019 62 16093 1.5 180 16:22 21.06.2019
6025 Clouds 30 1019 74 16093 1.5 200 15:40 21.06.2019
6026 Clouds 30 1019 74 16093 1.5 200 15:20 21.06.2019
6027 Clouds 29 1019 74 16093 1.18 276.05 14:49 21.06.2019
6028 Clouds 29 1019 74 16093 1.18 276.05 14:30 21.06.2019
6029 Clouds 27 1018 78 16093 1.18 276.05 13:53 21.06.2019
6030 Clear 27 1018 83 16093 1.46 248.257 13:33 21.06.2019
6031 Clouds 26 1018 83 16093 1.46 248.257 12:58 21.06.2019
6032 Clouds 26 1018 83 16093 1.46 248.257 12:38 21.06.2019
6033 Clouds 26 1018 83 16093 2.09 238.97 12:18 21.06.2019
6034 Clouds 26 1018 83 16093 2.09 238.97 12:18 21.06.2019
6035 Clouds 26 1018 83 16093 2.09 238.97 12:18 21.06.2019
6036 Clouds 26 1018 83 16093 2.09 238.97 12:18 21.06.2019
6037 Clear 26 1018 83 16093 1.5 200 11:46 21.06.2019
6038 Clear 27 1018 83 16093 1.5 200 11:24 21.06.2019
6039 Clouds 27 1018 78 16093 2.1 190 10:49 21.06.2019
6040 Clouds 27 1018 78 16093 2.1 190 10:21 21.06.2019
6041 Clouds 27 1018 78 16093 1.5 220 09:57 21.06.2019
6042 Clouds 27 1018 78 16093 1.5 240 09:39 21.06.2019
6043 Clouds 27 1018 78 16093 1.5 240 09:19 21.06.2019
6044 Clouds 28 1019 74 16093 2.1 210 08:42 21.06.2019
6045 Clouds 28 1019 74 16093 2.1 210 08:22 21.06.2019
6046 Clouds 28 1019 74 16093 1.5 250 07:50 21.06.2019
6047 Clouds 28 1019 74 16093 1.5 250 07:27 21.06.2019
6048 Clouds 28 1019 74 16093 2.1 180 06:53 21.06.2019
6049 Clouds 28 1019 74 16093 2.1 180 06:20 21.06.2019
6050 Clear 28 1018 70 16093 3.6 190 05:25 21.06.2019
6051 Clouds 29 1018 74 16093 2.1 0 04:22 21.06.2019
6052 Clouds 29 1017 70 16093 4.6 160 03:33 21.06.2019
6053 Clouds 29 1017 66 16093 4.1 170 02:48 21.06.2019
6054 Clouds 30 1017 62 16093 5.1 160 01:48 21.06.2019
6055 Clouds 31 1017 59 16093 4.6 150 00:55 21.06.2019
6056 Clouds 32 1017 59 16093 4.6 150 00:22 21.06.2019
6057 Clouds 32 1017 59 16093 4.1 140 23:44 20.06.2019
6058 Clouds 32 1017 59 16093 4.1 140 23:22 20.06.2019
6059 Clouds 33 1017 59 16093 4.1 170 22:56 20.06.2019
6060 Clouds 33 1017 59 16093 4.1 170 22:38 20.06.2019
6061 Clouds 33 1017 59 16093 4.1 170 22:19 20.06.2019
6062 Clouds 33 1017 59 16093 4.1 150 21:44 20.06.2019
6063 Clouds 33 1017 59 16093 4.1 150 21:19 20.06.2019
6064 Clouds 33 1017 59 16093 5.7 120 20:47 20.06.2019
6065 Clouds 33 1017 59 16093 5.7 120 20:26 20.06.2019
6066 Clouds 33 1018 59 16093 4.6 140 19:58 20.06.2019
6067 Clouds 33 1018 59 16093 4.6 140 19:39 20.06.2019
6068 Clouds 33 1018 59 16093 4.6 140 19:18 20.06.2019
6069 Clouds 33 1018 55 16093 2.1 0 18:43 20.06.2019
6070 Clouds 33 1018 55 16093 2.1 0 18:23 20.06.2019
6071 Clouds 32 1019 59 16093 3.28 215.975 17:53 20.06.2019
6072 Clouds 32 1019 59 16093 4.1 170 17:35 20.06.2019
6073 Clouds 31 1019 66 16093 3.6 190 16:56 20.06.2019
6074 Clouds 31 1019 70 16093 3.6 230 16:37 20.06.2019
6075 Clouds 31 1019 70 16093 3.6 230 16:18 20.06.2019
6076 Clouds 31 1019 70 16093 3.6 230 16:18 20.06.2019
6077 Clouds 30 1019 79 16093 4.1 220 15:41 20.06.2019
6078 Clouds 30 1019 79 16093 4.1 220 15:22 20.06.2019
6079 Clouds 29 1018 79 16093 3.1 190 14:46 20.06.2019
6080 Clouds 28 1017 78 16093 1.5 170 14:23 20.06.2019
6081 Clouds 28 1017 78 16093 1.5 170 14:23 20.06.2019
6082 Clouds 27 1017 78 16093 2.1 150 13:41 20.06.2019
6083 Clouds 27 1017 78 16093 2.1 150 13:21 20.06.2019
6084 Clouds 26 1017 88 16093 1.5 140 12:50 20.06.2019
6085 Clouds 26 1017 88 16093 1.5 140 12:50 20.06.2019
6086 Clouds 26 1017 88 16093 1.5 140 12:25 20.06.2019
6087 Clouds 26 1016 88 16093 3.54 181.473 11:58 20.06.2019
6088 Clouds 26 1016 88 16093 3.54 181.473 11:38 20.06.2019
6089 Clouds 26 1016 88 16093 3.54 181.473 11:20 20.06.2019
6090 Clouds 26 1016 83 16093 1.5 140 10:41 20.06.2019
6091 Clouds 26 1016 83 16093 1.5 140 10:22 20.06.2019
6092 Clouds 26 1016 100 16093 1.5 150 09:40 20.06.2019
6093 Clouds 26 1016 100 16093 1.5 150 09:22 20.06.2019
6094 Clouds 26 1017 83 16093 2.1 130 08:47 20.06.2019
6095 Clouds 26 1017 83 16093 2.1 130 08:27 20.06.2019
6096 Clouds 26 1018 83 16093 2.43 211.543 07:55 20.06.2019
6097 Clouds 26 1018 83 16093 2.43 211.543 07:30 20.06.2019
6098 Clouds 27 1018 78 16093 1.5 140 06:43 20.06.2019
6099 Clouds 27 1018 78 16093 1.5 140 06:18 20.06.2019
6100 Thunderstorm 27 1017 74 16093 3.1 160 03:37 20.06.2019
6101 Thunderstorm 28 1018 69 16093 3.1 330 00:34 20.06.2019
6102 Thunderstorm 29 1016 59 16093 3.6 180 23:59 19.06.2019
6103 Thunderstorm 30 1016 55 16093 5.1 150 23:41 19.06.2019
6104 Thunderstorm 31 1016 55 16093 5.1 150 23:23 19.06.2019
6105 Thunderstorm 31 1016 55 16093 6.2 170 22:48 19.06.2019
6106 Thunderstorm 31 1016 55 16093 6.2 170 22:20 19.06.2019
6107 Thunderstorm 32 1016 74 16093 7.2 150 21:54 19.06.2019
6108 Thunderstorm 32 1016 74 16093 7.2 150 21:54 19.06.2019
6109 Thunderstorm 32 1016 59 16093 5.7 150 21:36 19.06.2019
6110 Thunderstorm 32 1016 59 16093 5.7 150 21:18 19.06.2019
6111 Clouds 32 1017 55 16093 6.2 140 20:39 19.06.2019
6112 Clouds 32 1017 55 16093 6.2 140 20:20 19.06.2019
6113 Clear 32 1018 52 16093 6.7 130 19:42 19.06.2019
6114 Clear 32 1018 52 16093 6.7 130 19:21 19.06.2019
6115 Clouds 32 1018 59 16093 4.1 160 18:51 19.06.2019
6116 Clouds 32 1018 59 16093 4.1 160 18:21 19.06.2019
6117 Clouds 31 1018 66 16093 4.1 170 17:41 19.06.2019
6118 Clouds 31 1018 66 16093 4.1 170 17:22 19.06.2019
6119 Clouds 30 1018 70 16093 3.1 170 16:40 19.06.2019
6120 Clouds 30 1018 70 16093 3.1 170 16:22 19.06.2019
6121 Clouds 29 1018 79 16093 2.6 170 15:55 19.06.2019
6122 Clouds 29 1018 79 16093 4.1 150 15:31 19.06.2019
6123 Clouds 28 1018 89 16093 2.6 150 14:57 19.06.2019
6124 Clouds 28 1017 94 16093 1.5 170 14:39 19.06.2019
6125 Clouds 27 1017 88 16093 2.6 140 14:21 19.06.2019
6126 Clouds 26 1017 88 16093 2.79 179.343 13:43 19.06.2019
6127 Clouds 26 1017 88 16093 2.53 185.564 13:24 19.06.2019
6128 Clouds 25 1017 88 16093 1.5 130 12:44 19.06.2019
6129 Clouds 25 1017 88 16093 1.5 130 12:22 19.06.2019
6130 Clouds 24 1017 88 16093 2.16 182.629 11:56 19.06.2019
6131 Clouds 24 1017 88 16093 2.16 182.629 11:38 19.06.2019
6132 Clouds 24 1017 88 16093 2.16 182.629 11:19 19.06.2019
6133 Clouds 24 1017 88 16093 1.5 150 10:45 19.06.2019
6134 Clouds 24 1017 88 16093 1.5 150 10:26 19.06.2019
6135 Clouds 23 1017 88 16093 2.16 182.629 09:43 19.06.2019
6136 Clouds 23 1017 88 16093 1.95 204.892 09:22 19.06.2019
6137 Clear 23 1017 88 16093 1.89 176.687 08:51 19.06.2019
6138 Clear 23 1017 88 16093 1.89 176.687 08:29 19.06.2019
6139 Clouds 23 1018 88 16093 1.89 176.687 07:52 19.06.2019
6140 Clouds 23 1018 88 16093 1.89 176.687 07:34 19.06.2019
6141 Clouds 23 1018 88 16093 1.5 140 06:55 19.06.2019
6142 Clouds 24 1018 88 16093 1.5 140 06:30 19.06.2019
6143 Clouds 24 1019 83 16093 2.5 214.49 05:50 19.06.2019
6144 Clouds 23 1018 88 16093 2.5 214.49 04:41 19.06.2019
6145 Rain 24 1018 88 16093 2.5 214.49 03:48 19.06.2019
6146 Rain 24 1018 88 16093 1.5 0 02:34 19.06.2019
6147 Rain 24 1019 88 16093 1.5 160 01:29 19.06.2019
6148 Rain 24 1019 88 16093 2.1 180 00:53 19.06.2019
6149 Rain 25 1018 73 12874 2.6 80 00:35 19.06.2019
6150 Rain 25 1018 94 3219 3.6 180 23:58 18.06.2019
6151 Rain 25 1018 94 3219 3.6 180 23:58 18.06.2019
6152 Rain 25 1018 94 3219 3.6 180 23:58 18.06.2019
6153 Rain 26 1019 83 8047 5.1 160 23:30 18.06.2019
6154 Rain 26 1018 78 805 6.7 310 22:55 18.06.2019
6155 Rain 27 1017 74 16093 4.1 130 22:37 18.06.2019
6156 Rain 28 1017 78 11265 4.6 120 22:19 18.06.2019
6157 Rain 30 1017 62 16093 5.1 170 21:44 18.06.2019
6158 Thunderstorm 31 1018 46 16093 4.6 170 21:21 18.06.2019
6159 Clouds 32 1017 62 16093 4.1 170 20:55 18.06.2019
6160 Clouds 32 1018 48 16093 5.1 140 20:37 18.06.2019
6161 Clouds 32 1018 48 16093 5.1 140 20:18 18.06.2019
6162 Clouds 32 1018 48 16093 5.1 140 20:18 18.06.2019
6163 Clouds 32 1018 55 16093 4.1 160 19:39 18.06.2019
6164 Clouds 32 1018 55 16093 4.1 160 19:20 18.06.2019
6165 Clouds 32 1019 59 16093 3.6 150 18:46 18.06.2019
6166 Clouds 31 1019 59 16093 3.6 150 18:25 18.06.2019
6167 Clouds 31 1019 58 16093 3.1 150 17:42 18.06.2019
6168 Clouds 30 1019 58 16093 3.1 150 17:21 18.06.2019
6169 Clouds 30 1018 70 16093 3.6 120 16:57 18.06.2019
6170 Clouds 29 1019 66 16093 3.1 0 16:38 18.06.2019
6171 Clouds 29 1019 66 16093 3.1 0 16:20 18.06.2019
6172 Clouds 28 1018 69 16093 3.51 202.948 15:38 18.06.2019
6173 Clouds 27 1018 69 16093 2.68 197.115 15:20 18.06.2019
6174 Clouds 26 1018 78 16093 2.68 197.115 14:55 18.06.2019
6175 Clouds 26 1018 78 16093 2.68 197.115 14:36 18.06.2019
6176 Clouds 26 1018 78 16093 2.68 197.115 14:18 18.06.2019
6177 Clouds 25 1018 83 16093 2.68 197.115 13:41 18.06.2019
6178 Clouds 24 1018 83 16093 1.75 203.856 13:22 18.06.2019
6179 Clouds 24 1017 94 16093 1.75 203.856 12:44 18.06.2019
6180 Clouds 24 1017 88 16093 2.34 185.754 12:25 18.06.2019
6181 Clouds 24 1017 88 16093 1.5 150 11:47 18.06.2019
6182 Clouds 24 1017 88 16093 1.5 150 11:23 18.06.2019
6183 Rain 24 1017 83 16093 2.6 120 10:57 18.06.2019
6184 Rain 24 1017 83 16093 2.6 120 10:38 18.06.2019
6185 Rain 24 1017 83 16093 2.6 120 10:19 18.06.2019
6186 Rain 24 1018 88 14484 2.1 170 09:49 18.06.2019
6187 Rain 24 1018 88 14484 2.1 170 09:24 18.06.2019
6188 Rain 24 1019 83 16093 3.6 160 08:46 18.06.2019
6189 Rain 24 1019 88 16093 4.1 160 08:21 18.06.2019
6190 Rain 24 1019 88 16093 4.1 160 08:21 18.06.2019
6191 Rain 25 1019 88 11265 5.1 180 07:41 18.06.2019
6192 Rain 26 1019 88 16093 6.7 180 07:23 18.06.2019
6193 Rain 26 1019 94 16093 4.1 170 06:45 18.06.2019
6194 Rain 26 1019 78 16093 5.1 120 05:21 18.06.2019
6195 Rain 25 1018 83 16093 4.6 110 03:59 18.06.2019
6196 Rain 25 1018 83 16093 3.6 90 02:27 18.06.2019
6197 Rain 24 1018 83 16093 2.1 50 01:25 18.06.2019
6198 Rain 24 1018 88 16093 3.6 70 00:57 18.06.2019
6199 Rain 25 1017 83 16093 1.5 50 00:30 18.06.2019
6200 Rain 25 1018 88 16093 1.5 10 23:42 17.06.2019
6201 Rain 26 1018 88 16093 1.5 10 23:22 17.06.2019
6202 Rain 26 1018 94 16093 2.6 360 22:58 17.06.2019
6203 Rain 27 1018 83 16093 2.6 330 22:38 17.06.2019
6204 Rain 27 1018 83 16093 4.41 177.051 22:20 17.06.2019
6205 Rain 27 1018 78 6437 4.1 220 21:42 17.06.2019
6206 Rain 26 1018 74 16093 1.5 90 21:23 17.06.2019
6207 Rain 26 1018 88 16093 1.5 70 20:41 17.06.2019
6208 Rain 25 1018 83 16093 2.6 110 20:23 17.06.2019
6209 Rain 25 1018 94 12874 3.1 270 19:57 17.06.2019
6210 Rain 25 1018 94 12874 3.1 270 19:39 17.06.2019
6211 Rain 26 1018 94 12874 3.1 270 19:20 17.06.2019
6212 Rain 26 1019 88 3219 4.1 200 18:39 17.06.2019
6213 Rain 26 1019 88 3219 4.1 200 18:39 17.06.2019
6214 Rain 26 1019 78 9656 4.6 200 18:18 17.06.2019
6215 Rain 26 1019 88 3219 4.1 200 18:18 17.06.2019
6216 Rain 27 1018 88 6437 2.6 40 17:48 17.06.2019
6217 Rain 27 1018 88 6437 2.6 40 17:30 17.06.2019
6218 Rain 27 1018 88 3219 7.2 160 16:59 17.06.2019
6219 Rain 27 1017 83 6437 2.1 0 16:41 17.06.2019
6220 Rain 27 1017 83 6437 2.1 0 16:23 17.06.2019
6221 Rain 26 1018 88 6437 5.1 130 15:44 17.06.2019
6222 Rain 26 1017 78 16093 3.6 70 15:20 17.06.2019
6223 Rain 26 1017 78 16093 4.6 240 14:56 17.06.2019
6224 Rain 26 1017 74 16093 3.6 150 14:38 17.06.2019
6225 Rain 26 1017 74 16093 3.1 120 14:19 17.06.2019
6226 Rain 26 1016 83 16093 4.6 130 13:42 17.06.2019
6227 Clouds 26 1017 88 16093 2.1 70 13:21 17.06.2019
6228 Rain 25 1016 78 16093 3.6 100 12:46 17.06.2019
6229 Rain 25 1016 78 16093 3.6 100 12:22 17.06.2019
6230 Rain 25 1016 83 16093 3.1 80 11:45 17.06.2019
6231 Rain 25 1016 83 16093 3.1 80 11:26 17.06.2019
6232 Rain 25 1017 88 4023 7.7 170 10:56 17.06.2019
6233 Rain 25 1015 83 6437 6.7 90 10:38 17.06.2019
6234 Rain 25 1015 83 6437 6.7 90 10:20 17.06.2019
6235 Rain 25 1015 78 16093 3.1 110 09:39 17.06.2019
6236 Rain 25 1015 78 16093 3.1 110 09:20 17.06.2019
6237 Rain 26 1017 78 16093 2.6 100 08:40 17.06.2019
6238 Rain 27 1017 78 16093 2.6 100 08:22 17.06.2019
6239 Clouds 27 1017 78 16093 3.6 110 07:40 17.06.2019
6240 Clouds 26 1017 78 16093 3.6 110 07:20 17.06.2019
6241 Clouds 26 1017 74 16093 3.6 100 06:30 17.06.2019
6242 Clouds 25 1017 78 16093 3.6 90 05:42 17.06.2019
6243 Clouds 25 1017 78 16093 2.6 120 04:33 17.06.2019
6244 Clouds 25 1017 78 16093 3.1 100 03:35 17.06.2019
6245 Rain 25 1017 78 16093 3.6 80 02:58 17.06.2019
6246 Rain 25 1017 78 16093 3.6 80 02:39 17.06.2019
6247 Rain 24 1017 83 16093 3.6 80 01:41 17.06.2019
6248 Rain 24 1016 94 16093 3.6 50 00:59 17.06.2019
6249 Rain 24 1017 83 16093 3.1 60 00:41 17.06.2019
6250 Rain 24 1017 83 16093 3.1 60 00:21 17.06.2019
6251 Rain 24 1017 88 16093 1.5 110 23:40 16.06.2019
6252 Rain 24 1017 88 16093 1.5 110 23:21 16.06.2019
6253 Rain 24 1018 83 16093 1.5 140 22:47 16.06.2019
6254 Rain 24 1018 83 16093 1.5 140 22:21 16.06.2019
6255 Rain 24 1018 94 12874 1.5 230 21:59 16.06.2019
6256 Rain 24 1018 88 12874 3.87 90.949 21:40 16.06.2019
6257 Rain 24 1018 88 12874 3.87 90.949 21:40 16.06.2019
6258 Rain 24 1018 88 12874 3.17 98.995 21:22 16.06.2019
6259 Rain 24 1019 94 4828 4.6 200 20:56 16.06.2019
6260 Rain 24 1019 94 16093 2.6 130 20:37 16.06.2019
6261 Rain 24 1019 94 16093 2.6 130 20:37 16.06.2019
6262 Rain 24 1019 94 16093 2.6 130 20:18 16.06.2019
6263 Rain 24 1019 94 6437 3.6 200 19:41 16.06.2019
6264 Rain 24 1019 94 4023 4.22 146.717 19:22 16.06.2019
6265 Rain 24 1019 94 1207 2.6 0 18:58 16.06.2019
6266 Rain 24 1019 94 3219 2.1 200 18:39 16.06.2019
6267 Rain 24 1019 88 6437 2.6 260 18:20 16.06.2019
6268 Rain 24 1018 94 6437 2.1 20 17:47 16.06.2019
6269 Rain 24 1019 100 805 4 155.813 17:22 16.06.2019
6270 Rain 23 1018 88 16093 4 155.813 16:57 16.06.2019
6271 Rain 23 1018 88 16093 4 155.813 16:57 16.06.2019
6272 Rain 24 1018 88 3219 1.5 0 16:39 16.06.2019
6273 Rain 24 1018 88 3219 1.5 0 16:20 16.06.2019
6274 Rain 26 1017 69 16093 1.5 30 15:42 16.06.2019
6275 Rain 26 1017 69 16093 1.5 30 15:24 16.06.2019
6276 Rain 26 1016 83 16093 3.12 140.789 14:45 16.06.2019
6277 Rain 27 1017 88 4828 5.7 100 14:23 16.06.2019
6278 Clouds 27 1016 74 16093 2.1 120 13:52 16.06.2019
6279 Clouds 26 1016 74 16093 2.1 120 13:28 16.06.2019
6280 Clouds 26 1016 74 16093 2.6 130 12:58 16.06.2019
6281 Clouds 26 1016 74 16093 2.6 130 12:40 16.06.2019
6282 Clouds 26 1016 74 16093 2.6 130 12:20 16.06.2019
6283 Clouds 26 1016 74 16093 1.5 120 11:46 16.06.2019
6284 Clouds 26 1016 74 16093 1.5 120 11:20 16.06.2019
6285 Clouds 26 1016 74 16093 2.6 130 10:54 16.06.2019
6286 Clouds 26 1016 74 16093 2.6 130 10:36 16.06.2019
6287 Clouds 26 1016 74 16093 2.6 130 10:18 16.06.2019
6288 Clouds 26 1016 74 16093 2.1 140 09:37 16.06.2019
6289 Clouds 26 1016 74 16093 2.1 140 09:19 16.06.2019
6290 Clouds 26 1017 78 16093 2.6 120 08:40 16.06.2019
6291 Clouds 26 1017 78 16093 2.6 120 08:19 16.06.2019
6292 Clouds 26 1018 83 16093 2.1 120 07:44 16.06.2019
6293 Clouds 26 1018 88 16093 2.71 141.106 06:59 16.06.2019
6294 Clouds 27 1018 78 16093 3.6 120 06:39 16.06.2019
6295 Clouds 26 1018 78 16093 2.13 137.018 05:50 16.06.2019
6296 Clouds 26 1018 83 16093 1.5 150 04:55 16.06.2019
6297 Clouds 26 1018 78 16093 1.5 50 03:57 16.06.2019
6298 Clouds 26 1018 78 16093 1.5 50 03:32 16.06.2019
6299 Clouds 26 1018 74 16093 1.5 130 02:33 16.06.2019
6300 Clouds 26 1017 74 16093 2.69 193.628 01:47 16.06.2019
6301 Clouds 26 1017 74 16093 2.69 193.628 01:27 16.06.2019
6302 Clouds 26 1018 74 16093 1.9 167.353 00:40 16.06.2019
6303 Clouds 27 1018 74 16093 2.77 106.073 00:21 16.06.2019
6304 Clouds 27 1018 94 16093 2.77 106.073 23:45 15.06.2019
6305 Rain 27 1018 78 16093 2.77 106.073 23:25 15.06.2019
6306 Rain 27 1018 94 9656 2.6 330 22:50 15.06.2019
6307 Rain 27 1018 94 9656 2.6 330 22:28 15.06.2019
6308 Rain 28 1018 83 4828 3.6 180 21:58 15.06.2019
6309 Rain 29 1018 83 11265 3.6 140 21:40 15.06.2019
6310 Rain 29 1018 83 11265 3.6 140 21:20 15.06.2019
6311 Rain 30 1018 78 16093 2.6 330 20:43 15.06.2019
6312 Rain 30 1018 78 16093 2.6 330 20:22 15.06.2019
6313 Rain 30 1019 74 16093 8.2 350 19:46 15.06.2019
6314 Rain 30 1019 69 16093 1.5 0 19:24 15.06.2019
6315 Rain 30 1019 70 16093 5.1 140 18:42 15.06.2019
6316 Rain 30 1019 59 16093 3.1 0 18:23 15.06.2019
6317 Thunderstorm 30 1019 70 14484 3.1 70 17:44 15.06.2019
6318 Rain 30 1019 58 16093 2.1 50 17:25 15.06.2019
6319 Rain 30 1019 66 16093 4.1 110 16:49 15.06.2019
6320 Rain 30 1019 66 16093 4.1 110 16:20 15.06.2019
6321 Rain 29 1019 88 8047 4.6 120 15:45 15.06.2019
6322 Rain 28 1019 74 16093 1.5 100 15:24 15.06.2019
6323 Rain 27 1019 83 16093 2.1 60 14:54 15.06.2019
6324 Rain 27 1018 78 16093 2.15 78.11 14:36 15.06.2019
6325 Rain 26 1018 78 16093 2.15 78.11 14:18 15.06.2019
6326 Rain 26 1018 83 16093 2.15 78.11 13:42 15.06.2019
6327 Rain 26 1018 83 16093 2.15 78.11 13:19 15.06.2019
6328 Rain 26 1018 83 9656 1.5 190 12:52 15.06.2019
6329 Rain 25 1018 83 16093 1.64 90.385 12:26 15.06.2019
6330 Clouds 25 1017 88 16093 1.83 71.535 11:53 15.06.2019
6331 Clouds 25 1017 88 16093 1.83 71.535 11:34 15.06.2019
6332 Clouds 25 1017 83 16093 3.1 100 10:55 15.06.2019
6333 Clouds 25 1017 83 16093 1.5 40 10:37 15.06.2019
6334 Clouds 25 1017 83 16093 1.5 40 10:18 15.06.2019
6335 Clouds 25 1017 83 16093 1.5 30 09:43 15.06.2019
6336 Clouds 25 1017 83 16093 1.5 30 09:21 15.06.2019
6337 Clouds 25 1018 83 16093 2.61 67.047 08:48 15.06.2019
6338 Clouds 25 1018 83 16093 2.61 67.047 08:29 15.06.2019
6339 Clouds 25 1019 83 16093 2.61 67.047 07:49 15.06.2019
6340 Clouds 25 1019 83 16093 2.61 67.047 07:22 15.06.2019
6341 Clouds 25 1019 83 16093 1.5 20 06:39 15.06.2019
6342 Clouds 25 1019 83 16093 1.5 20 06:39 15.06.2019
6343 Rain 25 1018 94 16093 3.7 77.212 05:56 15.06.2019
6344 Rain 25 1019 83 16093 2.6 100 05:24 15.06.2019
6345 Rain 25 1019 83 16093 2.6 130 04:41 15.06.2019
6346 Rain 25 1019 83 16093 2.6 130 04:41 15.06.2019
6347 Rain 25 1019 83 16093 1.5 60 03:42 15.06.2019
6348 Rain 25 1019 83 16093 2.45 78.594 02:49 15.06.2019
6349 Rain 26 1019 78 16093 2.45 78.594 02:21 15.06.2019
6350 Rain 26 1018 83 16093 2.1 190 01:42 15.06.2019
6351 Rain 26 1018 88 16093 4.6 30 00:47 15.06.2019
6352 Rain 26 1018 83 12874 3.6 80 00:29 15.06.2019
6353 Rain 27 1018 88 6437 5.7 60 23:54 14.06.2019
6354 Rain 27 1019 88 2012 6.7 30 23:25 14.06.2019
6355 Rain 27 1018 83 4023 4.6 170 22:43 14.06.2019
6356 Rain 28 1017 70 16093 3.6 160 22:23 14.06.2019
6357 Rain 28 1017 66 16093 6.2 160 21:59 14.06.2019
6358 Rain 30 1018 46 16093 2.1 0 21:40 14.06.2019
6359 Rain 31 1018 46 16093 2.1 0 21:21 14.06.2019
6360 Clouds 31 1018 46 16093 2.43 351.623 20:42 14.06.2019
6361 Clouds 31 1019 55 16093 2.6 320 20:18 14.06.2019
6362 Clouds 32 1018 66 16093 2.6 0 19:53 14.06.2019
6363 Clouds 32 1018 49 16093 2.6 0 19:23 14.06.2019
6364 Clouds 32 1018 62 16093 4.1 70 18:58 14.06.2019
6365 Clouds 31 1019 62 16093 2.43 351.623 18:40 14.06.2019
6366 Clouds 31 1019 62 16093 2.48 359.584 18:22 14.06.2019
6367 Rain 30 1019 70 16093 2.48 359.584 17:47 14.06.2019
6368 Rain 30 1019 70 16093 2.48 359.584 17:28 14.06.2019
6369 Drizzle 29 1019 74 16093 1.5 330 16:58 14.06.2019
6370 Drizzle 29 1019 74 16093 1.5 330 16:40 14.06.2019
6371 Drizzle 29 1019 74 16093 1.5 330 16:40 14.06.2019
6372 Drizzle 28 1019 74 16093 1.5 330 16:19 14.06.2019
6373 Drizzle 28 1019 74 16093 1.5 330 16:19 14.06.2019
6374 Clouds 27 1019 78 16093 2.48 359.584 15:40 14.06.2019
6375 Clouds 27 1019 78 16093 1.12 89.541 15:22 14.06.2019
6376 Clouds 26 1018 78 16093 1.12 89.541 14:54 14.06.2019
6377 Clouds 26 1018 78 16093 1.12 89.541 14:35 14.06.2019
6378 Clouds 26 1018 78 16093 1.12 89.541 14:35 14.06.2019
6379 Clouds 25 1018 83 16093 1.12 89.541 13:56 14.06.2019
6380 Clouds 25 1018 83 16093 0.99 124.173 13:38 14.06.2019
6381 Clouds 25 1018 83 16093 0.99 124.173 13:19 14.06.2019
6382 Clouds 25 1018 83 16093 0.99 124.173 13:19 14.06.2019
6383 Clouds 25 1017 88 16093 0.99 124.173 12:42 14.06.2019
6384 Clouds 25 1017 88 16093 0.99 124.173 12:42 14.06.2019
6385 Clouds 25 1017 88 16093 1.81 102.029 12:23 14.06.2019
6386 Clouds 25 1017 83 16093 1.5 310 11:47 14.06.2019
6387 Clouds 25 1017 83 16093 1.5 310 11:24 14.06.2019
6388 Rain 25 1017 83 16093 2.1 10 10:58 14.06.2019
6389 Rain 25 1017 83 16093 2.1 10 10:40 14.06.2019
6390 Rain 25 1017 83 16093 2.1 10 10:18 14.06.2019
6391 Rain 25 1018 88 12874 2.6 130 09:40 14.06.2019
6392 Rain 25 1018 88 12874 2.6 130 09:21 14.06.2019
6393 Rain 25 1018 88 12874 2.6 130 09:21 14.06.2019
6394 Drizzle 25 1019 83 16093 0.86 217.057 08:45 14.06.2019
6395 Drizzle 25 1019 83 16093 0.86 217.057 08:19 14.06.2019
6396 Clouds 25 1020 83 16093 2.6 300 07:48 14.06.2019
6397 Clouds 25 1020 83 16093 2.6 300 07:20 14.06.2019
6398 Clouds 26 1020 83 16093 4.1 320 06:33 14.06.2019
6399 Mist 26 1019 78 16093 3.1 360 05:56 14.06.2019
6400 Thunderstorm 25 1019 83 16093 2.6 350 05:19 14.06.2019
6401 Rain 26 1018 74 16093 1.11 123.963 04:39 14.06.2019
6402 Rain 26 1018 83 16093 2.6 10 03:51 14.06.2019
6403 Rain 26 1018 88 16093 2.13 170.493 03:25 14.06.2019
6404 Rain 27 1018 74 16093 2.13 170.493 02:48 14.06.2019
6405 Rain 27 1019 78 11265 4.1 220 02:25 14.06.2019
6406 Rain 29 1017 74 16093 3.6 180 00:57 14.06.2019
6407 Thunderstorm 29 1017 66 16093 1.5 0 00:23 14.06.2019
6408 Rain 29 1017 62 16093 1.5 40 23:57 13.06.2019
6409 Rain 29 1016 79 16093 4.1 120 23:39 13.06.2019
6410 Rain 29 1016 79 16093 4.1 120 23:20 13.06.2019
6411 Rain 29 1017 69 16093 2.6 270 22:39 13.06.2019
6412 Rain 29 1017 69 16093 2.6 270 22:21 13.06.2019
6413 Rain 28 1017 74 16093 2.1 240 21:40 13.06.2019
6414 Rain 29 1018 83 16093 3.1 220 21:20 13.06.2019
6415 Rain 29 1018 83 16093 3.1 220 21:20 13.06.2019
6416 Rain 30 1017 66 16093 3.6 220 20:55 13.06.2019
6417 Rain 29 1017 66 16093 3.6 220 20:36 13.06.2019
6418 Rain 30 1017 66 16093 3.6 220 20:18 13.06.2019
6419 Rain 30 1017 66 16093 3.6 220 20:18 13.06.2019
6420 Rain 29 1018 94 16093 4.1 140 19:41 13.06.2019
6421 Rain 28 1018 94 16093 4.1 140 19:22 13.06.2019
6422 Rain 29 1018 74 16093 4.1 240 18:56 13.06.2019
6423 Rain 31 1019 83 4828 9.3 40 18:38 13.06.2019
6424 Rain 31 1018 58 16093 3.6 170 18:20 13.06.2019
6425 Rain 32 1018 70 2414 2.6 90 17:41 13.06.2019
6426 Rain 32 1018 70 2414 2.6 90 17:20 13.06.2019
6427 Clouds 32 1018 70 16093 4.1 150 16:48 13.06.2019
6428 Clouds 31 1018 62 16093 2.6 0 16:22 13.06.2019
6429 Clouds 30 1017 70 16093 2.6 160 15:57 13.06.2019
6430 Clouds 30 1017 70 16093 2.6 160 15:38 13.06.2019
6431 Clouds 30 1017 70 16093 2.6 160 15:19 13.06.2019
6432 Clouds 29 1017 74 16093 2.6 140 14:45 13.06.2019
6433 Clouds 28 1017 74 16093 2.6 140 14:27 13.06.2019
6434 Clouds 26 1017 83 16093 1.59 239.6 13:46 13.06.2019
6435 Clouds 26 1017 83 16093 1.59 239.6 13:21 13.06.2019
6436 Clear 25 1017 94 16093 2.6 230 12:58 13.06.2019
6437 Clouds 25 1017 83 16093 1.59 239.6 12:38 13.06.2019
6438 Clouds 25 1017 83 16093 1.79 230.596 12:19 13.06.2019
6439 Clear 25 1016 78 16093 1.79 230.596 11:43 13.06.2019
6440 Clear 25 1016 78 16093 1.79 230.596 11:24 13.06.2019
6441 Clouds 25 1016 78 16093 2.1 190 10:47 13.06.2019
6442 Clouds 25 1016 78 16093 2.1 190 10:28 13.06.2019
6443 Clouds 25 1017 78 16093 2.6 210 09:50 13.06.2019
6444 Clouds 25 1017 78 16093 2.6 210 09:25 13.06.2019
6445 Clouds 25 1017 78 16093 2.1 190 08:51 13.06.2019
6446 Clouds 25 1017 78 16093 2.1 190 08:30 13.06.2019
6447 Clouds 25 1018 78 16093 1.7 222.492 07:59 13.06.2019
6448 Clouds 25 1018 78 16093 1.7 222.492 07:31 13.06.2019
6449 Clouds 26 1018 78 16093 1.7 222.492 06:54 13.06.2019
6450 Clouds 26 1018 78 16093 1.7 222.492 06:36 13.06.2019
6451 Clouds 26 1018 78 16093 2.42 229.525 06:18 13.06.2019
6452 Clouds 26 1018 78 16093 1.5 0 05:38 13.06.2019
6453 Clouds 26 1018 78 16093 1.5 0 05:18 13.06.2019
6454 Rain 26 1017 83 16093 2.42 229.525 03:45 13.06.2019
6455 Rain 26 1016 88 16093 2.6 240 01:55 13.06.2019
6456 Rain 28 1016 78 12874 3.8 189.834 00:31 13.06.2019
6457 Thunderstorm 30 1016 66 16093 2.6 0 23:37 12.06.2019
6458 Thunderstorm 30 1015 66 16093 4.6 140 23:18 12.06.2019
6459 Rain 31 1015 62 16093 5.7 130 22:41 12.06.2019
6460 Rain 31 1015 62 16093 5.7 130 22:21 12.06.2019
6461 Thunderstorm 31 1016 55 16093 4.6 140 21:43 12.06.2019
6462 Thunderstorm 32 1016 55 16093 4.6 140 21:25 12.06.2019
6463 Thunderstorm 32 1016 62 16093 4.1 150 20:49 12.06.2019
6464 Clouds 32 1016 55 16093 6.2 160 20:30 12.06.2019
6465 Thunderstorm 32 1016 59 16093 4.6 180 19:57 12.06.2019
6466 Rain 32 1017 59 16093 5.7 150 19:39 12.06.2019
6467 Rain 32 1017 59 16093 5.7 150 19:21 12.06.2019
6468 Clouds 32 1017 62 16093 3.6 180 18:48 12.06.2019
6469 Rain 32 1017 62 16093 3.6 180 18:28 12.06.2019
6470 Clouds 31 1017 62 16093 2.1 200 17:48 12.06.2019
6471 Clouds 31 1017 62 16093 2.1 200 17:23 12.06.2019
6472 Clouds 31 1017 66 16093 2.27 203.328 16:57 12.06.2019
6473 Clouds 31 1017 66 16093 2.6 190 16:37 12.06.2019
6474 Clouds 30 1017 66 16093 2.6 190 16:19 12.06.2019
6475 Clouds 30 1017 70 16093 2.27 203.328 15:46 12.06.2019
6476 Clouds 29 1017 70 16093 1.66 195.319 15:25 12.06.2019
6477 Clouds 28 1016 74 16093 1.5 170 14:36 12.06.2019
6478 Clouds 28 1016 74 16093 1.5 170 14:18 12.06.2019
6479 Clouds 26 1016 74 16093 1.66 195.319 13:41 12.06.2019
6480 Clear 25 1016 94 16093 1.41 214.919 13:20 12.06.2019
6481 Clouds 25 1015 78 16093 1.41 214.919 12:56 12.06.2019
6482 Clouds 25 1015 78 16093 1.41 214.919 12:37 12.06.2019
6483 Clouds 25 1015 94 16093 1.24 238.156 12:18 12.06.2019
6484 -273 0 0 0 0 0 11:43 12.06.2019
6485 Clear 25 1015 94 16093 1.24 238.156 11:43 12.06.2019
6486 Clouds 25 1015 78 16093 1.24 238.156 11:25 12.06.2019
6487 Clouds 25 1015 83 16093 1.24 238.156 10:46 12.06.2019
6488 Clouds 25 1015 83 16093 1.24 238.156 10:23 12.06.2019
6489 Clouds 25 1016 78 16093 1.24 238.156 09:43 12.06.2019
6490 Clouds 25 1016 78 16093 1.36 271.01 09:23 12.06.2019
6491 Clouds 25 1016 78 16093 1.36 271.01 09:23 12.06.2019
6492 Clouds 25 1016 78 16093 1.36 271.01 08:47 12.06.2019
6493 Clouds 25 1016 78 16093 1.36 271.01 08:20 12.06.2019
6494 Clouds 25 1017 78 16093 2.6 140 07:38 12.06.2019
6495 Clear 26 1017 74 16093 1.5 250 06:53 12.06.2019
6496 Clouds 26 1018 74 16093 3.29 242.867 05:27 12.06.2019
6497 Clouds 26 1017 78 16093 3.29 242.867 04:29 12.06.2019
6498 Rain 28 1016 88 16093 3.1 280 01:27 12.06.2019
6499 Thunderstorm 29 1015 62 16093 4.1 110 00:38 12.06.2019
6500 Thunderstorm 30 1016 69 16093 3.6 350 23:47 11.06.2019
6501 Thunderstorm 31 1016 55 16093 3.6 130 23:29 11.06.2019
6502 Thunderstorm 31 1015 55 16093 5.1 160 22:44 11.06.2019
6503 Thunderstorm 32 1015 55 16093 5.1 130 22:19 11.06.2019
6504 Clouds 32 1016 52 16093 4.1 140 21:57 11.06.2019
6505 Clouds 32 1016 52 16093 4.1 140 21:38 11.06.2019
6506 Clouds 32 1016 52 16093 4.1 140 21:20 11.06.2019
6507 Thunderstorm 32 1016 59 16093 5.1 130 20:48 11.06.2019
6508 Thunderstorm 33 1016 55 16093 4.6 120 20:26 11.06.2019
6509 Thunderstorm 33 1016 55 16093 4.6 120 20:26 11.06.2019
6510 Clouds 32 1017 55 16093 4.1 150 19:55 11.06.2019
6511 -273 0 0 0 0 0 19:33 11.06.2019
6512 Clouds 32 1017 59 16093 4.1 180 18:58 11.06.2019
6513 Clouds 32 1017 55 16093 2.6 120 18:23 11.06.2019
6514 Clouds 32 1017 66 16093 2.1 0 17:54 11.06.2019
6515 Clouds 32 1018 62 16093 3.1 130 17:36 11.06.2019
6516 Clear 31 1017 62 16093 1.88 196.577 17:18 11.06.2019
6517 Clouds 31 1018 66 16093 2.1 170 16:41 11.06.2019
6518 Clear 30 1017 62 16093 2.1 140 16:23 11.06.2019
6519 Clouds 29 1018 70 16093 2.6 200 15:43 11.06.2019
6520 Clouds 29 1018 70 16093 2.6 200 15:24 11.06.2019
6521 Clear 28 1017 78 16093 2.1 0 14:54 11.06.2019
6522 Clouds 28 1017 74 16093 1.45 235.245 14:23 11.06.2019
6523 Clear 26 1017 78 16093 1.5 0 13:57 11.06.2019
6524 Clear 25 1017 78 16093 1.5 0 13:37 11.06.2019
6525 Clear 25 1017 78 16093 1.5 0 13:18 11.06.2019
6526 Clear 25 1016 94 16093 1.62 238.817 12:40 11.06.2019
6527 Clear 24 1016 94 16093 1.42 222.778 12:21 11.06.2019
6528 Clouds 24 1016 83 16093 1.42 222.778 11:41 11.06.2019
6529 Clouds 24 1016 83 16093 1.42 222.778 11:21 11.06.2019
6530 Clear 24 1016 88 16093 1.42 222.778 10:50 11.06.2019
6531 Clear 24 1016 88 16093 1.42 222.778 10:26 11.06.2019
6532 Clear 24 1016 88 16093 1.42 222.778 09:51 11.06.2019
6533 Clear 25 1016 88 16093 1.59 264.541 09:25 11.06.2019
6534 Clear 25 1017 78 16093 1.59 264.541 08:49 11.06.2019
6535 Clear 25 1017 78 16093 1.59 264.541 08:30 11.06.2019
6536 Clouds 25 1017 78 16093 1.59 264.541 07:57 11.06.2019
6537 Clouds 25 1017 78 16093 1.59 264.541 07:31 11.06.2019
6538 Clouds 26 1017 78 16093 2.6 190 06:52 11.06.2019
6539 Clouds 26 1018 74 16093 2.8 280.684 05:21 11.06.2019
6540 Clouds 27 1018 69 16093 2.8 280.684 04:27 11.06.2019
6541 Clear 29 1016 70 16093 2.6 180 01:58 11.06.2019
6542 Clouds 30 1016 70 12874 2.6 170 00:49 11.06.2019
6543 Clouds 31 1016 55 16093 3.6 220 00:24 11.06.2019
6544 Clouds 31 1016 55 16093 2.6 0 23:44 10.06.2019
6545 Clouds 31 1016 55 16093 2.6 0 23:20 10.06.2019
6546 Clouds 31 1017 55 16093 1.5 0 22:43 10.06.2019
6547 Clouds 31 1017 55 16093 1.5 0 22:24 10.06.2019
6548 Clouds 31 1017 58 16093 2.6 170 21:55 10.06.2019
6549 Clouds 31 1017 58 16093 2.6 170 21:37 10.06.2019
6550 Clouds 30 1017 58 16093 2.6 170 21:19 10.06.2019
6551 Clouds 29 1018 74 16093 2.96 211.332 20:41 10.06.2019
6552 Clouds 29 1018 74 16093 2.96 211.332 20:21 10.06.2019
6553 Clouds 27 1019 78 16093 2.96 211.332 19:44 10.06.2019
6554 Rain 27 1019 78 16093 2.96 211.332 19:22 10.06.2019
6555 Rain 26 1018 78 16093 2.96 211.332 18:56 10.06.2019
6556 Rain 26 1018 78 16093 2.96 211.332 18:38 10.06.2019
6557 Rain 26 1018 78 16093 3.27 192.679 18:19 10.06.2019
6558 Rain 26 1018 78 16093 3.27 192.679 18:19 10.06.2019
6559 Rain 25 1018 94 16093 3.1 220 17:43 10.06.2019
6560 Rain 26 1019 83 16093 2.6 200 17:24 10.06.2019
6561 Rain 25 1018 100 16093 2.1 360 16:49 10.06.2019
6562 Rain 25 1018 83 16093 2.6 230 16:30 10.06.2019
6563 Thunderstorm 25 1018 78 16093 2.6 120 15:57 10.06.2019
6564 Rain 25 1018 88 16093 2.1 170 15:39 10.06.2019
6565 Rain 25 1018 88 16093 2.1 170 15:21 10.06.2019
6566 Rain 24 1017 88 8047 2.6 120 14:42 10.06.2019
6567 Rain 24 1017 88 8047 2.6 120 14:24 10.06.2019
6568 Rain 24 1017 100 16093 2.83 184.321 13:46 10.06.2019
6569 Rain 24 1017 83 16093 4.6 310 13:28 10.06.2019
6570 Thunderstorm 26 1016 83 16093 1.5 80 12:54 10.06.2019
6571 Rain 25 1016 88 16093 2.6 140 12:31 10.06.2019
6572 Rain 26 1016 83 16093 1.5 190 11:58 10.06.2019
6573 Rain 26 1015 83 16093 2.44 184.215 11:37 10.06.2019
6574 Rain 26 1015 83 16093 2.44 184.215 11:18 10.06.2019
6575 Clouds 26 1015 88 16093 2.44 184.215 10:41 10.06.2019
6576 Mist 26 1015 88 16093 2.44 184.215 10:19 10.06.2019
6577 Mist 26 1016 83 16093 2.44 184.215 09:51 10.06.2019
6578 Mist 26 1016 83 16093 2.44 184.215 09:29 10.06.2019
6579 Clouds 26 1016 88 16093 2.1 110 08:50 10.06.2019
6580 Clouds 25 1016 88 16093 2.1 110 08:27 10.06.2019
6581 Clouds 25 1017 83 16093 2.49 172.649 07:42 10.06.2019
6582 Clouds 25 1017 83 16093 2.66 230.899 04:44 10.06.2019
6583 Clouds 25 1016 83 16093 2.66 230.899 03:29 10.06.2019
6584 Clouds 26 1016 78 16093 2.1 350 01:56 10.06.2019
6585 Clouds 26 1016 78 16093 2.1 350 01:22 10.06.2019
6586 Rain 26 1016 78 16093 2.1 340 00:47 10.06.2019
6587 Rain 27 1016 78 16093 2.1 360 23:49 09.06.2019
6588 Rain 26 1016 78 16093 2.1 360 23:25 09.06.2019
6589 Rain 26 1016 83 16093 2.1 40 22:59 09.06.2019
6590 Rain 25 1016 83 16093 2.1 40 22:39 09.06.2019
6591 Rain 25 1016 83 16093 2.1 40 22:21 09.06.2019
6592 Rain 26 1016 83 16093 1.5 350 21:39 09.06.2019
6593 Rain 28 1016 83 16093 1.5 350 21:21 09.06.2019
6594 Rain 28 1016 83 16093 6.2 240 20:42 09.06.2019
6595 Rain 29 1016 83 16093 6.2 240 20:22 09.06.2019
6596 Rain 29 1015 79 14484 1.5 170 19:46 09.06.2019
6597 Rain 29 1015 66 16093 5.1 130 19:19 09.06.2019
6598 Rain 29 1016 66 16093 4.1 150 18:56 09.06.2019
6599 Thunderstorm 30 1016 66 16093 6.2 170 18:36 09.06.2019
6600 Thunderstorm 30 1016 62 16093 4.6 200 18:18 09.06.2019
6601 Thunderstorm 30 1016 70 16093 4.1 160 17:42 09.06.2019
6602 Thunderstorm 30 1016 74 16093 2.6 180 17:23 09.06.2019
6603 Rain 29 1016 74 16093 4.6 180 16:41 09.06.2019
6604 Rain 29 1016 74 16093 4.6 180 16:21 09.06.2019
6605 Rain 29 1016 83 16093 2.6 160 16:21 09.06.2019
6606 Thunderstorm 29 1016 70 16093 4.1 160 15:51 09.06.2019
6607 Clouds 29 1015 83 16093 4.1 150 15:30 09.06.2019
6608 Rain 28 1015 88 16093 5.1 210 14:59 09.06.2019
6609 Clouds 28 1015 78 16093 3.15 186.517 14:41 09.06.2019
6610 Clouds 27 1015 78 16093 3.15 186.517 14:20 09.06.2019
6611 Clouds 27 1015 83 16093 1.5 150 13:48 09.06.2019
6612 Clouds 27 1015 83 16093 1.5 150 13:18 09.06.2019
6613 Clouds 26 1014 83 16093 1.5 150 12:38 09.06.2019
6614 Clouds 26 1014 83 16093 1.5 150 12:20 09.06.2019
6615 Clouds 26 1014 83 16093 1.8 207.432 11:39 09.06.2019
6616 Clouds 26 1014 83 16093 1.8 207.432 11:39 09.06.2019
6617 Mist 26 1014 83 16093 1.8 207.432 11:19 09.06.2019
6618 Mist 26 1014 88 16093 2.2 205.646 10:43 09.06.2019
6619 Mist 26 1014 88 16093 2.2 205.646 10:22 09.06.2019
6620 Clouds 26 1015 83 16093 2.2 205.646 09:40 09.06.2019
6621 Clouds 26 1015 83 16093 2.1 209.691 09:21 09.06.2019
6622 Clouds 26 1015 83 16093 2.1 170 08:46 09.06.2019
6623 Clouds 26 1015 83 16093 2.1 170 08:28 09.06.2019
6624 Clouds 26 1015 83 16093 2.1 130 07:21 09.06.2019
6625 Clouds 26 1015 83 16093 2.6 0 06:30 09.06.2019
6626 Clouds 25 1015 83 16093 2.6 233.148 04:35 09.06.2019
6627 Rain 26 1013 78 16093 2.11 204.953 01:38 09.06.2019
6628 Rain 26 1013 88 16093 1.5 300 01:20 09.06.2019
6629 Rain 26 1014 83 16093 2.6 280 00:58 09.06.2019
6630 Rain 26 1014 88 14484 2.6 90 23:43 08.06.2019
6631 Rain 26 1014 88 14484 2.6 90 23:24 08.06.2019
6632 Rain 26 1014 88 14484 3.1 130 22:57 08.06.2019
6633 Rain 26 1015 94 8047 2.1 190 22:39 08.06.2019
6634 Rain 25 1015 100 16093 2.6 250 22:19 08.06.2019
6635 Rain 26 1014 88 11265 7.7 250 21:51 08.06.2019
6636 Rain 28 1014 88 4023 4.6 240 21:26 08.06.2019
6637 Rain 27 1014 88 16093 1.5 80 20:49 08.06.2019
6638 Rain 29 1013 88 402 13.4 300 20:26 08.06.2019
663